<?xml version='1.0' encoding='UTF-8'?><gpx version="1.1" creator="JPX - https://github.com/jenetics/jpx" xmlns="http://www.topografix.com/GPX/1/1"><trk><trkseg><trkpt lat="46.0729218" lon="9.3041449"><ele>207.0</ele><time>2026-04-20T06:32:18.364Z</time></trkpt><trkpt lat="46.0730123" lon="9.3041276"><ele>207.0</ele><time>2026-04-20T06:33:54.528Z</time></trkpt><trkpt lat="46.0729628" lon="9.304188"><ele>207.0</ele><time>2026-04-20T06:34:55.522Z</time></trkpt><trkpt lat="46.0729565" lon="9.3040967"><ele>207.0</ele><time>2026-04-20T06:51:02.526Z</time></trkpt><trkpt lat="46.0730009" lon="9.3041917"><ele>207.0</ele><time>2026-04-20T06:51:08.624Z</time></trkpt><trkpt lat="46.0729941" lon="9.3040233"><ele>207.0</ele><time>2026-04-20T06:52:24.402Z</time></trkpt><trkpt lat="46.0729635" lon="9.3039127"><ele>207.0</ele><time>2026-04-20T06:52:28.525Z</time></trkpt><trkpt lat="46.0729095" lon="9.3038478"><ele>207.0</ele><time>2026-04-20T06:52:33.605Z</time></trkpt><trkpt lat="46.0728754" lon="9.303722"><ele>207.0</ele><time>2026-04-20T06:52:36.526Z</time></trkpt><trkpt lat="46.0728857" lon="9.3035747"><ele>207.0</ele><time>2026-04-20T06:52:38.526Z</time></trkpt><trkpt lat="46.0728964" lon="9.3034653"><ele>207.0</ele><time>2026-04-20T06:52:40.634Z</time></trkpt><trkpt lat="46.0729207" lon="9.3033752"><ele>207.0</ele><time>2026-04-20T06:52:42.605Z</time></trkpt><trkpt lat="46.0729435" lon="9.3032721"><ele>207.0</ele><time>2026-04-20T06:52:44.527Z</time></trkpt><trkpt lat="46.0729608" lon="9.3031589"><ele>207.0</ele><time>2026-04-20T06:52:46.515Z</time></trkpt><trkpt lat="46.0729782" lon="9.3030281"><ele>207.0</ele><time>2026-04-20T06:52:48.617Z</time></trkpt><trkpt lat="46.072992" lon="9.3029092"><ele>207.0</ele><time>2026-04-20T06:52:50.526Z</time></trkpt><trkpt lat="46.0730279" lon="9.302814"><ele>207.0</ele><time>2026-04-20T06:52:52.622Z</time></trkpt><trkpt lat="46.0731077" lon="9.302756"><ele>207.0</ele><time>2026-04-20T06:52:55.947Z</time></trkpt><trkpt lat="46.0731949" lon="9.3027595"><ele>207.0</ele><time>2026-04-20T06:52:58.525Z</time></trkpt><trkpt lat="46.0732682" lon="9.3027886"><ele>207.0</ele><time>2026-04-20T06:53:00.526Z</time></trkpt><trkpt lat="46.0732705" lon="9.3029216"><ele>207.0</ele><time>2026-04-20T06:53:01.618Z</time></trkpt><trkpt lat="46.0732815" lon="9.3030442"><ele>207.0</ele><time>2026-04-20T06:53:02.633Z</time></trkpt><trkpt lat="46.0733047" lon="9.3031454"><ele>207.0</ele><time>2026-04-20T06:53:03.604Z</time></trkpt><trkpt lat="46.0733728" lon="9.3032635"><ele>207.0</ele><time>2026-04-20T06:53:05.89Z</time></trkpt><trkpt lat="46.0734141" lon="9.3033408"><ele>207.00000000000003</ele><time>2026-04-20T06:53:07.451Z</time></trkpt><trkpt lat="46.0734518" lon="9.3034555"><ele>207.0</ele><time>2026-04-20T06:53:09.64Z</time></trkpt><trkpt lat="46.0734531" lon="9.3035664"><ele>207.0</ele><time>2026-04-20T06:53:11.526Z</time></trkpt><trkpt lat="46.0734625" lon="9.3036677"><ele>207.0</ele><time>2026-04-20T06:53:13.525Z</time></trkpt><trkpt lat="46.0734894" lon="9.3037516"><ele>207.0</ele><time>2026-04-20T06:53:15.525Z</time></trkpt><trkpt lat="46.0735307" lon="9.3038211"><ele>207.00000000000003</ele><time>2026-04-20T06:53:17.525Z</time></trkpt><trkpt lat="46.0735854" lon="9.303899"><ele>207.0</ele><time>2026-04-20T06:53:19.526Z</time></trkpt><trkpt lat="46.0736384" lon="9.303981"><ele>207.2857142857143</ele><time>2026-04-20T06:53:21.525Z</time></trkpt><trkpt lat="46.0736892" lon="9.3040563"><ele>207.57142857142858</ele><time>2026-04-20T06:53:23.526Z</time></trkpt><trkpt lat="46.0737295" lon="9.3041378"><ele>207.85714285714286</ele><time>2026-04-20T06:53:25.526Z</time></trkpt><trkpt lat="46.073775" lon="9.3042203"><ele>208.14285714285717</ele><time>2026-04-20T06:53:27.526Z</time></trkpt><trkpt lat="46.0738325" lon="9.3043"><ele>208.42857142857142</ele><time>2026-04-20T06:53:29.525Z</time></trkpt><trkpt lat="46.0738762" lon="9.3043663"><ele>208.71428571428572</ele><time>2026-04-20T06:53:31.525Z</time></trkpt><trkpt lat="46.0739186" lon="9.3044495"><ele>209.0</ele><time>2026-04-20T06:53:33.525Z</time></trkpt><trkpt lat="46.0739653" lon="9.3045209"><ele>209.00000000000003</ele><time>2026-04-20T06:53:35.525Z</time></trkpt><trkpt lat="46.0740035" lon="9.3045944"><ele>209.0</ele><time>2026-04-20T06:53:37.525Z</time></trkpt><trkpt lat="46.0740638" lon="9.3046979"><ele>209.0</ele><time>2026-04-20T06:53:40.526Z</time></trkpt><trkpt lat="46.0741113" lon="9.3047974"><ele>209.0</ele><time>2026-04-20T06:53:43.525Z</time></trkpt><trkpt lat="46.0741547" lon="9.3048648"><ele>209.00000000000003</ele><time>2026-04-20T06:53:46.525Z</time></trkpt><trkpt lat="46.074215" lon="9.3049143"><ele>209.0</ele><time>2026-04-20T06:53:49.525Z</time></trkpt><trkpt lat="46.0742888" lon="9.3048714"><ele>209.16666666666669</ele><time>2026-04-20T06:53:51.526Z</time></trkpt><trkpt lat="46.0743473" lon="9.3048314"><ele>209.33333333333334</ele><time>2026-04-20T06:53:53.525Z</time></trkpt><trkpt lat="46.0744257" lon="9.3047792"><ele>209.5</ele><time>2026-04-20T06:53:55.525Z</time></trkpt><trkpt lat="46.0745105" lon="9.304749"><ele>209.66666666666669</ele><time>2026-04-20T06:53:57.526Z</time></trkpt><trkpt lat="46.0745887" lon="9.3047054"><ele>209.83333333333334</ele><time>2026-04-20T06:53:59.526Z</time></trkpt><trkpt lat="46.0746545" lon="9.3046598"><ele>210.0</ele><time>2026-04-20T06:54:01.526Z</time></trkpt><trkpt lat="46.0747359" lon="9.3046205"><ele>209.83333333333334</ele><time>2026-04-20T06:54:03.525Z</time></trkpt><trkpt lat="46.0748184" lon="9.3045849"><ele>209.66666666666669</ele><time>2026-04-20T06:54:05.526Z</time></trkpt><trkpt lat="46.0749019" lon="9.3045546"><ele>209.5</ele><time>2026-04-20T06:54:07.528Z</time></trkpt><trkpt lat="46.0749798" lon="9.3045269"><ele>209.33333333333334</ele><time>2026-04-20T06:54:09.525Z</time></trkpt><trkpt lat="46.0750564" lon="9.3045006"><ele>209.16666666666669</ele><time>2026-04-20T06:54:11.525Z</time></trkpt><trkpt lat="46.0751408" lon="9.3044795"><ele>209.0</ele><time>2026-04-20T06:54:13.527Z</time></trkpt><trkpt lat="46.0752289" lon="9.3044487"><ele>209.00000000000003</ele><time>2026-04-20T06:54:15.526Z</time></trkpt><trkpt lat="46.0753269" lon="9.3044188"><ele>209.0</ele><time>2026-04-20T06:54:17.525Z</time></trkpt><trkpt lat="46.0754003" lon="9.3044127"><ele>209.0</ele><time>2026-04-20T06:54:19.525Z</time></trkpt><trkpt lat="46.0754744" lon="9.3044257"><ele>209.0</ele><time>2026-04-20T06:54:21.525Z</time></trkpt><trkpt lat="46.0755756" lon="9.3044257"><ele>209.00000000000003</ele><time>2026-04-20T06:54:23.527Z</time></trkpt><trkpt lat="46.0756664" lon="9.3044162"><ele>209.0</ele><time>2026-04-20T06:54:25.525Z</time></trkpt><trkpt lat="46.0757652" lon="9.3044066"><ele>209.33333333333334</ele><time>2026-04-20T06:54:27.525Z</time></trkpt><trkpt lat="46.0758575" lon="9.3044019"><ele>209.66666666666669</ele><time>2026-04-20T06:54:29.527Z</time></trkpt><trkpt lat="46.0759388" lon="9.3043976"><ele>210.0</ele><time>2026-04-20T06:54:31.526Z</time></trkpt><trkpt lat="46.076014" lon="9.3044062"><ele>210.33333333333331</ele><time>2026-04-20T06:54:33.527Z</time></trkpt><trkpt lat="46.0760882" lon="9.3044383"><ele>210.66666666666666</ele><time>2026-04-20T06:54:35.526Z</time></trkpt><trkpt lat="46.0761728" lon="9.3044447"><ele>211.0</ele><time>2026-04-20T06:54:37.526Z</time></trkpt><trkpt lat="46.0762718" lon="9.3044653"><ele>211.0</ele><time>2026-04-20T06:54:39.526Z</time></trkpt><trkpt lat="46.0763687" lon="9.3044879"><ele>211.0</ele><time>2026-04-20T06:54:41.526Z</time></trkpt><trkpt lat="46.0764761" lon="9.3045039"><ele>211.0</ele><time>2026-04-20T06:54:43.526Z</time></trkpt><trkpt lat="46.0765733" lon="9.3045193"><ele>211.0</ele><time>2026-04-20T06:54:45.527Z</time></trkpt><trkpt lat="46.076671" lon="9.3045436"><ele>211.0</ele><time>2026-04-20T06:54:47.525Z</time></trkpt><trkpt lat="46.0767606" lon="9.3045577"><ele>210.8</ele><time>2026-04-20T06:54:49.525Z</time></trkpt><trkpt lat="46.0768255" lon="9.3045628"><ele>210.60000000000002</ele><time>2026-04-20T06:54:50.527Z</time></trkpt><trkpt lat="46.0769063" lon="9.3045775"><ele>210.4</ele><time>2026-04-20T06:54:52.526Z</time></trkpt><trkpt lat="46.0769987" lon="9.3045894"><ele>210.2</ele><time>2026-04-20T06:54:54.526Z</time></trkpt><trkpt lat="46.0771007" lon="9.3045924"><ele>210.0</ele><time>2026-04-20T06:54:56.526Z</time></trkpt><trkpt lat="46.0772129" lon="9.3046302"><ele>210.0</ele><time>2026-04-20T06:54:59.526Z</time></trkpt><trkpt lat="46.0773028" lon="9.3046733"><ele>210.0</ele><time>2026-04-20T06:55:01.526Z</time></trkpt><trkpt lat="46.0773881" lon="9.3047051"><ele>210.0</ele><time>2026-04-20T06:55:03.527Z</time></trkpt><trkpt lat="46.0774633" lon="9.3047474"><ele>210.0</ele><time>2026-04-20T06:55:05.526Z</time></trkpt><trkpt lat="46.0775634" lon="9.3047853"><ele>210.0</ele><time>2026-04-20T06:55:07.526Z</time></trkpt><trkpt lat="46.0776557" lon="9.3048522"><ele>210.6</ele><time>2026-04-20T06:55:09.525Z</time></trkpt><trkpt lat="46.0777149" lon="9.3049092"><ele>211.2</ele><time>2026-04-20T06:55:11.526Z</time></trkpt><trkpt lat="46.0778105" lon="9.3049606"><ele>211.8</ele><time>2026-04-20T06:55:13.525Z</time></trkpt><trkpt lat="46.0779017" lon="9.3050106"><ele>212.4</ele><time>2026-04-20T06:55:15.526Z</time></trkpt><trkpt lat="46.078005" lon="9.3050759"><ele>213.0</ele><time>2026-04-20T06:55:17.526Z</time></trkpt><trkpt lat="46.0780908" lon="9.3051661"><ele>213.0</ele><time>2026-04-20T06:55:19.526Z</time></trkpt><trkpt lat="46.0781656" lon="9.3052343"><ele>213.0</ele><time>2026-04-20T06:55:21.525Z</time></trkpt><trkpt lat="46.0782469" lon="9.3053181"><ele>213.0</ele><time>2026-04-20T06:55:23.526Z</time></trkpt><trkpt lat="46.078294" lon="9.3054477"><ele>213.0</ele><time>2026-04-20T06:55:25.527Z</time></trkpt><trkpt lat="46.0783428" lon="9.3055057"><ele>213.0</ele><time>2026-04-20T06:55:26.527Z</time></trkpt><trkpt lat="46.0784163" lon="9.3056063"><ele>213.4</ele><time>2026-04-20T06:55:28.525Z</time></trkpt><trkpt lat="46.0784939" lon="9.3057347"><ele>213.8</ele><time>2026-04-20T06:55:30.525Z</time></trkpt><trkpt lat="46.0785679" lon="9.3058424"><ele>214.2</ele><time>2026-04-20T06:55:32.525Z</time></trkpt><trkpt lat="46.0786336" lon="9.3059512"><ele>214.6</ele><time>2026-04-20T06:55:34.526Z</time></trkpt><trkpt lat="46.0786817" lon="9.306069"><ele>215.0</ele><time>2026-04-20T06:55:36.526Z</time></trkpt><trkpt lat="46.0787318" lon="9.3061714"><ele>215.0</ele><time>2026-04-20T06:55:38.527Z</time></trkpt><trkpt lat="46.0787918" lon="9.3062884"><ele>215.0</ele><time>2026-04-20T06:55:40.526Z</time></trkpt><trkpt lat="46.0788519" lon="9.306395"><ele>215.0</ele><time>2026-04-20T06:55:42.526Z</time></trkpt><trkpt lat="46.0789054" lon="9.3065186"><ele>215.0</ele><time>2026-04-20T06:55:44.526Z</time></trkpt><trkpt lat="46.0789563" lon="9.3066309"><ele>215.0</ele><time>2026-04-20T06:55:46.526Z</time></trkpt><trkpt lat="46.0790084" lon="9.3067486"><ele>214.6</ele><time>2026-04-20T06:55:48.525Z</time></trkpt><trkpt lat="46.079063" lon="9.3068631"><ele>214.2</ele><time>2026-04-20T06:55:50.526Z</time></trkpt><trkpt lat="46.0791087" lon="9.306938"><ele>213.8</ele><time>2026-04-20T06:55:51.526Z</time></trkpt><trkpt lat="46.079172" lon="9.3070551"><ele>213.4</ele><time>2026-04-20T06:55:53.525Z</time></trkpt><trkpt lat="46.0792346" lon="9.3071825"><ele>213.0</ele><time>2026-04-20T06:55:55.525Z</time></trkpt><trkpt lat="46.0793106" lon="9.3073041"><ele>212.75</ele><time>2026-04-20T06:55:57.527Z</time></trkpt><trkpt lat="46.0793732" lon="9.3074092"><ele>212.5</ele><time>2026-04-20T06:55:59.525Z</time></trkpt><trkpt lat="46.0794293" lon="9.3075249"><ele>212.25</ele><time>2026-04-20T06:56:01.525Z</time></trkpt><trkpt lat="46.0795346" lon="9.3077077"><ele>212.0</ele><time>2026-04-20T06:56:04.527Z</time></trkpt><trkpt lat="46.0795991" lon="9.3078203"><ele>212.0</ele><time>2026-04-20T06:56:06.526Z</time></trkpt><trkpt lat="46.0796691" lon="9.3079621"><ele>212.0</ele><time>2026-04-20T06:56:08.525Z</time></trkpt><trkpt lat="46.0797201" lon="9.3080845"><ele>212.0</ele><time>2026-04-20T06:56:10.527Z</time></trkpt><trkpt lat="46.0797737" lon="9.3082007"><ele>212.0</ele><time>2026-04-20T06:56:12.526Z</time></trkpt><trkpt lat="46.0798431" lon="9.3083139"><ele>212.0</ele><time>2026-04-20T06:56:14.527Z</time></trkpt><trkpt lat="46.0799038" lon="9.3084446"><ele>212.16666666666669</ele><time>2026-04-20T06:56:16.526Z</time></trkpt><trkpt lat="46.079943" lon="9.3085169"><ele>212.33333333333334</ele><time>2026-04-20T06:56:17.525Z</time></trkpt><trkpt lat="46.0799764" lon="9.3086242"><ele>212.5</ele><time>2026-04-20T06:56:19.527Z</time></trkpt><trkpt lat="46.0800254" lon="9.3087404"><ele>212.66666666666669</ele><time>2026-04-20T06:56:21.526Z</time></trkpt><trkpt lat="46.0800882" lon="9.3088522"><ele>212.83333333333334</ele><time>2026-04-20T06:56:23.526Z</time></trkpt><trkpt lat="46.0801414" lon="9.3089633"><ele>213.0</ele><time>2026-04-20T06:56:25.526Z</time></trkpt><trkpt lat="46.0801962" lon="9.3090801"><ele>213.2</ele><time>2026-04-20T06:56:27.527Z</time></trkpt><trkpt lat="46.0802417" lon="9.3091881"><ele>213.4</ele><time>2026-04-20T06:56:29.526Z</time></trkpt><trkpt lat="46.0802949" lon="9.309302"><ele>213.59999999999997</ele><time>2026-04-20T06:56:31.525Z</time></trkpt><trkpt lat="46.0803556" lon="9.3094259"><ele>213.79999999999998</ele><time>2026-04-20T06:56:33.525Z</time></trkpt><trkpt lat="46.0804163" lon="9.3095514"><ele>214.0</ele><time>2026-04-20T06:56:35.527Z</time></trkpt><trkpt lat="46.0804739" lon="9.3096774"><ele>213.0</ele><time>2026-04-20T06:56:37.526Z</time></trkpt><trkpt lat="46.0805262" lon="9.3097958"><ele>211.99999999999997</ele><time>2026-04-20T06:56:39.526Z</time></trkpt><trkpt lat="46.080586" lon="9.3099148"><ele>211.0</ele><time>2026-04-20T06:56:41.527Z</time></trkpt><trkpt lat="46.0806471" lon="9.3100208"><ele>210.0</ele><time>2026-04-20T06:56:43.528Z</time></trkpt><trkpt lat="46.0807073" lon="9.3101328"><ele>209.0</ele><time>2026-04-20T06:56:45.525Z</time></trkpt><trkpt lat="46.0807668" lon="9.3102412"><ele>209.0</ele><time>2026-04-20T06:56:47.526Z</time></trkpt><trkpt lat="46.0808331" lon="9.3103449"><ele>209.0</ele><time>2026-04-20T06:56:49.525Z</time></trkpt><trkpt lat="46.0809221" lon="9.3104445"><ele>209.0</ele><time>2026-04-20T06:56:51.527Z</time></trkpt><trkpt lat="46.0809979" lon="9.3105377"><ele>209.0</ele><time>2026-04-20T06:56:53.525Z</time></trkpt><trkpt lat="46.0810827" lon="9.3106255"><ele>209.0</ele><time>2026-04-20T06:56:55.527Z</time></trkpt><trkpt lat="46.0811707" lon="9.310693"><ele>209.79999999999998</ele><time>2026-04-20T06:56:57.526Z</time></trkpt><trkpt lat="46.0812528" lon="9.3107543"><ele>210.6</ele><time>2026-04-20T06:56:59.525Z</time></trkpt><trkpt lat="46.0813389" lon="9.3108013"><ele>211.4</ele><time>2026-04-20T06:57:01.525Z</time></trkpt><trkpt lat="46.0814337" lon="9.3108482"><ele>212.2</ele><time>2026-04-20T06:57:03.526Z</time></trkpt><trkpt lat="46.0815274" lon="9.3108877"><ele>213.0</ele><time>2026-04-20T06:57:05.526Z</time></trkpt><trkpt lat="46.0816292" lon="9.3109047"><ele>213.0</ele><time>2026-04-20T06:57:07.526Z</time></trkpt><trkpt lat="46.0817179" lon="9.3109273"><ele>213.0</ele><time>2026-04-20T06:57:09.527Z</time></trkpt><trkpt lat="46.081806" lon="9.3109382"><ele>213.0</ele><time>2026-04-20T06:57:11.525Z</time></trkpt><trkpt lat="46.0819197" lon="9.310957"><ele>213.0</ele><time>2026-04-20T06:57:13.526Z</time></trkpt><trkpt lat="46.082034" lon="9.3109804"><ele>213.0</ele><time>2026-04-20T06:57:15.526Z</time></trkpt><trkpt lat="46.082143" lon="9.3110021"><ele>213.0</ele><time>2026-04-20T06:57:17.526Z</time></trkpt><trkpt lat="46.0822027" lon="9.3110324"><ele>213.0</ele><time>2026-04-20T06:57:18.526Z</time></trkpt><trkpt lat="46.0822618" lon="9.3110667"><ele>213.0</ele><time>2026-04-20T06:57:19.525Z</time></trkpt><trkpt lat="46.0823209" lon="9.3111091"><ele>213.0</ele><time>2026-04-20T06:57:20.525Z</time></trkpt><trkpt lat="46.0824256" lon="9.3111752"><ele>213.0</ele><time>2026-04-20T06:57:22.526Z</time></trkpt><trkpt lat="46.0825251" lon="9.3112552"><ele>213.0</ele><time>2026-04-20T06:57:24.525Z</time></trkpt><trkpt lat="46.0826359" lon="9.3112939"><ele>211.83333333333334</ele><time>2026-04-20T06:57:26.526Z</time></trkpt><trkpt lat="46.0827545" lon="9.3113096"><ele>210.66666666666669</ele><time>2026-04-20T06:57:28.527Z</time></trkpt><trkpt lat="46.0828219" lon="9.311323"><ele>209.5</ele><time>2026-04-20T06:57:29.527Z</time></trkpt><trkpt lat="46.0828873" lon="9.3113269"><ele>208.33333333333334</ele><time>2026-04-20T06:57:30.525Z</time></trkpt><trkpt lat="46.0829505" lon="9.3113195"><ele>207.16666666666669</ele><time>2026-04-20T06:57:31.525Z</time></trkpt><trkpt lat="46.0830651" lon="9.3112882"><ele>206.0</ele><time>2026-04-20T06:57:33.526Z</time></trkpt><trkpt lat="46.0831796" lon="9.3112656"><ele>207.0</ele><time>2026-04-20T06:57:35.527Z</time></trkpt><trkpt lat="46.0832927" lon="9.3112581"><ele>208.0</ele><time>2026-04-20T06:57:37.527Z</time></trkpt><trkpt lat="46.0834209" lon="9.3112327"><ele>209.0</ele><time>2026-04-20T06:57:39.527Z</time></trkpt><trkpt lat="46.0835414" lon="9.3112113"><ele>210.0</ele><time>2026-04-20T06:57:41.526Z</time></trkpt><trkpt lat="46.0836022" lon="9.3111851"><ele>211.0</ele><time>2026-04-20T06:57:42.526Z</time></trkpt><trkpt lat="46.0836709" lon="9.3111721"><ele>211.0</ele><time>2026-04-20T06:57:43.527Z</time></trkpt><trkpt lat="46.0837807" lon="9.3111385"><ele>211.0</ele><time>2026-04-20T06:57:45.528Z</time></trkpt><trkpt lat="46.0838814" lon="9.3111183"><ele>211.0</ele><time>2026-04-20T06:57:47.527Z</time></trkpt><trkpt lat="46.0839735" lon="9.3110966"><ele>211.0</ele><time>2026-04-20T06:57:49.526Z</time></trkpt><trkpt lat="46.0840714" lon="9.3110765"><ele>211.0</ele><time>2026-04-20T06:57:51.525Z</time></trkpt><trkpt lat="46.0841565" lon="9.3110622"><ele>212.0</ele><time>2026-04-20T06:57:53.527Z</time></trkpt><trkpt lat="46.08422" lon="9.3110553"><ele>213.0</ele><time>2026-04-20T06:57:54.526Z</time></trkpt><trkpt lat="46.0842891" lon="9.3110466"><ele>214.0</ele><time>2026-04-20T06:57:56.527Z</time></trkpt><trkpt lat="46.0843525" lon="9.3110323"><ele>215.0</ele><time>2026-04-20T06:57:58.526Z</time></trkpt><trkpt lat="46.0844235" lon="9.3110017"><ele>216.0</ele><time>2026-04-20T06:58:01.526Z</time></trkpt><trkpt lat="46.0844936" lon="9.3109685"><ele>217.0</ele><time>2026-04-20T06:58:05.526Z</time></trkpt><trkpt lat="46.0845625" lon="9.3109511"><ele>218.0</ele><time>2026-04-20T06:58:47.526Z</time></trkpt><trkpt lat="46.0846261" lon="9.3109237"><ele>218.0</ele><time>2026-04-20T06:58:52.527Z</time></trkpt><trkpt lat="46.0846929" lon="9.3108981"><ele>218.0</ele><time>2026-04-20T06:58:58.526Z</time></trkpt><trkpt lat="46.0847635" lon="9.3108713"><ele>218.0</ele><time>2026-04-20T06:59:06.526Z</time></trkpt><trkpt lat="46.0848273" lon="9.3108326"><ele>218.0</ele><time>2026-04-20T06:59:12.526Z</time></trkpt><trkpt lat="46.084892" lon="9.3107885"><ele>218.0</ele><time>2026-04-20T06:59:17.526Z</time></trkpt><trkpt lat="46.0849566" lon="9.3107418"><ele>218.0</ele><time>2026-04-20T06:59:20.527Z</time></trkpt><trkpt lat="46.0850193" lon="9.3107"><ele>218.0</ele><time>2026-04-20T06:59:22.526Z</time></trkpt><trkpt lat="46.0850959" lon="9.3106551"><ele>218.60000000000002</ele><time>2026-04-20T06:59:24.527Z</time></trkpt><trkpt lat="46.0851771" lon="9.3106023"><ele>219.20000000000002</ele><time>2026-04-20T06:59:26.526Z</time></trkpt><trkpt lat="46.0852608" lon="9.3105562"><ele>219.8</ele><time>2026-04-20T06:59:28.527Z</time></trkpt><trkpt lat="46.0853483" lon="9.3105455"><ele>220.4</ele><time>2026-04-20T06:59:30.527Z</time></trkpt><trkpt lat="46.0854412" lon="9.3105133"><ele>221.0</ele><time>2026-04-20T06:59:32.526Z</time></trkpt><trkpt lat="46.0855253" lon="9.3104655"><ele>218.50000000000003</ele><time>2026-04-20T06:59:34.526Z</time></trkpt><trkpt lat="46.0856086" lon="9.3104172"><ele>216.0</ele><time>2026-04-20T06:59:36.526Z</time></trkpt><trkpt lat="46.0856999" lon="9.3103805"><ele>213.5</ele><time>2026-04-20T06:59:38.527Z</time></trkpt><trkpt lat="46.0857797" lon="9.3103487"><ele>211.0</ele><time>2026-04-20T06:59:40.527Z</time></trkpt><trkpt lat="46.0858671" lon="9.3103243"><ele>208.50000000000003</ele><time>2026-04-20T06:59:42.527Z</time></trkpt><trkpt lat="46.0859498" lon="9.3102924"><ele>206.0</ele><time>2026-04-20T06:59:44.526Z</time></trkpt><trkpt lat="46.0860303" lon="9.3102693"><ele>206.0</ele><time>2026-04-20T06:59:46.526Z</time></trkpt><trkpt lat="46.0861197" lon="9.3102463"><ele>206.0</ele><time>2026-04-20T06:59:48.526Z</time></trkpt><trkpt lat="46.0862113" lon="9.3102171"><ele>206.0</ele><time>2026-04-20T06:59:50.527Z</time></trkpt><trkpt lat="46.0862997" lon="9.3101985"><ele>206.0</ele><time>2026-04-20T06:59:52.527Z</time></trkpt><trkpt lat="46.0863939" lon="9.3101722"><ele>206.0</ele><time>2026-04-20T06:59:54.526Z</time></trkpt><trkpt lat="46.0864828" lon="9.3101418"><ele>206.00000000000003</ele><time>2026-04-20T06:59:56.526Z</time></trkpt><trkpt lat="46.0865673" lon="9.3101156"><ele>206.0</ele><time>2026-04-20T06:59:58.526Z</time></trkpt><trkpt lat="46.0866541" lon="9.3100974"><ele>206.0</ele><time>2026-04-20T07:00:00.526Z</time></trkpt><trkpt lat="46.0867421" lon="9.3100785"><ele>206.0</ele><time>2026-04-20T07:00:02.527Z</time></trkpt><trkpt lat="46.0868306" lon="9.3100741"><ele>206.00000000000003</ele><time>2026-04-20T07:00:04.526Z</time></trkpt><trkpt lat="46.0869132" lon="9.310058"><ele>206.0</ele><time>2026-04-20T07:00:06.527Z</time></trkpt><trkpt lat="46.0869966" lon="9.3100519"><ele>207.16666666666669</ele><time>2026-04-20T07:00:08.527Z</time></trkpt><trkpt lat="46.0870829" lon="9.3100532"><ele>208.33333333333334</ele><time>2026-04-20T07:00:10.526Z</time></trkpt><trkpt lat="46.087172" lon="9.3100735"><ele>209.5</ele><time>2026-04-20T07:00:12.527Z</time></trkpt><trkpt lat="46.0872494" lon="9.3101134"><ele>210.66666666666669</ele><time>2026-04-20T07:00:14.527Z</time></trkpt><trkpt lat="46.0873255" lon="9.3101745"><ele>211.83333333333334</ele><time>2026-04-20T07:00:16.527Z</time></trkpt><trkpt lat="46.0873976" lon="9.3102375"><ele>213.0</ele><time>2026-04-20T07:00:18.526Z</time></trkpt><trkpt lat="46.0874707" lon="9.3103046"><ele>213.0</ele><time>2026-04-20T07:00:20.528Z</time></trkpt><trkpt lat="46.0875402" lon="9.3103705"><ele>213.0</ele><time>2026-04-20T07:00:22.527Z</time></trkpt><trkpt lat="46.0876086" lon="9.3104397"><ele>213.0</ele><time>2026-04-20T07:00:24.527Z</time></trkpt><trkpt lat="46.0876773" lon="9.3105001"><ele>213.0</ele><time>2026-04-20T07:00:26.527Z</time></trkpt><trkpt lat="46.0877524" lon="9.3105661"><ele>213.0</ele><time>2026-04-20T07:00:28.527Z</time></trkpt><trkpt lat="46.087827" lon="9.3106249"><ele>213.0</ele><time>2026-04-20T07:00:30.526Z</time></trkpt><trkpt lat="46.0878959" lon="9.3106862"><ele>215.16666666666666</ele><time>2026-04-20T07:00:32.527Z</time></trkpt><trkpt lat="46.087961" lon="9.3107512"><ele>217.33333333333331</ele><time>2026-04-20T07:00:34.527Z</time></trkpt><trkpt lat="46.0880234" lon="9.3107934"><ele>219.5</ele><time>2026-04-20T07:00:36.527Z</time></trkpt><trkpt lat="46.0880897" lon="9.3108572"><ele>221.66666666666666</ele><time>2026-04-20T07:00:39.527Z</time></trkpt><trkpt lat="46.088159" lon="9.3108963"><ele>223.83333333333331</ele><time>2026-04-20T07:00:41.527Z</time></trkpt><trkpt lat="46.0882277" lon="9.310951"><ele>226.0</ele><time>2026-04-20T07:00:43.526Z</time></trkpt><trkpt lat="46.0883033" lon="9.3110074"><ele>226.0</ele><time>2026-04-20T07:00:45.526Z</time></trkpt><trkpt lat="46.0883646" lon="9.3110356"><ele>226.0</ele><time>2026-04-20T07:00:47.527Z</time></trkpt><trkpt lat="46.0884312" lon="9.311085"><ele>226.0</ele><time>2026-04-20T07:00:49.527Z</time></trkpt><trkpt lat="46.0884944" lon="9.3111299"><ele>226.0</ele><time>2026-04-20T07:00:51.526Z</time></trkpt><trkpt lat="46.0885574" lon="9.3111757"><ele>226.0</ele><time>2026-04-20T07:00:53.527Z</time></trkpt><trkpt lat="46.0886213" lon="9.3112258"><ele>226.0</ele><time>2026-04-20T07:00:55.526Z</time></trkpt><trkpt lat="46.0886932" lon="9.3112906"><ele>226.0</ele><time>2026-04-20T07:00:57.527Z</time></trkpt><trkpt lat="46.0887543" lon="9.3113458"><ele>225.99999999999997</ele><time>2026-04-20T07:00:59.527Z</time></trkpt><trkpt lat="46.0888265" lon="9.3113875"><ele>226.0</ele><time>2026-04-20T07:01:01.527Z</time></trkpt><trkpt lat="46.0888904" lon="9.3114076"><ele>226.0</ele><time>2026-04-20T07:01:03.528Z</time></trkpt><trkpt lat="46.0889812" lon="9.3114352"><ele>226.0</ele><time>2026-04-20T07:01:06.526Z</time></trkpt><trkpt lat="46.0890601" lon="9.311462"><ele>225.99999999999997</ele><time>2026-04-20T07:01:08.527Z</time></trkpt><trkpt lat="46.0891414" lon="9.3114458"><ele>226.0</ele><time>2026-04-20T07:01:11.528Z</time></trkpt><trkpt lat="46.0892139" lon="9.3114385"><ele>226.0</ele><time>2026-04-20T07:01:13.527Z</time></trkpt><trkpt lat="46.0893174" lon="9.3114257"><ele>226.00000000000003</ele><time>2026-04-20T07:01:15.527Z</time></trkpt><trkpt lat="46.0893854" lon="9.3114157"><ele>226.00000000000003</ele><time>2026-04-20T07:01:16.526Z</time></trkpt><trkpt lat="46.0894826" lon="9.3114111"><ele>226.0</ele><time>2026-04-20T07:01:18.526Z</time></trkpt><trkpt lat="46.089574" lon="9.3114071"><ele>226.0</ele><time>2026-04-20T07:01:20.527Z</time></trkpt><trkpt lat="46.089707" lon="9.3113983"><ele>229.0</ele><time>2026-04-20T07:01:22.526Z</time></trkpt><trkpt lat="46.0897858" lon="9.3114515"><ele>232.00000000000003</ele><time>2026-04-20T07:01:24.528Z</time></trkpt><trkpt lat="46.0898734" lon="9.3114868"><ele>235.00000000000003</ele><time>2026-04-20T07:01:26.527Z</time></trkpt><trkpt lat="46.0899918" lon="9.3115206"><ele>238.0</ele><time>2026-04-20T07:01:28.527Z</time></trkpt><trkpt lat="46.0900724" lon="9.3115456"><ele>241.0</ele><time>2026-04-20T07:01:30.526Z</time></trkpt><trkpt lat="46.0901767" lon="9.3115636"><ele>241.20000000000002</ele><time>2026-04-20T07:01:32.526Z</time></trkpt><trkpt lat="46.0902741" lon="9.3116037"><ele>241.40000000000003</ele><time>2026-04-20T07:01:34.526Z</time></trkpt><trkpt lat="46.090355" lon="9.3116242"><ele>241.6</ele><time>2026-04-20T07:01:35.526Z</time></trkpt><trkpt lat="46.0904449" lon="9.3116762"><ele>241.8</ele><time>2026-04-20T07:01:36.527Z</time></trkpt><trkpt lat="46.0905272" lon="9.3117086"><ele>242.0</ele><time>2026-04-20T07:01:37.527Z</time></trkpt><trkpt lat="46.0906801" lon="9.3118359"><ele>242.00000000000003</ele><time>2026-04-20T07:01:39.528Z</time></trkpt><trkpt lat="46.0907509" lon="9.3118973"><ele>242.0</ele><time>2026-04-20T07:01:40.527Z</time></trkpt><trkpt lat="46.0908183" lon="9.3119597"><ele>242.0</ele><time>2026-04-20T07:01:41.528Z</time></trkpt><trkpt lat="46.090881" lon="9.3120241"><ele>242.0</ele><time>2026-04-20T07:01:42.528Z</time></trkpt><trkpt lat="46.0909438" lon="9.3120869"><ele>242.00000000000003</ele><time>2026-04-20T07:01:43.527Z</time></trkpt><trkpt lat="46.0910154" lon="9.3121511"><ele>242.0</ele><time>2026-04-20T07:01:44.527Z</time></trkpt><trkpt lat="46.0910795" lon="9.3122181"><ele>245.28571428571428</ele><time>2026-04-20T07:01:45.528Z</time></trkpt><trkpt lat="46.0911374" lon="9.3122902"><ele>248.57142857142856</ele><time>2026-04-20T07:01:46.529Z</time></trkpt><trkpt lat="46.0912043" lon="9.3123483"><ele>251.85714285714283</ele><time>2026-04-20T07:01:47.528Z</time></trkpt><trkpt lat="46.0912652" lon="9.3124067"><ele>255.1428571428571</ele><time>2026-04-20T07:01:48.526Z</time></trkpt><trkpt lat="46.0913211" lon="9.3124539"><ele>258.42857142857144</ele><time>2026-04-20T07:01:49.528Z</time></trkpt><trkpt lat="46.0913903" lon="9.3124982"><ele>261.71428571428567</ele><time>2026-04-20T07:01:50.526Z</time></trkpt><trkpt lat="46.0914569" lon="9.312529"><ele>265.0</ele><time>2026-04-20T07:01:51.527Z</time></trkpt><trkpt lat="46.091527" lon="9.3125648"><ele>258.5</ele><time>2026-04-20T07:01:52.527Z</time></trkpt><trkpt lat="46.0915922" lon="9.3125867"><ele>252.0</ele><time>2026-04-20T07:01:53.527Z</time></trkpt><trkpt lat="46.0916611" lon="9.312607"><ele>245.5</ele><time>2026-04-20T07:01:54.527Z</time></trkpt><trkpt lat="46.0917327" lon="9.3126306"><ele>239.0</ele><time>2026-04-20T07:01:55.526Z</time></trkpt><trkpt lat="46.0918079" lon="9.3126591"><ele>232.49999999999997</ele><time>2026-04-20T07:01:56.527Z</time></trkpt><trkpt lat="46.0918958" lon="9.3127455"><ele>226.0</ele><time>2026-04-20T07:01:57.527Z</time></trkpt><trkpt lat="46.0919662" lon="9.312788"><ele>225.99999999999997</ele><time>2026-04-20T07:01:58.528Z</time></trkpt><trkpt lat="46.0920324" lon="9.3128377"><ele>226.0</ele><time>2026-04-20T07:01:59.528Z</time></trkpt><trkpt lat="46.0921" lon="9.3128953"><ele>226.0</ele><time>2026-04-20T07:02:00.527Z</time></trkpt><trkpt lat="46.0921666" lon="9.3129554"><ele>226.0</ele><time>2026-04-20T07:02:01.528Z</time></trkpt><trkpt lat="46.0922355" lon="9.3130065"><ele>225.99999999999997</ele><time>2026-04-20T07:02:02.526Z</time></trkpt><trkpt lat="46.0923064" lon="9.3130564"><ele>226.0</ele><time>2026-04-20T07:02:03.526Z</time></trkpt><trkpt lat="46.092376" lon="9.3131056"><ele>226.33333333333331</ele><time>2026-04-20T07:02:04.529Z</time></trkpt><trkpt lat="46.0924474" lon="9.3131567"><ele>226.66666666666666</ele><time>2026-04-20T07:02:05.528Z</time></trkpt><trkpt lat="46.0925234" lon="9.3132094"><ele>227.0</ele><time>2026-04-20T07:02:06.527Z</time></trkpt><trkpt lat="46.0925935" lon="9.3132649"><ele>227.33333333333331</ele><time>2026-04-20T07:02:07.526Z</time></trkpt><trkpt lat="46.0926642" lon="9.3133225"><ele>227.66666666666666</ele><time>2026-04-20T07:02:08.527Z</time></trkpt><trkpt lat="46.0927388" lon="9.3133818"><ele>228.0</ele><time>2026-04-20T07:02:09.527Z</time></trkpt><trkpt lat="46.0928021" lon="9.3134296"><ele>228.0</ele><time>2026-04-20T07:02:10.526Z</time></trkpt><trkpt lat="46.0928789" lon="9.3134842"><ele>228.0</ele><time>2026-04-20T07:02:11.527Z</time></trkpt><trkpt lat="46.09296" lon="9.3135445"><ele>228.0</ele><time>2026-04-20T07:02:12.527Z</time></trkpt><trkpt lat="46.0930365" lon="9.3135927"><ele>228.0</ele><time>2026-04-20T07:02:13.527Z</time></trkpt><trkpt lat="46.0931143" lon="9.3136558"><ele>228.0</ele><time>2026-04-20T07:02:14.527Z</time></trkpt><trkpt lat="46.0931864" lon="9.3137165"><ele>228.0</ele><time>2026-04-20T07:02:15.526Z</time></trkpt><trkpt lat="46.0932599" lon="9.3137758"><ele>228.83333333333334</ele><time>2026-04-20T07:02:16.527Z</time></trkpt><trkpt lat="46.0933339" lon="9.3138386"><ele>229.66666666666669</ele><time>2026-04-20T07:02:17.527Z</time></trkpt><trkpt lat="46.0934058" lon="9.3138987"><ele>230.5</ele><time>2026-04-20T07:02:18.528Z</time></trkpt><trkpt lat="46.0934689" lon="9.3139545"><ele>231.33333333333334</ele><time>2026-04-20T07:02:19.526Z</time></trkpt><trkpt lat="46.0935346" lon="9.3140154"><ele>232.16666666666669</ele><time>2026-04-20T07:02:20.528Z</time></trkpt><trkpt lat="46.0936001" lon="9.3140739"><ele>233.0</ele><time>2026-04-20T07:02:21.528Z</time></trkpt><trkpt lat="46.0936636" lon="9.3141309"><ele>233.0</ele><time>2026-04-20T07:02:22.527Z</time></trkpt><trkpt lat="46.0937959" lon="9.3142535"><ele>233.0</ele><time>2026-04-20T07:02:24.526Z</time></trkpt><trkpt lat="46.0938537" lon="9.3143155"><ele>233.0</ele><time>2026-04-20T07:02:25.526Z</time></trkpt><trkpt lat="46.0939094" lon="9.3143919"><ele>233.0</ele><time>2026-04-20T07:02:26.527Z</time></trkpt><trkpt lat="46.0939626" lon="9.3144688"><ele>233.0</ele><time>2026-04-20T07:02:27.526Z</time></trkpt><trkpt lat="46.094018" lon="9.3145548"><ele>233.00000000000003</ele><time>2026-04-20T07:02:28.528Z</time></trkpt><trkpt lat="46.094075" lon="9.3146349"><ele>233.0</ele><time>2026-04-20T07:02:29.527Z</time></trkpt><trkpt lat="46.0941302" lon="9.3147162"><ele>233.0</ele><time>2026-04-20T07:02:30.526Z</time></trkpt><trkpt lat="46.0941849" lon="9.3147922"><ele>233.0</ele><time>2026-04-20T07:02:31.528Z</time></trkpt><trkpt lat="46.0942414" lon="9.3148791"><ele>233.00000000000003</ele><time>2026-04-20T07:02:32.527Z</time></trkpt><trkpt lat="46.0942894" lon="9.3149618"><ele>233.0</ele><time>2026-04-20T07:02:33.526Z</time></trkpt><trkpt lat="46.0943481" lon="9.3150503"><ele>231.66666666666669</ele><time>2026-04-20T07:02:34.528Z</time></trkpt><trkpt lat="46.0944045" lon="9.3151306"><ele>230.33333333333334</ele><time>2026-04-20T07:02:35.526Z</time></trkpt><trkpt lat="46.0944596" lon="9.3152118"><ele>229.0</ele><time>2026-04-20T07:02:36.527Z</time></trkpt><trkpt lat="46.0945138" lon="9.3152902"><ele>227.66666666666669</ele><time>2026-04-20T07:02:37.527Z</time></trkpt><trkpt lat="46.0945701" lon="9.3153643"><ele>226.33333333333334</ele><time>2026-04-20T07:02:38.529Z</time></trkpt><trkpt lat="46.0946254" lon="9.3154401"><ele>225.0</ele><time>2026-04-20T07:02:39.528Z</time></trkpt><trkpt lat="46.0946813" lon="9.3155158"><ele>224.00000000000003</ele><time>2026-04-20T07:02:40.527Z</time></trkpt><trkpt lat="46.094737" lon="9.3155923"><ele>223.0</ele><time>2026-04-20T07:02:41.526Z</time></trkpt><trkpt lat="46.0947831" lon="9.3156727"><ele>222.0</ele><time>2026-04-20T07:02:42.527Z</time></trkpt><trkpt lat="46.0948335" lon="9.3157496"><ele>221.0</ele><time>2026-04-20T07:02:43.528Z</time></trkpt><trkpt lat="46.0948866" lon="9.3158258"><ele>220.0</ele><time>2026-04-20T07:02:44.526Z</time></trkpt><trkpt lat="46.0949348" lon="9.3159007"><ele>219.0</ele><time>2026-04-20T07:02:45.527Z</time></trkpt><trkpt lat="46.0949864" lon="9.3159744"><ele>218.0</ele><time>2026-04-20T07:02:46.526Z</time></trkpt><trkpt lat="46.095041" lon="9.3160422"><ele>218.00000000000003</ele><time>2026-04-20T07:02:47.528Z</time></trkpt><trkpt lat="46.0950912" lon="9.3161149"><ele>218.0</ele><time>2026-04-20T07:02:48.528Z</time></trkpt><trkpt lat="46.0951435" lon="9.3161714"><ele>218.0</ele><time>2026-04-20T07:02:49.527Z</time></trkpt><trkpt lat="46.0951997" lon="9.3162281"><ele>218.0</ele><time>2026-04-20T07:02:50.528Z</time></trkpt><trkpt lat="46.0953103" lon="9.3163222"><ele>218.00000000000003</ele><time>2026-04-20T07:02:52.526Z</time></trkpt><trkpt lat="46.0953705" lon="9.3163527"><ele>218.0</ele><time>2026-04-20T07:02:53.528Z</time></trkpt><trkpt lat="46.095437" lon="9.3163805"><ele>218.85714285714286</ele><time>2026-04-20T07:02:54.527Z</time></trkpt><trkpt lat="46.0954993" lon="9.316405"><ele>219.71428571428572</ele><time>2026-04-20T07:02:55.527Z</time></trkpt><trkpt lat="46.0955668" lon="9.31643"><ele>220.57142857142856</ele><time>2026-04-20T07:02:56.528Z</time></trkpt><trkpt lat="46.0956296" lon="9.3164568"><ele>221.42857142857144</ele><time>2026-04-20T07:02:57.526Z</time></trkpt><trkpt lat="46.0956928" lon="9.316483"><ele>222.28571428571428</ele><time>2026-04-20T07:02:58.527Z</time></trkpt><trkpt lat="46.0957599" lon="9.3165061"><ele>223.14285714285714</ele><time>2026-04-20T07:02:59.527Z</time></trkpt><trkpt lat="46.095826" lon="9.3165289"><ele>224.0</ele><time>2026-04-20T07:03:00.527Z</time></trkpt><trkpt lat="46.0958908" lon="9.3165534"><ele>224.0</ele><time>2026-04-20T07:03:01.526Z</time></trkpt><trkpt lat="46.0959576" lon="9.316574"><ele>224.0</ele><time>2026-04-20T07:03:02.527Z</time></trkpt><trkpt lat="46.0960275" lon="9.3165963"><ele>224.0</ele><time>2026-04-20T07:03:03.527Z</time></trkpt><trkpt lat="46.0960958" lon="9.3166138"><ele>224.0</ele><time>2026-04-20T07:03:04.527Z</time></trkpt><trkpt lat="46.0961669" lon="9.3166371"><ele>224.0</ele><time>2026-04-20T07:03:05.527Z</time></trkpt><trkpt lat="46.0962328" lon="9.3166537"><ele>224.0</ele><time>2026-04-20T07:03:06.528Z</time></trkpt><trkpt lat="46.0962958" lon="9.3166749"><ele>224.0</ele><time>2026-04-20T07:03:07.528Z</time></trkpt><trkpt lat="46.0963668" lon="9.3166913"><ele>224.00000000000003</ele><time>2026-04-20T07:03:08.526Z</time></trkpt><trkpt lat="46.0964317" lon="9.3167042"><ele>224.0</ele><time>2026-04-20T07:03:09.526Z</time></trkpt><trkpt lat="46.0964948" lon="9.3167109"><ele>224.0</ele><time>2026-04-20T07:03:10.526Z</time></trkpt><trkpt lat="46.0965659" lon="9.3167108"><ele>224.0</ele><time>2026-04-20T07:03:11.526Z</time></trkpt><trkpt lat="46.0966312" lon="9.3167001"><ele>224.00000000000003</ele><time>2026-04-20T07:03:12.527Z</time></trkpt><trkpt lat="46.0967666" lon="9.3166628"><ele>224.0</ele><time>2026-04-20T07:03:14.526Z</time></trkpt><trkpt lat="46.0968372" lon="9.3166436"><ele>223.71428571428572</ele><time>2026-04-20T07:03:15.529Z</time></trkpt><trkpt lat="46.0969047" lon="9.3166266"><ele>223.42857142857144</ele><time>2026-04-20T07:03:16.529Z</time></trkpt><trkpt lat="46.0969734" lon="9.3166103"><ele>223.14285714285714</ele><time>2026-04-20T07:03:17.528Z</time></trkpt><trkpt lat="46.0970432" lon="9.3165972"><ele>222.85714285714286</ele><time>2026-04-20T07:03:18.527Z</time></trkpt><trkpt lat="46.0971115" lon="9.316592"><ele>222.57142857142858</ele><time>2026-04-20T07:03:19.526Z</time></trkpt><trkpt lat="46.0971809" lon="9.3165975"><ele>222.28571428571428</ele><time>2026-04-20T07:03:20.526Z</time></trkpt><trkpt lat="46.0972566" lon="9.3166187"><ele>222.0</ele><time>2026-04-20T07:03:21.529Z</time></trkpt><trkpt lat="46.0973229" lon="9.3166417"><ele>222.0</ele><time>2026-04-20T07:03:22.528Z</time></trkpt><trkpt lat="46.0973922" lon="9.3166714"><ele>222.0</ele><time>2026-04-20T07:03:23.527Z</time></trkpt><trkpt lat="46.097456" lon="9.3167228"><ele>222.0</ele><time>2026-04-20T07:03:24.527Z</time></trkpt><trkpt lat="46.0975235" lon="9.3167679"><ele>222.0</ele><time>2026-04-20T07:03:25.526Z</time></trkpt><trkpt lat="46.0975939" lon="9.3168172"><ele>222.0</ele><time>2026-04-20T07:03:26.526Z</time></trkpt><trkpt lat="46.0976589" lon="9.316869"><ele>222.0</ele><time>2026-04-20T07:03:27.527Z</time></trkpt><trkpt lat="46.0977191" lon="9.3169244"><ele>222.0</ele><time>2026-04-20T07:03:28.528Z</time></trkpt><trkpt lat="46.0977771" lon="9.3169804"><ele>221.16666666666666</ele><time>2026-04-20T07:03:29.528Z</time></trkpt><trkpt lat="46.0978357" lon="9.3170263"><ele>220.33333333333331</ele><time>2026-04-20T07:03:30.528Z</time></trkpt><trkpt lat="46.097945" lon="9.3171074"><ele>219.5</ele><time>2026-04-20T07:03:32.528Z</time></trkpt><trkpt lat="46.098064" lon="9.3171557"><ele>218.66666666666666</ele><time>2026-04-20T07:03:34.528Z</time></trkpt><trkpt lat="46.0981284" lon="9.3171691"><ele>217.83333333333331</ele><time>2026-04-20T07:03:35.527Z</time></trkpt><trkpt lat="46.0981914" lon="9.3171761"><ele>217.0</ele><time>2026-04-20T07:03:36.527Z</time></trkpt><trkpt lat="46.0982562" lon="9.3171785"><ele>215.39999999999998</ele><time>2026-04-20T07:03:37.526Z</time></trkpt><trkpt lat="46.0983748" lon="9.3171787"><ele>213.79999999999998</ele><time>2026-04-20T07:03:39.527Z</time></trkpt><trkpt lat="46.0984871" lon="9.3171835"><ele>212.2</ele><time>2026-04-20T07:03:41.527Z</time></trkpt><trkpt lat="46.0985612" lon="9.3171778"><ele>210.6</ele><time>2026-04-20T07:03:42.528Z</time></trkpt><trkpt lat="46.0986763" lon="9.3171749"><ele>209.0</ele><time>2026-04-20T07:03:44.528Z</time></trkpt><trkpt lat="46.0987502" lon="9.3171673"><ele>209.0</ele><time>2026-04-20T07:03:45.528Z</time></trkpt><trkpt lat="46.0988686" lon="9.317169"><ele>209.0</ele><time>2026-04-20T07:03:47.528Z</time></trkpt><trkpt lat="46.0989978" lon="9.3171747"><ele>209.0</ele><time>2026-04-20T07:03:49.526Z</time></trkpt><trkpt lat="46.0990659" lon="9.3171763"><ele>209.0</ele><time>2026-04-20T07:03:50.529Z</time></trkpt><trkpt lat="46.0991825" lon="9.3171754"><ele>209.0</ele><time>2026-04-20T07:03:52.528Z</time></trkpt><trkpt lat="46.0992954" lon="9.3171884"><ele>208.39999999999998</ele><time>2026-04-20T07:03:54.527Z</time></trkpt><trkpt lat="46.0994143" lon="9.3171902"><ele>207.8</ele><time>2026-04-20T07:03:56.526Z</time></trkpt><trkpt lat="46.0995272" lon="9.317195"><ele>207.2</ele><time>2026-04-20T07:03:58.527Z</time></trkpt><trkpt lat="46.0996474" lon="9.3172067"><ele>206.60000000000002</ele><time>2026-04-20T07:04:00.526Z</time></trkpt><trkpt lat="46.0997193" lon="9.3171925"><ele>206.0</ele><time>2026-04-20T07:04:02.528Z</time></trkpt><trkpt lat="46.0998066" lon="9.3172121"><ele>205.99999999999997</ele><time>2026-04-20T07:04:04.527Z</time></trkpt><trkpt lat="46.0998751" lon="9.3172295"><ele>206.0</ele><time>2026-04-20T07:04:06.527Z</time></trkpt><trkpt lat="46.0999495" lon="9.3172583"><ele>206.0</ele><time>2026-04-20T07:04:07.527Z</time></trkpt><trkpt lat="46.100015" lon="9.3172798"><ele>206.0</ele><time>2026-04-20T07:04:08.527Z</time></trkpt><trkpt lat="46.1000783" lon="9.3173079"><ele>206.0</ele><time>2026-04-20T07:04:09.527Z</time></trkpt><trkpt lat="46.1001383" lon="9.3173432"><ele>205.99999999999997</ele><time>2026-04-20T07:04:10.527Z</time></trkpt><trkpt lat="46.1002019" lon="9.3173742"><ele>206.0</ele><time>2026-04-20T07:04:11.528Z</time></trkpt><trkpt lat="46.1002662" lon="9.3174009"><ele>210.0</ele><time>2026-04-20T07:04:12.528Z</time></trkpt><trkpt lat="46.1003981" lon="9.3174847"><ele>214.0</ele><time>2026-04-20T07:04:14.528Z</time></trkpt><trkpt lat="46.1004568" lon="9.3175264"><ele>218.00000000000003</ele><time>2026-04-20T07:04:15.528Z</time></trkpt><trkpt lat="46.1005165" lon="9.3175715"><ele>222.0</ele><time>2026-04-20T07:04:16.528Z</time></trkpt><trkpt lat="46.1005829" lon="9.3176258"><ele>226.0</ele><time>2026-04-20T07:04:17.527Z</time></trkpt><trkpt lat="46.1007219" lon="9.3177082"><ele>224.66666666666666</ele><time>2026-04-20T07:04:19.527Z</time></trkpt><trkpt lat="46.1008358" lon="9.3177862"><ele>223.33333333333331</ele><time>2026-04-20T07:04:21.527Z</time></trkpt><trkpt lat="46.1009028" lon="9.3178266"><ele>222.0</ele><time>2026-04-20T07:04:22.527Z</time></trkpt><trkpt lat="46.1010012" lon="9.3179057"><ele>220.66666666666669</ele><time>2026-04-20T07:04:24.527Z</time></trkpt><trkpt lat="46.1010639" lon="9.3179432"><ele>219.33333333333334</ele><time>2026-04-20T07:04:25.529Z</time></trkpt><trkpt lat="46.1011177" lon="9.3179943"><ele>218.0</ele><time>2026-04-20T07:04:26.528Z</time></trkpt><trkpt lat="46.1011764" lon="9.3180333"><ele>218.16666666666669</ele><time>2026-04-20T07:04:27.527Z</time></trkpt><trkpt lat="46.1012378" lon="9.3180689"><ele>218.33333333333334</ele><time>2026-04-20T07:04:28.527Z</time></trkpt><trkpt lat="46.1013462" lon="9.3181485"><ele>218.5</ele><time>2026-04-20T07:04:30.526Z</time></trkpt><trkpt lat="46.1014124" lon="9.3181974"><ele>218.66666666666669</ele><time>2026-04-20T07:04:31.527Z</time></trkpt><trkpt lat="46.1015176" lon="9.3182804"><ele>218.83333333333334</ele><time>2026-04-20T07:04:33.528Z</time></trkpt><trkpt lat="46.1015776" lon="9.3183172"><ele>219.0</ele><time>2026-04-20T07:04:34.527Z</time></trkpt><trkpt lat="46.1016346" lon="9.3183583"><ele>219.0</ele><time>2026-04-20T07:04:35.528Z</time></trkpt><trkpt lat="46.1017353" lon="9.3184425"><ele>219.0</ele><time>2026-04-20T07:04:37.527Z</time></trkpt><trkpt lat="46.1017864" lon="9.3185027"><ele>219.0</ele><time>2026-04-20T07:04:38.527Z</time></trkpt><trkpt lat="46.1018397" lon="9.3185666"><ele>219.0</ele><time>2026-04-20T07:04:39.527Z</time></trkpt><trkpt lat="46.1018867" lon="9.3186321"><ele>219.0</ele><time>2026-04-20T07:04:40.527Z</time></trkpt><trkpt lat="46.1019285" lon="9.3187197"><ele>219.0</ele><time>2026-04-20T07:04:41.528Z</time></trkpt><trkpt lat="46.1019746" lon="9.3187855"><ele>219.0</ele><time>2026-04-20T07:04:42.528Z</time></trkpt><trkpt lat="46.1020266" lon="9.3188655"><ele>219.0</ele><time>2026-04-20T07:04:43.527Z</time></trkpt><trkpt lat="46.1020745" lon="9.3189341"><ele>219.0</ele><time>2026-04-20T07:04:44.527Z</time></trkpt><trkpt lat="46.1021274" lon="9.3189915"><ele>219.0</ele><time>2026-04-20T07:04:45.526Z</time></trkpt><trkpt lat="46.102211" lon="9.3191138"><ele>219.0</ele><time>2026-04-20T07:04:47.527Z</time></trkpt><trkpt lat="46.1022933" lon="9.3192271"><ele>219.0</ele><time>2026-04-20T07:04:49.528Z</time></trkpt><trkpt lat="46.102354" lon="9.3192843"><ele>219.0</ele><time>2026-04-20T07:04:50.529Z</time></trkpt><trkpt lat="46.1024232" lon="9.3193578"><ele>219.0</ele><time>2026-04-20T07:04:51.527Z</time></trkpt><trkpt lat="46.1024789" lon="9.31942"><ele>219.0</ele><time>2026-04-20T07:04:52.528Z</time></trkpt><trkpt lat="46.1025414" lon="9.3194805"><ele>219.0</ele><time>2026-04-20T07:04:53.527Z</time></trkpt><trkpt lat="46.1026473" lon="9.3195448"><ele>219.0</ele><time>2026-04-20T07:04:55.528Z</time></trkpt><trkpt lat="46.1027061" lon="9.3195865"><ele>219.0</ele><time>2026-04-20T07:04:56.528Z</time></trkpt><trkpt lat="46.1027624" lon="9.3196548"><ele>219.0</ele><time>2026-04-20T07:04:57.529Z</time></trkpt><trkpt lat="46.1028237" lon="9.3197008"><ele>219.0</ele><time>2026-04-20T07:04:58.526Z</time></trkpt><trkpt lat="46.1029458" lon="9.3197873"><ele>219.0</ele><time>2026-04-20T07:05:00.527Z</time></trkpt><trkpt lat="46.1030052" lon="9.3198343"><ele>219.0</ele><time>2026-04-20T07:05:01.528Z</time></trkpt><trkpt lat="46.1030642" lon="9.3198894"><ele>219.0</ele><time>2026-04-20T07:05:02.528Z</time></trkpt><trkpt lat="46.1031227" lon="9.3199489"><ele>219.0</ele><time>2026-04-20T07:05:03.527Z</time></trkpt><trkpt lat="46.1032392" lon="9.3200414"><ele>217.79999999999998</ele><time>2026-04-20T07:05:05.529Z</time></trkpt><trkpt lat="46.1033457" lon="9.3201404"><ele>216.59999999999997</ele><time>2026-04-20T07:05:07.528Z</time></trkpt><trkpt lat="46.1034041" lon="9.3201974"><ele>215.4</ele><time>2026-04-20T07:05:08.527Z</time></trkpt><trkpt lat="46.1034641" lon="9.3202492"><ele>214.2</ele><time>2026-04-20T07:05:09.528Z</time></trkpt><trkpt lat="46.1035644" lon="9.3203468"><ele>213.0</ele><time>2026-04-20T07:05:11.528Z</time></trkpt><trkpt lat="46.1036164" lon="9.320404"><ele>213.0</ele><time>2026-04-20T07:05:12.528Z</time></trkpt><trkpt lat="46.1036702" lon="9.3204521"><ele>213.0</ele><time>2026-04-20T07:05:13.527Z</time></trkpt><trkpt lat="46.1037248" lon="9.32051"><ele>213.0</ele><time>2026-04-20T07:05:14.527Z</time></trkpt><trkpt lat="46.1037838" lon="9.3205643"><ele>213.0</ele><time>2026-04-20T07:05:15.528Z</time></trkpt><trkpt lat="46.1038926" lon="9.3206664"><ele>213.0</ele><time>2026-04-20T07:05:17.528Z</time></trkpt><trkpt lat="46.1039468" lon="9.3207155"><ele>213.0</ele><time>2026-04-20T07:05:18.527Z</time></trkpt><trkpt lat="46.1040583" lon="9.3208192"><ele>214.33333333333334</ele><time>2026-04-20T07:05:20.527Z</time></trkpt><trkpt lat="46.1041199" lon="9.320858"><ele>215.66666666666669</ele><time>2026-04-20T07:05:21.528Z</time></trkpt><trkpt lat="46.1041751" lon="9.3209067"><ele>217.0</ele><time>2026-04-20T07:05:22.528Z</time></trkpt><trkpt lat="46.1042324" lon="9.3209526"><ele>218.33333333333334</ele><time>2026-04-20T07:05:23.527Z</time></trkpt><trkpt lat="46.104337" lon="9.3210181"><ele>219.66666666666669</ele><time>2026-04-20T07:05:25.527Z</time></trkpt><trkpt lat="46.1044442" lon="9.3210684"><ele>221.0</ele><time>2026-04-20T07:05:27.528Z</time></trkpt><trkpt lat="46.1045069" lon="9.3210944"><ele>221.0</ele><time>2026-04-20T07:05:28.527Z</time></trkpt><trkpt lat="46.1046147" lon="9.3211433"><ele>221.0</ele><time>2026-04-20T07:05:30.528Z</time></trkpt><trkpt lat="46.1047296" lon="9.3211867"><ele>221.0</ele><time>2026-04-20T07:05:32.527Z</time></trkpt><trkpt lat="46.1048439" lon="9.3212118"><ele>221.0</ele><time>2026-04-20T07:05:34.527Z</time></trkpt><trkpt lat="46.1049451" lon="9.3212391"><ele>220.8</ele><time>2026-04-20T07:05:36.528Z</time></trkpt><trkpt lat="46.1050514" lon="9.321237"><ele>220.60000000000002</ele><time>2026-04-20T07:05:38.527Z</time></trkpt><trkpt lat="46.1051649" lon="9.3212162"><ele>220.4</ele><time>2026-04-20T07:05:40.529Z</time></trkpt><trkpt lat="46.1052678" lon="9.3211857"><ele>220.2</ele><time>2026-04-20T07:05:42.528Z</time></trkpt><trkpt lat="46.1053726" lon="9.3211449"><ele>220.0</ele><time>2026-04-20T07:05:44.528Z</time></trkpt><trkpt lat="46.1054757" lon="9.3211058"><ele>220.0</ele><time>2026-04-20T07:05:46.528Z</time></trkpt><trkpt lat="46.1055766" lon="9.3210549"><ele>220.0</ele><time>2026-04-20T07:05:48.528Z</time></trkpt><trkpt lat="46.1056798" lon="9.3210179"><ele>220.0</ele><time>2026-04-20T07:05:50.527Z</time></trkpt><trkpt lat="46.1057797" lon="9.3209861"><ele>220.0</ele><time>2026-04-20T07:05:52.528Z</time></trkpt><trkpt lat="46.1058801" lon="9.3209523"><ele>220.0</ele><time>2026-04-20T07:05:54.528Z</time></trkpt><trkpt lat="46.1059745" lon="9.3209137"><ele>219.0</ele><time>2026-04-20T07:05:56.528Z</time></trkpt><trkpt lat="46.1060645" lon="9.3208681"><ele>218.0</ele><time>2026-04-20T07:05:58.528Z</time></trkpt><trkpt lat="46.1061663" lon="9.3208356"><ele>217.0</ele><time>2026-04-20T07:06:00.527Z</time></trkpt><trkpt lat="46.1062596" lon="9.3207963"><ele>216.0</ele><time>2026-04-20T07:06:02.528Z</time></trkpt><trkpt lat="46.1063454" lon="9.3207477"><ele>215.0</ele><time>2026-04-20T07:06:04.527Z</time></trkpt><trkpt lat="46.1064381" lon="9.3207081"><ele>215.0</ele><time>2026-04-20T07:06:06.529Z</time></trkpt><trkpt lat="46.1065241" lon="9.3206657"><ele>215.0</ele><time>2026-04-20T07:06:08.53Z</time></trkpt><trkpt lat="46.1066078" lon="9.320586"><ele>215.0</ele><time>2026-04-20T07:06:10.528Z</time></trkpt><trkpt lat="46.1066934" lon="9.3205201"><ele>215.0</ele><time>2026-04-20T07:06:12.527Z</time></trkpt><trkpt lat="46.106769" lon="9.3204316"><ele>215.0</ele><time>2026-04-20T07:06:14.527Z</time></trkpt><trkpt lat="46.1068516" lon="9.3203507"><ele>214.83333333333334</ele><time>2026-04-20T07:06:16.529Z</time></trkpt><trkpt lat="46.1069238" lon="9.3202965"><ele>214.66666666666669</ele><time>2026-04-20T07:06:18.527Z</time></trkpt><trkpt lat="46.106997" lon="9.3202306"><ele>214.5</ele><time>2026-04-20T07:06:20.528Z</time></trkpt><trkpt lat="46.1070799" lon="9.3201824"><ele>214.33333333333331</ele><time>2026-04-20T07:06:22.527Z</time></trkpt><trkpt lat="46.1071617" lon="9.3201518"><ele>214.16666666666666</ele><time>2026-04-20T07:06:24.528Z</time></trkpt><trkpt lat="46.1072604" lon="9.3201364"><ele>214.0</ele><time>2026-04-20T07:06:27.443Z</time></trkpt><trkpt lat="46.1073214" lon="9.3200975"><ele>213.99999999999997</ele><time>2026-04-20T07:06:28.529Z</time></trkpt><trkpt lat="46.1073809" lon="9.3200563"><ele>214.0</ele><time>2026-04-20T07:06:29.652Z</time></trkpt><trkpt lat="46.1074517" lon="9.3200472"><ele>214.0</ele><time>2026-04-20T07:06:31.528Z</time></trkpt><trkpt lat="46.107573" lon="9.3200083"><ele>214.0</ele><time>2026-04-20T07:06:34.381Z</time></trkpt><trkpt lat="46.1076587" lon="9.3199741"><ele>213.99999999999997</ele><time>2026-04-20T07:06:36.527Z</time></trkpt><trkpt lat="46.1077416" lon="9.3199445"><ele>214.0</ele><time>2026-04-20T07:06:38.604Z</time></trkpt><trkpt lat="46.1078268" lon="9.3199083"><ele>216.6</ele><time>2026-04-20T07:06:40.638Z</time></trkpt><trkpt lat="46.1079309" lon="9.3198788"><ele>219.2</ele><time>2026-04-20T07:06:43.099Z</time></trkpt><trkpt lat="46.1080307" lon="9.3198397"><ele>221.79999999999998</ele><time>2026-04-20T07:06:45.529Z</time></trkpt><trkpt lat="46.1081128" lon="9.3198127"><ele>224.39999999999998</ele><time>2026-04-20T07:06:47.528Z</time></trkpt><trkpt lat="46.1081972" lon="9.3198021"><ele>227.0</ele><time>2026-04-20T07:06:49.527Z</time></trkpt><trkpt lat="46.1082866" lon="9.3197944"><ele>229.00000000000003</ele><time>2026-04-20T07:06:51.631Z</time></trkpt><trkpt lat="46.1083691" lon="9.3197763"><ele>231.0</ele><time>2026-04-20T07:06:53.624Z</time></trkpt><trkpt lat="46.1084553" lon="9.3197476"><ele>233.0</ele><time>2026-04-20T07:06:55.529Z</time></trkpt><trkpt lat="46.108543" lon="9.3197213"><ele>235.0</ele><time>2026-04-20T07:06:57.527Z</time></trkpt><trkpt lat="46.1086208" lon="9.3197195"><ele>237.00000000000003</ele><time>2026-04-20T07:06:59.528Z</time></trkpt><trkpt lat="46.1087037" lon="9.3197151"><ele>239.0</ele><time>2026-04-20T07:07:01.527Z</time></trkpt><trkpt lat="46.1087806" lon="9.3196978"><ele>237.00000000000003</ele><time>2026-04-20T07:07:03.528Z</time></trkpt><trkpt lat="46.1088525" lon="9.3196777"><ele>235.0</ele><time>2026-04-20T07:07:05.528Z</time></trkpt><trkpt lat="46.1089479" lon="9.3196643"><ele>233.0</ele><time>2026-04-20T07:07:07.609Z</time></trkpt><trkpt lat="46.1090245" lon="9.3196331"><ele>231.0</ele><time>2026-04-20T07:07:09.529Z</time></trkpt><trkpt lat="46.1091087" lon="9.3195923"><ele>229.00000000000003</ele><time>2026-04-20T07:07:11.528Z</time></trkpt><trkpt lat="46.1091871" lon="9.3195249"><ele>227.0</ele><time>2026-04-20T07:07:13.529Z</time></trkpt><trkpt lat="46.1092653" lon="9.3194408"><ele>227.00000000000003</ele><time>2026-04-20T07:07:15.527Z</time></trkpt><trkpt lat="46.1093378" lon="9.3193595"><ele>227.0</ele><time>2026-04-20T07:07:17.528Z</time></trkpt><trkpt lat="46.1094071" lon="9.3192783"><ele>227.0</ele><time>2026-04-20T07:07:19.528Z</time></trkpt><trkpt lat="46.1094753" lon="9.3192032"><ele>227.0</ele><time>2026-04-20T07:07:21.527Z</time></trkpt><trkpt lat="46.1095395" lon="9.319136"><ele>227.00000000000003</ele><time>2026-04-20T07:07:23.528Z</time></trkpt><trkpt lat="46.1096061" lon="9.3190586"><ele>227.0</ele><time>2026-04-20T07:07:25.528Z</time></trkpt><trkpt lat="46.1096685" lon="9.3189742"><ele>226.33333333333334</ele><time>2026-04-20T07:07:27.528Z</time></trkpt><trkpt lat="46.1097336" lon="9.318886"><ele>225.66666666666669</ele><time>2026-04-20T07:07:29.527Z</time></trkpt><trkpt lat="46.1098047" lon="9.3188036"><ele>225.0</ele><time>2026-04-20T07:07:31.529Z</time></trkpt><trkpt lat="46.109873" lon="9.3187229"><ele>224.33333333333331</ele><time>2026-04-20T07:07:33.529Z</time></trkpt><trkpt lat="46.1099372" lon="9.3186371"><ele>223.66666666666666</ele><time>2026-04-20T07:07:35.528Z</time></trkpt><trkpt lat="46.1100066" lon="9.3185568"><ele>223.0</ele><time>2026-04-20T07:07:37.529Z</time></trkpt><trkpt lat="46.1100801" lon="9.3184927"><ele>222.99999999999997</ele><time>2026-04-20T07:07:39.529Z</time></trkpt><trkpt lat="46.110156" lon="9.3184422"><ele>223.0</ele><time>2026-04-20T07:07:41.528Z</time></trkpt><trkpt lat="46.1102367" lon="9.3184066"><ele>223.0</ele><time>2026-04-20T07:07:43.529Z</time></trkpt><trkpt lat="46.1103214" lon="9.3183854"><ele>223.0</ele><time>2026-04-20T07:07:45.528Z</time></trkpt><trkpt lat="46.1104007" lon="9.3183757"><ele>222.99999999999997</ele><time>2026-04-20T07:07:47.527Z</time></trkpt><trkpt lat="46.110469" lon="9.3183587"><ele>223.0</ele><time>2026-04-20T07:07:49.527Z</time></trkpt><trkpt lat="46.1105446" lon="9.3183439"><ele>222.99999999999997</ele><time>2026-04-20T07:07:51.527Z</time></trkpt><trkpt lat="46.1106176" lon="9.3183254"><ele>223.0</ele><time>2026-04-20T07:07:53.528Z</time></trkpt><trkpt lat="46.110689" lon="9.3182939"><ele>223.0</ele><time>2026-04-20T07:07:55.528Z</time></trkpt><trkpt lat="46.1107593" lon="9.3182489"><ele>223.0</ele><time>2026-04-20T07:07:57.527Z</time></trkpt><trkpt lat="46.1108241" lon="9.3181771"><ele>222.99999999999997</ele><time>2026-04-20T07:07:59.529Z</time></trkpt><trkpt lat="46.1108804" lon="9.3180966"><ele>223.0</ele><time>2026-04-20T07:08:01.528Z</time></trkpt><trkpt lat="46.1109408" lon="9.3180215"><ele>224.66666666666666</ele><time>2026-04-20T07:08:03.529Z</time></trkpt><trkpt lat="46.1110062" lon="9.3179509"><ele>226.33333333333331</ele><time>2026-04-20T07:08:05.528Z</time></trkpt><trkpt lat="46.1110666" lon="9.3178766"><ele>228.0</ele><time>2026-04-20T07:08:07.527Z</time></trkpt><trkpt lat="46.111127" lon="9.3177981"><ele>229.66666666666669</ele><time>2026-04-20T07:08:09.528Z</time></trkpt><trkpt lat="46.1111883" lon="9.3177177"><ele>231.33333333333334</ele><time>2026-04-20T07:08:11.528Z</time></trkpt><trkpt lat="46.1112524" lon="9.3176389"><ele>233.0</ele><time>2026-04-20T07:08:13.529Z</time></trkpt><trkpt lat="46.1113133" lon="9.3175598"><ele>233.00000000000003</ele><time>2026-04-20T07:08:15.528Z</time></trkpt><trkpt lat="46.1113713" lon="9.3174872"><ele>233.0</ele><time>2026-04-20T07:08:17.527Z</time></trkpt><trkpt lat="46.1114317" lon="9.3174185"><ele>233.0</ele><time>2026-04-20T07:08:19.528Z</time></trkpt><trkpt lat="46.1114927" lon="9.3173479"><ele>233.0</ele><time>2026-04-20T07:08:21.528Z</time></trkpt><trkpt lat="46.1115543" lon="9.3172799"><ele>233.00000000000003</ele><time>2026-04-20T07:08:23.529Z</time></trkpt><trkpt lat="46.1116136" lon="9.3172097"><ele>233.0</ele><time>2026-04-20T07:08:25.528Z</time></trkpt><trkpt lat="46.1116768" lon="9.3171381"><ele>233.66666666666669</ele><time>2026-04-20T07:08:27.527Z</time></trkpt><trkpt lat="46.1117388" lon="9.3170765"><ele>234.33333333333334</ele><time>2026-04-20T07:08:29.528Z</time></trkpt><trkpt lat="46.1118036" lon="9.3170191"><ele>235.0</ele><time>2026-04-20T07:08:31.528Z</time></trkpt><trkpt lat="46.1118741" lon="9.3169714"><ele>235.66666666666669</ele><time>2026-04-20T07:08:33.529Z</time></trkpt><trkpt lat="46.1119464" lon="9.3169293"><ele>236.33333333333334</ele><time>2026-04-20T07:08:35.528Z</time></trkpt><trkpt lat="46.1120195" lon="9.3168929"><ele>237.0</ele><time>2026-04-20T07:08:37.528Z</time></trkpt><trkpt lat="46.1120926" lon="9.3168672"><ele>236.99999999999997</ele><time>2026-04-20T07:08:39.527Z</time></trkpt><trkpt lat="46.1121663" lon="9.3168555"><ele>237.0</ele><time>2026-04-20T07:08:41.528Z</time></trkpt><trkpt lat="46.112241" lon="9.3168484"><ele>236.99999999999997</ele><time>2026-04-20T07:08:43.529Z</time></trkpt><trkpt lat="46.1123143" lon="9.3168506"><ele>236.99999999999997</ele><time>2026-04-20T07:08:45.527Z</time></trkpt><trkpt lat="46.1123872" lon="9.3168603"><ele>237.0</ele><time>2026-04-20T07:08:47.528Z</time></trkpt><trkpt lat="46.1124563" lon="9.3168629"><ele>236.99999999999997</ele><time>2026-04-20T07:08:49.529Z</time></trkpt><trkpt lat="46.1125271" lon="9.3168741"><ele>236.99999999999997</ele><time>2026-04-20T07:08:51.528Z</time></trkpt><trkpt lat="46.1125998" lon="9.3168883"><ele>239.16666666666666</ele><time>2026-04-20T07:08:53.529Z</time></trkpt><trkpt lat="46.1126638" lon="9.3168854"><ele>241.33333333333331</ele><time>2026-04-20T07:08:55.529Z</time></trkpt><trkpt lat="46.1127569" lon="9.3168627"><ele>243.5</ele><time>2026-04-20T07:08:58.527Z</time></trkpt><trkpt lat="46.1128469" lon="9.3168282"><ele>245.66666666666666</ele><time>2026-04-20T07:09:01.53Z</time></trkpt><trkpt lat="46.1129114" lon="9.3168013"><ele>247.83333333333331</ele><time>2026-04-20T07:09:03.527Z</time></trkpt><trkpt lat="46.1129849" lon="9.3167783"><ele>250.0</ele><time>2026-04-20T07:09:05.528Z</time></trkpt><trkpt lat="46.1130487" lon="9.3167588"><ele>250.0</ele><time>2026-04-20T07:09:07.53Z</time></trkpt><trkpt lat="46.113135" lon="9.3167283"><ele>250.0</ele><time>2026-04-20T07:09:10.528Z</time></trkpt><trkpt lat="46.1131988" lon="9.3167263"><ele>250.0</ele><time>2026-04-20T07:09:12.529Z</time></trkpt><trkpt lat="46.1132688" lon="9.3167216"><ele>250.0</ele><time>2026-04-20T07:09:14.527Z</time></trkpt><trkpt lat="46.1133361" lon="9.3167249"><ele>250.0</ele><time>2026-04-20T07:09:16.527Z</time></trkpt><trkpt lat="46.1134069" lon="9.3167294"><ele>250.0</ele><time>2026-04-20T07:09:18.53Z</time></trkpt><trkpt lat="46.1134899" lon="9.3167524"><ele>250.0</ele><time>2026-04-20T07:09:20.528Z</time></trkpt><trkpt lat="46.1135526" lon="9.3167807"><ele>250.66666666666666</ele><time>2026-04-20T07:09:22.527Z</time></trkpt><trkpt lat="46.113624" lon="9.3168301"><ele>251.33333333333331</ele><time>2026-04-20T07:09:25.528Z</time></trkpt><trkpt lat="46.113698" lon="9.3169029"><ele>252.0</ele><time>2026-04-20T07:09:28.528Z</time></trkpt><trkpt lat="46.1137702" lon="9.3169816"><ele>252.66666666666669</ele><time>2026-04-20T07:09:31.529Z</time></trkpt><trkpt lat="46.1138224" lon="9.3170389"><ele>253.33333333333334</ele><time>2026-04-20T07:09:33.528Z</time></trkpt><trkpt lat="46.1138779" lon="9.3170956"><ele>254.0</ele><time>2026-04-20T07:09:35.529Z</time></trkpt><trkpt lat="46.1139367" lon="9.3171489"><ele>254.00000000000003</ele><time>2026-04-20T07:09:37.529Z</time></trkpt><trkpt lat="46.1139983" lon="9.3172141"><ele>254.0</ele><time>2026-04-20T07:09:39.527Z</time></trkpt><trkpt lat="46.1140462" lon="9.317276"><ele>254.0</ele><time>2026-04-20T07:09:41.528Z</time></trkpt><trkpt lat="46.1140918" lon="9.3173441"><ele>254.0</ele><time>2026-04-20T07:09:43.529Z</time></trkpt><trkpt lat="46.1141508" lon="9.3174489"><ele>254.00000000000003</ele><time>2026-04-20T07:09:46.528Z</time></trkpt><trkpt lat="46.1141969" lon="9.3175591"><ele>254.0</ele><time>2026-04-20T07:09:49.528Z</time></trkpt><trkpt lat="46.1142338" lon="9.3176444"><ele>254.14285714285717</ele><time>2026-04-20T07:09:51.528Z</time></trkpt><trkpt lat="46.1142641" lon="9.3177315"><ele>254.28571428571428</ele><time>2026-04-20T07:09:53.529Z</time></trkpt><trkpt lat="46.1143" lon="9.3178249"><ele>254.42857142857144</ele><time>2026-04-20T07:09:55.528Z</time></trkpt><trkpt lat="46.114327" lon="9.3179155"><ele>254.57142857142858</ele><time>2026-04-20T07:09:57.528Z</time></trkpt><trkpt lat="46.1143525" lon="9.3180206"><ele>254.71428571428572</ele><time>2026-04-20T07:09:59.527Z</time></trkpt><trkpt lat="46.1143769" lon="9.3181226"><ele>254.85714285714286</ele><time>2026-04-20T07:10:01.529Z</time></trkpt><trkpt lat="46.1143957" lon="9.3182303"><ele>255.0</ele><time>2026-04-20T07:10:03.529Z</time></trkpt><trkpt lat="46.11441" lon="9.3183372"><ele>255.66666666666666</ele><time>2026-04-20T07:10:05.53Z</time></trkpt><trkpt lat="46.1144216" lon="9.3184628"><ele>256.3333333333333</ele><time>2026-04-20T07:10:07.529Z</time></trkpt><trkpt lat="46.1144404" lon="9.3186064"><ele>257.0</ele><time>2026-04-20T07:10:09.528Z</time></trkpt><trkpt lat="46.1144475" lon="9.3187787"><ele>257.66666666666663</ele><time>2026-04-20T07:10:11.529Z</time></trkpt><trkpt lat="46.1144498" lon="9.3188709"><ele>258.3333333333333</ele><time>2026-04-20T07:10:12.529Z</time></trkpt><trkpt lat="46.1144477" lon="9.3189624"><ele>259.0</ele><time>2026-04-20T07:10:13.529Z</time></trkpt><trkpt lat="46.1144483" lon="9.319159"><ele>259.8333333333333</ele><time>2026-04-20T07:10:15.528Z</time></trkpt><trkpt lat="46.1144516" lon="9.3192685"><ele>260.66666666666663</ele><time>2026-04-20T07:10:16.529Z</time></trkpt><trkpt lat="46.1144546" lon="9.3193884"><ele>261.5</ele><time>2026-04-20T07:10:17.529Z</time></trkpt><trkpt lat="46.1144656" lon="9.319505"><ele>262.3333333333333</ele><time>2026-04-20T07:10:18.528Z</time></trkpt><trkpt lat="46.1144647" lon="9.3196211"><ele>263.1666666666667</ele><time>2026-04-20T07:10:19.528Z</time></trkpt><trkpt lat="46.1144571" lon="9.3197489"><ele>264.0</ele><time>2026-04-20T07:10:20.528Z</time></trkpt><trkpt lat="46.1144643" lon="9.3198851"><ele>264.0</ele><time>2026-04-20T07:10:21.529Z</time></trkpt><trkpt lat="46.1144618" lon="9.3200237"><ele>264.0</ele><time>2026-04-20T07:10:22.528Z</time></trkpt><trkpt lat="46.1144582" lon="9.3201604"><ele>264.0</ele><time>2026-04-20T07:10:23.529Z</time></trkpt><trkpt lat="46.1144496" lon="9.3202999"><ele>264.0</ele><time>2026-04-20T07:10:24.529Z</time></trkpt><trkpt lat="46.114438" lon="9.3204435"><ele>264.0</ele><time>2026-04-20T07:10:25.529Z</time></trkpt><trkpt lat="46.1144296" lon="9.3205858"><ele>264.59999999999997</ele><time>2026-04-20T07:10:26.528Z</time></trkpt><trkpt lat="46.1144259" lon="9.3207312"><ele>265.2</ele><time>2026-04-20T07:10:27.529Z</time></trkpt><trkpt lat="46.1144225" lon="9.3208759"><ele>265.79999999999995</ele><time>2026-04-20T07:10:28.528Z</time></trkpt><trkpt lat="46.1144178" lon="9.3210211"><ele>266.4</ele><time>2026-04-20T07:10:29.529Z</time></trkpt><trkpt lat="46.1144126" lon="9.3211673"><ele>267.0</ele><time>2026-04-20T07:10:30.529Z</time></trkpt><trkpt lat="46.1144074" lon="9.3213169"><ele>267.4</ele><time>2026-04-20T07:10:31.529Z</time></trkpt><trkpt lat="46.1144052" lon="9.3214667"><ele>267.79999999999995</ele><time>2026-04-20T07:10:32.528Z</time></trkpt><trkpt lat="46.1144036" lon="9.3216203"><ele>268.2</ele><time>2026-04-20T07:10:33.528Z</time></trkpt><trkpt lat="46.1144043" lon="9.3217708"><ele>268.59999999999997</ele><time>2026-04-20T07:10:34.528Z</time></trkpt><trkpt lat="46.1144165" lon="9.3219312"><ele>269.0</ele><time>2026-04-20T07:10:35.528Z</time></trkpt><trkpt lat="46.1144255" lon="9.3220888"><ele>269.2</ele><time>2026-04-20T07:10:36.528Z</time></trkpt><trkpt lat="46.1144337" lon="9.3222413"><ele>269.4</ele><time>2026-04-20T07:10:37.528Z</time></trkpt><trkpt lat="46.1144417" lon="9.3223946"><ele>269.6</ele><time>2026-04-20T07:10:38.529Z</time></trkpt><trkpt lat="46.1144573" lon="9.3225552"><ele>269.8</ele><time>2026-04-20T07:10:39.529Z</time></trkpt><trkpt lat="46.1144677" lon="9.3227055"><ele>270.0</ele><time>2026-04-20T07:10:40.529Z</time></trkpt><trkpt lat="46.1144698" lon="9.3228648"><ele>270.0</ele><time>2026-04-20T07:10:41.529Z</time></trkpt><trkpt lat="46.1144728" lon="9.3230182"><ele>270.0</ele><time>2026-04-20T07:10:42.529Z</time></trkpt><trkpt lat="46.1144905" lon="9.3231692"><ele>270.0</ele><time>2026-04-20T07:10:43.528Z</time></trkpt><trkpt lat="46.1145232" lon="9.3233292"><ele>270.0</ele><time>2026-04-20T07:10:44.529Z</time></trkpt><trkpt lat="46.1145643" lon="9.3234758"><ele>270.0</ele><time>2026-04-20T07:10:45.53Z</time></trkpt><trkpt lat="46.1145993" lon="9.3236187"><ele>269.8</ele><time>2026-04-20T07:10:46.529Z</time></trkpt><trkpt lat="46.1146315" lon="9.3237628"><ele>269.6</ele><time>2026-04-20T07:10:47.527Z</time></trkpt><trkpt lat="46.114648" lon="9.3239141"><ele>269.4</ele><time>2026-04-20T07:10:48.529Z</time></trkpt><trkpt lat="46.1146548" lon="9.3240693"><ele>269.2</ele><time>2026-04-20T07:10:49.528Z</time></trkpt><trkpt lat="46.1146508" lon="9.3242196"><ele>269.0</ele><time>2026-04-20T07:10:50.529Z</time></trkpt><trkpt lat="46.1146388" lon="9.3243705"><ele>269.0</ele><time>2026-04-20T07:10:51.528Z</time></trkpt><trkpt lat="46.1146077" lon="9.3245157"><ele>269.0</ele><time>2026-04-20T07:10:52.529Z</time></trkpt><trkpt lat="46.1145646" lon="9.3246605"><ele>269.0</ele><time>2026-04-20T07:10:53.528Z</time></trkpt><trkpt lat="46.1145223" lon="9.3248012"><ele>269.0</ele><time>2026-04-20T07:10:54.528Z</time></trkpt><trkpt lat="46.114463" lon="9.3249304"><ele>269.0</ele><time>2026-04-20T07:10:55.529Z</time></trkpt><trkpt lat="46.1143984" lon="9.3250526"><ele>266.0</ele><time>2026-04-20T07:10:56.528Z</time></trkpt><trkpt lat="46.1143336" lon="9.3251778"><ele>263.0</ele><time>2026-04-20T07:10:57.529Z</time></trkpt><trkpt lat="46.114266" lon="9.3253068"><ele>260.0</ele><time>2026-04-20T07:10:58.529Z</time></trkpt><trkpt lat="46.1142094" lon="9.325444"><ele>257.0</ele><time>2026-04-20T07:10:59.529Z</time></trkpt><trkpt lat="46.1141636" lon="9.3255759"><ele>254.0</ele><time>2026-04-20T07:11:00.528Z</time></trkpt><trkpt lat="46.1141307" lon="9.3257092"><ele>250.79999999999998</ele><time>2026-04-20T07:11:01.528Z</time></trkpt><trkpt lat="46.1141174" lon="9.3258592"><ele>247.59999999999997</ele><time>2026-04-20T07:11:02.528Z</time></trkpt><trkpt lat="46.1140906" lon="9.3259993"><ele>244.4</ele><time>2026-04-20T07:11:03.529Z</time></trkpt><trkpt lat="46.1140545" lon="9.3261334"><ele>241.2</ele><time>2026-04-20T07:11:04.529Z</time></trkpt><trkpt lat="46.1140241" lon="9.3262546"><ele>238.0</ele><time>2026-04-20T07:11:05.529Z</time></trkpt><trkpt lat="46.1139963" lon="9.3263657"><ele>245.99999999999997</ele><time>2026-04-20T07:11:06.529Z</time></trkpt><trkpt lat="46.1139726" lon="9.3264894"><ele>254.0</ele><time>2026-04-20T07:11:07.529Z</time></trkpt><trkpt lat="46.1139494" lon="9.3266118"><ele>262.0</ele><time>2026-04-20T07:11:08.528Z</time></trkpt><trkpt lat="46.1139324" lon="9.3267421"><ele>270.0</ele><time>2026-04-20T07:11:09.528Z</time></trkpt><trkpt lat="46.1139325" lon="9.3268666"><ele>278.0</ele><time>2026-04-20T07:11:10.529Z</time></trkpt><trkpt lat="46.1139374" lon="9.3270019"><ele>286.0</ele><time>2026-04-20T07:11:11.528Z</time></trkpt><trkpt lat="46.1139361" lon="9.3271301"><ele>285.6</ele><time>2026-04-20T07:11:12.529Z</time></trkpt><trkpt lat="46.113934" lon="9.3272544"><ele>285.20000000000005</ele><time>2026-04-20T07:11:13.529Z</time></trkpt><trkpt lat="46.1139509" lon="9.3273916"><ele>284.79999999999995</ele><time>2026-04-20T07:11:14.528Z</time></trkpt><trkpt lat="46.1139602" lon="9.3275253"><ele>284.4</ele><time>2026-04-20T07:11:15.529Z</time></trkpt><trkpt lat="46.1139647" lon="9.3276513"><ele>284.0</ele><time>2026-04-20T07:11:16.528Z</time></trkpt><trkpt lat="46.1139721" lon="9.3277761"><ele>284.0</ele><time>2026-04-20T07:11:17.528Z</time></trkpt><trkpt lat="46.1139966" lon="9.3279149"><ele>284.0</ele><time>2026-04-20T07:11:18.529Z</time></trkpt><trkpt lat="46.1140103" lon="9.328046"><ele>284.0</ele><time>2026-04-20T07:11:19.528Z</time></trkpt><trkpt lat="46.1140321" lon="9.328153"><ele>284.0</ele><time>2026-04-20T07:11:20.528Z</time></trkpt><trkpt lat="46.114074" lon="9.3282608"><ele>284.0</ele><time>2026-04-20T07:11:21.529Z</time></trkpt><trkpt lat="46.1141207" lon="9.328356"><ele>284.0</ele><time>2026-04-20T07:11:22.528Z</time></trkpt><trkpt lat="46.1141732" lon="9.3284564"><ele>275.6666666666667</ele><time>2026-04-20T07:11:23.528Z</time></trkpt><trkpt lat="46.1142149" lon="9.3285497"><ele>267.33333333333337</ele><time>2026-04-20T07:11:24.529Z</time></trkpt><trkpt lat="46.1142621" lon="9.3286469"><ele>259.0</ele><time>2026-04-20T07:11:25.528Z</time></trkpt><trkpt lat="46.1142996" lon="9.3287517"><ele>250.66666666666669</ele><time>2026-04-20T07:11:26.529Z</time></trkpt><trkpt lat="46.1143275" lon="9.3288621"><ele>242.33333333333334</ele><time>2026-04-20T07:11:27.528Z</time></trkpt><trkpt lat="46.1143526" lon="9.3289664"><ele>234.0</ele><time>2026-04-20T07:11:28.528Z</time></trkpt><trkpt lat="46.1143519" lon="9.3290813"><ele>234.0</ele><time>2026-04-20T07:11:29.528Z</time></trkpt><trkpt lat="46.114357" lon="9.3291974"><ele>234.0</ele><time>2026-04-20T07:11:30.529Z</time></trkpt><trkpt lat="46.1143611" lon="9.3293129"><ele>234.0</ele><time>2026-04-20T07:11:31.528Z</time></trkpt><trkpt lat="46.1143714" lon="9.3294296"><ele>234.0</ele><time>2026-04-20T07:11:32.528Z</time></trkpt><trkpt lat="46.1143701" lon="9.3295426"><ele>234.0</ele><time>2026-04-20T07:11:33.529Z</time></trkpt><trkpt lat="46.1143727" lon="9.3296653"><ele>234.0</ele><time>2026-04-20T07:11:34.528Z</time></trkpt><trkpt lat="46.1143741" lon="9.3297812"><ele>234.5</ele><time>2026-04-20T07:11:35.528Z</time></trkpt><trkpt lat="46.1143822" lon="9.3299088"><ele>235.0</ele><time>2026-04-20T07:11:36.529Z</time></trkpt><trkpt lat="46.1143915" lon="9.3300201"><ele>235.5</ele><time>2026-04-20T07:11:37.528Z</time></trkpt><trkpt lat="46.1143928" lon="9.3301375"><ele>236.0</ele><time>2026-04-20T07:11:38.528Z</time></trkpt><trkpt lat="46.1143981" lon="9.3302604"><ele>236.5</ele><time>2026-04-20T07:11:39.528Z</time></trkpt><trkpt lat="46.1144027" lon="9.33038"><ele>237.0</ele><time>2026-04-20T07:11:40.529Z</time></trkpt><trkpt lat="46.1144149" lon="9.3305132"><ele>238.33333333333334</ele><time>2026-04-20T07:11:41.529Z</time></trkpt><trkpt lat="46.1144252" lon="9.33064"><ele>239.66666666666669</ele><time>2026-04-20T07:11:42.528Z</time></trkpt><trkpt lat="46.114444" lon="9.3307653"><ele>241.0</ele><time>2026-04-20T07:11:43.529Z</time></trkpt><trkpt lat="46.1144734" lon="9.3308878"><ele>242.33333333333334</ele><time>2026-04-20T07:11:44.529Z</time></trkpt><trkpt lat="46.1145034" lon="9.3310119"><ele>243.66666666666669</ele><time>2026-04-20T07:11:45.531Z</time></trkpt><trkpt lat="46.1145363" lon="9.3311325"><ele>245.0</ele><time>2026-04-20T07:11:46.529Z</time></trkpt><trkpt lat="46.1145686" lon="9.331251"><ele>245.00000000000003</ele><time>2026-04-20T07:11:47.53Z</time></trkpt><trkpt lat="46.1146003" lon="9.331364"><ele>245.0</ele><time>2026-04-20T07:11:48.528Z</time></trkpt><trkpt lat="46.1146404" lon="9.3314801"><ele>245.0</ele><time>2026-04-20T07:11:49.529Z</time></trkpt><trkpt lat="46.1146808" lon="9.3315951"><ele>245.0</ele><time>2026-04-20T07:11:50.529Z</time></trkpt><trkpt lat="46.1146956" lon="9.3317179"><ele>245.00000000000003</ele><time>2026-04-20T07:11:51.529Z</time></trkpt><trkpt lat="46.1147412" lon="9.3318373"><ele>245.0</ele><time>2026-04-20T07:11:52.529Z</time></trkpt><trkpt lat="46.1147741" lon="9.3319435"><ele>246.16666666666669</ele><time>2026-04-20T07:11:53.528Z</time></trkpt><trkpt lat="46.1148182" lon="9.3320574"><ele>247.33333333333334</ele><time>2026-04-20T07:11:54.529Z</time></trkpt><trkpt lat="46.1148703" lon="9.3321628"><ele>248.5</ele><time>2026-04-20T07:11:55.529Z</time></trkpt><trkpt lat="46.1149105" lon="9.3322716"><ele>249.66666666666669</ele><time>2026-04-20T07:11:56.529Z</time></trkpt><trkpt lat="46.1149414" lon="9.332385"><ele>250.83333333333334</ele><time>2026-04-20T07:11:57.528Z</time></trkpt><trkpt lat="46.1149713" lon="9.3324929"><ele>252.0</ele><time>2026-04-20T07:11:58.528Z</time></trkpt><trkpt lat="46.1150089" lon="9.3326131"><ele>251.0</ele><time>2026-04-20T07:11:59.529Z</time></trkpt><trkpt lat="46.1150571" lon="9.3327371"><ele>250.0</ele><time>2026-04-20T07:12:00.528Z</time></trkpt><trkpt lat="46.1151044" lon="9.3328471"><ele>249.0</ele><time>2026-04-20T07:12:01.529Z</time></trkpt><trkpt lat="46.1151584" lon="9.3329539"><ele>248.0</ele><time>2026-04-20T07:12:02.528Z</time></trkpt><trkpt lat="46.1152223" lon="9.3330624"><ele>247.0</ele><time>2026-04-20T07:12:03.528Z</time></trkpt><trkpt lat="46.1152938" lon="9.3331765"><ele>247.0</ele><time>2026-04-20T07:12:04.53Z</time></trkpt><trkpt lat="46.1153539" lon="9.333266"><ele>247.0</ele><time>2026-04-20T07:12:05.528Z</time></trkpt><trkpt lat="46.1154047" lon="9.3333693"><ele>247.0</ele><time>2026-04-20T07:12:06.528Z</time></trkpt><trkpt lat="46.1154851" lon="9.3334876"><ele>247.0</ele><time>2026-04-20T07:12:07.529Z</time></trkpt><trkpt lat="46.1155432" lon="9.333595"><ele>247.0</ele><time>2026-04-20T07:12:08.53Z</time></trkpt><trkpt lat="46.1156048" lon="9.3337144"><ele>247.0</ele><time>2026-04-20T07:12:09.531Z</time></trkpt><trkpt lat="46.1156524" lon="9.3338173"><ele>247.0</ele><time>2026-04-20T07:12:10.529Z</time></trkpt><trkpt lat="46.115707" lon="9.3339254"><ele>247.0</ele><time>2026-04-20T07:12:11.529Z</time></trkpt><trkpt lat="46.115753" lon="9.3340421"><ele>247.0</ele><time>2026-04-20T07:12:12.53Z</time></trkpt><trkpt lat="46.1157814" lon="9.3341563"><ele>247.0</ele><time>2026-04-20T07:12:13.529Z</time></trkpt><trkpt lat="46.1158259" lon="9.3342759"><ele>246.0</ele><time>2026-04-20T07:12:14.528Z</time></trkpt><trkpt lat="46.1158668" lon="9.3344026"><ele>245.0</ele><time>2026-04-20T07:12:15.529Z</time></trkpt><trkpt lat="46.1158891" lon="9.3345265"><ele>244.0</ele><time>2026-04-20T07:12:16.528Z</time></trkpt><trkpt lat="46.115909" lon="9.3346472"><ele>243.0</ele><time>2026-04-20T07:12:17.528Z</time></trkpt><trkpt lat="46.1159143" lon="9.3347787"><ele>242.0</ele><time>2026-04-20T07:12:18.529Z</time></trkpt><trkpt lat="46.1159363" lon="9.33491"><ele>242.0</ele><time>2026-04-20T07:12:19.53Z</time></trkpt><trkpt lat="46.1159531" lon="9.3350442"><ele>242.0</ele><time>2026-04-20T07:12:20.53Z</time></trkpt><trkpt lat="46.1159726" lon="9.3351644"><ele>242.0</ele><time>2026-04-20T07:12:21.53Z</time></trkpt><trkpt lat="46.1160056" lon="9.3352892"><ele>242.0</ele><time>2026-04-20T07:12:22.528Z</time></trkpt><trkpt lat="46.1160552" lon="9.3354033"><ele>242.0</ele><time>2026-04-20T07:12:23.529Z</time></trkpt><trkpt lat="46.1161009" lon="9.3355152"><ele>246.2</ele><time>2026-04-20T07:12:24.528Z</time></trkpt><trkpt lat="46.116156" lon="9.3356128"><ele>250.39999999999998</ele><time>2026-04-20T07:12:25.531Z</time></trkpt><trkpt lat="46.1162174" lon="9.3357218"><ele>254.60000000000002</ele><time>2026-04-20T07:12:26.529Z</time></trkpt><trkpt lat="46.1162756" lon="9.3358287"><ele>258.8</ele><time>2026-04-20T07:12:27.528Z</time></trkpt><trkpt lat="46.1163294" lon="9.3359406"><ele>263.0</ele><time>2026-04-20T07:12:28.53Z</time></trkpt><trkpt lat="46.1164017" lon="9.3360547"><ele>263.0</ele><time>2026-04-20T07:12:29.53Z</time></trkpt><trkpt lat="46.1164575" lon="9.3361743"><ele>263.0</ele><time>2026-04-20T07:12:30.529Z</time></trkpt><trkpt lat="46.1165088" lon="9.3362917"><ele>263.0</ele><time>2026-04-20T07:12:31.529Z</time></trkpt><trkpt lat="46.1165644" lon="9.3364423"><ele>263.0</ele><time>2026-04-20T07:12:32.528Z</time></trkpt><trkpt lat="46.1166179" lon="9.3365809"><ele>263.0</ele><time>2026-04-20T07:12:33.53Z</time></trkpt><trkpt lat="46.1166575" lon="9.3366878"><ele>257.2</ele><time>2026-04-20T07:12:34.529Z</time></trkpt><trkpt lat="46.1166982" lon="9.3368061"><ele>251.4</ele><time>2026-04-20T07:12:35.53Z</time></trkpt><trkpt lat="46.1167426" lon="9.3369247"><ele>245.59999999999997</ele><time>2026-04-20T07:12:36.529Z</time></trkpt><trkpt lat="46.1167968" lon="9.3370353"><ele>239.79999999999998</ele><time>2026-04-20T07:12:37.53Z</time></trkpt><trkpt lat="46.1168329" lon="9.3371624"><ele>234.0</ele><time>2026-04-20T07:12:38.529Z</time></trkpt><trkpt lat="46.1168827" lon="9.3372915"><ele>234.0</ele><time>2026-04-20T07:12:39.529Z</time></trkpt><trkpt lat="46.1169264" lon="9.3374183"><ele>233.99999999999997</ele><time>2026-04-20T07:12:40.53Z</time></trkpt><trkpt lat="46.1169433" lon="9.337552"><ele>233.99999999999997</ele><time>2026-04-20T07:12:41.529Z</time></trkpt><trkpt lat="46.116971" lon="9.3376772"><ele>234.0</ele><time>2026-04-20T07:12:42.528Z</time></trkpt><trkpt lat="46.1169775" lon="9.3378068"><ele>234.0</ele><time>2026-04-20T07:12:43.528Z</time></trkpt><trkpt lat="46.1169823" lon="9.3379387"><ele>235.2</ele><time>2026-04-20T07:12:44.528Z</time></trkpt><trkpt lat="46.1169807" lon="9.3380744"><ele>236.39999999999998</ele><time>2026-04-20T07:12:45.529Z</time></trkpt><trkpt lat="46.116978" lon="9.3382112"><ele>237.6</ele><time>2026-04-20T07:12:46.529Z</time></trkpt><trkpt lat="46.116978" lon="9.338344"><ele>238.8</ele><time>2026-04-20T07:12:47.528Z</time></trkpt><trkpt lat="46.1169721" lon="9.3384784"><ele>240.0</ele><time>2026-04-20T07:12:48.529Z</time></trkpt><trkpt lat="46.1169687" lon="9.3386104"><ele>240.0</ele><time>2026-04-20T07:12:49.529Z</time></trkpt><trkpt lat="46.1169539" lon="9.338747"><ele>240.0</ele><time>2026-04-20T07:12:50.529Z</time></trkpt><trkpt lat="46.1169378" lon="9.3388914"><ele>240.0</ele><time>2026-04-20T07:12:51.528Z</time></trkpt><trkpt lat="46.1169216" lon="9.3390155"><ele>240.0</ele><time>2026-04-20T07:12:52.529Z</time></trkpt><trkpt lat="46.1169108" lon="9.339142"><ele>240.0</ele><time>2026-04-20T07:12:53.53Z</time></trkpt><trkpt lat="46.1168885" lon="9.3392765"><ele>239.5</ele><time>2026-04-20T07:12:54.53Z</time></trkpt><trkpt lat="46.1168628" lon="9.33938"><ele>239.0</ele><time>2026-04-20T07:12:55.529Z</time></trkpt><trkpt lat="46.1168403" lon="9.3395105"><ele>238.5</ele><time>2026-04-20T07:12:56.528Z</time></trkpt><trkpt lat="46.1168164" lon="9.3396315"><ele>238.0</ele><time>2026-04-20T07:12:57.529Z</time></trkpt><trkpt lat="46.116793" lon="9.3397424"><ele>237.5</ele><time>2026-04-20T07:12:58.53Z</time></trkpt><trkpt lat="46.1167633" lon="9.3398575"><ele>237.0</ele><time>2026-04-20T07:12:59.529Z</time></trkpt><trkpt lat="46.1167355" lon="9.3399711"><ele>235.0</ele><time>2026-04-20T07:13:00.529Z</time></trkpt><trkpt lat="46.1167" lon="9.3400849"><ele>233.0</ele><time>2026-04-20T07:13:01.529Z</time></trkpt><trkpt lat="46.1166753" lon="9.3402008"><ele>231.0</ele><time>2026-04-20T07:13:02.53Z</time></trkpt><trkpt lat="46.1166479" lon="9.3403129"><ele>229.0</ele><time>2026-04-20T07:13:03.53Z</time></trkpt><trkpt lat="46.1166222" lon="9.3404224"><ele>227.0</ele><time>2026-04-20T07:13:04.528Z</time></trkpt><trkpt lat="46.1165972" lon="9.3405372"><ele>225.0</ele><time>2026-04-20T07:13:05.529Z</time></trkpt><trkpt lat="46.1165707" lon="9.3406552"><ele>232.5</ele><time>2026-04-20T07:13:06.529Z</time></trkpt><trkpt lat="46.1165443" lon="9.3407726"><ele>240.0</ele><time>2026-04-20T07:13:07.529Z</time></trkpt><trkpt lat="46.1165134" lon="9.3408793"><ele>247.5</ele><time>2026-04-20T07:13:08.53Z</time></trkpt><trkpt lat="46.1165044" lon="9.3409983"><ele>255.0</ele><time>2026-04-20T07:13:09.528Z</time></trkpt><trkpt lat="46.1164807" lon="9.3411178"><ele>262.5</ele><time>2026-04-20T07:13:10.529Z</time></trkpt><trkpt lat="46.1164553" lon="9.3412287"><ele>270.0</ele><time>2026-04-20T07:13:11.53Z</time></trkpt><trkpt lat="46.1164289" lon="9.3413406"><ele>266.8333333333333</ele><time>2026-04-20T07:13:12.529Z</time></trkpt><trkpt lat="46.1164027" lon="9.3414425"><ele>263.6666666666667</ele><time>2026-04-20T07:13:13.53Z</time></trkpt><trkpt lat="46.1163633" lon="9.341551"><ele>260.5</ele><time>2026-04-20T07:13:14.53Z</time></trkpt><trkpt lat="46.1163391" lon="9.3416588"><ele>257.33333333333337</ele><time>2026-04-20T07:13:15.53Z</time></trkpt><trkpt lat="46.1163101" lon="9.3417485"><ele>254.16666666666669</ele><time>2026-04-20T07:13:16.53Z</time></trkpt><trkpt lat="46.116283" lon="9.3418495"><ele>251.0</ele><time>2026-04-20T07:13:17.529Z</time></trkpt><trkpt lat="46.1162535" lon="9.3419486"><ele>251.00000000000003</ele><time>2026-04-20T07:13:18.528Z</time></trkpt><trkpt lat="46.1162269" lon="9.3420467"><ele>251.0</ele><time>2026-04-20T07:13:19.53Z</time></trkpt><trkpt lat="46.1161967" lon="9.3421572"><ele>251.0</ele><time>2026-04-20T07:13:20.529Z</time></trkpt><trkpt lat="46.1161823" lon="9.3422651"><ele>251.0</ele><time>2026-04-20T07:13:21.529Z</time></trkpt><trkpt lat="46.1161654" lon="9.34237"><ele>251.00000000000003</ele><time>2026-04-20T07:13:22.53Z</time></trkpt><trkpt lat="46.1161546" lon="9.3424825"><ele>251.0</ele><time>2026-04-20T07:13:23.529Z</time></trkpt><trkpt lat="46.1161509" lon="9.3425855"><ele>249.50000000000003</ele><time>2026-04-20T07:13:24.53Z</time></trkpt><trkpt lat="46.1161554" lon="9.3426931"><ele>248.0</ele><time>2026-04-20T07:13:25.53Z</time></trkpt><trkpt lat="46.1161524" lon="9.3427965"><ele>246.5</ele><time>2026-04-20T07:13:26.529Z</time></trkpt><trkpt lat="46.1161491" lon="9.3428987"><ele>245.0</ele><time>2026-04-20T07:13:27.529Z</time></trkpt><trkpt lat="46.1161603" lon="9.3430013"><ele>243.50000000000003</ele><time>2026-04-20T07:13:28.528Z</time></trkpt><trkpt lat="46.1161725" lon="9.3431001"><ele>242.0</ele><time>2026-04-20T07:13:29.529Z</time></trkpt><trkpt lat="46.1161855" lon="9.3432859"><ele>240.50000000000003</ele><time>2026-04-20T07:13:31.529Z</time></trkpt><trkpt lat="46.1161963" lon="9.343382"><ele>239.0</ele><time>2026-04-20T07:13:32.53Z</time></trkpt><trkpt lat="46.1162051" lon="9.3434725"><ele>237.5</ele><time>2026-04-20T07:13:33.528Z</time></trkpt><trkpt lat="46.1162149" lon="9.3435654"><ele>236.0</ele><time>2026-04-20T07:13:34.529Z</time></trkpt><trkpt lat="46.1162326" lon="9.3436614"><ele>234.50000000000003</ele><time>2026-04-20T07:13:35.529Z</time></trkpt><trkpt lat="46.1162448" lon="9.3437603"><ele>233.0</ele><time>2026-04-20T07:13:36.529Z</time></trkpt><trkpt lat="46.1162526" lon="9.3439417"><ele>232.60000000000002</ele><time>2026-04-20T07:13:38.53Z</time></trkpt><trkpt lat="46.1162626" lon="9.3440368"><ele>232.20000000000002</ele><time>2026-04-20T07:13:39.531Z</time></trkpt><trkpt lat="46.116269" lon="9.3441306"><ele>231.8</ele><time>2026-04-20T07:13:40.53Z</time></trkpt><trkpt lat="46.1162731" lon="9.3442301"><ele>231.4</ele><time>2026-04-20T07:13:41.53Z</time></trkpt><trkpt lat="46.1163058" lon="9.3444275"><ele>231.0</ele><time>2026-04-20T07:13:43.529Z</time></trkpt><trkpt lat="46.1163259" lon="9.3446129"><ele>231.0</ele><time>2026-04-20T07:13:45.528Z</time></trkpt><trkpt lat="46.1163645" lon="9.3447094"><ele>231.0</ele><time>2026-04-20T07:13:46.529Z</time></trkpt><trkpt lat="46.1163692" lon="9.3448058"><ele>231.0</ele><time>2026-04-20T07:13:47.529Z</time></trkpt><trkpt lat="46.1163798" lon="9.3449014"><ele>231.0</ele><time>2026-04-20T07:13:48.53Z</time></trkpt><trkpt lat="46.1163875" lon="9.3449983"><ele>231.0</ele><time>2026-04-20T07:13:49.53Z</time></trkpt><trkpt lat="46.1163996" lon="9.345093"><ele>231.0</ele><time>2026-04-20T07:13:50.529Z</time></trkpt><trkpt lat="46.1164155" lon="9.3451912"><ele>231.0</ele><time>2026-04-20T07:13:51.529Z</time></trkpt><trkpt lat="46.1164238" lon="9.3452859"><ele>232.8</ele><time>2026-04-20T07:13:52.53Z</time></trkpt><trkpt lat="46.1164411" lon="9.3453778"><ele>234.60000000000002</ele><time>2026-04-20T07:13:53.529Z</time></trkpt><trkpt lat="46.1164781" lon="9.3454773"><ele>236.4</ele><time>2026-04-20T07:13:54.529Z</time></trkpt><trkpt lat="46.1165468" lon="9.345638"><ele>238.2</ele><time>2026-04-20T07:13:56.53Z</time></trkpt><trkpt lat="46.1166219" lon="9.3457869"><ele>240.0</ele><time>2026-04-20T07:13:58.528Z</time></trkpt><trkpt lat="46.1166601" lon="9.3458593"><ele>236.8</ele><time>2026-04-20T07:13:59.529Z</time></trkpt><trkpt lat="46.1167022" lon="9.34593"><ele>233.6</ele><time>2026-04-20T07:14:00.53Z</time></trkpt><trkpt lat="46.1167867" lon="9.3460716"><ele>230.39999999999998</ele><time>2026-04-20T07:14:02.529Z</time></trkpt><trkpt lat="46.1168722" lon="9.346204"><ele>227.2</ele><time>2026-04-20T07:14:04.529Z</time></trkpt><trkpt lat="46.1169187" lon="9.3462679"><ele>224.0</ele><time>2026-04-20T07:14:05.529Z</time></trkpt><trkpt lat="46.1169946" lon="9.3463867"><ele>224.0</ele><time>2026-04-20T07:14:07.529Z</time></trkpt><trkpt lat="46.1170501" lon="9.3464465"><ele>223.99999999999997</ele><time>2026-04-20T07:14:08.528Z</time></trkpt><trkpt lat="46.1171459" lon="9.3465113"><ele>223.99999999999997</ele><time>2026-04-20T07:14:10.528Z</time></trkpt><trkpt lat="46.1172272" lon="9.3465605"><ele>224.0</ele><time>2026-04-20T07:14:12.531Z</time></trkpt><trkpt lat="46.1173279" lon="9.3465995"><ele>224.0</ele><time>2026-04-20T07:14:14.529Z</time></trkpt><trkpt lat="46.117425" lon="9.3466502"><ele>218.75</ele><time>2026-04-20T07:14:16.528Z</time></trkpt><trkpt lat="46.1175269" lon="9.3466919"><ele>213.5</ele><time>2026-04-20T07:14:18.529Z</time></trkpt><trkpt lat="46.1176311" lon="9.3467348"><ele>208.25</ele><time>2026-04-20T07:14:20.53Z</time></trkpt><trkpt lat="46.1177214" lon="9.3467693"><ele>203.0</ele><time>2026-04-20T07:14:22.528Z</time></trkpt><trkpt lat="46.1178648" lon="9.3468168"><ele>203.0</ele><time>2026-04-20T07:14:25.528Z</time></trkpt><trkpt lat="46.1179614" lon="9.3468451"><ele>203.0</ele><time>2026-04-20T07:14:27.529Z</time></trkpt><trkpt lat="46.1180576" lon="9.3468843"><ele>203.0</ele><time>2026-04-20T07:14:29.529Z</time></trkpt><trkpt lat="46.118151" lon="9.3469212"><ele>203.0</ele><time>2026-04-20T07:14:31.53Z</time></trkpt><trkpt lat="46.118235" lon="9.3469505"><ele>203.0</ele><time>2026-04-20T07:14:33.529Z</time></trkpt><trkpt lat="46.1183342" lon="9.3469832"><ele>202.60000000000002</ele><time>2026-04-20T07:14:35.53Z</time></trkpt><trkpt lat="46.1184357" lon="9.347008"><ele>202.20000000000002</ele><time>2026-04-20T07:14:37.53Z</time></trkpt><trkpt lat="46.1185367" lon="9.3470247"><ele>201.8</ele><time>2026-04-20T07:14:39.529Z</time></trkpt><trkpt lat="46.118639" lon="9.3470578"><ele>201.4</ele><time>2026-04-20T07:14:41.53Z</time></trkpt><trkpt lat="46.1187398" lon="9.3471"><ele>201.0</ele><time>2026-04-20T07:14:43.529Z</time></trkpt><trkpt lat="46.1188332" lon="9.3471287"><ele>201.0</ele><time>2026-04-20T07:14:45.53Z</time></trkpt><trkpt lat="46.1189224" lon="9.3471649"><ele>201.0</ele><time>2026-04-20T07:14:47.529Z</time></trkpt><trkpt lat="46.1190221" lon="9.3471939"><ele>201.0</ele><time>2026-04-20T07:14:49.529Z</time></trkpt><trkpt lat="46.1191132" lon="9.3472251"><ele>201.0</ele><time>2026-04-20T07:14:51.529Z</time></trkpt><trkpt lat="46.1192102" lon="9.3472554"><ele>201.0</ele><time>2026-04-20T07:14:53.529Z</time></trkpt><trkpt lat="46.1193135" lon="9.3472808"><ele>202.4</ele><time>2026-04-20T07:14:55.53Z</time></trkpt><trkpt lat="46.1194143" lon="9.347312"><ele>203.8</ele><time>2026-04-20T07:14:57.53Z</time></trkpt><trkpt lat="46.1195027" lon="9.3473408"><ele>205.20000000000002</ele><time>2026-04-20T07:14:59.529Z</time></trkpt><trkpt lat="46.1195898" lon="9.3473877"><ele>206.60000000000002</ele><time>2026-04-20T07:15:01.528Z</time></trkpt><trkpt lat="46.1196785" lon="9.3474369"><ele>208.0</ele><time>2026-04-20T07:15:03.53Z</time></trkpt><trkpt lat="46.119781" lon="9.3474962"><ele>208.0</ele><time>2026-04-20T07:15:05.531Z</time></trkpt><trkpt lat="46.1198929" lon="9.347549"><ele>208.0</ele><time>2026-04-20T07:15:07.529Z</time></trkpt><trkpt lat="46.1200081" lon="9.3476045"><ele>208.0</ele><time>2026-04-20T07:15:09.53Z</time></trkpt><trkpt lat="46.1201204" lon="9.3476744"><ele>208.0</ele><time>2026-04-20T07:15:11.53Z</time></trkpt><trkpt lat="46.1201793" lon="9.3477098"><ele>208.0</ele><time>2026-04-20T07:15:12.53Z</time></trkpt><trkpt lat="46.1202938" lon="9.3477674"><ele>207.4</ele><time>2026-04-20T07:15:14.531Z</time></trkpt><trkpt lat="46.120407" lon="9.347831"><ele>206.8</ele><time>2026-04-20T07:15:16.529Z</time></trkpt><trkpt lat="46.1204678" lon="9.3478684"><ele>206.2</ele><time>2026-04-20T07:15:17.53Z</time></trkpt><trkpt lat="46.1205839" lon="9.3479255"><ele>205.6</ele><time>2026-04-20T07:15:19.53Z</time></trkpt><trkpt lat="46.120697" lon="9.3479838"><ele>205.0</ele><time>2026-04-20T07:15:21.53Z</time></trkpt><trkpt lat="46.1207573" lon="9.3480171"><ele>205.2857142857143</ele><time>2026-04-20T07:15:22.529Z</time></trkpt><trkpt lat="46.1208184" lon="9.3480492"><ele>205.57142857142856</ele><time>2026-04-20T07:15:23.529Z</time></trkpt><trkpt lat="46.1208783" lon="9.3480824"><ele>205.85714285714286</ele><time>2026-04-20T07:15:24.531Z</time></trkpt><trkpt lat="46.1209402" lon="9.3481089"><ele>206.14285714285717</ele><time>2026-04-20T07:15:25.53Z</time></trkpt><trkpt lat="46.1210015" lon="9.3481369"><ele>206.42857142857144</ele><time>2026-04-20T07:15:26.529Z</time></trkpt><trkpt lat="46.1210626" lon="9.3481652"><ele>206.71428571428572</ele><time>2026-04-20T07:15:27.529Z</time></trkpt><trkpt lat="46.1211265" lon="9.3481905"><ele>207.0</ele><time>2026-04-20T07:15:28.529Z</time></trkpt><trkpt lat="46.1211878" lon="9.3482216"><ele>207.0</ele><time>2026-04-20T07:15:29.531Z</time></trkpt><trkpt lat="46.1212531" lon="9.3482513"><ele>207.0</ele><time>2026-04-20T07:15:30.53Z</time></trkpt><trkpt lat="46.1213186" lon="9.3482776"><ele>207.0</ele><time>2026-04-20T07:15:31.529Z</time></trkpt><trkpt lat="46.1214336" lon="9.3483325"><ele>207.0</ele><time>2026-04-20T07:15:33.529Z</time></trkpt><trkpt lat="46.1215494" lon="9.3483973"><ele>207.0</ele><time>2026-04-20T07:15:35.529Z</time></trkpt><trkpt lat="46.1216681" lon="9.3484367"><ele>206.83333333333334</ele><time>2026-04-20T07:15:37.53Z</time></trkpt><trkpt lat="46.1217287" lon="9.3484651"><ele>206.66666666666669</ele><time>2026-04-20T07:15:38.529Z</time></trkpt><trkpt lat="46.1217897" lon="9.3484954"><ele>206.5</ele><time>2026-04-20T07:15:39.53Z</time></trkpt><trkpt lat="46.1218517" lon="9.348523"><ele>206.33333333333334</ele><time>2026-04-20T07:15:40.531Z</time></trkpt><trkpt lat="46.1219671" lon="9.3485943"><ele>206.16666666666669</ele><time>2026-04-20T07:15:42.53Z</time></trkpt><trkpt lat="46.1220265" lon="9.348626"><ele>206.0</ele><time>2026-04-20T07:15:43.53Z</time></trkpt><trkpt lat="46.122141" lon="9.3486802"><ele>206.0</ele><time>2026-04-20T07:15:45.53Z</time></trkpt><trkpt lat="46.1222426" lon="9.3487358"><ele>206.0</ele><time>2026-04-20T07:15:47.53Z</time></trkpt><trkpt lat="46.1223038" lon="9.3487649"><ele>206.0</ele><time>2026-04-20T07:15:48.53Z</time></trkpt><trkpt lat="46.1223998" lon="9.3488077"><ele>206.0</ele><time>2026-04-20T07:15:50.529Z</time></trkpt><trkpt lat="46.1224943" lon="9.3488419"><ele>206.0</ele><time>2026-04-20T07:15:52.529Z</time></trkpt><trkpt lat="46.1225927" lon="9.3488829"><ele>206.20000000000002</ele><time>2026-04-20T07:15:54.529Z</time></trkpt><trkpt lat="46.122689" lon="9.3489224"><ele>206.4</ele><time>2026-04-20T07:15:56.53Z</time></trkpt><trkpt lat="46.1227787" lon="9.3489742"><ele>206.6</ele><time>2026-04-20T07:15:58.531Z</time></trkpt><trkpt lat="46.1228714" lon="9.3490253"><ele>206.8</ele><time>2026-04-20T07:16:00.529Z</time></trkpt><trkpt lat="46.1229675" lon="9.3490626"><ele>207.0</ele><time>2026-04-20T07:16:02.53Z</time></trkpt><trkpt lat="46.1230635" lon="9.3491021"><ele>207.0</ele><time>2026-04-20T07:16:04.529Z</time></trkpt><trkpt lat="46.1231362" lon="9.349144"><ele>207.0</ele><time>2026-04-20T07:16:06.529Z</time></trkpt><trkpt lat="46.1231977" lon="9.3491806"><ele>207.0</ele><time>2026-04-20T07:16:08.53Z</time></trkpt><trkpt lat="46.1232837" lon="9.3492069"><ele>207.0</ele><time>2026-04-20T07:16:11.529Z</time></trkpt><trkpt lat="46.1233731" lon="9.3492386"><ele>207.0</ele><time>2026-04-20T07:16:14.529Z</time></trkpt><trkpt lat="46.1234603" lon="9.3492869"><ele>207.0</ele><time>2026-04-20T07:16:17.53Z</time></trkpt><trkpt lat="46.1235314" lon="9.3493605"><ele>207.0</ele><time>2026-04-20T07:16:20.529Z</time></trkpt><trkpt lat="46.1235927" lon="9.3493286"><ele>207.0</ele><time>2026-04-20T07:16:23.529Z</time></trkpt><trkpt lat="46.1236182" lon="9.3492436"><ele>207.0</ele><time>2026-04-20T07:16:25.53Z</time></trkpt><trkpt lat="46.1236434" lon="9.3491307"><ele>207.0</ele><time>2026-04-20T07:16:27.53Z</time></trkpt><trkpt lat="46.1236594" lon="9.3489997"><ele>207.0</ele><time>2026-04-20T07:16:29.529Z</time></trkpt><trkpt lat="46.1236772" lon="9.3488602"><ele>207.0</ele><time>2026-04-20T07:16:31.53Z</time></trkpt><trkpt lat="46.1236939" lon="9.3487078"><ele>207.0</ele><time>2026-04-20T07:16:33.53Z</time></trkpt><trkpt lat="46.1237091" lon="9.3485462"><ele>207.0</ele><time>2026-04-20T07:16:35.531Z</time></trkpt><trkpt lat="46.1237225" lon="9.3483697"><ele>207.0</ele><time>2026-04-20T07:16:37.53Z</time></trkpt><trkpt lat="46.1237477" lon="9.3482121"><ele>207.0</ele><time>2026-04-20T07:16:39.531Z</time></trkpt><trkpt lat="46.1237646" lon="9.3480975"><ele>207.0</ele><time>2026-04-20T07:16:41.531Z</time></trkpt><trkpt lat="46.1237834" lon="9.3480086"><ele>207.0</ele><time>2026-04-20T07:16:43.53Z</time></trkpt><trkpt lat="46.1238701" lon="9.3480027"><ele>207.0</ele><time>2026-04-20T07:16:46.53Z</time></trkpt><trkpt lat="46.1239301" lon="9.3480746"><ele>207.0</ele><time>2026-04-20T07:16:48.53Z</time></trkpt><trkpt lat="46.1239898" lon="9.3481498"><ele>207.0</ele><time>2026-04-20T07:16:50.53Z</time></trkpt><trkpt lat="46.1240647" lon="9.3482345"><ele>207.0</ele><time>2026-04-20T07:16:52.53Z</time></trkpt><trkpt lat="46.124149" lon="9.3483165"><ele>207.0</ele><time>2026-04-20T07:16:54.53Z</time></trkpt><trkpt lat="46.1242341" lon="9.3484023"><ele>206.6</ele><time>2026-04-20T07:16:56.529Z</time></trkpt><trkpt lat="46.12433" lon="9.3485026"><ele>206.2</ele><time>2026-04-20T07:16:58.53Z</time></trkpt><trkpt lat="46.1244044" lon="9.3485793"><ele>205.8</ele><time>2026-04-20T07:17:00.532Z</time></trkpt><trkpt lat="46.1244814" lon="9.3486709"><ele>205.4</ele><time>2026-04-20T07:17:02.531Z</time></trkpt><trkpt lat="46.12455" lon="9.348775"><ele>205.0</ele><time>2026-04-20T07:17:04.529Z</time></trkpt><trkpt lat="46.1246215" lon="9.3488767"><ele>205.0</ele><time>2026-04-20T07:17:06.53Z</time></trkpt><trkpt lat="46.1246868" lon="9.3489882"><ele>205.0</ele><time>2026-04-20T07:17:08.531Z</time></trkpt><trkpt lat="46.1247458" lon="9.3490941"><ele>205.0</ele><time>2026-04-20T07:17:10.53Z</time></trkpt><trkpt lat="46.1248086" lon="9.3491761"><ele>205.0</ele><time>2026-04-20T07:17:12.53Z</time></trkpt><trkpt lat="46.1248823" lon="9.3492645"><ele>205.0</ele><time>2026-04-20T07:17:14.531Z</time></trkpt><trkpt lat="46.1249602" lon="9.349371"><ele>204.6</ele><time>2026-04-20T07:17:16.53Z</time></trkpt><trkpt lat="46.1250427" lon="9.3494629"><ele>204.2</ele><time>2026-04-20T07:17:18.53Z</time></trkpt><trkpt lat="46.1251075" lon="9.3495618"><ele>203.8</ele><time>2026-04-20T07:17:20.529Z</time></trkpt><trkpt lat="46.1251743" lon="9.349671"><ele>203.4</ele><time>2026-04-20T07:17:22.53Z</time></trkpt><trkpt lat="46.1252379" lon="9.3497829"><ele>203.0</ele><time>2026-04-20T07:17:24.53Z</time></trkpt><trkpt lat="46.1252898" lon="9.3498986"><ele>203.66666666666669</ele><time>2026-04-20T07:17:26.53Z</time></trkpt><trkpt lat="46.1253501" lon="9.3500108"><ele>204.33333333333334</ele><time>2026-04-20T07:17:28.53Z</time></trkpt><trkpt lat="46.1253963" lon="9.3500914"><ele>205.0</ele><time>2026-04-20T07:17:30.53Z</time></trkpt><trkpt lat="46.1254407" lon="9.3501639"><ele>205.66666666666669</ele><time>2026-04-20T07:17:33.532Z</time></trkpt><trkpt lat="46.1254998" lon="9.3502058"><ele>206.33333333333334</ele><time>2026-04-20T07:18:10.53Z</time></trkpt><trkpt lat="46.1255516" lon="9.3502934"><ele>207.0</ele><time>2026-04-20T07:18:14.621Z</time></trkpt><trkpt lat="46.125608" lon="9.350394"><ele>207.0</ele><time>2026-04-20T07:18:17.53Z</time></trkpt><trkpt lat="46.1256455" lon="9.3504741"><ele>207.0</ele><time>2026-04-20T07:18:19.531Z</time></trkpt><trkpt lat="46.1256957" lon="9.3505487"><ele>207.0</ele><time>2026-04-20T07:18:21.619Z</time></trkpt><trkpt lat="46.1257616" lon="9.3506154"><ele>207.0</ele><time>2026-04-20T07:18:23.608Z</time></trkpt><trkpt lat="46.1258353" lon="9.3506842"><ele>207.0</ele><time>2026-04-20T07:18:25.53Z</time></trkpt><trkpt lat="46.125903" lon="9.350771"><ele>207.0</ele><time>2026-04-20T07:18:27.529Z</time></trkpt><trkpt lat="46.1259727" lon="9.3508575"><ele>207.39999999999998</ele><time>2026-04-20T07:18:29.529Z</time></trkpt><trkpt lat="46.1260459" lon="9.3509423"><ele>207.79999999999998</ele><time>2026-04-20T07:18:31.53Z</time></trkpt><trkpt lat="46.1261212" lon="9.3510392"><ele>208.2</ele><time>2026-04-20T07:18:33.53Z</time></trkpt><trkpt lat="46.1261953" lon="9.3511347"><ele>208.6</ele><time>2026-04-20T07:18:35.531Z</time></trkpt><trkpt lat="46.1262684" lon="9.3512353"><ele>209.0</ele><time>2026-04-20T07:18:37.529Z</time></trkpt><trkpt lat="46.1263433" lon="9.3513368"><ele>209.0</ele><time>2026-04-20T07:18:39.53Z</time></trkpt><trkpt lat="46.126419" lon="9.3514452"><ele>209.0</ele><time>2026-04-20T07:18:41.531Z</time></trkpt><trkpt lat="46.1264994" lon="9.3515586"><ele>209.0</ele><time>2026-04-20T07:18:43.529Z</time></trkpt><trkpt lat="46.1266021" lon="9.3516347"><ele>209.0</ele><time>2026-04-20T07:18:45.532Z</time></trkpt><trkpt lat="46.1267236" lon="9.3516428"><ele>209.0</ele><time>2026-04-20T07:18:47.531Z</time></trkpt><trkpt lat="46.126788" lon="9.3516341"><ele>209.0</ele><time>2026-04-20T07:18:48.53Z</time></trkpt><trkpt lat="46.1268544" lon="9.3516291"><ele>209.0</ele><time>2026-04-20T07:18:49.529Z</time></trkpt><trkpt lat="46.1269202" lon="9.3516291"><ele>209.0</ele><time>2026-04-20T07:18:50.53Z</time></trkpt><trkpt lat="46.1270426" lon="9.3516256"><ele>209.0</ele><time>2026-04-20T07:18:52.53Z</time></trkpt><trkpt lat="46.1271075" lon="9.3516244"><ele>209.0</ele><time>2026-04-20T07:18:53.529Z</time></trkpt><trkpt lat="46.1271719" lon="9.3516279"><ele>209.0</ele><time>2026-04-20T07:18:54.531Z</time></trkpt><trkpt lat="46.1272349" lon="9.351637"><ele>209.0</ele><time>2026-04-20T07:18:55.531Z</time></trkpt><trkpt lat="46.1272963" lon="9.3516608"><ele>209.0</ele><time>2026-04-20T07:18:56.53Z</time></trkpt><trkpt lat="46.1273923" lon="9.3517355"><ele>209.0</ele><time>2026-04-20T07:18:58.53Z</time></trkpt><trkpt lat="46.127491" lon="9.3518036"><ele>209.0</ele><time>2026-04-20T07:19:00.531Z</time></trkpt><trkpt lat="46.1275515" lon="9.3518376"><ele>209.0</ele><time>2026-04-20T07:19:01.531Z</time></trkpt><trkpt lat="46.1276684" lon="9.3518934"><ele>209.0</ele><time>2026-04-20T07:19:03.53Z</time></trkpt><trkpt lat="46.1277906" lon="9.3519181"><ele>209.0</ele><time>2026-04-20T07:19:05.529Z</time></trkpt><trkpt lat="46.1279115" lon="9.3519406"><ele>209.0</ele><time>2026-04-20T07:19:07.531Z</time></trkpt><trkpt lat="46.1280245" lon="9.3519745"><ele>209.0</ele><time>2026-04-20T07:19:09.529Z</time></trkpt><trkpt lat="46.1280889" lon="9.3520071"><ele>209.0</ele><time>2026-04-20T07:19:10.53Z</time></trkpt><trkpt lat="46.128146" lon="9.3520469"><ele>209.0</ele><time>2026-04-20T07:19:11.531Z</time></trkpt><trkpt lat="46.1282472" lon="9.3521409"><ele>209.0</ele><time>2026-04-20T07:19:13.53Z</time></trkpt><trkpt lat="46.128297" lon="9.3521985"><ele>209.0</ele><time>2026-04-20T07:19:14.53Z</time></trkpt><trkpt lat="46.1283899" lon="9.352317"><ele>209.0</ele><time>2026-04-20T07:19:16.53Z</time></trkpt><trkpt lat="46.1284668" lon="9.3524199"><ele>209.0</ele><time>2026-04-20T07:19:18.529Z</time></trkpt><trkpt lat="46.1285581" lon="9.3525217"><ele>209.0</ele><time>2026-04-20T07:19:20.53Z</time></trkpt><trkpt lat="46.1286482" lon="9.3526248"><ele>209.0</ele><time>2026-04-20T07:19:22.531Z</time></trkpt><trkpt lat="46.1287317" lon="9.3527287"><ele>209.0</ele><time>2026-04-20T07:19:24.531Z</time></trkpt><trkpt lat="46.1288176" lon="9.3528201"><ele>209.0</ele><time>2026-04-20T07:19:26.531Z</time></trkpt><trkpt lat="46.1288932" lon="9.3529075"><ele>209.0</ele><time>2026-04-20T07:19:28.531Z</time></trkpt><trkpt lat="46.1289725" lon="9.353014"><ele>209.2</ele><time>2026-04-20T07:19:30.531Z</time></trkpt><trkpt lat="46.1290464" lon="9.3531319"><ele>209.39999999999998</ele><time>2026-04-20T07:19:32.53Z</time></trkpt><trkpt lat="46.1291196" lon="9.3532458"><ele>209.6</ele><time>2026-04-20T07:19:34.53Z</time></trkpt><trkpt lat="46.1291987" lon="9.3533605"><ele>209.8</ele><time>2026-04-20T07:19:36.531Z</time></trkpt><trkpt lat="46.1292729" lon="9.3534753"><ele>210.0</ele><time>2026-04-20T07:19:38.531Z</time></trkpt><trkpt lat="46.1293529" lon="9.3535948"><ele>210.2</ele><time>2026-04-20T07:19:40.53Z</time></trkpt><trkpt lat="46.1294326" lon="9.3537087"><ele>210.4</ele><time>2026-04-20T07:19:42.53Z</time></trkpt><trkpt lat="46.1295077" lon="9.3538191"><ele>210.60000000000002</ele><time>2026-04-20T07:19:44.53Z</time></trkpt><trkpt lat="46.1295701" lon="9.3539332"><ele>210.8</ele><time>2026-04-20T07:19:46.53Z</time></trkpt><trkpt lat="46.1296363" lon="9.3540529"><ele>211.0</ele><time>2026-04-20T07:19:48.531Z</time></trkpt><trkpt lat="46.1297027" lon="9.3541655"><ele>211.0</ele><time>2026-04-20T07:19:50.532Z</time></trkpt><trkpt lat="46.1297481" lon="9.3542896"><ele>211.0</ele><time>2026-04-20T07:19:52.529Z</time></trkpt><trkpt lat="46.1297851" lon="9.3544178"><ele>211.0</ele><time>2026-04-20T07:19:54.53Z</time></trkpt><trkpt lat="46.1298233" lon="9.3545586"><ele>211.0</ele><time>2026-04-20T07:19:56.531Z</time></trkpt><trkpt lat="46.1298602" lon="9.354702"><ele>211.0</ele><time>2026-04-20T07:19:58.531Z</time></trkpt><trkpt lat="46.1299081" lon="9.354845"><ele>210.8</ele><time>2026-04-20T07:20:00.531Z</time></trkpt><trkpt lat="46.1299685" lon="9.3549656"><ele>210.60000000000002</ele><time>2026-04-20T07:20:02.53Z</time></trkpt><trkpt lat="46.1300184" lon="9.3551018"><ele>210.4</ele><time>2026-04-20T07:20:04.529Z</time></trkpt><trkpt lat="46.1300661" lon="9.3552375"><ele>210.2</ele><time>2026-04-20T07:20:06.53Z</time></trkpt><trkpt lat="46.1301159" lon="9.3553944"><ele>210.0</ele><time>2026-04-20T07:20:08.53Z</time></trkpt><trkpt lat="46.1301607" lon="9.3555159"><ele>210.0</ele><time>2026-04-20T07:20:10.531Z</time></trkpt><trkpt lat="46.1302009" lon="9.3556453"><ele>210.0</ele><time>2026-04-20T07:20:12.53Z</time></trkpt><trkpt lat="46.1302364" lon="9.3557931"><ele>210.0</ele><time>2026-04-20T07:20:14.531Z</time></trkpt><trkpt lat="46.1302776" lon="9.3559404"><ele>210.0</ele><time>2026-04-20T07:20:16.53Z</time></trkpt><trkpt lat="46.1303064" lon="9.3560896"><ele>210.0</ele><time>2026-04-20T07:20:18.531Z</time></trkpt><trkpt lat="46.1303405" lon="9.3562408"><ele>210.6</ele><time>2026-04-20T07:20:20.53Z</time></trkpt><trkpt lat="46.1303745" lon="9.3563982"><ele>211.2</ele><time>2026-04-20T07:20:22.529Z</time></trkpt><trkpt lat="46.1303856" lon="9.3565475"><ele>211.8</ele><time>2026-04-20T07:20:24.53Z</time></trkpt><trkpt lat="46.1304144" lon="9.356699"><ele>212.4</ele><time>2026-04-20T07:20:26.532Z</time></trkpt><trkpt lat="46.130447" lon="9.3568502"><ele>213.0</ele><time>2026-04-20T07:20:28.53Z</time></trkpt><trkpt lat="46.1304887" lon="9.3569842"><ele>213.0</ele><time>2026-04-20T07:20:30.531Z</time></trkpt><trkpt lat="46.1305291" lon="9.3571247"><ele>213.0</ele><time>2026-04-20T07:20:32.531Z</time></trkpt><trkpt lat="46.1305715" lon="9.3572757"><ele>213.0</ele><time>2026-04-20T07:20:34.53Z</time></trkpt><trkpt lat="46.1306128" lon="9.3574244"><ele>213.0</ele><time>2026-04-20T07:20:36.53Z</time></trkpt><trkpt lat="46.1306561" lon="9.3575694"><ele>213.0</ele><time>2026-04-20T07:20:38.53Z</time></trkpt><trkpt lat="46.1307003" lon="9.3577078"><ele>212.60000000000002</ele><time>2026-04-20T07:20:40.531Z</time></trkpt><trkpt lat="46.1307292" lon="9.3578111"><ele>212.20000000000002</ele><time>2026-04-20T07:20:42.531Z</time></trkpt><trkpt lat="46.1307976" lon="9.3579537"><ele>211.8</ele><time>2026-04-20T07:20:44.53Z</time></trkpt><trkpt lat="46.1308771" lon="9.3580938"><ele>211.4</ele><time>2026-04-20T07:20:46.53Z</time></trkpt><trkpt lat="46.1309116" lon="9.3581728"><ele>211.0</ele><time>2026-04-20T07:20:47.532Z</time></trkpt><trkpt lat="46.1309704" lon="9.3583209"><ele>211.0</ele><time>2026-04-20T07:20:49.532Z</time></trkpt><trkpt lat="46.1310071" lon="9.3584176"><ele>211.0</ele><time>2026-04-20T07:20:50.53Z</time></trkpt><trkpt lat="46.1310486" lon="9.3585054"><ele>211.0</ele><time>2026-04-20T07:20:51.53Z</time></trkpt><trkpt lat="46.1310951" lon="9.3586678"><ele>211.0</ele><time>2026-04-20T07:20:53.53Z</time></trkpt><trkpt lat="46.1311077" lon="9.3587604"><ele>211.0</ele><time>2026-04-20T07:20:54.531Z</time></trkpt><trkpt lat="46.1311219" lon="9.3589248"><ele>211.25</ele><time>2026-04-20T07:20:56.531Z</time></trkpt><trkpt lat="46.1311631" lon="9.359082"><ele>211.5</ele><time>2026-04-20T07:20:58.53Z</time></trkpt><trkpt lat="46.1312293" lon="9.3592213"><ele>211.75</ele><time>2026-04-20T07:21:00.53Z</time></trkpt><trkpt lat="46.131275" lon="9.3593779"><ele>212.0</ele><time>2026-04-20T07:21:02.53Z</time></trkpt><trkpt lat="46.1312979" lon="9.3595325"><ele>212.0</ele><time>2026-04-20T07:21:04.531Z</time></trkpt><trkpt lat="46.1313354" lon="9.3596898"><ele>212.0</ele><time>2026-04-20T07:21:06.532Z</time></trkpt><trkpt lat="46.1313718" lon="9.3597686"><ele>212.0</ele><time>2026-04-20T07:21:07.53Z</time></trkpt><trkpt lat="46.1314056" lon="9.3598473"><ele>212.0</ele><time>2026-04-20T07:21:08.53Z</time></trkpt><trkpt lat="46.1314465" lon="9.3599213"><ele>212.0</ele><time>2026-04-20T07:21:09.531Z</time></trkpt><trkpt lat="46.1314817" lon="9.3599987"><ele>212.0</ele><time>2026-04-20T07:21:10.531Z</time></trkpt><trkpt lat="46.1315154" lon="9.3600778"><ele>212.0</ele><time>2026-04-20T07:21:11.532Z</time></trkpt><trkpt lat="46.1315516" lon="9.360158"><ele>211.83333333333334</ele><time>2026-04-20T07:21:12.531Z</time></trkpt><trkpt lat="46.131589" lon="9.3602342"><ele>211.66666666666669</ele><time>2026-04-20T07:21:13.53Z</time></trkpt><trkpt lat="46.1316667" lon="9.360379"><ele>211.5</ele><time>2026-04-20T07:21:15.531Z</time></trkpt><trkpt lat="46.13171" lon="9.3604567"><ele>211.33333333333331</ele><time>2026-04-20T07:21:16.531Z</time></trkpt><trkpt lat="46.13175" lon="9.3605377"><ele>211.16666666666666</ele><time>2026-04-20T07:21:17.531Z</time></trkpt><trkpt lat="46.1317913" lon="9.3606255"><ele>211.0</ele><time>2026-04-20T07:21:18.531Z</time></trkpt><trkpt lat="46.1318318" lon="9.3607119"><ele>211.42857142857144</ele><time>2026-04-20T07:21:19.531Z</time></trkpt><trkpt lat="46.1318711" lon="9.3607979"><ele>211.85714285714286</ele><time>2026-04-20T07:21:20.531Z</time></trkpt><trkpt lat="46.1319131" lon="9.3608835"><ele>212.28571428571428</ele><time>2026-04-20T07:21:21.532Z</time></trkpt><trkpt lat="46.1319545" lon="9.3609684"><ele>212.71428571428572</ele><time>2026-04-20T07:21:22.53Z</time></trkpt><trkpt lat="46.1319924" lon="9.3610544"><ele>213.14285714285714</ele><time>2026-04-20T07:21:23.531Z</time></trkpt><trkpt lat="46.1320361" lon="9.3611377"><ele>213.57142857142858</ele><time>2026-04-20T07:21:24.531Z</time></trkpt><trkpt lat="46.1320787" lon="9.3612218"><ele>214.0</ele><time>2026-04-20T07:21:25.531Z</time></trkpt><trkpt lat="46.1321215" lon="9.361307"><ele>214.14285714285717</ele><time>2026-04-20T07:21:26.53Z</time></trkpt><trkpt lat="46.1321687" lon="9.3613927"><ele>214.28571428571428</ele><time>2026-04-20T07:21:27.53Z</time></trkpt><trkpt lat="46.1322157" lon="9.3614778"><ele>214.42857142857144</ele><time>2026-04-20T07:21:28.531Z</time></trkpt><trkpt lat="46.1322602" lon="9.361564"><ele>214.57142857142858</ele><time>2026-04-20T07:21:29.53Z</time></trkpt><trkpt lat="46.1323033" lon="9.3616471"><ele>214.71428571428572</ele><time>2026-04-20T07:21:30.531Z</time></trkpt><trkpt lat="46.1323487" lon="9.3617284"><ele>214.85714285714286</ele><time>2026-04-20T07:21:31.531Z</time></trkpt><trkpt lat="46.1323918" lon="9.3618115"><ele>215.0</ele><time>2026-04-20T07:21:32.531Z</time></trkpt><trkpt lat="46.132433" lon="9.3618913"><ele>214.28571428571428</ele><time>2026-04-20T07:21:33.532Z</time></trkpt><trkpt lat="46.1324724" lon="9.3619757"><ele>213.57142857142858</ele><time>2026-04-20T07:21:34.53Z</time></trkpt><trkpt lat="46.1325091" lon="9.3620633"><ele>212.85714285714286</ele><time>2026-04-20T07:21:35.531Z</time></trkpt><trkpt lat="46.1325448" lon="9.3621521"><ele>212.14285714285714</ele><time>2026-04-20T07:21:36.53Z</time></trkpt><trkpt lat="46.1325874" lon="9.3622297"><ele>211.42857142857144</ele><time>2026-04-20T07:21:37.531Z</time></trkpt><trkpt lat="46.132627" lon="9.3623099"><ele>210.71428571428572</ele><time>2026-04-20T07:21:38.53Z</time></trkpt><trkpt lat="46.1326675" lon="9.3623967"><ele>210.0</ele><time>2026-04-20T07:21:39.531Z</time></trkpt><trkpt lat="46.1327091" lon="9.3624817"><ele>210.0</ele><time>2026-04-20T07:21:40.531Z</time></trkpt><trkpt lat="46.1327507" lon="9.3625675"><ele>210.0</ele><time>2026-04-20T07:21:41.531Z</time></trkpt><trkpt lat="46.1327904" lon="9.3626492"><ele>210.0</ele><time>2026-04-20T07:21:42.531Z</time></trkpt><trkpt lat="46.1328298" lon="9.3627384"><ele>210.0</ele><time>2026-04-20T07:21:43.53Z</time></trkpt><trkpt lat="46.1328709" lon="9.3628222"><ele>210.0</ele><time>2026-04-20T07:21:44.53Z</time></trkpt><trkpt lat="46.1329112" lon="9.3629043"><ele>210.0</ele><time>2026-04-20T07:21:45.531Z</time></trkpt><trkpt lat="46.1329512" lon="9.3629853"><ele>210.0</ele><time>2026-04-20T07:21:46.53Z</time></trkpt><trkpt lat="46.1329914" lon="9.3630621"><ele>210.28571428571428</ele><time>2026-04-20T07:21:47.53Z</time></trkpt><trkpt lat="46.1330353" lon="9.3631415"><ele>210.57142857142856</ele><time>2026-04-20T07:21:48.531Z</time></trkpt><trkpt lat="46.1330755" lon="9.363225"><ele>210.85714285714286</ele><time>2026-04-20T07:21:49.531Z</time></trkpt><trkpt lat="46.1331199" lon="9.3633135"><ele>211.14285714285714</ele><time>2026-04-20T07:21:50.53Z</time></trkpt><trkpt lat="46.1331615" lon="9.3633975"><ele>211.42857142857142</ele><time>2026-04-20T07:21:51.531Z</time></trkpt><trkpt lat="46.1332023" lon="9.3634806"><ele>211.71428571428572</ele><time>2026-04-20T07:21:52.53Z</time></trkpt><trkpt lat="46.1332411" lon="9.3635653"><ele>212.0</ele><time>2026-04-20T07:21:53.53Z</time></trkpt><trkpt lat="46.1332785" lon="9.3636422"><ele>211.66666666666669</ele><time>2026-04-20T07:21:54.532Z</time></trkpt><trkpt lat="46.1333194" lon="9.3637156"><ele>211.33333333333334</ele><time>2026-04-20T07:21:55.53Z</time></trkpt><trkpt lat="46.1333884" lon="9.3638307"><ele>211.0</ele><time>2026-04-20T07:21:57.532Z</time></trkpt><trkpt lat="46.1334521" lon="9.3639007"><ele>210.66666666666669</ele><time>2026-04-20T07:21:59.531Z</time></trkpt><trkpt lat="46.1335167" lon="9.3639267"><ele>210.33333333333334</ele><time>2026-04-20T07:22:01.53Z</time></trkpt><trkpt lat="46.1336006" lon="9.3639639"><ele>210.0</ele><time>2026-04-20T07:22:03.531Z</time></trkpt><trkpt lat="46.1337006" lon="9.3639374"><ele>210.0</ele><time>2026-04-20T07:22:05.53Z</time></trkpt><trkpt lat="46.1338034" lon="9.3639069"><ele>210.0</ele><time>2026-04-20T07:22:07.531Z</time></trkpt><trkpt lat="46.1339112" lon="9.3638514"><ele>210.0</ele><time>2026-04-20T07:22:09.532Z</time></trkpt><trkpt lat="46.1340227" lon="9.3637798"><ele>210.0</ele><time>2026-04-20T07:22:11.531Z</time></trkpt><trkpt lat="46.1340843" lon="9.363738"><ele>210.0</ele><time>2026-04-20T07:22:12.531Z</time></trkpt><trkpt lat="46.1341453" lon="9.3636977"><ele>209.0</ele><time>2026-04-20T07:22:13.53Z</time></trkpt><trkpt lat="46.1342093" lon="9.3636541"><ele>208.0</ele><time>2026-04-20T07:22:14.53Z</time></trkpt><trkpt lat="46.1342738" lon="9.3636047"><ele>207.0</ele><time>2026-04-20T07:22:15.531Z</time></trkpt><trkpt lat="46.1343429" lon="9.3635533"><ele>206.0</ele><time>2026-04-20T07:22:16.532Z</time></trkpt><trkpt lat="46.1344135" lon="9.3635025"><ele>205.0</ele><time>2026-04-20T07:22:17.531Z</time></trkpt><trkpt lat="46.1344866" lon="9.3634502"><ele>204.0</ele><time>2026-04-20T07:22:18.53Z</time></trkpt><trkpt lat="46.1345606" lon="9.3633986"><ele>204.0</ele><time>2026-04-20T07:22:19.53Z</time></trkpt><trkpt lat="46.1346337" lon="9.3633456"><ele>204.0</ele><time>2026-04-20T07:22:20.53Z</time></trkpt><trkpt lat="46.1347083" lon="9.3632936"><ele>204.0</ele><time>2026-04-20T07:22:21.531Z</time></trkpt><trkpt lat="46.1347815" lon="9.3632433"><ele>204.0</ele><time>2026-04-20T07:22:22.531Z</time></trkpt><trkpt lat="46.1348561" lon="9.3631891"><ele>204.0</ele><time>2026-04-20T07:22:23.53Z</time></trkpt><trkpt lat="46.1349307" lon="9.3631364"><ele>204.0</ele><time>2026-04-20T07:22:24.532Z</time></trkpt><trkpt lat="46.1350032" lon="9.3630846"><ele>203.66666666666666</ele><time>2026-04-20T07:22:25.531Z</time></trkpt><trkpt lat="46.1350782" lon="9.3630334"><ele>203.33333333333331</ele><time>2026-04-20T07:22:26.531Z</time></trkpt><trkpt lat="46.1351542" lon="9.3629845"><ele>203.0</ele><time>2026-04-20T07:22:27.531Z</time></trkpt><trkpt lat="46.1352273" lon="9.3629427"><ele>202.66666666666666</ele><time>2026-04-20T07:22:28.53Z</time></trkpt><trkpt lat="46.1352939" lon="9.3629011"><ele>202.33333333333331</ele><time>2026-04-20T07:22:29.531Z</time></trkpt><trkpt lat="46.1353591" lon="9.3628624"><ele>202.0</ele><time>2026-04-20T07:22:30.531Z</time></trkpt><trkpt lat="46.1354685" lon="9.3627825"><ele>201.99999999999997</ele><time>2026-04-20T07:22:32.531Z</time></trkpt><trkpt lat="46.1355485" lon="9.362722"><ele>202.0</ele><time>2026-04-20T07:22:34.531Z</time></trkpt><trkpt lat="46.1356237" lon="9.3627585"><ele>202.0</ele><time>2026-04-20T07:22:36.53Z</time></trkpt><trkpt lat="46.1356584" lon="9.362873"><ele>202.0</ele><time>2026-04-20T07:22:38.532Z</time></trkpt><trkpt lat="46.1356697" lon="9.3630042"><ele>201.99999999999997</ele><time>2026-04-20T07:22:40.531Z</time></trkpt><trkpt lat="46.1356778" lon="9.3631411"><ele>202.0</ele><time>2026-04-20T07:22:42.531Z</time></trkpt><trkpt lat="46.1356899" lon="9.3632838"><ele>202.0</ele><time>2026-04-20T07:22:44.532Z</time></trkpt><trkpt lat="46.1357001" lon="9.3634387"><ele>202.0</ele><time>2026-04-20T07:22:46.53Z</time></trkpt><trkpt lat="46.1357084" lon="9.3636774"><ele>202.0</ele><time>2026-04-20T07:22:49.532Z</time></trkpt><trkpt lat="46.1357183" lon="9.3638328"><ele>202.0</ele><time>2026-04-20T07:22:51.531Z</time></trkpt><trkpt lat="46.1357361" lon="9.3639938"><ele>201.5</ele><time>2026-04-20T07:22:53.531Z</time></trkpt><trkpt lat="46.135763" lon="9.3641534"><ele>201.0</ele><time>2026-04-20T07:22:55.531Z</time></trkpt><trkpt lat="46.1358033" lon="9.3643127"><ele>200.5</ele><time>2026-04-20T07:22:57.532Z</time></trkpt><trkpt lat="46.1358527" lon="9.3644709"><ele>200.0</ele><time>2026-04-20T07:22:59.531Z</time></trkpt><trkpt lat="46.1358967" lon="9.364624"><ele>200.25</ele><time>2026-04-20T07:23:01.531Z</time></trkpt><trkpt lat="46.1359423" lon="9.3647756"><ele>200.5</ele><time>2026-04-20T07:23:03.531Z</time></trkpt><trkpt lat="46.1359898" lon="9.364931"><ele>200.75</ele><time>2026-04-20T07:23:05.531Z</time></trkpt><trkpt lat="46.136036" lon="9.3650909"><ele>201.0</ele><time>2026-04-20T07:23:07.531Z</time></trkpt><trkpt lat="46.1360846" lon="9.3652447"><ele>201.0</ele><time>2026-04-20T07:23:09.531Z</time></trkpt><trkpt lat="46.1361399" lon="9.365392"><ele>201.0</ele><time>2026-04-20T07:23:11.53Z</time></trkpt><trkpt lat="46.1362126" lon="9.3655283"><ele>201.0</ele><time>2026-04-20T07:23:13.532Z</time></trkpt><trkpt lat="46.136291" lon="9.3656417"><ele>201.0</ele><time>2026-04-20T07:23:15.531Z</time></trkpt><trkpt lat="46.1363771" lon="9.3657397"><ele>201.25</ele><time>2026-04-20T07:23:17.531Z</time></trkpt><trkpt lat="46.1364553" lon="9.3658388"><ele>201.5</ele><time>2026-04-20T07:23:19.53Z</time></trkpt><trkpt lat="46.1365291" lon="9.3659603"><ele>201.75</ele><time>2026-04-20T07:23:21.532Z</time></trkpt><trkpt lat="46.1365946" lon="9.3661007"><ele>202.0</ele><time>2026-04-20T07:23:23.531Z</time></trkpt><trkpt lat="46.1366398" lon="9.3662729"><ele>201.66666666666666</ele><time>2026-04-20T07:23:25.531Z</time></trkpt><trkpt lat="46.1366531" lon="9.3663724"><ele>201.33333333333331</ele><time>2026-04-20T07:23:26.531Z</time></trkpt><trkpt lat="46.1366617" lon="9.3664684"><ele>201.0</ele><time>2026-04-20T07:23:27.531Z</time></trkpt><trkpt lat="46.1366915" lon="9.3666416"><ele>200.66666666666669</ele><time>2026-04-20T07:23:29.53Z</time></trkpt><trkpt lat="46.1367055" lon="9.3667338"><ele>200.33333333333334</ele><time>2026-04-20T07:23:30.531Z</time></trkpt><trkpt lat="46.1367164" lon="9.3668238"><ele>200.0</ele><time>2026-04-20T07:23:31.532Z</time></trkpt><trkpt lat="46.1367404" lon="9.3669966"><ele>200.00000000000003</ele><time>2026-04-20T07:23:33.532Z</time></trkpt><trkpt lat="46.1367506" lon="9.3670872"><ele>200.0</ele><time>2026-04-20T07:23:34.533Z</time></trkpt><trkpt lat="46.1368022" lon="9.3672456"><ele>200.0</ele><time>2026-04-20T07:23:36.533Z</time></trkpt><trkpt lat="46.136849" lon="9.3674029"><ele>200.0</ele><time>2026-04-20T07:23:38.53Z</time></trkpt><trkpt lat="46.1368898" lon="9.3674781"><ele>200.00000000000003</ele><time>2026-04-20T07:23:39.53Z</time></trkpt><trkpt lat="46.1369259" lon="9.3675603"><ele>200.0</ele><time>2026-04-20T07:23:40.533Z</time></trkpt><trkpt lat="46.1369594" lon="9.3676415"><ele>200.4</ele><time>2026-04-20T07:23:41.531Z</time></trkpt><trkpt lat="46.1370304" lon="9.3677814"><ele>200.8</ele><time>2026-04-20T07:23:43.53Z</time></trkpt><trkpt lat="46.1371004" lon="9.3679187"><ele>201.2</ele><time>2026-04-20T07:23:45.532Z</time></trkpt><trkpt lat="46.1371532" lon="9.3680253"><ele>201.6</ele><time>2026-04-20T07:23:47.531Z</time></trkpt><trkpt lat="46.1371883" lon="9.3681217"><ele>202.0</ele><time>2026-04-20T07:23:49.53Z</time></trkpt><trkpt lat="46.137231" lon="9.3682265"><ele>202.49999999999997</ele><time>2026-04-20T07:23:51.531Z</time></trkpt><trkpt lat="46.1372765" lon="9.3683288"><ele>203.0</ele><time>2026-04-20T07:23:53.532Z</time></trkpt><trkpt lat="46.1372957" lon="9.3684391"><ele>203.5</ele><time>2026-04-20T07:23:55.531Z</time></trkpt><trkpt lat="46.1372985" lon="9.3685413"><ele>204.0</ele><time>2026-04-20T07:23:57.531Z</time></trkpt><trkpt lat="46.1372912" lon="9.3686519"><ele>204.49999999999997</ele><time>2026-04-20T07:24:00.532Z</time></trkpt><trkpt lat="46.1372556" lon="9.3687795"><ele>205.0</ele><time>2026-04-20T07:24:03.532Z</time></trkpt><trkpt lat="46.1372453" lon="9.3688741"><ele>205.0</ele><time>2026-04-20T07:24:05.531Z</time></trkpt><trkpt lat="46.1372442" lon="9.3689666"><ele>205.0</ele><time>2026-04-20T07:24:07.531Z</time></trkpt><trkpt lat="46.1372423" lon="9.3690627"><ele>205.0</ele><time>2026-04-20T07:24:09.532Z</time></trkpt><trkpt lat="46.1372109" lon="9.3691749"><ele>205.0</ele><time>2026-04-20T07:24:12.53Z</time></trkpt><trkpt lat="46.1371829" lon="9.3692833"><ele>205.0</ele><time>2026-04-20T07:24:15.532Z</time></trkpt><trkpt lat="46.1371807" lon="9.3693782"><ele>205.0</ele><time>2026-04-20T07:24:17.531Z</time></trkpt><trkpt lat="46.1371701" lon="9.3694838"><ele>205.0</ele><time>2026-04-20T07:24:19.531Z</time></trkpt><trkpt lat="46.1371488" lon="9.3695892"><ele>205.0</ele><time>2026-04-20T07:24:21.53Z</time></trkpt><trkpt lat="46.1371275" lon="9.3696994"><ele>205.0</ele><time>2026-04-20T07:24:23.53Z</time></trkpt><trkpt lat="46.1371104" lon="9.369809"><ele>205.0</ele><time>2026-04-20T07:24:25.532Z</time></trkpt><trkpt lat="46.13709" lon="9.3699193"><ele>205.0</ele><time>2026-04-20T07:24:27.532Z</time></trkpt><trkpt lat="46.1370707" lon="9.3700188"><ele>205.0</ele><time>2026-04-20T07:24:29.532Z</time></trkpt><trkpt lat="46.1370433" lon="9.3701174"><ele>205.0</ele><time>2026-04-20T07:24:32.531Z</time></trkpt><trkpt lat="46.1370731" lon="9.3702055"><ele>205.0</ele><time>2026-04-20T07:24:38.532Z</time></trkpt><trkpt lat="46.137059" lon="9.3703096"><ele>204.99999999999997</ele><time>2026-04-20T07:25:50.531Z</time></trkpt><trkpt lat="46.1370841" lon="9.3704135"><ele>205.0</ele><time>2026-04-20T07:25:53.532Z</time></trkpt><trkpt lat="46.1371194" lon="9.3705291"><ele>205.0</ele><time>2026-04-20T07:25:56.531Z</time></trkpt><trkpt lat="46.1371408" lon="9.3706312"><ele>205.0</ele><time>2026-04-20T07:26:00.531Z</time></trkpt><trkpt lat="46.137169" lon="9.3707257"><ele>204.99999999999997</ele><time>2026-04-20T07:26:08.531Z</time></trkpt><trkpt lat="46.137182" lon="9.3708436"><ele>205.0</ele><time>2026-04-20T07:26:12.532Z</time></trkpt><trkpt lat="46.1372076" lon="9.3709644"><ele>205.16666666666666</ele><time>2026-04-20T07:26:15.532Z</time></trkpt><trkpt lat="46.1372415" lon="9.3710586"><ele>205.33333333333331</ele><time>2026-04-20T07:26:17.532Z</time></trkpt><trkpt lat="46.1372802" lon="9.3711475"><ele>205.5</ele><time>2026-04-20T07:26:19.533Z</time></trkpt><trkpt lat="46.1373195" lon="9.3712497"><ele>205.66666666666669</ele><time>2026-04-20T07:26:21.532Z</time></trkpt><trkpt lat="46.1373761" lon="9.3713564"><ele>205.83333333333334</ele><time>2026-04-20T07:26:23.531Z</time></trkpt><trkpt lat="46.1374322" lon="9.371468"><ele>206.0</ele><time>2026-04-20T07:26:25.532Z</time></trkpt><trkpt lat="46.1374716" lon="9.3715936"><ele>205.33333333333334</ele><time>2026-04-20T07:26:27.532Z</time></trkpt><trkpt lat="46.1375269" lon="9.3717036"><ele>204.66666666666669</ele><time>2026-04-20T07:26:29.532Z</time></trkpt><trkpt lat="46.1375664" lon="9.3718148"><ele>204.0</ele><time>2026-04-20T07:26:31.532Z</time></trkpt><trkpt lat="46.137606" lon="9.3719171"><ele>203.33333333333331</ele><time>2026-04-20T07:26:33.531Z</time></trkpt><trkpt lat="46.1376517" lon="9.3720168"><ele>202.66666666666666</ele><time>2026-04-20T07:26:35.533Z</time></trkpt><trkpt lat="46.1377054" lon="9.3721056"><ele>202.0</ele><time>2026-04-20T07:26:37.532Z</time></trkpt><trkpt lat="46.1377738" lon="9.3721654"><ele>202.16666666666666</ele><time>2026-04-20T07:26:39.531Z</time></trkpt><trkpt lat="46.1378553" lon="9.3722142"><ele>202.33333333333331</ele><time>2026-04-20T07:26:41.532Z</time></trkpt><trkpt lat="46.1379375" lon="9.3722688"><ele>202.5</ele><time>2026-04-20T07:26:43.532Z</time></trkpt><trkpt lat="46.1380052" lon="9.3723347"><ele>202.66666666666669</ele><time>2026-04-20T07:26:45.532Z</time></trkpt><trkpt lat="46.1380662" lon="9.3723892"><ele>202.83333333333334</ele><time>2026-04-20T07:26:47.532Z</time></trkpt><trkpt lat="46.1381412" lon="9.3724096"><ele>203.0</ele><time>2026-04-20T07:26:49.531Z</time></trkpt><trkpt lat="46.1382081" lon="9.372454"><ele>202.33333333333334</ele><time>2026-04-20T07:26:51.531Z</time></trkpt><trkpt lat="46.1382625" lon="9.3725005"><ele>201.66666666666669</ele><time>2026-04-20T07:26:53.531Z</time></trkpt><trkpt lat="46.1383256" lon="9.372543"><ele>201.0</ele><time>2026-04-20T07:26:55.532Z</time></trkpt><trkpt lat="46.1383885" lon="9.3726051"><ele>200.33333333333331</ele><time>2026-04-20T07:26:57.531Z</time></trkpt><trkpt lat="46.1384315" lon="9.3727038"><ele>199.66666666666666</ele><time>2026-04-20T07:26:59.531Z</time></trkpt><trkpt lat="46.1384442" lon="9.3728303"><ele>199.0</ele><time>2026-04-20T07:27:01.532Z</time></trkpt><trkpt lat="46.138455" lon="9.3729609"><ele>199.39999999999998</ele><time>2026-04-20T07:27:03.531Z</time></trkpt><trkpt lat="46.1384649" lon="9.3730975"><ele>199.8</ele><time>2026-04-20T07:27:05.533Z</time></trkpt><trkpt lat="46.1384834" lon="9.3732461"><ele>200.2</ele><time>2026-04-20T07:27:07.532Z</time></trkpt><trkpt lat="46.1385009" lon="9.3733769"><ele>200.60000000000002</ele><time>2026-04-20T07:27:09.532Z</time></trkpt><trkpt lat="46.1385101" lon="9.3735123"><ele>201.0</ele><time>2026-04-20T07:27:11.531Z</time></trkpt><trkpt lat="46.1385326" lon="9.3736372"><ele>201.0</ele><time>2026-04-20T07:27:13.531Z</time></trkpt><trkpt lat="46.1385336" lon="9.373772"><ele>201.0</ele><time>2026-04-20T07:27:15.533Z</time></trkpt><trkpt lat="46.1385389" lon="9.3739061"><ele>201.0</ele><time>2026-04-20T07:27:17.531Z</time></trkpt><trkpt lat="46.1385503" lon="9.3740397"><ele>201.0</ele><time>2026-04-20T07:27:19.533Z</time></trkpt><trkpt lat="46.1385687" lon="9.3741709"><ele>201.0</ele><time>2026-04-20T07:27:21.531Z</time></trkpt><trkpt lat="46.1385716" lon="9.3743034"><ele>201.5</ele><time>2026-04-20T07:27:23.531Z</time></trkpt><trkpt lat="46.138579" lon="9.3744409"><ele>202.0</ele><time>2026-04-20T07:27:25.531Z</time></trkpt><trkpt lat="46.1385661" lon="9.3745737"><ele>202.5</ele><time>2026-04-20T07:27:27.531Z</time></trkpt><trkpt lat="46.1385157" lon="9.3746767"><ele>203.0</ele><time>2026-04-20T07:27:29.533Z</time></trkpt><trkpt lat="46.1384649" lon="9.3747798"><ele>203.5</ele><time>2026-04-20T07:27:31.534Z</time></trkpt><trkpt lat="46.1384838" lon="9.3748938"><ele>204.0</ele><time>2026-04-20T07:27:33.532Z</time></trkpt><trkpt lat="46.1385553" lon="9.374977"><ele>204.6</ele><time>2026-04-20T07:27:35.532Z</time></trkpt><trkpt lat="46.1386401" lon="9.3750596"><ele>205.2</ele><time>2026-04-20T07:27:37.533Z</time></trkpt><trkpt lat="46.1387004" lon="9.3751708"><ele>205.79999999999998</ele><time>2026-04-20T07:27:39.531Z</time></trkpt><trkpt lat="46.1387591" lon="9.3752994"><ele>206.39999999999998</ele><time>2026-04-20T07:27:41.532Z</time></trkpt><trkpt lat="46.1388222" lon="9.3754216"><ele>207.0</ele><time>2026-04-20T07:27:43.531Z</time></trkpt><trkpt lat="46.1388782" lon="9.3755523"><ele>207.39999999999998</ele><time>2026-04-20T07:27:45.532Z</time></trkpt><trkpt lat="46.1389333" lon="9.3756765"><ele>207.79999999999998</ele><time>2026-04-20T07:27:47.532Z</time></trkpt><trkpt lat="46.1389945" lon="9.3758156"><ele>208.2</ele><time>2026-04-20T07:27:49.532Z</time></trkpt><trkpt lat="46.1390349" lon="9.3759517"><ele>208.6</ele><time>2026-04-20T07:27:51.531Z</time></trkpt><trkpt lat="46.1390692" lon="9.3760836"><ele>209.0</ele><time>2026-04-20T07:27:53.533Z</time></trkpt><trkpt lat="46.1391076" lon="9.3761923"><ele>208.79999999999998</ele><time>2026-04-20T07:27:55.531Z</time></trkpt><trkpt lat="46.1391495" lon="9.3763146"><ele>208.6</ele><time>2026-04-20T07:27:57.532Z</time></trkpt><trkpt lat="46.1391871" lon="9.3764453"><ele>208.4</ele><time>2026-04-20T07:27:59.533Z</time></trkpt><trkpt lat="46.1392204" lon="9.3765745"><ele>208.2</ele><time>2026-04-20T07:28:01.531Z</time></trkpt><trkpt lat="46.1392507" lon="9.376706"><ele>208.0</ele><time>2026-04-20T07:28:03.532Z</time></trkpt><trkpt lat="46.1392812" lon="9.3768246"><ele>208.0</ele><time>2026-04-20T07:28:05.532Z</time></trkpt><trkpt lat="46.1393199" lon="9.376945"><ele>208.0</ele><time>2026-04-20T07:28:07.531Z</time></trkpt><trkpt lat="46.1393685" lon="9.3770591"><ele>208.0</ele><time>2026-04-20T07:28:09.533Z</time></trkpt><trkpt lat="46.1394192" lon="9.3771886"><ele>208.0</ele><time>2026-04-20T07:28:11.532Z</time></trkpt><trkpt lat="46.1394753" lon="9.3773143"><ele>208.0</ele><time>2026-04-20T07:28:13.531Z</time></trkpt><trkpt lat="46.1395347" lon="9.3774566"><ele>208.2</ele><time>2026-04-20T07:28:15.533Z</time></trkpt><trkpt lat="46.139586" lon="9.3775853"><ele>208.4</ele><time>2026-04-20T07:28:17.532Z</time></trkpt><trkpt lat="46.1396425" lon="9.3777042"><ele>208.6</ele><time>2026-04-20T07:28:19.532Z</time></trkpt><trkpt lat="46.1397036" lon="9.3778239"><ele>208.79999999999998</ele><time>2026-04-20T07:28:21.531Z</time></trkpt><trkpt lat="46.1397773" lon="9.3779448"><ele>209.0</ele><time>2026-04-20T07:28:23.532Z</time></trkpt><trkpt lat="46.1398419" lon="9.3780591"><ele>208.79999999999998</ele><time>2026-04-20T07:28:25.532Z</time></trkpt><trkpt lat="46.1399163" lon="9.3781716"><ele>208.6</ele><time>2026-04-20T07:28:27.532Z</time></trkpt><trkpt lat="46.1399715" lon="9.3782831"><ele>208.4</ele><time>2026-04-20T07:28:29.532Z</time></trkpt><trkpt lat="46.1400294" lon="9.3784054"><ele>208.2</ele><time>2026-04-20T07:28:31.533Z</time></trkpt><trkpt lat="46.1400647" lon="9.3785171"><ele>208.0</ele><time>2026-04-20T07:28:33.532Z</time></trkpt><trkpt lat="46.1400977" lon="9.3786405"><ele>208.0</ele><time>2026-04-20T07:28:35.533Z</time></trkpt><trkpt lat="46.1401319" lon="9.3787627"><ele>208.0</ele><time>2026-04-20T07:28:37.531Z</time></trkpt><trkpt lat="46.1401643" lon="9.3788985"><ele>208.0</ele><time>2026-04-20T07:28:39.532Z</time></trkpt><trkpt lat="46.1402008" lon="9.3790291"><ele>208.0</ele><time>2026-04-20T07:28:41.532Z</time></trkpt><trkpt lat="46.1402376" lon="9.3791722"><ele>208.0</ele><time>2026-04-20T07:28:43.533Z</time></trkpt><trkpt lat="46.1402732" lon="9.379297"><ele>208.4</ele><time>2026-04-20T07:28:45.532Z</time></trkpt><trkpt lat="46.140295" lon="9.3794624"><ele>208.8</ele><time>2026-04-20T07:28:47.532Z</time></trkpt><trkpt lat="46.1403195" lon="9.3795975"><ele>209.2</ele><time>2026-04-20T07:28:49.531Z</time></trkpt><trkpt lat="46.1403471" lon="9.379761"><ele>209.6</ele><time>2026-04-20T07:28:51.533Z</time></trkpt><trkpt lat="46.1403781" lon="9.379914"><ele>210.0</ele><time>2026-04-20T07:28:53.532Z</time></trkpt><trkpt lat="46.1404155" lon="9.3800546"><ele>210.4</ele><time>2026-04-20T07:28:55.532Z</time></trkpt><trkpt lat="46.1404464" lon="9.3802112"><ele>210.8</ele><time>2026-04-20T07:28:57.533Z</time></trkpt><trkpt lat="46.1404722" lon="9.3803431"><ele>211.2</ele><time>2026-04-20T07:28:59.531Z</time></trkpt><trkpt lat="46.1405184" lon="9.3804944"><ele>211.6</ele><time>2026-04-20T07:29:01.532Z</time></trkpt><trkpt lat="46.1405506" lon="9.3806362"><ele>212.0</ele><time>2026-04-20T07:29:03.532Z</time></trkpt><trkpt lat="46.1405841" lon="9.3807707"><ele>211.6</ele><time>2026-04-20T07:29:05.531Z</time></trkpt><trkpt lat="46.1406147" lon="9.3809166"><ele>211.2</ele><time>2026-04-20T07:29:07.531Z</time></trkpt><trkpt lat="46.1406449" lon="9.3810574"><ele>210.8</ele><time>2026-04-20T07:29:09.533Z</time></trkpt><trkpt lat="46.1406724" lon="9.3812116"><ele>210.4</ele><time>2026-04-20T07:29:11.532Z</time></trkpt><trkpt lat="46.1407034" lon="9.3813636"><ele>210.0</ele><time>2026-04-20T07:29:13.534Z</time></trkpt><trkpt lat="46.1407334" lon="9.3815059"><ele>210.0</ele><time>2026-04-20T07:29:15.533Z</time></trkpt><trkpt lat="46.140767" lon="9.3816705"><ele>210.0</ele><time>2026-04-20T07:29:17.533Z</time></trkpt><trkpt lat="46.1408028" lon="9.3818195"><ele>210.0</ele><time>2026-04-20T07:29:19.532Z</time></trkpt><trkpt lat="46.1408397" lon="9.3819524"><ele>210.0</ele><time>2026-04-20T07:29:21.532Z</time></trkpt><trkpt lat="46.1408762" lon="9.3820924"><ele>210.0</ele><time>2026-04-20T07:29:23.531Z</time></trkpt><trkpt lat="46.1409099" lon="9.3822474"><ele>210.4</ele><time>2026-04-20T07:29:25.532Z</time></trkpt><trkpt lat="46.1409413" lon="9.3823933"><ele>210.8</ele><time>2026-04-20T07:29:27.532Z</time></trkpt><trkpt lat="46.1409764" lon="9.3825385"><ele>211.2</ele><time>2026-04-20T07:29:29.533Z</time></trkpt><trkpt lat="46.1410123" lon="9.3826754"><ele>211.6</ele><time>2026-04-20T07:29:31.532Z</time></trkpt><trkpt lat="46.141048" lon="9.3828094"><ele>212.0</ele><time>2026-04-20T07:29:33.531Z</time></trkpt><trkpt lat="46.1410879" lon="9.3829481"><ele>212.2</ele><time>2026-04-20T07:29:35.531Z</time></trkpt><trkpt lat="46.1411439" lon="9.3830834"><ele>212.39999999999998</ele><time>2026-04-20T07:29:37.532Z</time></trkpt><trkpt lat="46.1412494" lon="9.3831371"><ele>212.60000000000002</ele><time>2026-04-20T07:29:39.533Z</time></trkpt><trkpt lat="46.1413427" lon="9.3831149"><ele>212.8</ele><time>2026-04-20T07:29:41.531Z</time></trkpt><trkpt lat="46.1414356" lon="9.3830953"><ele>213.0</ele><time>2026-04-20T07:29:43.532Z</time></trkpt><trkpt lat="46.1415254" lon="9.3831006"><ele>212.0</ele><time>2026-04-20T07:29:45.533Z</time></trkpt><trkpt lat="46.1416101" lon="9.3831319"><ele>211.0</ele><time>2026-04-20T07:29:47.533Z</time></trkpt><trkpt lat="46.141696" lon="9.3831878"><ele>210.0</ele><time>2026-04-20T07:29:49.531Z</time></trkpt><trkpt lat="46.1417723" lon="9.383276"><ele>209.0</ele><time>2026-04-20T07:29:51.533Z</time></trkpt><trkpt lat="46.1418192" lon="9.3833812"><ele>208.0</ele><time>2026-04-20T07:29:53.532Z</time></trkpt><trkpt lat="46.1418567" lon="9.3835469"><ele>208.0</ele><time>2026-04-20T07:29:56.532Z</time></trkpt><trkpt lat="46.141854" lon="9.3836405"><ele>208.0</ele><time>2026-04-20T07:29:58.533Z</time></trkpt><trkpt lat="46.1418478" lon="9.3837385"><ele>208.0</ele><time>2026-04-20T07:30:00.533Z</time></trkpt><trkpt lat="46.141829" lon="9.3838638"><ele>208.0</ele><time>2026-04-20T07:30:03.532Z</time></trkpt><trkpt lat="46.1417915" lon="9.383961"><ele>208.0</ele><time>2026-04-20T07:30:06.533Z</time></trkpt><trkpt lat="46.1417445" lon="9.3840485"><ele>208.0</ele><time>2026-04-20T07:30:09.533Z</time></trkpt><trkpt lat="46.141691" lon="9.3841056"><ele>208.0</ele><time>2026-04-20T07:30:12.533Z</time></trkpt><trkpt lat="46.1416232" lon="9.384161"><ele>208.14285714285714</ele><time>2026-04-20T07:30:15.532Z</time></trkpt><trkpt lat="46.1415647" lon="9.3841993"><ele>208.2857142857143</ele><time>2026-04-20T07:30:18.532Z</time></trkpt><trkpt lat="46.1414935" lon="9.3842147"><ele>208.42857142857144</ele><time>2026-04-20T07:30:22.532Z</time></trkpt><trkpt lat="46.1414253" lon="9.384234"><ele>208.57142857142856</ele><time>2026-04-20T07:30:25.532Z</time></trkpt><trkpt lat="46.1413424" lon="9.3842643"><ele>208.71428571428572</ele><time>2026-04-20T07:30:28.533Z</time></trkpt><trkpt lat="46.1412792" lon="9.3842869"><ele>208.85714285714286</ele><time>2026-04-20T07:30:30.533Z</time></trkpt><trkpt lat="46.1412102" lon="9.3843067"><ele>209.0</ele><time>2026-04-20T07:30:32.533Z</time></trkpt><trkpt lat="46.1411401" lon="9.3843285"><ele>209.66666666666669</ele><time>2026-04-20T07:30:34.532Z</time></trkpt><trkpt lat="46.1410539" lon="9.3843627"><ele>210.33333333333334</ele><time>2026-04-20T07:30:36.532Z</time></trkpt><trkpt lat="46.1409436" lon="9.3844025"><ele>211.0</ele><time>2026-04-20T07:30:38.532Z</time></trkpt><trkpt lat="46.1408689" lon="9.384429"><ele>211.66666666666669</ele><time>2026-04-20T07:30:39.533Z</time></trkpt><trkpt lat="46.1408018" lon="9.3844514"><ele>212.33333333333334</ele><time>2026-04-20T07:30:40.533Z</time></trkpt><trkpt lat="46.1407259" lon="9.3844696"><ele>213.0</ele><time>2026-04-20T07:30:41.534Z</time></trkpt><trkpt lat="46.1406546" lon="9.3844865"><ele>213.83333333333334</ele><time>2026-04-20T07:30:42.532Z</time></trkpt><trkpt lat="46.1405804" lon="9.3845199"><ele>214.66666666666669</ele><time>2026-04-20T07:30:43.533Z</time></trkpt><trkpt lat="46.1405105" lon="9.3845611"><ele>215.5</ele><time>2026-04-20T07:30:44.533Z</time></trkpt><trkpt lat="46.1404456" lon="9.3845827"><ele>216.33333333333334</ele><time>2026-04-20T07:30:45.532Z</time></trkpt><trkpt lat="46.1403831" lon="9.3846186"><ele>217.16666666666669</ele><time>2026-04-20T07:30:46.532Z</time></trkpt><trkpt lat="46.1402838" lon="9.384678"><ele>218.0</ele><time>2026-04-20T07:30:48.533Z</time></trkpt><trkpt lat="46.1402264" lon="9.3847171"><ele>218.0</ele><time>2026-04-20T07:30:50.532Z</time></trkpt><trkpt lat="46.1401957" lon="9.3848041"><ele>218.0</ele><time>2026-04-20T07:30:52.532Z</time></trkpt><trkpt lat="46.1402042" lon="9.3849082"><ele>218.0</ele><time>2026-04-20T07:30:54.534Z</time></trkpt><trkpt lat="46.1402637" lon="9.3850894"><ele>218.0</ele><time>2026-04-20T07:30:57.532Z</time></trkpt><trkpt lat="46.1403109" lon="9.3852228"><ele>218.0</ele><time>2026-04-20T07:30:59.532Z</time></trkpt><trkpt lat="46.1403554" lon="9.3853637"><ele>218.2</ele><time>2026-04-20T07:31:01.533Z</time></trkpt><trkpt lat="46.1403999" lon="9.3855131"><ele>218.4</ele><time>2026-04-20T07:31:03.533Z</time></trkpt><trkpt lat="46.1404456" lon="9.385661"><ele>218.59999999999997</ele><time>2026-04-20T07:31:06.153Z</time></trkpt><trkpt lat="46.1404881" lon="9.3858059"><ele>218.79999999999998</ele><time>2026-04-20T07:31:07.532Z</time></trkpt><trkpt lat="46.1405341" lon="9.3859574"><ele>219.0</ele><time>2026-04-20T07:31:09.533Z</time></trkpt><trkpt lat="46.1405791" lon="9.3861157"><ele>219.0</ele><time>2026-04-20T07:31:11.532Z</time></trkpt><trkpt lat="46.1406277" lon="9.3862662"><ele>218.99999999999997</ele><time>2026-04-20T07:31:13.532Z</time></trkpt><trkpt lat="46.1406725" lon="9.386417"><ele>218.99999999999997</ele><time>2026-04-20T07:31:15.532Z</time></trkpt><trkpt lat="46.1407106" lon="9.3865553"><ele>219.0</ele><time>2026-04-20T07:31:17.533Z</time></trkpt><trkpt lat="46.1407592" lon="9.386695"><ele>219.0</ele><time>2026-04-20T07:31:19.532Z</time></trkpt><trkpt lat="46.1408073" lon="9.3868364"><ele>218.2</ele><time>2026-04-20T07:31:21.532Z</time></trkpt><trkpt lat="46.1408554" lon="9.3869837"><ele>217.39999999999998</ele><time>2026-04-20T07:31:23.533Z</time></trkpt><trkpt lat="46.1409024" lon="9.3871217"><ele>216.6</ele><time>2026-04-20T07:31:25.533Z</time></trkpt><trkpt lat="46.140948" lon="9.3872584"><ele>215.8</ele><time>2026-04-20T07:31:27.533Z</time></trkpt><trkpt lat="46.1409925" lon="9.3873839"><ele>215.0</ele><time>2026-04-20T07:31:29.533Z</time></trkpt><trkpt lat="46.1410406" lon="9.3874905"><ele>214.8</ele><time>2026-04-20T07:31:31.534Z</time></trkpt><trkpt lat="46.1410962" lon="9.3876176"><ele>214.6</ele><time>2026-04-20T07:31:33.532Z</time></trkpt><trkpt lat="46.1411394" lon="9.3877578"><ele>214.39999999999998</ele><time>2026-04-20T07:31:35.533Z</time></trkpt><trkpt lat="46.1411862" lon="9.3879088"><ele>214.2</ele><time>2026-04-20T07:31:37.533Z</time></trkpt><trkpt lat="46.141225" lon="9.3880307"><ele>214.0</ele><time>2026-04-20T07:31:39.533Z</time></trkpt><trkpt lat="46.1412685" lon="9.3881664"><ele>214.0</ele><time>2026-04-20T07:31:41.533Z</time></trkpt><trkpt lat="46.141305" lon="9.388305"><ele>213.99999999999997</ele><time>2026-04-20T07:31:43.534Z</time></trkpt><trkpt lat="46.1413398" lon="9.3884454"><ele>213.99999999999997</ele><time>2026-04-20T07:31:45.532Z</time></trkpt><trkpt lat="46.1413806" lon="9.3885814"><ele>214.0</ele><time>2026-04-20T07:31:47.533Z</time></trkpt><trkpt lat="46.1414321" lon="9.3887389"><ele>214.0</ele><time>2026-04-20T07:31:49.534Z</time></trkpt><trkpt lat="46.1414567" lon="9.3888244"><ele>213.75</ele><time>2026-04-20T07:31:50.533Z</time></trkpt><trkpt lat="46.141507" lon="9.3889703"><ele>213.5</ele><time>2026-04-20T07:31:52.532Z</time></trkpt><trkpt lat="46.1415304" lon="9.3891376"><ele>213.25</ele><time>2026-04-20T07:31:54.532Z</time></trkpt><trkpt lat="46.1415669" lon="9.3893011"><ele>213.0</ele><time>2026-04-20T07:31:56.533Z</time></trkpt><trkpt lat="46.1416144" lon="9.3894617"><ele>212.60000000000002</ele><time>2026-04-20T07:31:58.532Z</time></trkpt><trkpt lat="46.1416433" lon="9.3895541"><ele>212.20000000000002</ele><time>2026-04-20T07:31:59.533Z</time></trkpt><trkpt lat="46.1416756" lon="9.3896526"><ele>211.8</ele><time>2026-04-20T07:32:00.533Z</time></trkpt><trkpt lat="46.141712" lon="9.3897411"><ele>211.4</ele><time>2026-04-20T07:32:01.533Z</time></trkpt><trkpt lat="46.1417704" lon="9.389903"><ele>211.0</ele><time>2026-04-20T07:32:03.533Z</time></trkpt><trkpt lat="46.1418163" lon="9.3900613"><ele>211.0</ele><time>2026-04-20T07:32:05.534Z</time></trkpt><trkpt lat="46.1418589" lon="9.3902193"><ele>211.0</ele><time>2026-04-20T07:32:07.533Z</time></trkpt><trkpt lat="46.1418716" lon="9.390372"><ele>211.0</ele><time>2026-04-20T07:32:09.533Z</time></trkpt><trkpt lat="46.1418542" lon="9.3905455"><ele>211.0</ele><time>2026-04-20T07:32:11.533Z</time></trkpt><trkpt lat="46.1418381" lon="9.3906339"><ele>211.0</ele><time>2026-04-20T07:32:12.532Z</time></trkpt><trkpt lat="46.141827" lon="9.3907238"><ele>211.0</ele><time>2026-04-20T07:32:13.534Z</time></trkpt><trkpt lat="46.1417977" lon="9.3908987"><ele>211.0</ele><time>2026-04-20T07:32:15.532Z</time></trkpt><trkpt lat="46.1417804" lon="9.3910707"><ele>211.0</ele><time>2026-04-20T07:32:17.533Z</time></trkpt><trkpt lat="46.1417608" lon="9.3912241"><ele>211.0</ele><time>2026-04-20T07:32:19.533Z</time></trkpt><trkpt lat="46.1417407" lon="9.3913762"><ele>211.20000000000002</ele><time>2026-04-20T07:32:21.533Z</time></trkpt><trkpt lat="46.141719" lon="9.3915145"><ele>211.4</ele><time>2026-04-20T07:32:23.534Z</time></trkpt><trkpt lat="46.1416612" lon="9.3915997"><ele>211.6</ele><time>2026-04-20T07:32:25.533Z</time></trkpt><trkpt lat="46.1415741" lon="9.3916552"><ele>211.8</ele><time>2026-04-20T07:32:27.533Z</time></trkpt><trkpt lat="46.1414788" lon="9.3916741"><ele>212.0</ele><time>2026-04-20T07:32:29.534Z</time></trkpt><trkpt lat="46.1413889" lon="9.3916756"><ele>212.2</ele><time>2026-04-20T07:32:31.533Z</time></trkpt><trkpt lat="46.1412888" lon="9.3916691"><ele>212.39999999999998</ele><time>2026-04-20T07:32:33.532Z</time></trkpt><trkpt lat="46.1411947" lon="9.3916592"><ele>212.60000000000002</ele><time>2026-04-20T07:32:35.532Z</time></trkpt><trkpt lat="46.1411035" lon="9.391643"><ele>212.8</ele><time>2026-04-20T07:32:37.533Z</time></trkpt><trkpt lat="46.1410157" lon="9.3916234"><ele>213.0</ele><time>2026-04-20T07:32:39.532Z</time></trkpt><trkpt lat="46.1409186" lon="9.3915884"><ele>213.0</ele><time>2026-04-20T07:32:41.533Z</time></trkpt><trkpt lat="46.1408235" lon="9.3915603"><ele>213.0</ele><time>2026-04-20T07:32:43.533Z</time></trkpt><trkpt lat="46.1407297" lon="9.3915287"><ele>213.0</ele><time>2026-04-20T07:32:45.533Z</time></trkpt><trkpt lat="46.1406352" lon="9.391499"><ele>213.0</ele><time>2026-04-20T07:32:47.533Z</time></trkpt><trkpt lat="46.1405432" lon="9.3914704"><ele>213.0</ele><time>2026-04-20T07:32:49.533Z</time></trkpt><trkpt lat="46.1404464" lon="9.3914465"><ele>213.66666666666666</ele><time>2026-04-20T07:32:51.533Z</time></trkpt><trkpt lat="46.1403519" lon="9.3914141"><ele>214.33333333333331</ele><time>2026-04-20T07:32:53.533Z</time></trkpt><trkpt lat="46.1402617" lon="9.3913863"><ele>215.0</ele><time>2026-04-20T07:32:55.534Z</time></trkpt><trkpt lat="46.1401865" lon="9.3913612"><ele>215.66666666666666</ele><time>2026-04-20T07:32:57.534Z</time></trkpt><trkpt lat="46.1401225" lon="9.3913451"><ele>216.33333333333331</ele><time>2026-04-20T07:32:59.533Z</time></trkpt><trkpt lat="46.1400645" lon="9.3914048"><ele>217.0</ele><time>2026-04-20T07:33:38.61Z</time></trkpt><trkpt lat="46.1400216" lon="9.3915018"><ele>217.0</ele><time>2026-04-20T07:33:40.533Z</time></trkpt><trkpt lat="46.14001" lon="9.3916021"><ele>217.0</ele><time>2026-04-20T07:33:42.533Z</time></trkpt><trkpt lat="46.1400225" lon="9.3917212"><ele>217.0</ele><time>2026-04-20T07:33:44.533Z</time></trkpt><trkpt lat="46.140037" lon="9.3918483"><ele>217.0</ele><time>2026-04-20T07:33:46.638Z</time></trkpt><trkpt lat="46.1400405" lon="9.392052"><ele>217.0</ele><time>2026-04-20T07:33:49.534Z</time></trkpt><trkpt lat="46.140044" lon="9.3922073"><ele>217.39999999999998</ele><time>2026-04-20T07:33:51.533Z</time></trkpt><trkpt lat="46.1400479" lon="9.3923702"><ele>217.79999999999998</ele><time>2026-04-20T07:33:53.533Z</time></trkpt><trkpt lat="46.1400555" lon="9.3925383"><ele>218.2</ele><time>2026-04-20T07:33:55.534Z</time></trkpt><trkpt lat="46.1400551" lon="9.392716"><ele>218.6</ele><time>2026-04-20T07:33:57.532Z</time></trkpt><trkpt lat="46.140058" lon="9.3928079"><ele>219.0</ele><time>2026-04-20T07:33:58.533Z</time></trkpt><trkpt lat="46.1400543" lon="9.392905"><ele>218.75</ele><time>2026-04-20T07:33:59.532Z</time></trkpt><trkpt lat="46.140054" lon="9.393077"><ele>218.5</ele><time>2026-04-20T07:34:01.534Z</time></trkpt><trkpt lat="46.1400551" lon="9.3932498"><ele>218.25</ele><time>2026-04-20T07:34:03.534Z</time></trkpt><trkpt lat="46.1400556" lon="9.3933417"><ele>218.0</ele><time>2026-04-20T07:34:04.533Z</time></trkpt><trkpt lat="46.1400499" lon="9.3936166"><ele>218.0</ele><time>2026-04-20T07:34:07.534Z</time></trkpt><trkpt lat="46.1400326" lon="9.3937065"><ele>218.0</ele><time>2026-04-20T07:34:08.532Z</time></trkpt><trkpt lat="46.1400068" lon="9.3937924"><ele>218.0</ele><time>2026-04-20T07:34:09.533Z</time></trkpt><trkpt lat="46.1399602" lon="9.3939534"><ele>218.0</ele><time>2026-04-20T07:34:11.533Z</time></trkpt><trkpt lat="46.1399301" lon="9.3941171"><ele>218.0</ele><time>2026-04-20T07:34:13.534Z</time></trkpt><trkpt lat="46.1399056" lon="9.3942696"><ele>218.0</ele><time>2026-04-20T07:34:15.534Z</time></trkpt><trkpt lat="46.1398775" lon="9.3944248"><ele>218.0</ele><time>2026-04-20T07:34:17.533Z</time></trkpt><trkpt lat="46.1398474" lon="9.3945823"><ele>218.0</ele><time>2026-04-20T07:34:19.533Z</time></trkpt><trkpt lat="46.1398048" lon="9.3947515"><ele>218.0</ele><time>2026-04-20T07:34:21.532Z</time></trkpt><trkpt lat="46.1397661" lon="9.3949001"><ele>217.75</ele><time>2026-04-20T07:34:23.533Z</time></trkpt><trkpt lat="46.1397232" lon="9.3950599"><ele>217.5</ele><time>2026-04-20T07:34:25.533Z</time></trkpt><trkpt lat="46.139687" lon="9.3952157"><ele>217.25</ele><time>2026-04-20T07:34:27.533Z</time></trkpt><trkpt lat="46.1396494" lon="9.3953804"><ele>217.0</ele><time>2026-04-20T07:34:29.533Z</time></trkpt><trkpt lat="46.1396069" lon="9.3955431"><ele>217.0</ele><time>2026-04-20T07:34:31.534Z</time></trkpt><trkpt lat="46.1395577" lon="9.3956954"><ele>217.0</ele><time>2026-04-20T07:34:33.532Z</time></trkpt><trkpt lat="46.1395201" lon="9.3958523"><ele>217.0</ele><time>2026-04-20T07:34:35.534Z</time></trkpt><trkpt lat="46.1394785" lon="9.3959952"><ele>217.0</ele><time>2026-04-20T07:34:37.533Z</time></trkpt><trkpt lat="46.1394387" lon="9.3961292"><ele>217.0</ele><time>2026-04-20T07:34:39.533Z</time></trkpt><trkpt lat="46.1394075" lon="9.3962623"><ele>217.0</ele><time>2026-04-20T07:34:41.533Z</time></trkpt><trkpt lat="46.1393766" lon="9.3963876"><ele>217.0</ele><time>2026-04-20T07:34:43.535Z</time></trkpt><trkpt lat="46.1393378" lon="9.3965285"><ele>217.0</ele><time>2026-04-20T07:34:45.533Z</time></trkpt><trkpt lat="46.1393067" lon="9.3966802"><ele>217.0</ele><time>2026-04-20T07:34:47.532Z</time></trkpt><trkpt lat="46.1392618" lon="9.396831"><ele>217.0</ele><time>2026-04-20T07:34:49.535Z</time></trkpt><trkpt lat="46.1392269" lon="9.3969803"><ele>217.0</ele><time>2026-04-20T07:34:51.534Z</time></trkpt><trkpt lat="46.1391953" lon="9.3971368"><ele>217.0</ele><time>2026-04-20T07:34:53.534Z</time></trkpt><trkpt lat="46.139159" lon="9.3972918"><ele>217.0</ele><time>2026-04-20T07:34:55.534Z</time></trkpt><trkpt lat="46.1391148" lon="9.3974512"><ele>217.0</ele><time>2026-04-20T07:34:57.533Z</time></trkpt><trkpt lat="46.1390682" lon="9.3976031"><ele>217.2</ele><time>2026-04-20T07:34:59.535Z</time></trkpt><trkpt lat="46.1390295" lon="9.397758"><ele>217.39999999999998</ele><time>2026-04-20T07:35:01.534Z</time></trkpt><trkpt lat="46.1389948" lon="9.3979062"><ele>217.60000000000002</ele><time>2026-04-20T07:35:03.533Z</time></trkpt><trkpt lat="46.1389538" lon="9.3980536"><ele>217.8</ele><time>2026-04-20T07:35:05.533Z</time></trkpt><trkpt lat="46.1389146" lon="9.3981942"><ele>218.0</ele><time>2026-04-20T07:35:07.533Z</time></trkpt><trkpt lat="46.1388795" lon="9.3983597"><ele>218.0</ele><time>2026-04-20T07:35:09.534Z</time></trkpt><trkpt lat="46.1388388" lon="9.3985128"><ele>218.0</ele><time>2026-04-20T07:35:11.532Z</time></trkpt><trkpt lat="46.1388032" lon="9.3986801"><ele>218.0</ele><time>2026-04-20T07:35:13.533Z</time></trkpt><trkpt lat="46.1387611" lon="9.3988352"><ele>218.0</ele><time>2026-04-20T07:35:15.533Z</time></trkpt><trkpt lat="46.1387179" lon="9.3989986"><ele>217.83333333333334</ele><time>2026-04-20T07:35:17.534Z</time></trkpt><trkpt lat="46.1386715" lon="9.3991576"><ele>217.66666666666669</ele><time>2026-04-20T07:35:19.534Z</time></trkpt><trkpt lat="46.1386448" lon="9.3992457"><ele>217.5</ele><time>2026-04-20T07:35:20.534Z</time></trkpt><trkpt lat="46.1386056" lon="9.3994066"><ele>217.33333333333331</ele><time>2026-04-20T07:35:22.533Z</time></trkpt><trkpt lat="46.1385796" lon="9.3994919"><ele>217.16666666666666</ele><time>2026-04-20T07:35:23.533Z</time></trkpt><trkpt lat="46.1385564" lon="9.3995808"><ele>217.0</ele><time>2026-04-20T07:35:24.533Z</time></trkpt><trkpt lat="46.1385292" lon="9.3996663"><ele>216.49999999999997</ele><time>2026-04-20T07:35:25.534Z</time></trkpt><trkpt lat="46.1384868" lon="9.3998366"><ele>216.0</ele><time>2026-04-20T07:35:27.533Z</time></trkpt><trkpt lat="46.1384616" lon="9.3999271"><ele>215.5</ele><time>2026-04-20T07:35:28.534Z</time></trkpt><trkpt lat="46.1384392" lon="9.4000167"><ele>215.0</ele><time>2026-04-20T07:35:29.533Z</time></trkpt><trkpt lat="46.1384152" lon="9.4001019"><ele>214.49999999999997</ele><time>2026-04-20T07:35:30.534Z</time></trkpt><trkpt lat="46.1383984" lon="9.4001958"><ele>214.0</ele><time>2026-04-20T07:35:31.533Z</time></trkpt><trkpt lat="46.1383792" lon="9.4002832"><ele>213.99999999999997</ele><time>2026-04-20T07:35:32.535Z</time></trkpt><trkpt lat="46.1383557" lon="9.400374"><ele>214.0</ele><time>2026-04-20T07:35:33.533Z</time></trkpt><trkpt lat="46.1383369" lon="9.4004685"><ele>214.0</ele><time>2026-04-20T07:35:34.534Z</time></trkpt><trkpt lat="46.1383054" lon="9.400645"><ele>214.0</ele><time>2026-04-20T07:35:36.533Z</time></trkpt><trkpt lat="46.1382821" lon="9.4007373"><ele>213.99999999999997</ele><time>2026-04-20T07:35:37.534Z</time></trkpt><trkpt lat="46.1382594" lon="9.4008259"><ele>214.0</ele><time>2026-04-20T07:35:38.533Z</time></trkpt><trkpt lat="46.1382162" lon="9.4010069"><ele>214.2857142857143</ele><time>2026-04-20T07:35:40.534Z</time></trkpt><trkpt lat="46.1381904" lon="9.4010942"><ele>214.57142857142858</ele><time>2026-04-20T07:35:41.533Z</time></trkpt><trkpt lat="46.1381696" lon="9.4011861"><ele>214.85714285714286</ele><time>2026-04-20T07:35:42.534Z</time></trkpt><trkpt lat="46.1381457" lon="9.4012748"><ele>215.14285714285717</ele><time>2026-04-20T07:35:43.534Z</time></trkpt><trkpt lat="46.1381209" lon="9.4013643"><ele>215.42857142857142</ele><time>2026-04-20T07:35:44.533Z</time></trkpt><trkpt lat="46.1380957" lon="9.401453"><ele>215.71428571428572</ele><time>2026-04-20T07:35:45.534Z</time></trkpt><trkpt lat="46.1380749" lon="9.4015414"><ele>216.0</ele><time>2026-04-20T07:35:46.534Z</time></trkpt><trkpt lat="46.13805" lon="9.4016277"><ele>216.0</ele><time>2026-04-20T07:35:47.532Z</time></trkpt><trkpt lat="46.1380084" lon="9.4017901"><ele>216.0</ele><time>2026-04-20T07:35:49.533Z</time></trkpt><trkpt lat="46.1379652" lon="9.4019499"><ele>216.0</ele><time>2026-04-20T07:35:51.533Z</time></trkpt><trkpt lat="46.1379239" lon="9.4021121"><ele>216.0</ele><time>2026-04-20T07:35:53.535Z</time></trkpt><trkpt lat="46.1378822" lon="9.4022756"><ele>215.83333333333334</ele><time>2026-04-20T07:35:55.533Z</time></trkpt><trkpt lat="46.1378607" lon="9.4023625"><ele>215.66666666666669</ele><time>2026-04-20T07:35:56.534Z</time></trkpt><trkpt lat="46.1378175" lon="9.4025195"><ele>215.5</ele><time>2026-04-20T07:35:58.533Z</time></trkpt><trkpt lat="46.1377945" lon="9.4026041"><ele>215.33333333333334</ele><time>2026-04-20T07:35:59.534Z</time></trkpt><trkpt lat="46.1377727" lon="9.4026947"><ele>215.16666666666669</ele><time>2026-04-20T07:36:00.534Z</time></trkpt><trkpt lat="46.1377529" lon="9.4027815"><ele>215.0</ele><time>2026-04-20T07:36:01.533Z</time></trkpt><trkpt lat="46.1377131" lon="9.4029502"><ele>214.6</ele><time>2026-04-20T07:36:03.535Z</time></trkpt><trkpt lat="46.1376798" lon="9.4031208"><ele>214.2</ele><time>2026-04-20T07:36:05.534Z</time></trkpt><trkpt lat="46.1376389" lon="9.4032917"><ele>213.8</ele><time>2026-04-20T07:36:07.533Z</time></trkpt><trkpt lat="46.1375948" lon="9.4034664"><ele>213.4</ele><time>2026-04-20T07:36:09.534Z</time></trkpt><trkpt lat="46.1375713" lon="9.4035554"><ele>213.0</ele><time>2026-04-20T07:36:10.533Z</time></trkpt><trkpt lat="46.1375447" lon="9.4036418"><ele>213.0</ele><time>2026-04-20T07:36:11.533Z</time></trkpt><trkpt lat="46.137505" lon="9.4038079"><ele>213.0</ele><time>2026-04-20T07:36:13.535Z</time></trkpt><trkpt lat="46.1374667" lon="9.4039782"><ele>213.0</ele><time>2026-04-20T07:36:15.533Z</time></trkpt><trkpt lat="46.1374453" lon="9.4040723"><ele>213.0</ele><time>2026-04-20T07:36:16.533Z</time></trkpt><trkpt lat="46.1373981" lon="9.4042388"><ele>213.0</ele><time>2026-04-20T07:36:18.534Z</time></trkpt><trkpt lat="46.1373534" lon="9.4043922"><ele>213.0</ele><time>2026-04-20T07:36:20.535Z</time></trkpt><trkpt lat="46.1373239" lon="9.4045548"><ele>213.0</ele><time>2026-04-20T07:36:22.534Z</time></trkpt><trkpt lat="46.1372856" lon="9.4047085"><ele>213.0</ele><time>2026-04-20T07:36:24.533Z</time></trkpt><trkpt lat="46.137248" lon="9.4048649"><ele>213.0</ele><time>2026-04-20T07:36:26.533Z</time></trkpt><trkpt lat="46.1372117" lon="9.4050181"><ele>213.0</ele><time>2026-04-20T07:36:28.534Z</time></trkpt><trkpt lat="46.1371807" lon="9.4051808"><ele>213.0</ele><time>2026-04-20T07:36:30.534Z</time></trkpt><trkpt lat="46.1371469" lon="9.4053547"><ele>213.0</ele><time>2026-04-20T07:36:32.534Z</time></trkpt><trkpt lat="46.1371271" lon="9.4054452"><ele>213.0</ele><time>2026-04-20T07:36:33.534Z</time></trkpt><trkpt lat="46.1371061" lon="9.4055322"><ele>213.0</ele><time>2026-04-20T07:36:34.533Z</time></trkpt><trkpt lat="46.137083" lon="9.4056277"><ele>213.0</ele><time>2026-04-20T07:36:35.533Z</time></trkpt><trkpt lat="46.1370569" lon="9.4057224"><ele>212.83333333333334</ele><time>2026-04-20T07:36:36.534Z</time></trkpt><trkpt lat="46.1370105" lon="9.4058991"><ele>212.66666666666669</ele><time>2026-04-20T07:36:38.533Z</time></trkpt><trkpt lat="46.1369925" lon="9.4059982"><ele>212.5</ele><time>2026-04-20T07:36:39.535Z</time></trkpt><trkpt lat="46.1369687" lon="9.4060973"><ele>212.33333333333334</ele><time>2026-04-20T07:36:40.534Z</time></trkpt><trkpt lat="46.136943" lon="9.4061994"><ele>212.16666666666669</ele><time>2026-04-20T07:36:41.533Z</time></trkpt><trkpt lat="46.1369169" lon="9.406303"><ele>212.0</ele><time>2026-04-20T07:36:42.534Z</time></trkpt><trkpt lat="46.1368943" lon="9.4064054"><ele>212.00000000000003</ele><time>2026-04-20T07:36:43.533Z</time></trkpt><trkpt lat="46.1368676" lon="9.4065065"><ele>212.0</ele><time>2026-04-20T07:36:44.534Z</time></trkpt><trkpt lat="46.1368386" lon="9.4066116"><ele>212.0</ele><time>2026-04-20T07:36:45.534Z</time></trkpt><trkpt lat="46.1368147" lon="9.4067226"><ele>212.0</ele><time>2026-04-20T07:36:46.533Z</time></trkpt><trkpt lat="46.1367845" lon="9.4068281"><ele>212.00000000000003</ele><time>2026-04-20T07:36:47.533Z</time></trkpt><trkpt lat="46.1367576" lon="9.4069357"><ele>212.0</ele><time>2026-04-20T07:36:48.534Z</time></trkpt><trkpt lat="46.1367298" lon="9.4070473"><ele>212.00000000000003</ele><time>2026-04-20T07:36:49.534Z</time></trkpt><trkpt lat="46.1367017" lon="9.4071606"><ele>212.0</ele><time>2026-04-20T07:36:50.533Z</time></trkpt><trkpt lat="46.1366795" lon="9.4072545"><ele>212.0</ele><time>2026-04-20T07:36:51.534Z</time></trkpt><trkpt lat="46.1366512" lon="9.4073621"><ele>212.0</ele><time>2026-04-20T07:36:52.534Z</time></trkpt><trkpt lat="46.1366254" lon="9.4074716"><ele>212.00000000000003</ele><time>2026-04-20T07:36:53.534Z</time></trkpt><trkpt lat="46.1365921" lon="9.4075686"><ele>212.0</ele><time>2026-04-20T07:36:54.534Z</time></trkpt><trkpt lat="46.13656" lon="9.407674"><ele>211.66666666666669</ele><time>2026-04-20T07:36:55.534Z</time></trkpt><trkpt lat="46.1365335" lon="9.4077866"><ele>211.33333333333334</ele><time>2026-04-20T07:36:56.534Z</time></trkpt><trkpt lat="46.1365071" lon="9.4078903"><ele>211.0</ele><time>2026-04-20T07:36:57.533Z</time></trkpt><trkpt lat="46.1364768" lon="9.4079988"><ele>210.66666666666669</ele><time>2026-04-20T07:36:58.534Z</time></trkpt><trkpt lat="46.1364482" lon="9.4081021"><ele>210.33333333333334</ele><time>2026-04-20T07:36:59.534Z</time></trkpt><trkpt lat="46.1364305" lon="9.408216"><ele>210.0</ele><time>2026-04-20T07:37:00.535Z</time></trkpt><trkpt lat="46.1364001" lon="9.4083231"><ele>210.0</ele><time>2026-04-20T07:37:01.533Z</time></trkpt><trkpt lat="46.1363725" lon="9.4084323"><ele>210.0</ele><time>2026-04-20T07:37:02.533Z</time></trkpt><trkpt lat="46.1363418" lon="9.4085411"><ele>210.0</ele><time>2026-04-20T07:37:03.533Z</time></trkpt><trkpt lat="46.1363061" lon="9.408652"><ele>210.0</ele><time>2026-04-20T07:37:04.533Z</time></trkpt><trkpt lat="46.1362787" lon="9.4087601"><ele>210.0</ele><time>2026-04-20T07:37:05.533Z</time></trkpt><trkpt lat="46.136258" lon="9.4088672"><ele>210.0</ele><time>2026-04-20T07:37:06.534Z</time></trkpt><trkpt lat="46.1362414" lon="9.4089736"><ele>210.16666666666666</ele><time>2026-04-20T07:37:07.534Z</time></trkpt><trkpt lat="46.1362289" lon="9.4090838"><ele>210.33333333333331</ele><time>2026-04-20T07:37:08.535Z</time></trkpt><trkpt lat="46.1362186" lon="9.4091895"><ele>210.5</ele><time>2026-04-20T07:37:09.533Z</time></trkpt><trkpt lat="46.1362198" lon="9.4092971"><ele>210.66666666666666</ele><time>2026-04-20T07:37:10.536Z</time></trkpt><trkpt lat="46.1362262" lon="9.4094039"><ele>210.83333333333331</ele><time>2026-04-20T07:37:11.534Z</time></trkpt><trkpt lat="46.1362363" lon="9.4095134"><ele>211.0</ele><time>2026-04-20T07:37:12.533Z</time></trkpt><trkpt lat="46.1362438" lon="9.4096186"><ele>212.16666666666666</ele><time>2026-04-20T07:37:13.535Z</time></trkpt><trkpt lat="46.1362539" lon="9.4097291"><ele>213.33333333333331</ele><time>2026-04-20T07:37:14.535Z</time></trkpt><trkpt lat="46.1362592" lon="9.40984"><ele>214.5</ele><time>2026-04-20T07:37:15.533Z</time></trkpt><trkpt lat="46.1362737" lon="9.4099509"><ele>215.66666666666669</ele><time>2026-04-20T07:37:16.535Z</time></trkpt><trkpt lat="46.1362889" lon="9.4100586"><ele>216.83333333333334</ele><time>2026-04-20T07:37:17.533Z</time></trkpt><trkpt lat="46.1363064" lon="9.4101641"><ele>218.0</ele><time>2026-04-20T07:37:18.534Z</time></trkpt><trkpt lat="46.136321" lon="9.4102713"><ele>218.0</ele><time>2026-04-20T07:37:19.534Z</time></trkpt><trkpt lat="46.1363361" lon="9.4103711"><ele>218.0</ele><time>2026-04-20T07:37:20.534Z</time></trkpt><trkpt lat="46.1363543" lon="9.410478"><ele>218.0</ele><time>2026-04-20T07:37:21.535Z</time></trkpt><trkpt lat="46.1363748" lon="9.41058"><ele>218.0</ele><time>2026-04-20T07:37:22.534Z</time></trkpt><trkpt lat="46.1363878" lon="9.4106875"><ele>218.0</ele><time>2026-04-20T07:37:23.534Z</time></trkpt><trkpt lat="46.1364039" lon="9.4107897"><ele>218.0</ele><time>2026-04-20T07:37:24.533Z</time></trkpt><trkpt lat="46.1364251" lon="9.4108893"><ele>218.0</ele><time>2026-04-20T07:37:25.533Z</time></trkpt><trkpt lat="46.1364498" lon="9.4109832"><ele>218.33333333333334</ele><time>2026-04-20T07:37:26.534Z</time></trkpt><trkpt lat="46.1364635" lon="9.4110839"><ele>218.66666666666669</ele><time>2026-04-20T07:37:27.533Z</time></trkpt><trkpt lat="46.1364765" lon="9.4111762"><ele>219.0</ele><time>2026-04-20T07:37:28.533Z</time></trkpt><trkpt lat="46.136493" lon="9.4112665"><ele>219.33333333333331</ele><time>2026-04-20T07:37:29.535Z</time></trkpt><trkpt lat="46.1365109" lon="9.4114345"><ele>219.66666666666666</ele><time>2026-04-20T07:37:31.535Z</time></trkpt><trkpt lat="46.1365317" lon="9.4115969"><ele>220.0</ele><time>2026-04-20T07:37:33.533Z</time></trkpt><trkpt lat="46.1365435" lon="9.4116914"><ele>219.28571428571428</ele><time>2026-04-20T07:37:34.535Z</time></trkpt><trkpt lat="46.1365661" lon="9.411783"><ele>218.57142857142856</ele><time>2026-04-20T07:37:35.535Z</time></trkpt><trkpt lat="46.1365865" lon="9.4118763"><ele>217.85714285714283</ele><time>2026-04-20T07:37:36.534Z</time></trkpt><trkpt lat="46.1366048" lon="9.4119748"><ele>217.14285714285714</ele><time>2026-04-20T07:37:37.534Z</time></trkpt><trkpt lat="46.1366198" lon="9.4120834"><ele>216.42857142857144</ele><time>2026-04-20T07:37:38.534Z</time></trkpt><trkpt lat="46.13664" lon="9.4121789"><ele>215.7142857142857</ele><time>2026-04-20T07:37:39.533Z</time></trkpt><trkpt lat="46.1366557" lon="9.4122809"><ele>215.0</ele><time>2026-04-20T07:37:40.534Z</time></trkpt><trkpt lat="46.13667" lon="9.4123936"><ele>215.00000000000003</ele><time>2026-04-20T07:37:41.533Z</time></trkpt><trkpt lat="46.1366882" lon="9.4125037"><ele>215.0</ele><time>2026-04-20T07:37:42.533Z</time></trkpt><trkpt lat="46.1367069" lon="9.4126097"><ele>215.0</ele><time>2026-04-20T07:37:43.534Z</time></trkpt><trkpt lat="46.1367259" lon="9.4127154"><ele>215.0</ele><time>2026-04-20T07:37:44.533Z</time></trkpt><trkpt lat="46.1367461" lon="9.4128282"><ele>215.00000000000003</ele><time>2026-04-20T07:37:45.534Z</time></trkpt><trkpt lat="46.1367671" lon="9.4129233"><ele>215.0</ele><time>2026-04-20T07:37:46.534Z</time></trkpt><trkpt lat="46.1367861" lon="9.4130287"><ele>216.28571428571428</ele><time>2026-04-20T07:37:47.534Z</time></trkpt><trkpt lat="46.136806" lon="9.413122"><ele>217.57142857142858</ele><time>2026-04-20T07:37:48.533Z</time></trkpt><trkpt lat="46.1368154" lon="9.4132288"><ele>218.85714285714286</ele><time>2026-04-20T07:37:49.533Z</time></trkpt><trkpt lat="46.1368285" lon="9.4133234"><ele>220.14285714285714</ele><time>2026-04-20T07:37:50.533Z</time></trkpt><trkpt lat="46.1368516" lon="9.4134329"><ele>221.42857142857144</ele><time>2026-04-20T07:37:51.535Z</time></trkpt><trkpt lat="46.1368728" lon="9.4135304"><ele>222.71428571428572</ele><time>2026-04-20T07:37:52.534Z</time></trkpt><trkpt lat="46.136898" lon="9.4136215"><ele>224.0</ele><time>2026-04-20T07:37:53.535Z</time></trkpt><trkpt lat="46.1369276" lon="9.413727"><ele>226.50000000000003</ele><time>2026-04-20T07:37:54.534Z</time></trkpt><trkpt lat="46.1369624" lon="9.4138338"><ele>229.0</ele><time>2026-04-20T07:37:55.534Z</time></trkpt><trkpt lat="46.137001" lon="9.4139384"><ele>231.5</ele><time>2026-04-20T07:37:56.534Z</time></trkpt><trkpt lat="46.1370367" lon="9.4140405"><ele>234.0</ele><time>2026-04-20T07:37:57.533Z</time></trkpt><trkpt lat="46.1370726" lon="9.4141456"><ele>236.50000000000003</ele><time>2026-04-20T07:37:58.534Z</time></trkpt><trkpt lat="46.1371104" lon="9.414261"><ele>239.0</ele><time>2026-04-20T07:37:59.535Z</time></trkpt><trkpt lat="46.1371495" lon="9.4143746"><ele>239.00000000000003</ele><time>2026-04-20T07:38:00.535Z</time></trkpt><trkpt lat="46.1371893" lon="9.4144694"><ele>239.0</ele><time>2026-04-20T07:38:01.534Z</time></trkpt><trkpt lat="46.1372268" lon="9.414571"><ele>239.00000000000003</ele><time>2026-04-20T07:38:02.533Z</time></trkpt><trkpt lat="46.1372643" lon="9.4146696"><ele>239.00000000000003</ele><time>2026-04-20T07:38:03.535Z</time></trkpt><trkpt lat="46.1373074" lon="9.4147649"><ele>239.0</ele><time>2026-04-20T07:38:04.534Z</time></trkpt><trkpt lat="46.1373471" lon="9.4148438"><ele>239.00000000000003</ele><time>2026-04-20T07:38:05.534Z</time></trkpt><trkpt lat="46.1373882" lon="9.4149155"><ele>239.00000000000003</ele><time>2026-04-20T07:38:06.534Z</time></trkpt><trkpt lat="46.1374621" lon="9.41504"><ele>235.6</ele><time>2026-04-20T07:38:08.534Z</time></trkpt><trkpt lat="46.1374941" lon="9.4151193"><ele>232.2</ele><time>2026-04-20T07:38:09.535Z</time></trkpt><trkpt lat="46.1375273" lon="9.4151996"><ele>228.79999999999998</ele><time>2026-04-20T07:38:10.534Z</time></trkpt><trkpt lat="46.1375881" lon="9.4153496"><ele>225.39999999999998</ele><time>2026-04-20T07:38:12.534Z</time></trkpt><trkpt lat="46.1376186" lon="9.4155157"><ele>222.0</ele><time>2026-04-20T07:38:14.533Z</time></trkpt><trkpt lat="46.1376707" lon="9.415693"><ele>222.0</ele><time>2026-04-20T07:38:16.534Z</time></trkpt><trkpt lat="46.1377023" lon="9.4157721"><ele>222.0</ele><time>2026-04-20T07:38:17.534Z</time></trkpt><trkpt lat="46.1377325" lon="9.4158533"><ele>222.0</ele><time>2026-04-20T07:38:18.533Z</time></trkpt><trkpt lat="46.1377646" lon="9.4159399"><ele>222.0</ele><time>2026-04-20T07:38:19.535Z</time></trkpt><trkpt lat="46.1378029" lon="9.4160322"><ele>222.0</ele><time>2026-04-20T07:38:20.534Z</time></trkpt><trkpt lat="46.1378638" lon="9.4161892"><ele>222.0</ele><time>2026-04-20T07:38:22.535Z</time></trkpt><trkpt lat="46.1379043" lon="9.41627"><ele>224.85714285714283</ele><time>2026-04-20T07:38:23.535Z</time></trkpt><trkpt lat="46.1379413" lon="9.4163586"><ele>227.71428571428572</ele><time>2026-04-20T07:38:24.535Z</time></trkpt><trkpt lat="46.1379795" lon="9.4164478"><ele>230.57142857142856</ele><time>2026-04-20T07:38:25.534Z</time></trkpt><trkpt lat="46.1380215" lon="9.416529"><ele>233.42857142857142</ele><time>2026-04-20T07:38:26.534Z</time></trkpt><trkpt lat="46.13806" lon="9.4166143"><ele>236.28571428571428</ele><time>2026-04-20T07:38:27.534Z</time></trkpt><trkpt lat="46.1380996" lon="9.4167063"><ele>239.14285714285714</ele><time>2026-04-20T07:38:28.535Z</time></trkpt><trkpt lat="46.1381452" lon="9.4167936"><ele>242.0</ele><time>2026-04-20T07:38:29.534Z</time></trkpt><trkpt lat="46.1381833" lon="9.416882"><ele>242.00000000000003</ele><time>2026-04-20T07:38:30.535Z</time></trkpt><trkpt lat="46.138217" lon="9.4169694"><ele>242.0</ele><time>2026-04-20T07:38:31.533Z</time></trkpt><trkpt lat="46.1382543" lon="9.4170621"><ele>242.0</ele><time>2026-04-20T07:38:32.534Z</time></trkpt><trkpt lat="46.1382953" lon="9.4171487"><ele>242.0</ele><time>2026-04-20T07:38:33.534Z</time></trkpt><trkpt lat="46.1383217" lon="9.417249"><ele>242.00000000000003</ele><time>2026-04-20T07:38:34.535Z</time></trkpt><trkpt lat="46.1383604" lon="9.4173222"><ele>242.0</ele><time>2026-04-20T07:38:35.535Z</time></trkpt><trkpt lat="46.1384145" lon="9.4174862"><ele>238.66666666666669</ele><time>2026-04-20T07:38:37.535Z</time></trkpt><trkpt lat="46.1384406" lon="9.4175742"><ele>235.33333333333334</ele><time>2026-04-20T07:38:38.534Z</time></trkpt><trkpt lat="46.1384543" lon="9.4176695"><ele>232.0</ele><time>2026-04-20T07:38:39.534Z</time></trkpt><trkpt lat="46.13847" lon="9.4177626"><ele>228.66666666666669</ele><time>2026-04-20T07:38:40.534Z</time></trkpt><trkpt lat="46.138524" lon="9.4179224"><ele>225.33333333333334</ele><time>2026-04-20T07:38:42.534Z</time></trkpt><trkpt lat="46.1386278" lon="9.4179978"><ele>222.0</ele><time>2026-04-20T07:38:44.533Z</time></trkpt><trkpt lat="46.1387428" lon="9.4179937"><ele>222.0</ele><time>2026-04-20T07:38:46.535Z</time></trkpt><trkpt lat="46.1388112" lon="9.417994"><ele>222.0</ele><time>2026-04-20T07:38:47.535Z</time></trkpt><trkpt lat="46.1388741" lon="9.4179863"><ele>222.0</ele><time>2026-04-20T07:38:48.533Z</time></trkpt><trkpt lat="46.1389388" lon="9.4179765"><ele>222.0</ele><time>2026-04-20T07:38:49.534Z</time></trkpt><trkpt lat="46.1390622" lon="9.4179563"><ele>222.0</ele><time>2026-04-20T07:38:51.533Z</time></trkpt><trkpt lat="46.139133" lon="9.4179482"><ele>222.0</ele><time>2026-04-20T07:38:52.533Z</time></trkpt><trkpt lat="46.1391962" lon="9.4179445"><ele>219.42857142857142</ele><time>2026-04-20T07:38:53.535Z</time></trkpt><trkpt lat="46.1392661" lon="9.4179378"><ele>216.85714285714286</ele><time>2026-04-20T07:38:54.533Z</time></trkpt><trkpt lat="46.1393337" lon="9.4179319"><ele>214.28571428571428</ele><time>2026-04-20T07:38:55.535Z</time></trkpt><trkpt lat="46.1394017" lon="9.4179266"><ele>211.71428571428572</ele><time>2026-04-20T07:38:56.533Z</time></trkpt><trkpt lat="46.1394654" lon="9.4179202"><ele>209.14285714285717</ele><time>2026-04-20T07:38:57.535Z</time></trkpt><trkpt lat="46.1395324" lon="9.417919"><ele>206.57142857142858</ele><time>2026-04-20T07:38:58.535Z</time></trkpt><trkpt lat="46.1396026" lon="9.4179184"><ele>204.0</ele><time>2026-04-20T07:38:59.535Z</time></trkpt><trkpt lat="46.1396754" lon="9.4179152"><ele>204.0</ele><time>2026-04-20T07:39:00.535Z</time></trkpt><trkpt lat="46.1397415" lon="9.4179123"><ele>204.0</ele><time>2026-04-20T07:39:01.533Z</time></trkpt><trkpt lat="46.1398644" lon="9.4179533"><ele>204.0</ele><time>2026-04-20T07:39:03.535Z</time></trkpt><trkpt lat="46.1399251" lon="9.4179983"><ele>204.0</ele><time>2026-04-20T07:39:04.535Z</time></trkpt><trkpt lat="46.1399867" lon="9.4180437"><ele>204.0</ele><time>2026-04-20T07:39:05.534Z</time></trkpt><trkpt lat="46.1400537" lon="9.4180722"><ele>204.0</ele><time>2026-04-20T07:39:06.535Z</time></trkpt><trkpt lat="46.1401177" lon="9.4180734"><ele>204.0</ele><time>2026-04-20T07:39:07.534Z</time></trkpt><trkpt lat="46.140185" lon="9.4180702"><ele>204.0</ele><time>2026-04-20T07:39:08.534Z</time></trkpt><trkpt lat="46.1402517" lon="9.4180619"><ele>204.0</ele><time>2026-04-20T07:39:09.534Z</time></trkpt><trkpt lat="46.1403176" lon="9.4180631"><ele>204.0</ele><time>2026-04-20T07:39:10.535Z</time></trkpt><trkpt lat="46.1403841" lon="9.4180709"><ele>204.0</ele><time>2026-04-20T07:39:11.534Z</time></trkpt><trkpt lat="46.1404497" lon="9.4180649"><ele>204.0</ele><time>2026-04-20T07:39:12.534Z</time></trkpt><trkpt lat="46.1405184" lon="9.4180583"><ele>204.0</ele><time>2026-04-20T07:39:13.534Z</time></trkpt><trkpt lat="46.1405909" lon="9.4180536"><ele>204.0</ele><time>2026-04-20T07:39:14.534Z</time></trkpt><trkpt lat="46.1406658" lon="9.4180502"><ele>204.0</ele><time>2026-04-20T07:39:15.534Z</time></trkpt><trkpt lat="46.1407371" lon="9.4180421"><ele>204.0</ele><time>2026-04-20T07:39:16.535Z</time></trkpt><trkpt lat="46.1408051" lon="9.4180399"><ele>204.0</ele><time>2026-04-20T07:39:17.534Z</time></trkpt><trkpt lat="46.1408703" lon="9.4180361"><ele>204.0</ele><time>2026-04-20T07:39:18.535Z</time></trkpt><trkpt lat="46.1409339" lon="9.4180276"><ele>204.0</ele><time>2026-04-20T07:39:19.534Z</time></trkpt><trkpt lat="46.141051" lon="9.4180136"><ele>204.25</ele><time>2026-04-20T07:39:21.533Z</time></trkpt><trkpt lat="46.1411727" lon="9.4180064"><ele>204.5</ele><time>2026-04-20T07:39:23.534Z</time></trkpt><trkpt lat="46.1412963" lon="9.4180009"><ele>204.75</ele><time>2026-04-20T07:39:25.535Z</time></trkpt><trkpt lat="46.1414135" lon="9.4179931"><ele>205.0</ele><time>2026-04-20T07:39:27.536Z</time></trkpt><trkpt lat="46.1415186" lon="9.4180142"><ele>204.5</ele><time>2026-04-20T07:39:29.534Z</time></trkpt><trkpt lat="46.1416155" lon="9.4181129"><ele>204.0</ele><time>2026-04-20T07:39:31.534Z</time></trkpt><trkpt lat="46.141719" lon="9.4181937"><ele>203.5</ele><time>2026-04-20T07:39:33.534Z</time></trkpt><trkpt lat="46.1418305" lon="9.4181762"><ele>203.0</ele><time>2026-04-20T07:39:35.534Z</time></trkpt><trkpt lat="46.1419102" lon="9.4180574"><ele>203.0</ele><time>2026-04-20T07:39:37.533Z</time></trkpt><trkpt lat="46.1419074" lon="9.4179051"><ele>203.0</ele><time>2026-04-20T07:39:39.535Z</time></trkpt><trkpt lat="46.1418656" lon="9.4177568"><ele>203.0</ele><time>2026-04-20T07:39:41.535Z</time></trkpt><trkpt lat="46.1418476" lon="9.417601"><ele>203.0</ele><time>2026-04-20T07:39:43.533Z</time></trkpt><trkpt lat="46.1418544" lon="9.4175095"><ele>203.0</ele><time>2026-04-20T07:39:44.534Z</time></trkpt><trkpt lat="46.1418643" lon="9.4174181"><ele>203.0</ele><time>2026-04-20T07:39:45.533Z</time></trkpt><trkpt lat="46.1418758" lon="9.4173253"><ele>203.0</ele><time>2026-04-20T07:39:46.535Z</time></trkpt><trkpt lat="46.1418874" lon="9.4172313"><ele>203.0</ele><time>2026-04-20T07:39:47.534Z</time></trkpt><trkpt lat="46.1419061" lon="9.4170566"><ele>203.0</ele><time>2026-04-20T07:39:49.534Z</time></trkpt><trkpt lat="46.1419382" lon="9.4168858"><ele>203.0</ele><time>2026-04-20T07:39:51.533Z</time></trkpt><trkpt lat="46.1419947" lon="9.4167486"><ele>202.8</ele><time>2026-04-20T07:39:53.534Z</time></trkpt><trkpt lat="46.1420555" lon="9.4166594"><ele>202.60000000000002</ele><time>2026-04-20T07:39:55.534Z</time></trkpt><trkpt lat="46.1420983" lon="9.416532"><ele>202.39999999999998</ele><time>2026-04-20T07:39:57.534Z</time></trkpt><trkpt lat="46.1421234" lon="9.416395"><ele>202.2</ele><time>2026-04-20T07:39:59.535Z</time></trkpt><trkpt lat="46.1421724" lon="9.4162714"><ele>202.0</ele><time>2026-04-20T07:40:01.534Z</time></trkpt><trkpt lat="46.1422464" lon="9.4162099"><ele>201.83333333333331</ele><time>2026-04-20T07:40:03.533Z</time></trkpt><trkpt lat="46.1423239" lon="9.4161439"><ele>201.66666666666666</ele><time>2026-04-20T07:40:06.535Z</time></trkpt><trkpt lat="46.14239" lon="9.4160696"><ele>201.5</ele><time>2026-04-20T07:40:09.534Z</time></trkpt><trkpt lat="46.1424554" lon="9.4160251"><ele>201.33333333333331</ele><time>2026-04-20T07:40:12.534Z</time></trkpt><trkpt lat="46.142535" lon="9.416004"><ele>201.16666666666666</ele><time>2026-04-20T07:40:15.534Z</time></trkpt><trkpt lat="46.1426213" lon="9.4160482"><ele>201.0</ele><time>2026-04-20T07:40:17.534Z</time></trkpt><trkpt lat="46.142714" lon="9.4160967"><ele>201.0</ele><time>2026-04-20T07:40:19.534Z</time></trkpt><trkpt lat="46.1428126" lon="9.4160924"><ele>201.0</ele><time>2026-04-20T07:40:21.535Z</time></trkpt><trkpt lat="46.1429247" lon="9.4160795"><ele>201.0</ele><time>2026-04-20T07:40:23.534Z</time></trkpt><trkpt lat="46.1430221" lon="9.4160487"><ele>201.0</ele><time>2026-04-20T07:40:25.535Z</time></trkpt><trkpt lat="46.1431088" lon="9.4161007"><ele>201.0</ele><time>2026-04-20T07:40:27.534Z</time></trkpt><trkpt lat="46.143137" lon="9.4162532"><ele>201.25</ele><time>2026-04-20T07:40:29.535Z</time></trkpt><trkpt lat="46.1431094" lon="9.4164132"><ele>201.5</ele><time>2026-04-20T07:40:31.534Z</time></trkpt><trkpt lat="46.1430993" lon="9.4165706"><ele>201.75</ele><time>2026-04-20T07:40:33.535Z</time></trkpt><trkpt lat="46.143144" lon="9.4167306"><ele>202.0</ele><time>2026-04-20T07:40:35.535Z</time></trkpt><trkpt lat="46.1432208" lon="9.4168579"><ele>201.25</ele><time>2026-04-20T07:40:37.535Z</time></trkpt><trkpt lat="46.1433097" lon="9.4169655"><ele>200.5</ele><time>2026-04-20T07:40:39.535Z</time></trkpt><trkpt lat="46.1434028" lon="9.4170745"><ele>199.75</ele><time>2026-04-20T07:40:41.533Z</time></trkpt><trkpt lat="46.1434771" lon="9.4172102"><ele>199.0</ele><time>2026-04-20T07:40:43.534Z</time></trkpt><trkpt lat="46.1435057" lon="9.4173829"><ele>199.0</ele><time>2026-04-20T07:40:45.534Z</time></trkpt><trkpt lat="46.1435133" lon="9.4175612"><ele>199.0</ele><time>2026-04-20T07:40:47.534Z</time></trkpt><trkpt lat="46.1435175" lon="9.4176545"><ele>199.0</ele><time>2026-04-20T07:40:48.534Z</time></trkpt><trkpt lat="46.143524" lon="9.417831"><ele>199.0</ele><time>2026-04-20T07:40:50.534Z</time></trkpt><trkpt lat="46.1435348" lon="9.4179991"><ele>199.0</ele><time>2026-04-20T07:40:52.535Z</time></trkpt><trkpt lat="46.1435447" lon="9.4181647"><ele>199.0</ele><time>2026-04-20T07:40:54.534Z</time></trkpt><trkpt lat="46.1435789" lon="9.4183182"><ele>199.0</ele><time>2026-04-20T07:40:56.535Z</time></trkpt><trkpt lat="46.143672" lon="9.4184181"><ele>199.0</ele><time>2026-04-20T07:40:58.535Z</time></trkpt><trkpt lat="46.1437779" lon="9.4184857"><ele>199.0</ele><time>2026-04-20T07:41:00.534Z</time></trkpt><trkpt lat="46.1438746" lon="9.4185773"><ele>199.0</ele><time>2026-04-20T07:41:02.535Z</time></trkpt><trkpt lat="46.1439454" lon="9.4186961"><ele>199.0</ele><time>2026-04-20T07:41:04.534Z</time></trkpt><trkpt lat="46.143989" lon="9.4188402"><ele>199.0</ele><time>2026-04-20T07:41:06.534Z</time></trkpt><trkpt lat="46.1440311" lon="9.4190029"><ele>199.0</ele><time>2026-04-20T07:41:08.535Z</time></trkpt><trkpt lat="46.144062" lon="9.4191671"><ele>199.0</ele><time>2026-04-20T07:41:10.535Z</time></trkpt><trkpt lat="46.1440789" lon="9.419324"><ele>199.0</ele><time>2026-04-20T07:41:12.535Z</time></trkpt><trkpt lat="46.144082" lon="9.4194898"><ele>199.0</ele><time>2026-04-20T07:41:14.535Z</time></trkpt><trkpt lat="46.1440828" lon="9.4196426"><ele>199.0</ele><time>2026-04-20T07:41:16.534Z</time></trkpt><trkpt lat="46.1440933" lon="9.4198057"><ele>199.0</ele><time>2026-04-20T07:41:18.534Z</time></trkpt><trkpt lat="46.1441028" lon="9.4198956"><ele>198.99999999999997</ele><time>2026-04-20T07:41:19.534Z</time></trkpt><trkpt lat="46.1441135" lon="9.4200789"><ele>199.0</ele><time>2026-04-20T07:41:21.535Z</time></trkpt><trkpt lat="46.1441163" lon="9.4201736"><ele>199.0</ele><time>2026-04-20T07:41:22.534Z</time></trkpt><trkpt lat="46.1441088" lon="9.4202654"><ele>199.0</ele><time>2026-04-20T07:41:23.534Z</time></trkpt><trkpt lat="46.1441018" lon="9.4203567"><ele>198.99999999999997</ele><time>2026-04-20T07:41:24.534Z</time></trkpt><trkpt lat="46.1440958" lon="9.4204487"><ele>199.0</ele><time>2026-04-20T07:41:25.534Z</time></trkpt><trkpt lat="46.1440745" lon="9.4206174"><ele>199.75</ele><time>2026-04-20T07:41:27.534Z</time></trkpt><trkpt lat="46.1440302" lon="9.4207749"><ele>200.5</ele><time>2026-04-20T07:41:29.535Z</time></trkpt><trkpt lat="46.1439796" lon="9.4209286"><ele>201.25</ele><time>2026-04-20T07:41:31.534Z</time></trkpt><trkpt lat="46.1439392" lon="9.4210756"><ele>202.0</ele><time>2026-04-20T07:41:33.534Z</time></trkpt><trkpt lat="46.1438931" lon="9.4212329"><ele>202.39999999999998</ele><time>2026-04-20T07:41:35.535Z</time></trkpt><trkpt lat="46.1438541" lon="9.4213805"><ele>202.79999999999998</ele><time>2026-04-20T07:41:37.535Z</time></trkpt><trkpt lat="46.1438093" lon="9.4215238"><ele>203.2</ele><time>2026-04-20T07:41:39.535Z</time></trkpt><trkpt lat="46.1437649" lon="9.4216574"><ele>203.6</ele><time>2026-04-20T07:41:41.535Z</time></trkpt><trkpt lat="46.1437259" lon="9.4217906"><ele>204.0</ele><time>2026-04-20T07:41:43.534Z</time></trkpt><trkpt lat="46.1436977" lon="9.4218899"><ele>204.0</ele><time>2026-04-20T07:41:45.535Z</time></trkpt><trkpt lat="46.1436845" lon="9.4219854"><ele>204.0</ele><time>2026-04-20T07:43:24.536Z</time></trkpt><trkpt lat="46.1436539" lon="9.4220894"><ele>204.0</ele><time>2026-04-20T07:43:28.534Z</time></trkpt><trkpt lat="46.1436174" lon="9.4222097"><ele>204.0</ele><time>2026-04-20T07:43:31.536Z</time></trkpt><trkpt lat="46.1435924" lon="9.4223055"><ele>204.0</ele><time>2026-04-20T07:43:33.535Z</time></trkpt><trkpt lat="46.1435669" lon="9.4224023"><ele>204.0</ele><time>2026-04-20T07:43:35.535Z</time></trkpt><trkpt lat="46.1435349" lon="9.422509"><ele>203.6</ele><time>2026-04-20T07:43:37.537Z</time></trkpt><trkpt lat="46.1435036" lon="9.4226356"><ele>203.2</ele><time>2026-04-20T07:43:39.535Z</time></trkpt><trkpt lat="46.1434727" lon="9.4227709"><ele>202.79999999999998</ele><time>2026-04-20T07:43:41.534Z</time></trkpt><trkpt lat="46.143434" lon="9.4229099"><ele>202.39999999999998</ele><time>2026-04-20T07:43:43.534Z</time></trkpt><trkpt lat="46.1433951" lon="9.4230379"><ele>202.0</ele><time>2026-04-20T07:43:45.536Z</time></trkpt><trkpt lat="46.143356" lon="9.4231712"><ele>201.8</ele><time>2026-04-20T07:43:47.535Z</time></trkpt><trkpt lat="46.1433155" lon="9.4233065"><ele>201.6</ele><time>2026-04-20T07:43:49.535Z</time></trkpt><trkpt lat="46.1432785" lon="9.4234497"><ele>201.4</ele><time>2026-04-20T07:43:51.536Z</time></trkpt><trkpt lat="46.1432402" lon="9.4235826"><ele>201.20000000000002</ele><time>2026-04-20T07:43:53.534Z</time></trkpt><trkpt lat="46.1431979" lon="9.4237229"><ele>201.0</ele><time>2026-04-20T07:43:55.536Z</time></trkpt><trkpt lat="46.1431553" lon="9.4238656"><ele>200.8</ele><time>2026-04-20T07:43:57.536Z</time></trkpt><trkpt lat="46.1431151" lon="9.4240042"><ele>200.60000000000002</ele><time>2026-04-20T07:43:59.536Z</time></trkpt><trkpt lat="46.1430776" lon="9.424139"><ele>200.4</ele><time>2026-04-20T07:44:01.534Z</time></trkpt><trkpt lat="46.1430386" lon="9.4242845"><ele>200.2</ele><time>2026-04-20T07:44:03.536Z</time></trkpt><trkpt lat="46.1429946" lon="9.4244302"><ele>200.0</ele><time>2026-04-20T07:44:05.537Z</time></trkpt><trkpt lat="46.1429564" lon="9.4245687"><ele>200.0</ele><time>2026-04-20T07:44:07.536Z</time></trkpt><trkpt lat="46.1429169" lon="9.4247098"><ele>200.0</ele><time>2026-04-20T07:44:09.536Z</time></trkpt><trkpt lat="46.1428723" lon="9.4248528"><ele>200.0</ele><time>2026-04-20T07:44:11.536Z</time></trkpt><trkpt lat="46.1428293" lon="9.4249815"><ele>200.0</ele><time>2026-04-20T07:44:13.535Z</time></trkpt><trkpt lat="46.1427896" lon="9.4251065"><ele>200.0</ele><time>2026-04-20T07:44:15.535Z</time></trkpt><trkpt lat="46.1427552" lon="9.4252344"><ele>200.00000000000003</ele><time>2026-04-20T07:44:17.534Z</time></trkpt><trkpt lat="46.1427271" lon="9.4253571"><ele>200.0</ele><time>2026-04-20T07:44:19.535Z</time></trkpt><trkpt lat="46.142701" lon="9.4254572"><ele>200.0</ele><time>2026-04-20T07:44:21.535Z</time></trkpt><trkpt lat="46.1426595" lon="9.4255611"><ele>200.0</ele><time>2026-04-20T07:44:24.535Z</time></trkpt><trkpt lat="46.1426358" lon="9.4256467"><ele>200.00000000000003</ele><time>2026-04-20T07:44:26.536Z</time></trkpt><trkpt lat="46.1426095" lon="9.4257482"><ele>200.0</ele><time>2026-04-20T07:44:28.534Z</time></trkpt><trkpt lat="46.1425755" lon="9.4258613"><ele>200.16666666666669</ele><time>2026-04-20T07:44:30.535Z</time></trkpt><trkpt lat="46.1425423" lon="9.4259738"><ele>200.33333333333334</ele><time>2026-04-20T07:44:32.536Z</time></trkpt><trkpt lat="46.1425041" lon="9.426088"><ele>200.5</ele><time>2026-04-20T07:44:34.536Z</time></trkpt><trkpt lat="46.1424746" lon="9.4262019"><ele>200.66666666666669</ele><time>2026-04-20T07:44:36.537Z</time></trkpt><trkpt lat="46.1424746" lon="9.426301"><ele>200.83333333333334</ele><time>2026-04-20T07:44:38.536Z</time></trkpt><trkpt lat="46.1425548" lon="9.4263563"><ele>201.0</ele><time>2026-04-20T07:44:41.534Z</time></trkpt><trkpt lat="46.1426396" lon="9.42636"><ele>201.4</ele><time>2026-04-20T07:44:43.535Z</time></trkpt><trkpt lat="46.1427437" lon="9.4263641"><ele>201.8</ele><time>2026-04-20T07:44:45.536Z</time></trkpt><trkpt lat="46.1428463" lon="9.4263787"><ele>202.20000000000002</ele><time>2026-04-20T07:44:47.535Z</time></trkpt><trkpt lat="46.1429425" lon="9.426413"><ele>202.60000000000002</ele><time>2026-04-20T07:44:49.536Z</time></trkpt><trkpt lat="46.1430489" lon="9.426442"><ele>203.0</ele><time>2026-04-20T07:44:51.536Z</time></trkpt><trkpt lat="46.1431517" lon="9.42644"><ele>203.0</ele><time>2026-04-20T07:44:53.535Z</time></trkpt><trkpt lat="46.1432513" lon="9.4264314"><ele>203.0</ele><time>2026-04-20T07:44:55.536Z</time></trkpt><trkpt lat="46.1433572" lon="9.4264079"><ele>203.0</ele><time>2026-04-20T07:44:57.535Z</time></trkpt><trkpt lat="46.1434645" lon="9.4263909"><ele>203.0</ele><time>2026-04-20T07:44:59.535Z</time></trkpt><trkpt lat="46.1435783" lon="9.4263695"><ele>203.0</ele><time>2026-04-20T07:45:01.535Z</time></trkpt><trkpt lat="46.1436836" lon="9.4263506"><ele>203.0</ele><time>2026-04-20T07:45:03.536Z</time></trkpt><trkpt lat="46.1437933" lon="9.4263307"><ele>203.0</ele><time>2026-04-20T07:45:05.536Z</time></trkpt><trkpt lat="46.1439128" lon="9.4263102"><ele>203.0</ele><time>2026-04-20T07:45:07.536Z</time></trkpt><trkpt lat="46.1440215" lon="9.4262987"><ele>203.0</ele><time>2026-04-20T07:45:09.536Z</time></trkpt><trkpt lat="46.1441352" lon="9.4262987"><ele>203.0</ele><time>2026-04-20T07:45:11.536Z</time></trkpt><trkpt lat="46.1442506" lon="9.4263075"><ele>203.0</ele><time>2026-04-20T07:45:13.534Z</time></trkpt><trkpt lat="46.1443138" lon="9.426308"><ele>203.0</ele><time>2026-04-20T07:45:14.537Z</time></trkpt><trkpt lat="46.1444305" lon="9.4262933"><ele>203.0</ele><time>2026-04-20T07:45:16.535Z</time></trkpt><trkpt lat="46.1445438" lon="9.4262837"><ele>203.0</ele><time>2026-04-20T07:45:18.535Z</time></trkpt><trkpt lat="46.1446428" lon="9.4263405"><ele>203.0</ele><time>2026-04-20T07:45:20.535Z</time></trkpt><trkpt lat="46.1446959" lon="9.4264698"><ele>203.0</ele><time>2026-04-20T07:45:22.534Z</time></trkpt><trkpt lat="46.1446938" lon="9.4266291"><ele>203.0</ele><time>2026-04-20T07:45:24.535Z</time></trkpt><trkpt lat="46.1446981" lon="9.4267786"><ele>203.0</ele><time>2026-04-20T07:45:26.535Z</time></trkpt><trkpt lat="46.1447091" lon="9.4269311"><ele>203.0</ele><time>2026-04-20T07:45:28.534Z</time></trkpt><trkpt lat="46.144762" lon="9.4270481"><ele>203.0</ele><time>2026-04-20T07:45:30.536Z</time></trkpt><trkpt lat="46.1448476" lon="9.4271051"><ele>203.0</ele><time>2026-04-20T07:45:32.535Z</time></trkpt><trkpt lat="46.1449331" lon="9.4271647"><ele>203.0</ele><time>2026-04-20T07:45:34.535Z</time></trkpt><trkpt lat="46.1449692" lon="9.4272921"><ele>203.0</ele><time>2026-04-20T07:45:36.534Z</time></trkpt><trkpt lat="46.1449592" lon="9.4274273"><ele>203.0</ele><time>2026-04-20T07:45:38.535Z</time></trkpt><trkpt lat="46.1449168" lon="9.4275675"><ele>202.75</ele><time>2026-04-20T07:45:40.536Z</time></trkpt><trkpt lat="46.1448656" lon="9.4277197"><ele>202.5</ele><time>2026-04-20T07:45:42.535Z</time></trkpt><trkpt lat="46.144814" lon="9.427872"><ele>202.25</ele><time>2026-04-20T07:45:44.536Z</time></trkpt><trkpt lat="46.1447553" lon="9.428018"><ele>202.0</ele><time>2026-04-20T07:45:46.535Z</time></trkpt><trkpt lat="46.1446968" lon="9.428163"><ele>202.0</ele><time>2026-04-20T07:45:48.536Z</time></trkpt><trkpt lat="46.1446335" lon="9.4283156"><ele>202.0</ele><time>2026-04-20T07:45:50.537Z</time></trkpt><trkpt lat="46.1445745" lon="9.4284608"><ele>202.0</ele><time>2026-04-20T07:45:52.534Z</time></trkpt><trkpt lat="46.1445178" lon="9.4286122"><ele>202.0</ele><time>2026-04-20T07:45:54.536Z</time></trkpt><trkpt lat="46.1444529" lon="9.42876"><ele>201.5</ele><time>2026-04-20T07:45:56.536Z</time></trkpt><trkpt lat="46.1443933" lon="9.4289112"><ele>201.0</ele><time>2026-04-20T07:45:58.536Z</time></trkpt><trkpt lat="46.1443291" lon="9.4290591"><ele>200.5</ele><time>2026-04-20T07:46:00.536Z</time></trkpt><trkpt lat="46.1442669" lon="9.429208"><ele>200.0</ele><time>2026-04-20T07:46:02.535Z</time></trkpt><trkpt lat="46.1442135" lon="9.4293527"><ele>200.0</ele><time>2026-04-20T07:46:04.535Z</time></trkpt><trkpt lat="46.1441584" lon="9.4294945"><ele>200.0</ele><time>2026-04-20T07:46:06.535Z</time></trkpt><trkpt lat="46.1441006" lon="9.4296416"><ele>200.0</ele><time>2026-04-20T07:46:08.536Z</time></trkpt><trkpt lat="46.144046" lon="9.4297982"><ele>200.0</ele><time>2026-04-20T07:46:10.535Z</time></trkpt><trkpt lat="46.1439844" lon="9.4299446"><ele>200.2</ele><time>2026-04-20T07:46:12.536Z</time></trkpt><trkpt lat="46.1439293" lon="9.4300947"><ele>200.4</ele><time>2026-04-20T07:46:14.535Z</time></trkpt><trkpt lat="46.143871" lon="9.4302446"><ele>200.60000000000002</ele><time>2026-04-20T07:46:16.536Z</time></trkpt><trkpt lat="46.1438384" lon="9.4303238"><ele>200.8</ele><time>2026-04-20T07:46:17.536Z</time></trkpt><trkpt lat="46.1438046" lon="9.4304045"><ele>201.0</ele><time>2026-04-20T07:46:18.535Z</time></trkpt><trkpt lat="46.1437449" lon="9.4305499"><ele>201.0</ele><time>2026-04-20T07:46:20.536Z</time></trkpt><trkpt lat="46.143688" lon="9.4307003"><ele>201.0</ele><time>2026-04-20T07:46:22.535Z</time></trkpt><trkpt lat="46.1436289" lon="9.4308479"><ele>201.0</ele><time>2026-04-20T07:46:24.536Z</time></trkpt><trkpt lat="46.1436002" lon="9.4309303"><ele>201.0</ele><time>2026-04-20T07:46:25.535Z</time></trkpt><trkpt lat="46.1435398" lon="9.4310926"><ele>201.0</ele><time>2026-04-20T07:46:27.536Z</time></trkpt><trkpt lat="46.1434803" lon="9.4312429"><ele>200.83333333333334</ele><time>2026-04-20T07:46:29.537Z</time></trkpt><trkpt lat="46.1434231" lon="9.4313984"><ele>200.66666666666669</ele><time>2026-04-20T07:46:31.536Z</time></trkpt><trkpt lat="46.1433988" lon="9.4314838"><ele>200.5</ele><time>2026-04-20T07:46:32.535Z</time></trkpt><trkpt lat="46.1433698" lon="9.4315648"><ele>200.33333333333334</ele><time>2026-04-20T07:46:33.535Z</time></trkpt><trkpt lat="46.1433135" lon="9.4317219"><ele>200.16666666666669</ele><time>2026-04-20T07:46:35.535Z</time></trkpt><trkpt lat="46.143285" lon="9.4318048"><ele>200.0</ele><time>2026-04-20T07:46:36.535Z</time></trkpt><trkpt lat="46.1432245" lon="9.4319623"><ele>200.0</ele><time>2026-04-20T07:46:38.536Z</time></trkpt><trkpt lat="46.1431718" lon="9.4321163"><ele>200.0</ele><time>2026-04-20T07:46:40.535Z</time></trkpt><trkpt lat="46.1431443" lon="9.4322031"><ele>200.0</ele><time>2026-04-20T07:46:41.535Z</time></trkpt><trkpt lat="46.1431147" lon="9.4322851"><ele>200.0</ele><time>2026-04-20T07:46:42.536Z</time></trkpt><trkpt lat="46.1430673" lon="9.4324443"><ele>200.0</ele><time>2026-04-20T07:46:44.536Z</time></trkpt><trkpt lat="46.1430248" lon="9.4326096"><ele>200.00000000000003</ele><time>2026-04-20T07:46:46.535Z</time></trkpt><trkpt lat="46.1430004" lon="9.4327012"><ele>200.0</ele><time>2026-04-20T07:46:47.535Z</time></trkpt><trkpt lat="46.1429723" lon="9.4327889"><ele>200.0</ele><time>2026-04-20T07:46:48.536Z</time></trkpt><trkpt lat="46.1429496" lon="9.4328796"><ele>200.0</ele><time>2026-04-20T07:46:49.537Z</time></trkpt><trkpt lat="46.1429067" lon="9.4330449"><ele>200.00000000000003</ele><time>2026-04-20T07:46:51.536Z</time></trkpt><trkpt lat="46.1428836" lon="9.4331358"><ele>200.0</ele><time>2026-04-20T07:46:52.535Z</time></trkpt><trkpt lat="46.1428296" lon="9.4332957"><ele>200.25</ele><time>2026-04-20T07:46:54.536Z</time></trkpt><trkpt lat="46.1427841" lon="9.4334663"><ele>200.5</ele><time>2026-04-20T07:46:56.535Z</time></trkpt><trkpt lat="46.1427428" lon="9.4336286"><ele>200.75</ele><time>2026-04-20T07:46:58.536Z</time></trkpt><trkpt lat="46.1427044" lon="9.4337845"><ele>201.0</ele><time>2026-04-20T07:47:00.536Z</time></trkpt><trkpt lat="46.1426594" lon="9.4339373"><ele>201.0</ele><time>2026-04-20T07:47:02.537Z</time></trkpt><trkpt lat="46.1425877" lon="9.434067"><ele>201.0</ele><time>2026-04-20T07:47:04.535Z</time></trkpt><trkpt lat="46.1425104" lon="9.4341409"><ele>201.0</ele><time>2026-04-20T07:47:06.537Z</time></trkpt><trkpt lat="46.1423934" lon="9.4341583"><ele>201.0</ele><time>2026-04-20T07:47:08.537Z</time></trkpt><trkpt lat="46.1422785" lon="9.4341451"><ele>201.0</ele><time>2026-04-20T07:47:10.535Z</time></trkpt><trkpt lat="46.1421531" lon="9.4341388"><ele>201.0</ele><time>2026-04-20T07:47:12.536Z</time></trkpt><trkpt lat="46.142089" lon="9.4341426"><ele>201.0</ele><time>2026-04-20T07:47:13.536Z</time></trkpt><trkpt lat="46.1419722" lon="9.4341493"><ele>201.0</ele><time>2026-04-20T07:47:15.536Z</time></trkpt><trkpt lat="46.1418524" lon="9.4341509"><ele>201.0</ele><time>2026-04-20T07:47:17.536Z</time></trkpt><trkpt lat="46.141739" lon="9.4341533"><ele>201.0</ele><time>2026-04-20T07:47:19.536Z</time></trkpt><trkpt lat="46.1416265" lon="9.4341528"><ele>201.0</ele><time>2026-04-20T07:47:21.536Z</time></trkpt><trkpt lat="46.1415078" lon="9.4341533"><ele>201.0</ele><time>2026-04-20T07:47:23.535Z</time></trkpt><trkpt lat="46.1413926" lon="9.4341644"><ele>201.0</ele><time>2026-04-20T07:47:25.536Z</time></trkpt><trkpt lat="46.1412769" lon="9.434173"><ele>201.0</ele><time>2026-04-20T07:47:27.535Z</time></trkpt><trkpt lat="46.1411646" lon="9.4341748"><ele>201.0</ele><time>2026-04-20T07:47:29.535Z</time></trkpt><trkpt lat="46.1410525" lon="9.4341685"><ele>201.0</ele><time>2026-04-20T07:47:31.536Z</time></trkpt><trkpt lat="46.1409389" lon="9.4341526"><ele>201.0</ele><time>2026-04-20T07:47:33.536Z</time></trkpt><trkpt lat="46.1408191" lon="9.4341297"><ele>201.0</ele><time>2026-04-20T07:47:35.536Z</time></trkpt><trkpt lat="46.1407571" lon="9.4341139"><ele>201.0</ele><time>2026-04-20T07:47:36.536Z</time></trkpt><trkpt lat="46.1406938" lon="9.4341005"><ele>201.25</ele><time>2026-04-20T07:47:37.537Z</time></trkpt><trkpt lat="46.140571" lon="9.4340897"><ele>201.5</ele><time>2026-04-20T07:47:39.537Z</time></trkpt><trkpt lat="46.1404511" lon="9.4341125"><ele>201.75</ele><time>2026-04-20T07:47:41.538Z</time></trkpt><trkpt lat="46.1403418" lon="9.4341846"><ele>202.0</ele><time>2026-04-20T07:47:43.537Z</time></trkpt><trkpt lat="46.1402656" lon="9.4343116"><ele>202.0</ele><time>2026-04-20T07:47:45.536Z</time></trkpt><trkpt lat="46.1402128" lon="9.4344705"><ele>202.0</ele><time>2026-04-20T07:47:47.535Z</time></trkpt><trkpt lat="46.1401953" lon="9.4345589"><ele>202.0</ele><time>2026-04-20T07:47:48.536Z</time></trkpt><trkpt lat="46.1401639" lon="9.4346395"><ele>202.0</ele><time>2026-04-20T07:47:49.535Z</time></trkpt><trkpt lat="46.1401023" lon="9.434793"><ele>202.0</ele><time>2026-04-20T07:47:51.536Z</time></trkpt><trkpt lat="46.1400529" lon="9.434957"><ele>201.75</ele><time>2026-04-20T07:47:53.535Z</time></trkpt><trkpt lat="46.1400118" lon="9.4351288"><ele>201.5</ele><time>2026-04-20T07:47:55.535Z</time></trkpt><trkpt lat="46.139972" lon="9.4352901"><ele>201.25</ele><time>2026-04-20T07:47:57.535Z</time></trkpt><trkpt lat="46.1399211" lon="9.4354432"><ele>201.0</ele><time>2026-04-20T07:47:59.537Z</time></trkpt><trkpt lat="46.1398689" lon="9.4355903"><ele>201.0</ele><time>2026-04-20T07:48:01.535Z</time></trkpt><trkpt lat="46.139819" lon="9.4357489"><ele>201.0</ele><time>2026-04-20T07:48:03.537Z</time></trkpt><trkpt lat="46.1397702" lon="9.4359087"><ele>201.0</ele><time>2026-04-20T07:48:05.537Z</time></trkpt><trkpt lat="46.1397299" lon="9.4360677"><ele>201.0</ele><time>2026-04-20T07:48:07.536Z</time></trkpt><trkpt lat="46.1397076" lon="9.4361535"><ele>201.0</ele><time>2026-04-20T07:48:08.535Z</time></trkpt><trkpt lat="46.1396819" lon="9.4362376"><ele>200.60000000000002</ele><time>2026-04-20T07:48:09.537Z</time></trkpt><trkpt lat="46.1396545" lon="9.4363207"><ele>200.2</ele><time>2026-04-20T07:48:10.537Z</time></trkpt><trkpt lat="46.1396061" lon="9.4364861"><ele>199.8</ele><time>2026-04-20T07:48:12.537Z</time></trkpt><trkpt lat="46.139556" lon="9.4366464"><ele>199.39999999999998</ele><time>2026-04-20T07:48:14.535Z</time></trkpt><trkpt lat="46.1395096" lon="9.4368092"><ele>199.0</ele><time>2026-04-20T07:48:16.537Z</time></trkpt><trkpt lat="46.1394633" lon="9.4369681"><ele>198.99999999999997</ele><time>2026-04-20T07:48:18.536Z</time></trkpt><trkpt lat="46.1394144" lon="9.4371183"><ele>199.0</ele><time>2026-04-20T07:48:20.536Z</time></trkpt><trkpt lat="46.1393649" lon="9.4372835"><ele>199.0</ele><time>2026-04-20T07:48:22.537Z</time></trkpt><trkpt lat="46.1393379" lon="9.4373676"><ele>199.0</ele><time>2026-04-20T07:48:23.536Z</time></trkpt><trkpt lat="46.1393116" lon="9.437453"><ele>198.99999999999997</ele><time>2026-04-20T07:48:24.535Z</time></trkpt><trkpt lat="46.1392867" lon="9.4375391"><ele>199.0</ele><time>2026-04-20T07:48:25.536Z</time></trkpt><trkpt lat="46.1392665" lon="9.4376258"><ele>199.2</ele><time>2026-04-20T07:48:26.537Z</time></trkpt><trkpt lat="46.1392295" lon="9.4377902"><ele>199.39999999999998</ele><time>2026-04-20T07:48:28.537Z</time></trkpt><trkpt lat="46.1391789" lon="9.4379483"><ele>199.6</ele><time>2026-04-20T07:48:30.536Z</time></trkpt><trkpt lat="46.1391322" lon="9.4381176"><ele>199.8</ele><time>2026-04-20T07:48:32.536Z</time></trkpt><trkpt lat="46.1391079" lon="9.4382062"><ele>200.0</ele><time>2026-04-20T07:48:33.535Z</time></trkpt><trkpt lat="46.1390593" lon="9.4383712"><ele>200.33333333333334</ele><time>2026-04-20T07:48:35.536Z</time></trkpt><trkpt lat="46.1390166" lon="9.4385336"><ele>200.66666666666669</ele><time>2026-04-20T07:48:37.535Z</time></trkpt><trkpt lat="46.138978" lon="9.4386924"><ele>201.0</ele><time>2026-04-20T07:48:39.537Z</time></trkpt><trkpt lat="46.1389557" lon="9.4387799"><ele>201.33333333333331</ele><time>2026-04-20T07:48:40.536Z</time></trkpt><trkpt lat="46.138936" lon="9.4388696"><ele>201.66666666666666</ele><time>2026-04-20T07:48:41.536Z</time></trkpt><trkpt lat="46.1389129" lon="9.4389614"><ele>202.0</ele><time>2026-04-20T07:48:42.536Z</time></trkpt><trkpt lat="46.1388736" lon="9.4391316"><ele>202.0</ele><time>2026-04-20T07:48:44.537Z</time></trkpt><trkpt lat="46.1388354" lon="9.4392966"><ele>202.0</ele><time>2026-04-20T07:48:46.535Z</time></trkpt><trkpt lat="46.1388102" lon="9.439466"><ele>202.0</ele><time>2026-04-20T07:48:48.535Z</time></trkpt><trkpt lat="46.1387836" lon="9.4396365"><ele>202.0</ele><time>2026-04-20T07:48:50.536Z</time></trkpt><trkpt lat="46.1387676" lon="9.4397248"><ele>202.0</ele><time>2026-04-20T07:48:51.536Z</time></trkpt><trkpt lat="46.1387453" lon="9.4398963"><ele>202.2</ele><time>2026-04-20T07:48:53.535Z</time></trkpt><trkpt lat="46.1387297" lon="9.4400673"><ele>202.39999999999998</ele><time>2026-04-20T07:48:55.535Z</time></trkpt><trkpt lat="46.1387118" lon="9.4402451"><ele>202.60000000000002</ele><time>2026-04-20T07:48:57.537Z</time></trkpt><trkpt lat="46.1386997" lon="9.440335"><ele>202.8</ele><time>2026-04-20T07:48:58.536Z</time></trkpt><trkpt lat="46.1386921" lon="9.4405155"><ele>203.0</ele><time>2026-04-20T07:49:00.536Z</time></trkpt><trkpt lat="46.1386915" lon="9.4406068"><ele>203.0</ele><time>2026-04-20T07:49:01.538Z</time></trkpt><trkpt lat="46.1386889" lon="9.4407772"><ele>203.0</ele><time>2026-04-20T07:49:03.538Z</time></trkpt><trkpt lat="46.1386849" lon="9.4409586"><ele>203.0</ele><time>2026-04-20T07:49:05.536Z</time></trkpt><trkpt lat="46.1386836" lon="9.4411369"><ele>203.0</ele><time>2026-04-20T07:49:07.535Z</time></trkpt><trkpt lat="46.1386832" lon="9.4413191"><ele>202.5</ele><time>2026-04-20T07:49:09.536Z</time></trkpt><trkpt lat="46.1386825" lon="9.4414987"><ele>202.0</ele><time>2026-04-20T07:49:11.536Z</time></trkpt><trkpt lat="46.1386821" lon="9.4416688"><ele>201.5</ele><time>2026-04-20T07:49:13.535Z</time></trkpt><trkpt lat="46.1386796" lon="9.4418457"><ele>201.0</ele><time>2026-04-20T07:49:15.536Z</time></trkpt><trkpt lat="46.1386817" lon="9.4420227"><ele>201.25</ele><time>2026-04-20T07:49:17.535Z</time></trkpt><trkpt lat="46.1386799" lon="9.442196"><ele>201.5</ele><time>2026-04-20T07:49:19.537Z</time></trkpt><trkpt lat="46.1386804" lon="9.4423717"><ele>201.75</ele><time>2026-04-20T07:49:21.536Z</time></trkpt><trkpt lat="46.1386827" lon="9.4425592"><ele>202.0</ele><time>2026-04-20T07:49:23.535Z</time></trkpt><trkpt lat="46.1386853" lon="9.4427387"><ele>202.0</ele><time>2026-04-20T07:49:25.536Z</time></trkpt><trkpt lat="46.1386863" lon="9.4428301"><ele>202.0</ele><time>2026-04-20T07:49:26.536Z</time></trkpt><trkpt lat="46.1386892" lon="9.4430105"><ele>202.0</ele><time>2026-04-20T07:49:28.537Z</time></trkpt><trkpt lat="46.1386943" lon="9.4431878"><ele>202.0</ele><time>2026-04-20T07:49:30.536Z</time></trkpt><trkpt lat="46.1386969" lon="9.4433667"><ele>202.0</ele><time>2026-04-20T07:49:32.536Z</time></trkpt><trkpt lat="46.1386979" lon="9.4435371"><ele>202.0</ele><time>2026-04-20T07:49:34.535Z</time></trkpt><trkpt lat="46.1386963" lon="9.4436311"><ele>202.0</ele><time>2026-04-20T07:49:35.536Z</time></trkpt><trkpt lat="46.1386911" lon="9.4438052"><ele>202.0</ele><time>2026-04-20T07:49:37.537Z</time></trkpt><trkpt lat="46.1386858" lon="9.4439856"><ele>202.0</ele><time>2026-04-20T07:49:39.536Z</time></trkpt><trkpt lat="46.1386842" lon="9.4441612"><ele>202.0</ele><time>2026-04-20T07:49:41.535Z</time></trkpt><trkpt lat="46.1386857" lon="9.4443392"><ele>202.25</ele><time>2026-04-20T07:49:43.537Z</time></trkpt><trkpt lat="46.1386896" lon="9.4445144"><ele>202.5</ele><time>2026-04-20T07:49:45.536Z</time></trkpt><trkpt lat="46.1386894" lon="9.4446935"><ele>202.75</ele><time>2026-04-20T07:49:47.536Z</time></trkpt><trkpt lat="46.1386875" lon="9.444875"><ele>203.0</ele><time>2026-04-20T07:49:49.536Z</time></trkpt><trkpt lat="46.1386944" lon="9.4450527"><ele>203.2</ele><time>2026-04-20T07:49:51.536Z</time></trkpt><trkpt lat="46.1386984" lon="9.4452359"><ele>203.4</ele><time>2026-04-20T07:49:53.536Z</time></trkpt><trkpt lat="46.1386952" lon="9.4453278"><ele>203.6</ele><time>2026-04-20T07:49:54.536Z</time></trkpt><trkpt lat="46.1386917" lon="9.4455016"><ele>203.79999999999998</ele><time>2026-04-20T07:49:56.536Z</time></trkpt><trkpt lat="46.1386912" lon="9.4456772"><ele>204.0</ele><time>2026-04-20T07:49:58.535Z</time></trkpt><trkpt lat="46.1386901" lon="9.4458563"><ele>204.0</ele><time>2026-04-20T07:50:00.536Z</time></trkpt><trkpt lat="46.1386893" lon="9.446036"><ele>204.0</ele><time>2026-04-20T07:50:02.536Z</time></trkpt><trkpt lat="46.1386914" lon="9.4462133"><ele>204.0</ele><time>2026-04-20T07:50:04.535Z</time></trkpt><trkpt lat="46.1386929" lon="9.4463835"><ele>204.0</ele><time>2026-04-20T07:50:06.537Z</time></trkpt><trkpt lat="46.138692" lon="9.4464745"><ele>204.0</ele><time>2026-04-20T07:50:07.537Z</time></trkpt><trkpt lat="46.1386907" lon="9.4465664"><ele>204.0</ele><time>2026-04-20T07:50:08.537Z</time></trkpt><trkpt lat="46.1386903" lon="9.4466592"><ele>204.0</ele><time>2026-04-20T07:50:09.537Z</time></trkpt><trkpt lat="46.1386913" lon="9.4467511"><ele>204.0</ele><time>2026-04-20T07:50:10.536Z</time></trkpt><trkpt lat="46.13869" lon="9.4468422"><ele>204.0</ele><time>2026-04-20T07:50:11.536Z</time></trkpt><trkpt lat="46.1386922" lon="9.4470189"><ele>204.0</ele><time>2026-04-20T07:50:13.537Z</time></trkpt><trkpt lat="46.1386922" lon="9.4472007"><ele>204.0</ele><time>2026-04-20T07:50:15.537Z</time></trkpt><trkpt lat="46.1386934" lon="9.4473753"><ele>204.0</ele><time>2026-04-20T07:50:17.536Z</time></trkpt><trkpt lat="46.1386933" lon="9.4475545"><ele>204.0</ele><time>2026-04-20T07:50:19.537Z</time></trkpt><trkpt lat="46.1386962" lon="9.44773"><ele>204.0</ele><time>2026-04-20T07:50:21.537Z</time></trkpt><trkpt lat="46.1386986" lon="9.4479066"><ele>204.0</ele><time>2026-04-20T07:50:23.536Z</time></trkpt><trkpt lat="46.1386928" lon="9.4480801"><ele>204.0</ele><time>2026-04-20T07:50:25.538Z</time></trkpt><trkpt lat="46.1386916" lon="9.4482563"><ele>204.0</ele><time>2026-04-20T07:50:27.537Z</time></trkpt><trkpt lat="46.1386935" lon="9.4483492"><ele>204.0</ele><time>2026-04-20T07:50:28.536Z</time></trkpt><trkpt lat="46.1386967" lon="9.4485301"><ele>204.0</ele><time>2026-04-20T07:50:30.535Z</time></trkpt><trkpt lat="46.1386985" lon="9.448709"><ele>204.0</ele><time>2026-04-20T07:50:32.536Z</time></trkpt><trkpt lat="46.1386964" lon="9.4488012"><ele>204.0</ele><time>2026-04-20T07:50:33.537Z</time></trkpt><trkpt lat="46.1386964" lon="9.4488921"><ele>204.0</ele><time>2026-04-20T07:50:34.536Z</time></trkpt><trkpt lat="46.1387005" lon="9.4490738"><ele>204.0</ele><time>2026-04-20T07:50:36.537Z</time></trkpt><trkpt lat="46.1387009" lon="9.4491652"><ele>204.0</ele><time>2026-04-20T07:50:37.537Z</time></trkpt><trkpt lat="46.138697" lon="9.4493453"><ele>204.0</ele><time>2026-04-20T07:50:39.536Z</time></trkpt><trkpt lat="46.1387016" lon="9.4495175"><ele>204.0</ele><time>2026-04-20T07:50:41.538Z</time></trkpt><trkpt lat="46.1386995" lon="9.4496122"><ele>204.0</ele><time>2026-04-20T07:50:42.537Z</time></trkpt><trkpt lat="46.1386995" lon="9.4497045"><ele>204.0</ele><time>2026-04-20T07:50:43.537Z</time></trkpt><trkpt lat="46.1386977" lon="9.4498842"><ele>204.0</ele><time>2026-04-20T07:50:45.536Z</time></trkpt><trkpt lat="46.1386924" lon="9.4500617"><ele>204.0</ele><time>2026-04-20T07:50:47.536Z</time></trkpt><trkpt lat="46.1386893" lon="9.4502444"><ele>204.2</ele><time>2026-04-20T07:50:49.538Z</time></trkpt><trkpt lat="46.1386871" lon="9.4504269"><ele>204.39999999999998</ele><time>2026-04-20T07:50:51.537Z</time></trkpt><trkpt lat="46.1386864" lon="9.45052"><ele>204.6</ele><time>2026-04-20T07:50:52.537Z</time></trkpt><trkpt lat="46.1386896" lon="9.4506915"><ele>204.8</ele><time>2026-04-20T07:50:54.536Z</time></trkpt><trkpt lat="46.1386942" lon="9.4508687"><ele>205.0</ele><time>2026-04-20T07:50:56.536Z</time></trkpt><trkpt lat="46.1387017" lon="9.451043"><ele>205.16666666666666</ele><time>2026-04-20T07:50:58.536Z</time></trkpt><trkpt lat="46.1387092" lon="9.4511369"><ele>205.33333333333331</ele><time>2026-04-20T07:50:59.538Z</time></trkpt><trkpt lat="46.1387193" lon="9.4512327"><ele>205.5</ele><time>2026-04-20T07:51:00.537Z</time></trkpt><trkpt lat="46.1387258" lon="9.4513245"><ele>205.66666666666669</ele><time>2026-04-20T07:51:01.536Z</time></trkpt><trkpt lat="46.1387442" lon="9.4515028"><ele>205.83333333333334</ele><time>2026-04-20T07:51:03.536Z</time></trkpt><trkpt lat="46.1387514" lon="9.4515971"><ele>206.0</ele><time>2026-04-20T07:51:04.537Z</time></trkpt><trkpt lat="46.1387574" lon="9.4517792"><ele>206.8</ele><time>2026-04-20T07:51:06.536Z</time></trkpt><trkpt lat="46.1387565" lon="9.4519578"><ele>207.60000000000002</ele><time>2026-04-20T07:51:08.535Z</time></trkpt><trkpt lat="46.1387504" lon="9.4521375"><ele>208.4</ele><time>2026-04-20T07:51:10.537Z</time></trkpt><trkpt lat="46.1387464" lon="9.4522288"><ele>209.2</ele><time>2026-04-20T07:51:11.536Z</time></trkpt><trkpt lat="46.1387297" lon="9.4523975"><ele>210.0</ele><time>2026-04-20T07:51:13.536Z</time></trkpt><trkpt lat="46.13872" lon="9.452572"><ele>210.75</ele><time>2026-04-20T07:51:15.537Z</time></trkpt><trkpt lat="46.1387051" lon="9.4527449"><ele>211.5</ele><time>2026-04-20T07:51:17.537Z</time></trkpt><trkpt lat="46.1386946" lon="9.4529146"><ele>212.25</ele><time>2026-04-20T07:51:19.536Z</time></trkpt><trkpt lat="46.1386941" lon="9.4530911"><ele>213.0</ele><time>2026-04-20T07:51:21.537Z</time></trkpt><trkpt lat="46.1387024" lon="9.4532661"><ele>213.0</ele><time>2026-04-20T07:51:23.537Z</time></trkpt><trkpt lat="46.1386986" lon="9.4534423"><ele>213.0</ele><time>2026-04-20T07:51:25.537Z</time></trkpt><trkpt lat="46.1387013" lon="9.4536162"><ele>213.0</ele><time>2026-04-20T07:51:27.537Z</time></trkpt><trkpt lat="46.1387004" lon="9.4537951"><ele>213.0</ele><time>2026-04-20T07:51:29.536Z</time></trkpt><trkpt lat="46.1387013" lon="9.4539721"><ele>212.99999999999997</ele><time>2026-04-20T07:51:31.537Z</time></trkpt><trkpt lat="46.1387039" lon="9.4541475"><ele>213.0</ele><time>2026-04-20T07:51:33.537Z</time></trkpt><trkpt lat="46.1387056" lon="9.4542425"><ele>213.0</ele><time>2026-04-20T07:51:34.538Z</time></trkpt><trkpt lat="46.1387026" lon="9.454337"><ele>213.0</ele><time>2026-04-20T07:51:35.538Z</time></trkpt><trkpt lat="46.1387017" lon="9.4544321"><ele>213.0</ele><time>2026-04-20T07:51:36.537Z</time></trkpt><trkpt lat="46.1387017" lon="9.454526"><ele>212.99999999999997</ele><time>2026-04-20T07:51:37.537Z</time></trkpt><trkpt lat="46.1387046" lon="9.4546169"><ele>213.0</ele><time>2026-04-20T07:51:38.536Z</time></trkpt><trkpt lat="46.1387035" lon="9.4548014"><ele>213.0</ele><time>2026-04-20T07:51:40.537Z</time></trkpt><trkpt lat="46.1387045" lon="9.4548964"><ele>213.0</ele><time>2026-04-20T07:51:41.537Z</time></trkpt><trkpt lat="46.1387044" lon="9.4550798"><ele>213.0</ele><time>2026-04-20T07:51:43.536Z</time></trkpt><trkpt lat="46.1387109" lon="9.4552542"><ele>213.0</ele><time>2026-04-20T07:51:45.537Z</time></trkpt><trkpt lat="46.1387115" lon="9.4554255"><ele>213.0</ele><time>2026-04-20T07:51:47.536Z</time></trkpt><trkpt lat="46.1387169" lon="9.4555213"><ele>213.4</ele><time>2026-04-20T07:51:48.537Z</time></trkpt><trkpt lat="46.1387189" lon="9.4556139"><ele>213.8</ele><time>2026-04-20T07:51:49.536Z</time></trkpt><trkpt lat="46.1387211" lon="9.455788"><ele>214.2</ele><time>2026-04-20T07:51:51.537Z</time></trkpt><trkpt lat="46.1387592" lon="9.4559392"><ele>214.6</ele><time>2026-04-20T07:51:53.537Z</time></trkpt><trkpt lat="46.1388529" lon="9.4560144"><ele>215.0</ele><time>2026-04-20T07:51:55.536Z</time></trkpt><trkpt lat="46.1389712" lon="9.4560311"><ele>213.0</ele><time>2026-04-20T07:51:57.537Z</time></trkpt><trkpt lat="46.1390817" lon="9.4560355"><ele>211.0</ele><time>2026-04-20T07:51:59.538Z</time></trkpt><trkpt lat="46.1392027" lon="9.4560385"><ele>209.0</ele><time>2026-04-20T07:52:01.537Z</time></trkpt><trkpt lat="46.1393209" lon="9.4560357"><ele>207.0</ele><time>2026-04-20T07:52:03.536Z</time></trkpt><trkpt lat="46.1394409" lon="9.4560445"><ele>207.0</ele><time>2026-04-20T07:52:05.538Z</time></trkpt><trkpt lat="46.1395515" lon="9.4560455"><ele>207.0</ele><time>2026-04-20T07:52:07.536Z</time></trkpt><trkpt lat="46.1396602" lon="9.4560539"><ele>207.0</ele><time>2026-04-20T07:52:09.537Z</time></trkpt><trkpt lat="46.1397689" lon="9.4560363"><ele>207.0</ele><time>2026-04-20T07:52:11.537Z</time></trkpt><trkpt lat="46.1398651" lon="9.45593"><ele>207.00000000000003</ele><time>2026-04-20T07:52:13.537Z</time></trkpt><trkpt lat="46.1399116" lon="9.455861"><ele>207.0</ele><time>2026-04-20T07:52:14.537Z</time></trkpt><trkpt lat="46.1399566" lon="9.4557961"><ele>207.0</ele><time>2026-04-20T07:52:15.537Z</time></trkpt><trkpt lat="46.1399985" lon="9.4557248"><ele>207.0</ele><time>2026-04-20T07:52:16.537Z</time></trkpt><trkpt lat="46.1400375" lon="9.4556513"><ele>207.0</ele><time>2026-04-20T07:52:17.538Z</time></trkpt><trkpt lat="46.1400756" lon="9.4555776"><ele>207.00000000000003</ele><time>2026-04-20T07:52:18.537Z</time></trkpt><trkpt lat="46.1401124" lon="9.4555028"><ele>207.0</ele><time>2026-04-20T07:52:19.536Z</time></trkpt><trkpt lat="46.1401688" lon="9.4553434"><ele>207.0</ele><time>2026-04-20T07:52:21.536Z</time></trkpt><trkpt lat="46.1402123" lon="9.4551713"><ele>207.0</ele><time>2026-04-20T07:52:23.537Z</time></trkpt><trkpt lat="46.140239" lon="9.4550887"><ele>207.0</ele><time>2026-04-20T07:52:24.537Z</time></trkpt><trkpt lat="46.1402678" lon="9.4550079"><ele>207.0</ele><time>2026-04-20T07:52:25.536Z</time></trkpt><trkpt lat="46.1402928" lon="9.4549176"><ele>207.0</ele><time>2026-04-20T07:52:26.538Z</time></trkpt><trkpt lat="46.1403181" lon="9.4548292"><ele>207.0</ele><time>2026-04-20T07:52:27.537Z</time></trkpt><trkpt lat="46.1403444" lon="9.4547415"><ele>207.0</ele><time>2026-04-20T07:52:28.539Z</time></trkpt><trkpt lat="46.1403641" lon="9.4546541"><ele>207.0</ele><time>2026-04-20T07:52:29.536Z</time></trkpt><trkpt lat="46.1403884" lon="9.45456"><ele>207.0</ele><time>2026-04-20T07:52:30.537Z</time></trkpt><trkpt lat="46.1404405" lon="9.454394"><ele>207.0</ele><time>2026-04-20T07:52:32.537Z</time></trkpt><trkpt lat="46.1404703" lon="9.4543105"><ele>207.0</ele><time>2026-04-20T07:52:33.537Z</time></trkpt><trkpt lat="46.1405269" lon="9.454154"><ele>207.0</ele><time>2026-04-20T07:52:35.537Z</time></trkpt><trkpt lat="46.1405566" lon="9.4540726"><ele>206.6</ele><time>2026-04-20T07:52:36.537Z</time></trkpt><trkpt lat="46.1405909" lon="9.4539957"><ele>206.2</ele><time>2026-04-20T07:52:37.537Z</time></trkpt><trkpt lat="46.1406503" lon="9.4538436"><ele>205.8</ele><time>2026-04-20T07:52:39.536Z</time></trkpt><trkpt lat="46.1406918" lon="9.4536868"><ele>205.4</ele><time>2026-04-20T07:52:41.537Z</time></trkpt><trkpt lat="46.1407566" lon="9.4535538"><ele>205.0</ele><time>2026-04-20T07:52:43.536Z</time></trkpt><trkpt lat="46.1408602" lon="9.4534648"><ele>204.85714285714286</ele><time>2026-04-20T07:52:45.538Z</time></trkpt><trkpt lat="46.1409205" lon="9.4534302"><ele>204.7142857142857</ele><time>2026-04-20T07:52:46.538Z</time></trkpt><trkpt lat="46.1409837" lon="9.4533972"><ele>204.57142857142856</ele><time>2026-04-20T07:52:47.536Z</time></trkpt><trkpt lat="46.1410493" lon="9.4533693"><ele>204.42857142857144</ele><time>2026-04-20T07:52:48.538Z</time></trkpt><trkpt lat="46.141114" lon="9.4533349"><ele>204.28571428571428</ele><time>2026-04-20T07:52:49.536Z</time></trkpt><trkpt lat="46.1411795" lon="9.4532961"><ele>204.14285714285714</ele><time>2026-04-20T07:52:50.537Z</time></trkpt><trkpt lat="46.1412436" lon="9.4532631"><ele>204.0</ele><time>2026-04-20T07:52:51.537Z</time></trkpt><trkpt lat="46.1413107" lon="9.4532249"><ele>204.0</ele><time>2026-04-20T07:52:52.538Z</time></trkpt><trkpt lat="46.1413737" lon="9.4531892"><ele>204.0</ele><time>2026-04-20T07:52:53.536Z</time></trkpt><trkpt lat="46.1414396" lon="9.4531501"><ele>204.0</ele><time>2026-04-20T07:52:54.537Z</time></trkpt><trkpt lat="46.141505" lon="9.4531137"><ele>204.0</ele><time>2026-04-20T07:52:55.537Z</time></trkpt><trkpt lat="46.141578" lon="9.4530768"><ele>204.0</ele><time>2026-04-20T07:52:56.537Z</time></trkpt><trkpt lat="46.1416496" lon="9.4530411"><ele>204.0</ele><time>2026-04-20T07:52:57.537Z</time></trkpt><trkpt lat="46.1417182" lon="9.4530031"><ele>204.0</ele><time>2026-04-20T07:52:58.537Z</time></trkpt><trkpt lat="46.1417854" lon="9.4529683"><ele>203.79999999999998</ele><time>2026-04-20T07:52:59.536Z</time></trkpt><trkpt lat="46.1418486" lon="9.4529381"><ele>203.6</ele><time>2026-04-20T07:53:00.536Z</time></trkpt><trkpt lat="46.1419096" lon="9.4529125"><ele>203.4</ele><time>2026-04-20T07:53:01.537Z</time></trkpt><trkpt lat="46.1420327" lon="9.4528585"><ele>203.2</ele><time>2026-04-20T07:53:03.538Z</time></trkpt><trkpt lat="46.1421681" lon="9.4528004"><ele>203.0</ele><time>2026-04-20T07:53:05.537Z</time></trkpt><trkpt lat="46.1422565" lon="9.4527899"><ele>203.0</ele><time>2026-04-20T07:53:07.537Z</time></trkpt><trkpt lat="46.1423197" lon="9.4527915"><ele>203.0</ele><time>2026-04-20T07:53:08.537Z</time></trkpt><trkpt lat="46.1424358" lon="9.4528288"><ele>203.0</ele><time>2026-04-20T07:53:10.537Z</time></trkpt><trkpt lat="46.1424981" lon="9.4528466"><ele>203.0</ele><time>2026-04-20T07:53:11.536Z</time></trkpt><trkpt lat="46.1425588" lon="9.4528732"><ele>203.0</ele><time>2026-04-20T07:53:12.537Z</time></trkpt><trkpt lat="46.1426208" lon="9.4528984"><ele>203.0</ele><time>2026-04-20T07:53:13.536Z</time></trkpt><trkpt lat="46.1426816" lon="9.4529225"><ele>203.0</ele><time>2026-04-20T07:53:14.537Z</time></trkpt><trkpt lat="46.1428068" lon="9.452923"><ele>203.00000000000003</ele><time>2026-04-20T07:53:16.536Z</time></trkpt><trkpt lat="46.1428754" lon="9.4529129"><ele>203.0</ele><time>2026-04-20T07:53:17.537Z</time></trkpt><trkpt lat="46.1429454" lon="9.4528983"><ele>203.0</ele><time>2026-04-20T07:53:18.538Z</time></trkpt><trkpt lat="46.1430121" lon="9.4528906"><ele>203.0</ele><time>2026-04-20T07:53:19.536Z</time></trkpt><trkpt lat="46.1430763" lon="9.4528826"><ele>203.00000000000003</ele><time>2026-04-20T07:53:20.538Z</time></trkpt><trkpt lat="46.1432023" lon="9.4528729"><ele>203.0</ele><time>2026-04-20T07:53:22.537Z</time></trkpt><trkpt lat="46.143266" lon="9.4528671"><ele>203.00000000000003</ele><time>2026-04-20T07:53:23.538Z</time></trkpt><trkpt lat="46.143331" lon="9.4528653"><ele>203.0</ele><time>2026-04-20T07:53:24.537Z</time></trkpt><trkpt lat="46.1433951" lon="9.4528622"><ele>203.0</ele><time>2026-04-20T07:53:25.538Z</time></trkpt><trkpt lat="46.1434581" lon="9.4528607"><ele>203.0</ele><time>2026-04-20T07:53:26.537Z</time></trkpt><trkpt lat="46.1435809" lon="9.4528711"><ele>203.00000000000003</ele><time>2026-04-20T07:53:28.536Z</time></trkpt><trkpt lat="46.1436958" lon="9.452941"><ele>203.0</ele><time>2026-04-20T07:53:30.537Z</time></trkpt><trkpt lat="46.1437986" lon="9.4530243"><ele>203.0</ele><time>2026-04-20T07:53:32.537Z</time></trkpt><trkpt lat="46.1438944" lon="9.4531189"><ele>203.0</ele><time>2026-04-20T07:53:34.537Z</time></trkpt><trkpt lat="46.1439634" lon="9.4532313"><ele>203.0</ele><time>2026-04-20T07:53:36.536Z</time></trkpt><trkpt lat="46.1439901" lon="9.4533828"><ele>203.0</ele><time>2026-04-20T07:53:38.537Z</time></trkpt><trkpt lat="46.1440046" lon="9.4535429"><ele>203.0</ele><time>2026-04-20T07:53:40.539Z</time></trkpt><trkpt lat="46.144036" lon="9.4537098"><ele>203.0</ele><time>2026-04-20T07:53:42.537Z</time></trkpt><trkpt lat="46.144082" lon="9.4538661"><ele>203.0</ele><time>2026-04-20T07:53:44.537Z</time></trkpt><trkpt lat="46.1441095" lon="9.4539487"><ele>203.0</ele><time>2026-04-20T07:53:45.537Z</time></trkpt><trkpt lat="46.1441581" lon="9.4541012"><ele>203.0</ele><time>2026-04-20T07:53:47.538Z</time></trkpt><trkpt lat="46.1442024" lon="9.4542447"><ele>203.0</ele><time>2026-04-20T07:53:49.537Z</time></trkpt><trkpt lat="46.1442452" lon="9.4543803"><ele>203.0</ele><time>2026-04-20T07:53:51.536Z</time></trkpt><trkpt lat="46.1443288" lon="9.454447"><ele>203.0</ele><time>2026-04-20T07:53:53.538Z</time></trkpt><trkpt lat="46.1444382" lon="9.4544699"><ele>203.0</ele><time>2026-04-20T07:53:55.539Z</time></trkpt><trkpt lat="46.1445372" lon="9.4544933"><ele>203.0</ele><time>2026-04-20T07:53:57.538Z</time></trkpt><trkpt lat="46.1446364" lon="9.4545321"><ele>203.0</ele><time>2026-04-20T07:53:59.538Z</time></trkpt><trkpt lat="46.1447395" lon="9.4545873"><ele>203.60000000000002</ele><time>2026-04-20T07:54:01.537Z</time></trkpt><trkpt lat="46.1448418" lon="9.454649"><ele>204.20000000000002</ele><time>2026-04-20T07:54:03.538Z</time></trkpt><trkpt lat="46.1449461" lon="9.4547175"><ele>204.8</ele><time>2026-04-20T07:54:05.537Z</time></trkpt><trkpt lat="46.1450076" lon="9.4547453"><ele>205.4</ele><time>2026-04-20T07:54:06.537Z</time></trkpt><trkpt lat="46.145126" lon="9.4548033"><ele>206.0</ele><time>2026-04-20T07:54:08.538Z</time></trkpt><trkpt lat="46.1452404" lon="9.4548626"><ele>205.99999999999997</ele><time>2026-04-20T07:54:10.537Z</time></trkpt><trkpt lat="46.1452988" lon="9.4549001"><ele>206.0</ele><time>2026-04-20T07:54:11.538Z</time></trkpt><trkpt lat="46.145355" lon="9.4549443"><ele>206.0</ele><time>2026-04-20T07:54:12.537Z</time></trkpt><trkpt lat="46.1454109" lon="9.4549873"><ele>206.0</ele><time>2026-04-20T07:54:13.538Z</time></trkpt><trkpt lat="46.1455236" lon="9.4550408"><ele>206.0</ele><time>2026-04-20T07:54:15.537Z</time></trkpt><trkpt lat="46.1455878" lon="9.4550603"><ele>205.99999999999997</ele><time>2026-04-20T07:54:16.537Z</time></trkpt><trkpt lat="46.1456557" lon="9.4550763"><ele>206.0</ele><time>2026-04-20T07:54:17.538Z</time></trkpt><trkpt lat="46.1457226" lon="9.4550947"><ele>205.16666666666669</ele><time>2026-04-20T07:54:18.537Z</time></trkpt><trkpt lat="46.1457855" lon="9.4551152"><ele>204.33333333333334</ele><time>2026-04-20T07:54:19.539Z</time></trkpt><trkpt lat="46.1459045" lon="9.4551659"><ele>203.5</ele><time>2026-04-20T07:54:21.537Z</time></trkpt><trkpt lat="46.1459662" lon="9.4552013"><ele>202.66666666666669</ele><time>2026-04-20T07:54:22.537Z</time></trkpt><trkpt lat="46.146028" lon="9.4552276"><ele>201.83333333333334</ele><time>2026-04-20T07:54:23.537Z</time></trkpt><trkpt lat="46.146148" lon="9.4552858"><ele>201.0</ele><time>2026-04-20T07:54:25.537Z</time></trkpt><trkpt lat="46.1462637" lon="9.4553456"><ele>201.0</ele><time>2026-04-20T07:54:27.538Z</time></trkpt><trkpt lat="46.1463234" lon="9.4553777"><ele>201.0</ele><time>2026-04-20T07:54:28.538Z</time></trkpt><trkpt lat="46.1464362" lon="9.4554341"><ele>201.0</ele><time>2026-04-20T07:54:30.537Z</time></trkpt><trkpt lat="46.1465511" lon="9.4554964"><ele>201.0</ele><time>2026-04-20T07:54:32.536Z</time></trkpt><trkpt lat="46.1466591" lon="9.4555588"><ele>201.0</ele><time>2026-04-20T07:54:34.537Z</time></trkpt><trkpt lat="46.1467628" lon="9.4556317"><ele>201.20000000000002</ele><time>2026-04-20T07:54:36.538Z</time></trkpt><trkpt lat="46.1468705" lon="9.4557104"><ele>201.4</ele><time>2026-04-20T07:54:38.537Z</time></trkpt><trkpt lat="46.14693" lon="9.455754"><ele>201.6</ele><time>2026-04-20T07:54:39.537Z</time></trkpt><trkpt lat="46.1470358" lon="9.4558396"><ele>201.8</ele><time>2026-04-20T07:54:41.537Z</time></trkpt><trkpt lat="46.1471461" lon="9.4559245"><ele>202.0</ele><time>2026-04-20T07:54:43.539Z</time></trkpt><trkpt lat="46.1472519" lon="9.4560115"><ele>202.0</ele><time>2026-04-20T07:54:45.537Z</time></trkpt><trkpt lat="46.147357" lon="9.4561027"><ele>202.0</ele><time>2026-04-20T07:54:47.538Z</time></trkpt><trkpt lat="46.1474126" lon="9.4561469"><ele>202.0</ele><time>2026-04-20T07:54:48.538Z</time></trkpt><trkpt lat="46.1475182" lon="9.4562381"><ele>202.0</ele><time>2026-04-20T07:54:50.537Z</time></trkpt><trkpt lat="46.1476254" lon="9.4563303"><ele>202.0</ele><time>2026-04-20T07:54:52.537Z</time></trkpt><trkpt lat="46.147681" lon="9.456386"><ele>202.49999999999997</ele><time>2026-04-20T07:54:53.537Z</time></trkpt><trkpt lat="46.1477373" lon="9.4564364"><ele>203.0</ele><time>2026-04-20T07:54:54.537Z</time></trkpt><trkpt lat="46.1477903" lon="9.4564897"><ele>203.5</ele><time>2026-04-20T07:54:55.538Z</time></trkpt><trkpt lat="46.1478451" lon="9.4565398"><ele>204.0</ele><time>2026-04-20T07:54:56.538Z</time></trkpt><trkpt lat="46.1479445" lon="9.4566418"><ele>204.49999999999997</ele><time>2026-04-20T07:54:58.538Z</time></trkpt><trkpt lat="46.1480407" lon="9.4567405"><ele>205.0</ele><time>2026-04-20T07:55:00.538Z</time></trkpt><trkpt lat="46.1481361" lon="9.4568493"><ele>205.0</ele><time>2026-04-20T07:55:02.537Z</time></trkpt><trkpt lat="46.1481871" lon="9.4569088"><ele>205.0</ele><time>2026-04-20T07:55:03.537Z</time></trkpt><trkpt lat="46.1482389" lon="9.4569614"><ele>205.0</ele><time>2026-04-20T07:55:04.538Z</time></trkpt><trkpt lat="46.1483344" lon="9.4570717"><ele>205.0</ele><time>2026-04-20T07:55:06.539Z</time></trkpt><trkpt lat="46.1484271" lon="9.4571941"><ele>205.0</ele><time>2026-04-20T07:55:08.537Z</time></trkpt><trkpt lat="46.1485154" lon="9.4573182"><ele>204.57142857142858</ele><time>2026-04-20T07:55:10.537Z</time></trkpt><trkpt lat="46.1485636" lon="9.4573855"><ele>204.14285714285714</ele><time>2026-04-20T07:55:11.537Z</time></trkpt><trkpt lat="46.1486086" lon="9.4574506"><ele>203.71428571428572</ele><time>2026-04-20T07:55:12.537Z</time></trkpt><trkpt lat="46.148657" lon="9.4575168"><ele>203.28571428571428</ele><time>2026-04-20T07:55:13.537Z</time></trkpt><trkpt lat="46.1487064" lon="9.457585"><ele>202.85714285714283</ele><time>2026-04-20T07:55:14.538Z</time></trkpt><trkpt lat="46.148751" lon="9.4576522"><ele>202.42857142857142</ele><time>2026-04-20T07:55:15.536Z</time></trkpt><trkpt lat="46.1487968" lon="9.4577147"><ele>202.0</ele><time>2026-04-20T07:55:16.537Z</time></trkpt><trkpt lat="46.1488462" lon="9.4577755"><ele>202.0</ele><time>2026-04-20T07:55:17.537Z</time></trkpt><trkpt lat="46.148894" lon="9.4578419"><ele>202.0</ele><time>2026-04-20T07:55:18.537Z</time></trkpt><trkpt lat="46.1489401" lon="9.4579045"><ele>202.0</ele><time>2026-04-20T07:55:19.539Z</time></trkpt><trkpt lat="46.1490227" lon="9.4580271"><ele>202.0</ele><time>2026-04-20T07:55:21.537Z</time></trkpt><trkpt lat="46.1490959" lon="9.4581517"><ele>202.0</ele><time>2026-04-20T07:55:23.537Z</time></trkpt><trkpt lat="46.1491725" lon="9.4582825"><ele>202.2</ele><time>2026-04-20T07:55:25.537Z</time></trkpt><trkpt lat="46.1492458" lon="9.4584223"><ele>202.39999999999998</ele><time>2026-04-20T07:55:27.536Z</time></trkpt><trkpt lat="46.1493177" lon="9.4585632"><ele>202.60000000000002</ele><time>2026-04-20T07:55:29.537Z</time></trkpt><trkpt lat="46.1493573" lon="9.4586344"><ele>202.8</ele><time>2026-04-20T07:55:30.538Z</time></trkpt><trkpt lat="46.1494318" lon="9.4587782"><ele>203.0</ele><time>2026-04-20T07:55:32.538Z</time></trkpt><trkpt lat="46.1494957" lon="9.4589305"><ele>203.00000000000003</ele><time>2026-04-20T07:55:34.538Z</time></trkpt><trkpt lat="46.1495265" lon="9.459011"><ele>203.0</ele><time>2026-04-20T07:55:35.537Z</time></trkpt><trkpt lat="46.1495514" lon="9.4591017"><ele>203.0</ele><time>2026-04-20T07:55:36.538Z</time></trkpt><trkpt lat="46.1495714" lon="9.4591917"><ele>203.0</ele><time>2026-04-20T07:55:37.537Z</time></trkpt><trkpt lat="46.1495854" lon="9.4593726"><ele>203.00000000000003</ele><time>2026-04-20T07:55:39.537Z</time></trkpt><trkpt lat="46.149587" lon="9.4594635"><ele>203.0</ele><time>2026-04-20T07:55:40.538Z</time></trkpt><trkpt lat="46.1495727" lon="9.4596497"><ele>203.0</ele><time>2026-04-20T07:55:42.537Z</time></trkpt><trkpt lat="46.1495517" lon="9.4597368"><ele>203.0</ele><time>2026-04-20T07:55:43.538Z</time></trkpt><trkpt lat="46.1495215" lon="9.4598172"><ele>203.0</ele><time>2026-04-20T07:55:44.536Z</time></trkpt><trkpt lat="46.149458" lon="9.459963"><ele>203.0</ele><time>2026-04-20T07:55:46.538Z</time></trkpt><trkpt lat="46.1494163" lon="9.4601073"><ele>203.0</ele><time>2026-04-20T07:55:48.539Z</time></trkpt><trkpt lat="46.1493833" lon="9.4602562"><ele>203.00000000000003</ele><time>2026-04-20T07:55:50.537Z</time></trkpt><trkpt lat="46.1493267" lon="9.4603812"><ele>203.0</ele><time>2026-04-20T07:55:52.538Z</time></trkpt><trkpt lat="46.1492924" lon="9.4604727"><ele>203.0</ele><time>2026-04-20T07:55:54.537Z</time></trkpt><trkpt lat="46.1492472" lon="9.4605528"><ele>203.0</ele><time>2026-04-20T07:55:56.537Z</time></trkpt><trkpt lat="46.1492206" lon="9.4606529"><ele>203.00000000000003</ele><time>2026-04-20T07:55:58.537Z</time></trkpt><trkpt lat="46.1491929" lon="9.460764"><ele>203.0</ele><time>2026-04-20T07:56:00.537Z</time></trkpt><trkpt lat="46.1491578" lon="9.4608853"><ele>203.0</ele><time>2026-04-20T07:56:02.538Z</time></trkpt><trkpt lat="46.14911" lon="9.4610044"><ele>203.0</ele><time>2026-04-20T07:56:04.536Z</time></trkpt><trkpt lat="46.1490506" lon="9.4611231"><ele>203.0</ele><time>2026-04-20T07:56:06.538Z</time></trkpt><trkpt lat="46.1489785" lon="9.461238"><ele>203.0</ele><time>2026-04-20T07:56:08.538Z</time></trkpt><trkpt lat="46.1489019" lon="9.4613691"><ele>203.0</ele><time>2026-04-20T07:56:10.537Z</time></trkpt><trkpt lat="46.1488177" lon="9.4614806"><ele>203.0</ele><time>2026-04-20T07:56:12.538Z</time></trkpt><trkpt lat="46.1487269" lon="9.4615831"><ele>203.0</ele><time>2026-04-20T07:56:14.538Z</time></trkpt><trkpt lat="46.1486357" lon="9.4616872"><ele>203.0</ele><time>2026-04-20T07:56:16.538Z</time></trkpt><trkpt lat="46.1485442" lon="9.4617936"><ele>203.0</ele><time>2026-04-20T07:56:18.538Z</time></trkpt><trkpt lat="46.1484493" lon="9.4618982"><ele>203.0</ele><time>2026-04-20T07:56:20.537Z</time></trkpt><trkpt lat="46.1483565" lon="9.4619991"><ele>203.0</ele><time>2026-04-20T07:56:22.537Z</time></trkpt><trkpt lat="46.1482579" lon="9.4621061"><ele>203.0</ele><time>2026-04-20T07:56:24.537Z</time></trkpt><trkpt lat="46.1481688" lon="9.4622202"><ele>203.0</ele><time>2026-04-20T07:56:26.537Z</time></trkpt><trkpt lat="46.148078" lon="9.4623321"><ele>203.2</ele><time>2026-04-20T07:56:28.537Z</time></trkpt><trkpt lat="46.1479809" lon="9.4624389"><ele>203.4</ele><time>2026-04-20T07:56:30.538Z</time></trkpt><trkpt lat="46.1479296" lon="9.4624952"><ele>203.6</ele><time>2026-04-20T07:56:31.537Z</time></trkpt><trkpt lat="46.1478357" lon="9.4626085"><ele>203.79999999999998</ele><time>2026-04-20T07:56:33.537Z</time></trkpt><trkpt lat="46.1477432" lon="9.4627274"><ele>204.0</ele><time>2026-04-20T07:56:35.538Z</time></trkpt><trkpt lat="46.1476592" lon="9.4628493"><ele>203.75</ele><time>2026-04-20T07:56:37.537Z</time></trkpt><trkpt lat="46.147579" lon="9.4629778"><ele>203.5</ele><time>2026-04-20T07:56:39.538Z</time></trkpt><trkpt lat="46.1475009" lon="9.4631147"><ele>203.25</ele><time>2026-04-20T07:56:41.537Z</time></trkpt><trkpt lat="46.1474269" lon="9.4632445"><ele>203.0</ele><time>2026-04-20T07:56:43.537Z</time></trkpt><trkpt lat="46.1473538" lon="9.4633883"><ele>203.33333333333334</ele><time>2026-04-20T07:56:45.538Z</time></trkpt><trkpt lat="46.1472884" lon="9.4635348"><ele>203.66666666666669</ele><time>2026-04-20T07:56:47.537Z</time></trkpt><trkpt lat="46.1472564" lon="9.4636146"><ele>204.0</ele><time>2026-04-20T07:56:48.537Z</time></trkpt><trkpt lat="46.1471896" lon="9.4637716"><ele>204.33333333333331</ele><time>2026-04-20T07:56:50.537Z</time></trkpt><trkpt lat="46.1471588" lon="9.4638521"><ele>204.66666666666666</ele><time>2026-04-20T07:56:51.537Z</time></trkpt><trkpt lat="46.1471279" lon="9.4639315"><ele>205.0</ele><time>2026-04-20T07:56:52.537Z</time></trkpt><trkpt lat="46.1470708" lon="9.4640854"><ele>205.0</ele><time>2026-04-20T07:56:54.538Z</time></trkpt><trkpt lat="46.1470045" lon="9.4642289"><ele>205.0</ele><time>2026-04-20T07:56:56.537Z</time></trkpt><trkpt lat="46.1469517" lon="9.4643729"><ele>205.0</ele><time>2026-04-20T07:56:58.538Z</time></trkpt><trkpt lat="46.1468929" lon="9.4645234"><ele>205.0</ele><time>2026-04-20T07:57:00.539Z</time></trkpt><trkpt lat="46.1468359" lon="9.46468"><ele>204.8</ele><time>2026-04-20T07:57:02.539Z</time></trkpt><trkpt lat="46.1468202" lon="9.4648409"><ele>204.6</ele><time>2026-04-20T07:57:04.537Z</time></trkpt><trkpt lat="46.1468192" lon="9.4650155"><ele>204.39999999999998</ele><time>2026-04-20T07:57:06.538Z</time></trkpt><trkpt lat="46.1468164" lon="9.4651941"><ele>204.2</ele><time>2026-04-20T07:57:08.538Z</time></trkpt><trkpt lat="46.1468106" lon="9.465294"><ele>204.0</ele><time>2026-04-20T07:57:09.538Z</time></trkpt><trkpt lat="46.1468026" lon="9.4653979"><ele>204.0</ele><time>2026-04-20T07:57:10.537Z</time></trkpt><trkpt lat="46.146797" lon="9.4655018"><ele>204.0</ele><time>2026-04-20T07:57:11.537Z</time></trkpt><trkpt lat="46.1467947" lon="9.4656107"><ele>204.0</ele><time>2026-04-20T07:57:12.539Z</time></trkpt><trkpt lat="46.1467975" lon="9.4657174"><ele>204.0</ele><time>2026-04-20T07:57:13.538Z</time></trkpt><trkpt lat="46.1468119" lon="9.4658244"><ele>204.0</ele><time>2026-04-20T07:57:14.538Z</time></trkpt><trkpt lat="46.1468393" lon="9.4659233"><ele>204.0</ele><time>2026-04-20T07:57:15.537Z</time></trkpt><trkpt lat="46.1468652" lon="9.4660225"><ele>204.0</ele><time>2026-04-20T07:57:16.538Z</time></trkpt><trkpt lat="46.1468827" lon="9.4661203"><ele>204.0</ele><time>2026-04-20T07:57:17.537Z</time></trkpt><trkpt lat="46.1469004" lon="9.466218"><ele>204.0</ele><time>2026-04-20T07:57:18.537Z</time></trkpt><trkpt lat="46.1469219" lon="9.4663184"><ele>204.0</ele><time>2026-04-20T07:57:19.538Z</time></trkpt><trkpt lat="46.1469385" lon="9.4664169"><ele>204.0</ele><time>2026-04-20T07:57:20.537Z</time></trkpt><trkpt lat="46.1469546" lon="9.4665136"><ele>204.0</ele><time>2026-04-20T07:57:21.538Z</time></trkpt><trkpt lat="46.1469721" lon="9.4666085"><ele>204.0</ele><time>2026-04-20T07:57:22.538Z</time></trkpt><trkpt lat="46.1469915" lon="9.4667053"><ele>204.0</ele><time>2026-04-20T07:57:23.538Z</time></trkpt><trkpt lat="46.1470107" lon="9.4668041"><ele>204.0</ele><time>2026-04-20T07:57:24.538Z</time></trkpt><trkpt lat="46.1470261" lon="9.4668965"><ele>204.0</ele><time>2026-04-20T07:57:25.538Z</time></trkpt><trkpt lat="46.1470463" lon="9.466992"><ele>204.0</ele><time>2026-04-20T07:57:26.538Z</time></trkpt><trkpt lat="46.147069" lon="9.4670924"><ele>204.0</ele><time>2026-04-20T07:57:27.538Z</time></trkpt><trkpt lat="46.1470861" lon="9.4671919"><ele>204.0</ele><time>2026-04-20T07:57:28.538Z</time></trkpt><trkpt lat="46.1471026" lon="9.467283"><ele>204.0</ele><time>2026-04-20T07:57:29.539Z</time></trkpt><trkpt lat="46.1471356" lon="9.4674508"><ele>204.0</ele><time>2026-04-20T07:57:31.539Z</time></trkpt><trkpt lat="46.1471693" lon="9.4676116"><ele>204.0</ele><time>2026-04-20T07:57:33.537Z</time></trkpt><trkpt lat="46.1472104" lon="9.4677757"><ele>204.0</ele><time>2026-04-20T07:57:35.537Z</time></trkpt><trkpt lat="46.1472302" lon="9.4678665"><ele>204.0</ele><time>2026-04-20T07:57:36.538Z</time></trkpt><trkpt lat="46.1472484" lon="9.4679626"><ele>204.0</ele><time>2026-04-20T07:57:37.537Z</time></trkpt><trkpt lat="46.1472676" lon="9.4680533"><ele>204.0</ele><time>2026-04-20T07:57:38.539Z</time></trkpt><trkpt lat="46.1472933" lon="9.4681411"><ele>204.0</ele><time>2026-04-20T07:57:39.539Z</time></trkpt><trkpt lat="46.1473213" lon="9.4682254"><ele>204.0</ele><time>2026-04-20T07:57:40.538Z</time></trkpt><trkpt lat="46.1473463" lon="9.4683151"><ele>204.0</ele><time>2026-04-20T07:57:41.539Z</time></trkpt><trkpt lat="46.1473717" lon="9.4684001"><ele>204.0</ele><time>2026-04-20T07:57:42.538Z</time></trkpt><trkpt lat="46.1474018" lon="9.4684849"><ele>204.0</ele><time>2026-04-20T07:57:43.537Z</time></trkpt><trkpt lat="46.1474322" lon="9.4685689"><ele>204.0</ele><time>2026-04-20T07:57:44.539Z</time></trkpt><trkpt lat="46.1474601" lon="9.4686504"><ele>204.0</ele><time>2026-04-20T07:57:45.537Z</time></trkpt><trkpt lat="46.1474851" lon="9.468734"><ele>204.2</ele><time>2026-04-20T07:57:46.538Z</time></trkpt><trkpt lat="46.1475029" lon="9.4689126"><ele>204.39999999999998</ele><time>2026-04-20T07:57:48.538Z</time></trkpt><trkpt lat="46.1474496" lon="9.4690675"><ele>204.6</ele><time>2026-04-20T07:57:50.537Z</time></trkpt><trkpt lat="46.1473818" lon="9.4692225"><ele>204.8</ele><time>2026-04-20T07:57:52.537Z</time></trkpt><trkpt lat="46.1473529" lon="9.4693052"><ele>205.0</ele><time>2026-04-20T07:57:53.539Z</time></trkpt><trkpt lat="46.1472984" lon="9.4694653"><ele>205.0</ele><time>2026-04-20T07:57:55.537Z</time></trkpt><trkpt lat="46.1472534" lon="9.4696186"><ele>205.0</ele><time>2026-04-20T07:57:57.538Z</time></trkpt><trkpt lat="46.1472252" lon="9.4697716"><ele>205.0</ele><time>2026-04-20T07:57:59.537Z</time></trkpt><trkpt lat="46.147261" lon="9.4699176"><ele>205.0</ele><time>2026-04-20T07:58:01.539Z</time></trkpt><trkpt lat="46.1473435" lon="9.4700135"><ele>205.0</ele><time>2026-04-20T07:58:03.538Z</time></trkpt><trkpt lat="46.1474248" lon="9.4700728"><ele>205.0</ele><time>2026-04-20T07:58:05.537Z</time></trkpt><trkpt lat="46.1475058" lon="9.4701316"><ele>205.0</ele><time>2026-04-20T07:58:07.538Z</time></trkpt><trkpt lat="46.1475832" lon="9.4702004"><ele>205.0</ele><time>2026-04-20T07:58:09.538Z</time></trkpt><trkpt lat="46.1476532" lon="9.4702688"><ele>205.0</ele><time>2026-04-20T07:58:11.539Z</time></trkpt><trkpt lat="46.1477077" lon="9.470373"><ele>205.0</ele><time>2026-04-20T07:58:13.538Z</time></trkpt><trkpt lat="46.1477519" lon="9.4704953"><ele>205.2</ele><time>2026-04-20T07:58:15.538Z</time></trkpt><trkpt lat="46.147802" lon="9.4706555"><ele>205.4</ele><time>2026-04-20T07:58:17.539Z</time></trkpt><trkpt lat="46.1478684" lon="9.4707732"><ele>205.60000000000002</ele><time>2026-04-20T07:58:19.539Z</time></trkpt><trkpt lat="46.1479223" lon="9.4709018"><ele>205.8</ele><time>2026-04-20T07:58:21.537Z</time></trkpt><trkpt lat="46.1479751" lon="9.4710296"><ele>206.0</ele><time>2026-04-20T07:58:23.537Z</time></trkpt><trkpt lat="46.1480089" lon="9.4711757"><ele>206.0</ele><time>2026-04-20T07:58:25.538Z</time></trkpt><trkpt lat="46.1479868" lon="9.4713303"><ele>206.0</ele><time>2026-04-20T07:58:27.538Z</time></trkpt><trkpt lat="46.1479446" lon="9.4714932"><ele>206.0</ele><time>2026-04-20T07:58:29.537Z</time></trkpt><trkpt lat="46.1479115" lon="9.4716629"><ele>206.0</ele><time>2026-04-20T07:58:31.54Z</time></trkpt><trkpt lat="46.147902" lon="9.4717593"><ele>206.0</ele><time>2026-04-20T07:58:32.537Z</time></trkpt><trkpt lat="46.1478909" lon="9.4718531"><ele>206.0</ele><time>2026-04-20T07:58:33.537Z</time></trkpt><trkpt lat="46.1478623" lon="9.4720295"><ele>206.0</ele><time>2026-04-20T07:58:35.538Z</time></trkpt><trkpt lat="46.1478293" lon="9.4721929"><ele>206.0</ele><time>2026-04-20T07:58:37.537Z</time></trkpt><trkpt lat="46.1478034" lon="9.4723543"><ele>206.0</ele><time>2026-04-20T07:58:39.539Z</time></trkpt><trkpt lat="46.1477827" lon="9.472442"><ele>206.0</ele><time>2026-04-20T07:58:40.537Z</time></trkpt><trkpt lat="46.1477502" lon="9.472601"><ele>206.4</ele><time>2026-04-20T07:58:42.538Z</time></trkpt><trkpt lat="46.1477233" lon="9.4727764"><ele>206.8</ele><time>2026-04-20T07:58:44.539Z</time></trkpt><trkpt lat="46.1477026" lon="9.4728702"><ele>207.20000000000002</ele><time>2026-04-20T07:58:45.54Z</time></trkpt><trkpt lat="46.1476809" lon="9.4730438"><ele>207.60000000000002</ele><time>2026-04-20T07:58:47.537Z</time></trkpt><trkpt lat="46.1476552" lon="9.4732044"><ele>208.0</ele><time>2026-04-20T07:58:49.538Z</time></trkpt><trkpt lat="46.147624" lon="9.4732967"><ele>207.8</ele><time>2026-04-20T07:58:50.538Z</time></trkpt><trkpt lat="46.1475991" lon="9.4733814"><ele>207.60000000000002</ele><time>2026-04-20T07:58:51.538Z</time></trkpt><trkpt lat="46.1475768" lon="9.4734678"><ele>207.39999999999998</ele><time>2026-04-20T07:58:52.539Z</time></trkpt><trkpt lat="46.1475344" lon="9.4736328"><ele>207.2</ele><time>2026-04-20T07:58:54.538Z</time></trkpt><trkpt lat="46.1474749" lon="9.4738066"><ele>207.0</ele><time>2026-04-20T07:58:56.539Z</time></trkpt><trkpt lat="46.1474484" lon="9.4739006"><ele>207.0</ele><time>2026-04-20T07:58:57.537Z</time></trkpt><trkpt lat="46.1474029" lon="9.4740588"><ele>207.0</ele><time>2026-04-20T07:58:59.538Z</time></trkpt><trkpt lat="46.1473446" lon="9.4742173"><ele>207.0</ele><time>2026-04-20T07:59:01.538Z</time></trkpt><trkpt lat="46.1473168" lon="9.4743012"><ele>207.0</ele><time>2026-04-20T07:59:02.538Z</time></trkpt><trkpt lat="46.1472753" lon="9.4744637"><ele>207.0</ele><time>2026-04-20T07:59:04.538Z</time></trkpt><trkpt lat="46.147255" lon="9.4745513"><ele>207.6</ele><time>2026-04-20T07:59:05.537Z</time></trkpt><trkpt lat="46.1472294" lon="9.4746468"><ele>208.2</ele><time>2026-04-20T07:59:06.537Z</time></trkpt><trkpt lat="46.1472054" lon="9.4747425"><ele>208.8</ele><time>2026-04-20T07:59:07.539Z</time></trkpt><trkpt lat="46.1471647" lon="9.4749036"><ele>209.4</ele><time>2026-04-20T07:59:09.538Z</time></trkpt><trkpt lat="46.1471216" lon="9.4750274"><ele>210.0</ele><time>2026-04-20T07:59:11.539Z</time></trkpt><trkpt lat="46.1470601" lon="9.4751648"><ele>210.0</ele><time>2026-04-20T07:59:13.539Z</time></trkpt><trkpt lat="46.1470216" lon="9.4752483"><ele>210.0</ele><time>2026-04-20T07:59:14.538Z</time></trkpt><trkpt lat="46.1469919" lon="9.4754429"><ele>210.0</ele><time>2026-04-20T07:59:16.54Z</time></trkpt><trkpt lat="46.1470039" lon="9.4756241"><ele>210.0</ele><time>2026-04-20T07:59:18.539Z</time></trkpt><trkpt lat="46.1470386" lon="9.4758194"><ele>209.16666666666666</ele><time>2026-04-20T07:59:20.539Z</time></trkpt><trkpt lat="46.1470598" lon="9.4759174"><ele>208.33333333333331</ele><time>2026-04-20T07:59:21.538Z</time></trkpt><trkpt lat="46.1470859" lon="9.4760134"><ele>207.5</ele><time>2026-04-20T07:59:22.54Z</time></trkpt><trkpt lat="46.1471041" lon="9.4761075"><ele>206.66666666666666</ele><time>2026-04-20T07:59:23.537Z</time></trkpt><trkpt lat="46.1471242" lon="9.4762"><ele>205.83333333333331</ele><time>2026-04-20T07:59:24.538Z</time></trkpt><trkpt lat="46.1471533" lon="9.4763739"><ele>205.0</ele><time>2026-04-20T07:59:26.538Z</time></trkpt><trkpt lat="46.1471665" lon="9.4764684"><ele>204.99999999999997</ele><time>2026-04-20T07:59:27.537Z</time></trkpt><trkpt lat="46.147195" lon="9.4766352"><ele>205.0</ele><time>2026-04-20T07:59:29.539Z</time></trkpt><trkpt lat="46.1472063" lon="9.4767312"><ele>205.0</ele><time>2026-04-20T07:59:30.538Z</time></trkpt><trkpt lat="46.1472216" lon="9.4768213"><ele>205.0</ele><time>2026-04-20T07:59:31.539Z</time></trkpt><trkpt lat="46.1472399" lon="9.4769108"><ele>204.99999999999997</ele><time>2026-04-20T07:59:32.538Z</time></trkpt><trkpt lat="46.1472619" lon="9.4769985"><ele>205.0</ele><time>2026-04-20T07:59:33.537Z</time></trkpt><trkpt lat="46.1472993" lon="9.4771659"><ele>205.75</ele><time>2026-04-20T07:59:35.539Z</time></trkpt><trkpt lat="46.1473341" lon="9.4773339"><ele>206.5</ele><time>2026-04-20T07:59:37.537Z</time></trkpt><trkpt lat="46.1473649" lon="9.477498"><ele>207.25</ele><time>2026-04-20T07:59:39.539Z</time></trkpt><trkpt lat="46.1473732" lon="9.4776629"><ele>208.0</ele><time>2026-04-20T07:59:41.539Z</time></trkpt><trkpt lat="46.1473564" lon="9.4778143"><ele>207.8</ele><time>2026-04-20T07:59:43.538Z</time></trkpt><trkpt lat="46.1473828" lon="9.4779488"><ele>207.60000000000002</ele><time>2026-04-20T07:59:45.539Z</time></trkpt><trkpt lat="46.1474624" lon="9.4780235"><ele>207.39999999999998</ele><time>2026-04-20T07:59:47.539Z</time></trkpt><trkpt lat="46.1475566" lon="9.4780793"><ele>207.2</ele><time>2026-04-20T07:59:49.538Z</time></trkpt><trkpt lat="46.14764" lon="9.4781035"><ele>207.0</ele><time>2026-04-20T07:59:51.539Z</time></trkpt><trkpt lat="46.1477264" lon="9.4781097"><ele>207.0</ele><time>2026-04-20T07:59:53.539Z</time></trkpt><trkpt lat="46.1478187" lon="9.4781339"><ele>207.0</ele><time>2026-04-20T07:59:55.539Z</time></trkpt><trkpt lat="46.1479188" lon="9.4781803"><ele>207.0</ele><time>2026-04-20T07:59:57.539Z</time></trkpt><trkpt lat="46.1480145" lon="9.4782124"><ele>207.0</ele><time>2026-04-20T07:59:59.538Z</time></trkpt><trkpt lat="46.1481097" lon="9.4782514"><ele>207.0</ele><time>2026-04-20T08:00:01.538Z</time></trkpt><trkpt lat="46.1482003" lon="9.4782974"><ele>207.0</ele><time>2026-04-20T08:00:03.538Z</time></trkpt><trkpt lat="46.1483065" lon="9.4783383"><ele>207.0</ele><time>2026-04-20T08:00:05.539Z</time></trkpt><trkpt lat="46.1484049" lon="9.4783782"><ele>207.0</ele><time>2026-04-20T08:00:07.539Z</time></trkpt><trkpt lat="46.148484" lon="9.4784599"><ele>207.0</ele><time>2026-04-20T08:00:09.538Z</time></trkpt><trkpt lat="46.1485273" lon="9.4785773"><ele>207.0</ele><time>2026-04-20T08:00:11.539Z</time></trkpt><trkpt lat="46.1485703" lon="9.4787047"><ele>206.6</ele><time>2026-04-20T08:00:13.539Z</time></trkpt><trkpt lat="46.1486172" lon="9.4788395"><ele>206.2</ele><time>2026-04-20T08:00:15.539Z</time></trkpt><trkpt lat="46.1486628" lon="9.4789729"><ele>205.8</ele><time>2026-04-20T08:00:17.537Z</time></trkpt><trkpt lat="46.1487136" lon="9.4791176"><ele>205.4</ele><time>2026-04-20T08:00:19.538Z</time></trkpt><trkpt lat="46.1487595" lon="9.4792564"><ele>205.0</ele><time>2026-04-20T08:00:21.537Z</time></trkpt><trkpt lat="46.148806" lon="9.4793995"><ele>205.0</ele><time>2026-04-20T08:00:23.539Z</time></trkpt><trkpt lat="46.1488479" lon="9.4795525"><ele>205.0</ele><time>2026-04-20T08:00:25.537Z</time></trkpt><trkpt lat="46.1488959" lon="9.4797037"><ele>205.0</ele><time>2026-04-20T08:00:27.539Z</time></trkpt><trkpt lat="46.1489492" lon="9.4798572"><ele>205.0</ele><time>2026-04-20T08:00:29.538Z</time></trkpt><trkpt lat="46.1490028" lon="9.4800027"><ele>205.0</ele><time>2026-04-20T08:00:31.539Z</time></trkpt><trkpt lat="46.1490549" lon="9.4801542"><ele>205.0</ele><time>2026-04-20T08:00:33.539Z</time></trkpt><trkpt lat="46.1491021" lon="9.4803069"><ele>205.0</ele><time>2026-04-20T08:00:35.538Z</time></trkpt><trkpt lat="46.1491493" lon="9.4804586"><ele>205.0</ele><time>2026-04-20T08:00:37.539Z</time></trkpt><trkpt lat="46.1491979" lon="9.480614"><ele>205.5</ele><time>2026-04-20T08:00:39.54Z</time></trkpt><trkpt lat="46.1492546" lon="9.4807686"><ele>206.0</ele><time>2026-04-20T08:00:41.538Z</time></trkpt><trkpt lat="46.1492997" lon="9.4809244"><ele>206.5</ele><time>2026-04-20T08:00:43.539Z</time></trkpt><trkpt lat="46.1493492" lon="9.4810669"><ele>207.0</ele><time>2026-04-20T08:00:45.537Z</time></trkpt><trkpt lat="46.1493999" lon="9.481219"><ele>207.0</ele><time>2026-04-20T08:00:47.539Z</time></trkpt><trkpt lat="46.1494448" lon="9.4813805"><ele>207.0</ele><time>2026-04-20T08:00:49.539Z</time></trkpt><trkpt lat="46.1494918" lon="9.4815458"><ele>207.0</ele><time>2026-04-20T08:00:51.539Z</time></trkpt><trkpt lat="46.1495458" lon="9.4817044"><ele>207.0</ele><time>2026-04-20T08:00:53.537Z</time></trkpt><trkpt lat="46.1495943" lon="9.4818615"><ele>207.0</ele><time>2026-04-20T08:00:55.538Z</time></trkpt><trkpt lat="46.1496406" lon="9.482019"><ele>207.0</ele><time>2026-04-20T08:00:57.539Z</time></trkpt><trkpt lat="46.1496969" lon="9.4821641"><ele>207.0</ele><time>2026-04-20T08:00:59.539Z</time></trkpt><trkpt lat="46.1497449" lon="9.4823174"><ele>207.0</ele><time>2026-04-20T08:01:01.538Z</time></trkpt><trkpt lat="46.1497924" lon="9.482479"><ele>207.0</ele><time>2026-04-20T08:01:03.537Z</time></trkpt><trkpt lat="46.1498167" lon="9.4825646"><ele>207.0</ele><time>2026-04-20T08:01:04.539Z</time></trkpt><trkpt lat="46.1498408" lon="9.4826502"><ele>207.0</ele><time>2026-04-20T08:01:05.538Z</time></trkpt><trkpt lat="46.1498913" lon="9.4828106"><ele>207.0</ele><time>2026-04-20T08:01:07.539Z</time></trkpt><trkpt lat="46.1499183" lon="9.4828939"><ele>207.0</ele><time>2026-04-20T08:01:08.539Z</time></trkpt><trkpt lat="46.1499621" lon="9.4830492"><ele>207.0</ele><time>2026-04-20T08:01:10.539Z</time></trkpt><trkpt lat="46.1499878" lon="9.4831337"><ele>207.0</ele><time>2026-04-20T08:01:11.538Z</time></trkpt><trkpt lat="46.1500345" lon="9.4832939"><ele>207.0</ele><time>2026-04-20T08:01:13.539Z</time></trkpt><trkpt lat="46.1500858" lon="9.4834527"><ele>207.0</ele><time>2026-04-20T08:01:15.538Z</time></trkpt><trkpt lat="46.1501131" lon="9.4835348"><ele>207.0</ele><time>2026-04-20T08:01:16.538Z</time></trkpt><trkpt lat="46.1501645" lon="9.4836932"><ele>207.0</ele><time>2026-04-20T08:01:18.539Z</time></trkpt><trkpt lat="46.1501907" lon="9.4837782"><ele>206.71428571428572</ele><time>2026-04-20T08:01:19.539Z</time></trkpt><trkpt lat="46.1502409" lon="9.4839424"><ele>206.42857142857144</ele><time>2026-04-20T08:01:21.539Z</time></trkpt><trkpt lat="46.1502654" lon="9.4840262"><ele>206.14285714285717</ele><time>2026-04-20T08:01:22.539Z</time></trkpt><trkpt lat="46.1502914" lon="9.484112"><ele>205.85714285714286</ele><time>2026-04-20T08:01:23.539Z</time></trkpt><trkpt lat="46.1503158" lon="9.4841979"><ele>205.57142857142856</ele><time>2026-04-20T08:01:24.538Z</time></trkpt><trkpt lat="46.1503366" lon="9.4842863"><ele>205.2857142857143</ele><time>2026-04-20T08:01:25.539Z</time></trkpt><trkpt lat="46.1503544" lon="9.4843793"><ele>205.0</ele><time>2026-04-20T08:01:26.538Z</time></trkpt><trkpt lat="46.1503832" lon="9.484549"><ele>204.99999999999997</ele><time>2026-04-20T08:01:28.54Z</time></trkpt><trkpt lat="46.1503883" lon="9.4847236"><ele>205.0</ele><time>2026-04-20T08:01:30.539Z</time></trkpt><trkpt lat="46.1503906" lon="9.4848221"><ele>205.0</ele><time>2026-04-20T08:01:31.539Z</time></trkpt><trkpt lat="46.150394" lon="9.4849172"><ele>205.0</ele><time>2026-04-20T08:01:32.539Z</time></trkpt><trkpt lat="46.1503983" lon="9.4850183"><ele>204.99999999999997</ele><time>2026-04-20T08:01:33.539Z</time></trkpt><trkpt lat="46.1503943" lon="9.4851971"><ele>205.0</ele><time>2026-04-20T08:01:35.538Z</time></trkpt><trkpt lat="46.1503985" lon="9.4853834"><ele>205.33333333333331</ele><time>2026-04-20T08:01:37.539Z</time></trkpt><trkpt lat="46.150409" lon="9.4854732"><ele>205.66666666666666</ele><time>2026-04-20T08:01:38.539Z</time></trkpt><trkpt lat="46.1504264" lon="9.4856554"><ele>206.0</ele><time>2026-04-20T08:01:40.539Z</time></trkpt><trkpt lat="46.1504287" lon="9.4857593"><ele>206.33333333333331</ele><time>2026-04-20T08:01:41.539Z</time></trkpt><trkpt lat="46.1504237" lon="9.4858697"><ele>206.66666666666666</ele><time>2026-04-20T08:01:42.539Z</time></trkpt><trkpt lat="46.1504197" lon="9.4859831"><ele>207.0</ele><time>2026-04-20T08:01:43.54Z</time></trkpt><trkpt lat="46.1504198" lon="9.4860968"><ele>207.0</ele><time>2026-04-20T08:01:44.539Z</time></trkpt><trkpt lat="46.1504168" lon="9.4862084"><ele>207.0</ele><time>2026-04-20T08:01:45.54Z</time></trkpt><trkpt lat="46.1504136" lon="9.4863198"><ele>207.0</ele><time>2026-04-20T08:01:46.538Z</time></trkpt><trkpt lat="46.1503836" lon="9.4864075"><ele>207.0</ele><time>2026-04-20T08:01:47.54Z</time></trkpt><trkpt lat="46.1503612" lon="9.4865004"><ele>207.0</ele><time>2026-04-20T08:01:48.539Z</time></trkpt><trkpt lat="46.1503439" lon="9.4865908"><ele>207.0</ele><time>2026-04-20T08:01:49.538Z</time></trkpt><trkpt lat="46.1503189" lon="9.4867378"><ele>206.83333333333334</ele><time>2026-04-20T08:01:51.539Z</time></trkpt><trkpt lat="46.1502956" lon="9.4868446"><ele>206.66666666666669</ele><time>2026-04-20T08:01:53.539Z</time></trkpt><trkpt lat="46.1502939" lon="9.486956"><ele>206.5</ele><time>2026-04-20T08:02:13.538Z</time></trkpt><trkpt lat="46.1502948" lon="9.487049"><ele>206.33333333333334</ele><time>2026-04-20T08:02:16.539Z</time></trkpt><trkpt lat="46.150295" lon="9.4871611"><ele>206.16666666666669</ele><time>2026-04-20T08:02:19.538Z</time></trkpt><trkpt lat="46.1502918" lon="9.4872944"><ele>206.0</ele><time>2026-04-20T08:02:22.54Z</time></trkpt><trkpt lat="46.150291" lon="9.4873933"><ele>206.0</ele><time>2026-04-20T08:02:24.538Z</time></trkpt><trkpt lat="46.1502959" lon="9.487512"><ele>206.0</ele><time>2026-04-20T08:02:26.538Z</time></trkpt><trkpt lat="46.150298" lon="9.4876497"><ele>206.0</ele><time>2026-04-20T08:02:28.539Z</time></trkpt><trkpt lat="46.1502966" lon="9.4877846"><ele>206.0</ele><time>2026-04-20T08:02:30.539Z</time></trkpt><trkpt lat="46.1502925" lon="9.4879249"><ele>206.0</ele><time>2026-04-20T08:02:32.54Z</time></trkpt><trkpt lat="46.1503054" lon="9.48806"><ele>206.0</ele><time>2026-04-20T08:02:34.538Z</time></trkpt><trkpt lat="46.150319" lon="9.4882091"><ele>206.0</ele><time>2026-04-20T08:02:36.539Z</time></trkpt><trkpt lat="46.1503223" lon="9.4883538"><ele>206.0</ele><time>2026-04-20T08:02:38.539Z</time></trkpt><trkpt lat="46.1503381" lon="9.4885033"><ele>206.0</ele><time>2026-04-20T08:02:40.538Z</time></trkpt><trkpt lat="46.1503586" lon="9.4886493"><ele>206.0</ele><time>2026-04-20T08:02:42.538Z</time></trkpt><trkpt lat="46.1503841" lon="9.4888065"><ele>206.0</ele><time>2026-04-20T08:02:44.539Z</time></trkpt><trkpt lat="46.1504101" lon="9.4889677"><ele>206.0</ele><time>2026-04-20T08:02:46.539Z</time></trkpt><trkpt lat="46.1504373" lon="9.4891237"><ele>206.0</ele><time>2026-04-20T08:02:48.54Z</time></trkpt><trkpt lat="46.1504699" lon="9.4892767"><ele>206.0</ele><time>2026-04-20T08:02:50.539Z</time></trkpt><trkpt lat="46.1504871" lon="9.4893653"><ele>206.0</ele><time>2026-04-20T08:02:51.54Z</time></trkpt><trkpt lat="46.1505246" lon="9.4895313"><ele>206.0</ele><time>2026-04-20T08:02:53.538Z</time></trkpt><trkpt lat="46.1505569" lon="9.4896915"><ele>206.0</ele><time>2026-04-20T08:02:55.54Z</time></trkpt><trkpt lat="46.1505939" lon="9.489842"><ele>206.0</ele><time>2026-04-20T08:02:57.538Z</time></trkpt><trkpt lat="46.1506339" lon="9.4900079"><ele>206.0</ele><time>2026-04-20T08:02:59.538Z</time></trkpt><trkpt lat="46.1506726" lon="9.4901611"><ele>206.0</ele><time>2026-04-20T08:03:01.539Z</time></trkpt><trkpt lat="46.1507141" lon="9.49032"><ele>206.0</ele><time>2026-04-20T08:03:03.539Z</time></trkpt><trkpt lat="46.1507499" lon="9.4904902"><ele>206.0</ele><time>2026-04-20T08:03:05.54Z</time></trkpt><trkpt lat="46.1507705" lon="9.4905772"><ele>206.0</ele><time>2026-04-20T08:03:06.539Z</time></trkpt><trkpt lat="46.1508059" lon="9.4907452"><ele>206.0</ele><time>2026-04-20T08:03:08.538Z</time></trkpt><trkpt lat="46.1508415" lon="9.4909062"><ele>206.0</ele><time>2026-04-20T08:03:10.538Z</time></trkpt><trkpt lat="46.1508806" lon="9.4910729"><ele>206.0</ele><time>2026-04-20T08:03:12.539Z</time></trkpt><trkpt lat="46.1509148" lon="9.4912463"><ele>206.0</ele><time>2026-04-20T08:03:14.541Z</time></trkpt><trkpt lat="46.1509345" lon="9.4913355"><ele>206.0</ele><time>2026-04-20T08:03:15.538Z</time></trkpt><trkpt lat="46.1509722" lon="9.4915044"><ele>206.0</ele><time>2026-04-20T08:03:17.538Z</time></trkpt><trkpt lat="46.1510094" lon="9.4916774"><ele>206.00000000000003</ele><time>2026-04-20T08:03:19.539Z</time></trkpt><trkpt lat="46.1510303" lon="9.4917634"><ele>206.0</ele><time>2026-04-20T08:03:20.538Z</time></trkpt><trkpt lat="46.1510477" lon="9.4918538"><ele>206.0</ele><time>2026-04-20T08:03:21.539Z</time></trkpt><trkpt lat="46.1510688" lon="9.4919404"><ele>206.0</ele><time>2026-04-20T08:03:22.539Z</time></trkpt><trkpt lat="46.1510895" lon="9.4920278"><ele>206.00000000000003</ele><time>2026-04-20T08:03:23.538Z</time></trkpt><trkpt lat="46.1511318" lon="9.4921971"><ele>206.0</ele><time>2026-04-20T08:03:25.54Z</time></trkpt><trkpt lat="46.1511748" lon="9.492366"><ele>206.00000000000003</ele><time>2026-04-20T08:03:27.539Z</time></trkpt><trkpt lat="46.1511951" lon="9.4924524"><ele>206.0</ele><time>2026-04-20T08:03:28.539Z</time></trkpt><trkpt lat="46.1512323" lon="9.4926246"><ele>206.0</ele><time>2026-04-20T08:03:30.539Z</time></trkpt><trkpt lat="46.1512508" lon="9.4927131"><ele>206.0</ele><time>2026-04-20T08:03:31.54Z</time></trkpt><trkpt lat="46.1512659" lon="9.4928051"><ele>206.00000000000003</ele><time>2026-04-20T08:03:32.541Z</time></trkpt><trkpt lat="46.1512926" lon="9.4929832"><ele>206.0</ele><time>2026-04-20T08:03:34.538Z</time></trkpt><trkpt lat="46.1513135" lon="9.4931697"><ele>205.99999999999997</ele><time>2026-04-20T08:03:36.54Z</time></trkpt><trkpt lat="46.1513246" lon="9.4932627"><ele>206.0</ele><time>2026-04-20T08:03:37.539Z</time></trkpt><trkpt lat="46.1513369" lon="9.4933536"><ele>206.0</ele><time>2026-04-20T08:03:38.539Z</time></trkpt><trkpt lat="46.1513424" lon="9.4934453"><ele>206.0</ele><time>2026-04-20T08:03:39.541Z</time></trkpt><trkpt lat="46.1513513" lon="9.4935356"><ele>206.0</ele><time>2026-04-20T08:03:40.54Z</time></trkpt><trkpt lat="46.1513541" lon="9.4936339"><ele>205.99999999999997</ele><time>2026-04-20T08:03:41.539Z</time></trkpt><trkpt lat="46.1513583" lon="9.4937262"><ele>206.0</ele><time>2026-04-20T08:03:42.538Z</time></trkpt><trkpt lat="46.1513623" lon="9.4938252"><ele>206.0</ele><time>2026-04-20T08:03:43.539Z</time></trkpt><trkpt lat="46.1513654" lon="9.4940101"><ele>206.0</ele><time>2026-04-20T08:03:45.54Z</time></trkpt><trkpt lat="46.151365" lon="9.4941029"><ele>206.0</ele><time>2026-04-20T08:03:46.539Z</time></trkpt><trkpt lat="46.151363" lon="9.4941993"><ele>206.0</ele><time>2026-04-20T08:03:47.54Z</time></trkpt><trkpt lat="46.1513515" lon="9.4943817"><ele>206.0</ele><time>2026-04-20T08:03:49.539Z</time></trkpt><trkpt lat="46.1513484" lon="9.4944766"><ele>206.0</ele><time>2026-04-20T08:03:50.539Z</time></trkpt><trkpt lat="46.1513367" lon="9.4945766"><ele>206.0</ele><time>2026-04-20T08:03:51.539Z</time></trkpt><trkpt lat="46.1513282" lon="9.4946763"><ele>206.0</ele><time>2026-04-20T08:03:52.541Z</time></trkpt><trkpt lat="46.1513238" lon="9.4947686"><ele>206.0</ele><time>2026-04-20T08:03:53.54Z</time></trkpt><trkpt lat="46.1513089" lon="9.4949434"><ele>206.0</ele><time>2026-04-20T08:03:55.539Z</time></trkpt><trkpt lat="46.1512834" lon="9.4951249"><ele>206.25</ele><time>2026-04-20T08:03:57.538Z</time></trkpt><trkpt lat="46.1512574" lon="9.4953003"><ele>206.5</ele><time>2026-04-20T08:03:59.539Z</time></trkpt><trkpt lat="46.15122" lon="9.4954678"><ele>206.75</ele><time>2026-04-20T08:04:01.539Z</time></trkpt><trkpt lat="46.1511882" lon="9.4956343"><ele>207.0</ele><time>2026-04-20T08:04:03.541Z</time></trkpt><trkpt lat="46.151148" lon="9.4957932"><ele>207.25</ele><time>2026-04-20T08:04:05.538Z</time></trkpt><trkpt lat="46.1511009" lon="9.4959462"><ele>207.5</ele><time>2026-04-20T08:04:07.54Z</time></trkpt><trkpt lat="46.1510568" lon="9.4961068"><ele>207.75</ele><time>2026-04-20T08:04:09.538Z</time></trkpt><trkpt lat="46.1510153" lon="9.4962487"><ele>208.0</ele><time>2026-04-20T08:04:11.54Z</time></trkpt><trkpt lat="46.1509667" lon="9.4963977"><ele>208.0</ele><time>2026-04-20T08:04:13.538Z</time></trkpt><trkpt lat="46.1509061" lon="9.4965419"><ele>208.0</ele><time>2026-04-20T08:04:15.539Z</time></trkpt><trkpt lat="46.1508443" lon="9.4966873"><ele>208.0</ele><time>2026-04-20T08:04:17.538Z</time></trkpt><trkpt lat="46.1507848" lon="9.4968415"><ele>208.0</ele><time>2026-04-20T08:04:19.538Z</time></trkpt><trkpt lat="46.1507158" lon="9.4969853"><ele>207.5</ele><time>2026-04-20T08:04:21.538Z</time></trkpt><trkpt lat="46.1506484" lon="9.4971159"><ele>207.0</ele><time>2026-04-20T08:04:23.54Z</time></trkpt><trkpt lat="46.1505704" lon="9.4972545"><ele>206.5</ele><time>2026-04-20T08:04:25.539Z</time></trkpt><trkpt lat="46.1504935" lon="9.4973843"><ele>206.0</ele><time>2026-04-20T08:04:27.538Z</time></trkpt><trkpt lat="46.150418" lon="9.4975088"><ele>206.0</ele><time>2026-04-20T08:04:29.54Z</time></trkpt><trkpt lat="46.1503327" lon="9.4976336"><ele>206.0</ele><time>2026-04-20T08:04:31.54Z</time></trkpt><trkpt lat="46.1502609" lon="9.4977718"><ele>206.0</ele><time>2026-04-20T08:04:33.538Z</time></trkpt><trkpt lat="46.1501899" lon="9.4979085"><ele>206.0</ele><time>2026-04-20T08:04:35.539Z</time></trkpt><trkpt lat="46.1501496" lon="9.4979826"><ele>206.0</ele><time>2026-04-20T08:04:36.539Z</time></trkpt><trkpt lat="46.1500685" lon="9.4981182"><ele>205.75</ele><time>2026-04-20T08:04:38.539Z</time></trkpt><trkpt lat="46.1499908" lon="9.4982616"><ele>205.5</ele><time>2026-04-20T08:04:40.539Z</time></trkpt><trkpt lat="46.1499168" lon="9.4983853"><ele>205.25</ele><time>2026-04-20T08:04:42.539Z</time></trkpt><trkpt lat="46.1498343" lon="9.4985133"><ele>205.0</ele><time>2026-04-20T08:04:44.539Z</time></trkpt><trkpt lat="46.1497578" lon="9.4986445"><ele>205.5</ele><time>2026-04-20T08:04:46.539Z</time></trkpt><trkpt lat="46.1496833" lon="9.4987808"><ele>206.0</ele><time>2026-04-20T08:04:48.539Z</time></trkpt><trkpt lat="46.1496044" lon="9.4989132"><ele>206.5</ele><time>2026-04-20T08:04:50.539Z</time></trkpt><trkpt lat="46.149541" lon="9.4990474"><ele>207.0</ele><time>2026-04-20T08:04:52.538Z</time></trkpt><trkpt lat="46.149463" lon="9.4991855"><ele>207.0</ele><time>2026-04-20T08:04:54.539Z</time></trkpt><trkpt lat="46.1493805" lon="9.4993238"><ele>207.0</ele><time>2026-04-20T08:04:56.538Z</time></trkpt><trkpt lat="46.1493097" lon="9.4994612"><ele>207.0</ele><time>2026-04-20T08:04:58.54Z</time></trkpt><trkpt lat="46.1492304" lon="9.4995837"><ele>207.0</ele><time>2026-04-20T08:05:00.54Z</time></trkpt><trkpt lat="46.1491474" lon="9.4997255"><ele>206.75</ele><time>2026-04-20T08:05:02.538Z</time></trkpt><trkpt lat="46.1490672" lon="9.4998591"><ele>206.5</ele><time>2026-04-20T08:05:04.54Z</time></trkpt><trkpt lat="46.1489908" lon="9.4999917"><ele>206.25</ele><time>2026-04-20T08:05:06.539Z</time></trkpt><trkpt lat="46.148917" lon="9.500126"><ele>206.0</ele><time>2026-04-20T08:05:08.54Z</time></trkpt><trkpt lat="46.1488412" lon="9.5002505"><ele>206.42857142857142</ele><time>2026-04-20T08:05:10.539Z</time></trkpt><trkpt lat="46.1487987" lon="9.5003178"><ele>206.85714285714286</ele><time>2026-04-20T08:05:11.539Z</time></trkpt><trkpt lat="46.1487573" lon="9.5003875"><ele>207.28571428571428</ele><time>2026-04-20T08:05:12.539Z</time></trkpt><trkpt lat="46.1486828" lon="9.5005206"><ele>207.71428571428572</ele><time>2026-04-20T08:05:14.539Z</time></trkpt><trkpt lat="46.1486398" lon="9.5005926"><ele>208.14285714285714</ele><time>2026-04-20T08:05:15.539Z</time></trkpt><trkpt lat="46.1485935" lon="9.5006627"><ele>208.57142857142856</ele><time>2026-04-20T08:05:16.541Z</time></trkpt><trkpt lat="46.1485515" lon="9.5007327"><ele>209.0</ele><time>2026-04-20T08:05:17.538Z</time></trkpt><trkpt lat="46.148475" lon="9.5008619"><ele>209.25</ele><time>2026-04-20T08:05:19.539Z</time></trkpt><trkpt lat="46.1483975" lon="9.5009924"><ele>209.5</ele><time>2026-04-20T08:05:21.538Z</time></trkpt><trkpt lat="46.1483227" lon="9.5011287"><ele>209.75</ele><time>2026-04-20T08:05:23.54Z</time></trkpt><trkpt lat="46.1482438" lon="9.5012633"><ele>210.0</ele><time>2026-04-20T08:05:25.54Z</time></trkpt><trkpt lat="46.1481736" lon="9.5013958"><ele>210.0</ele><time>2026-04-20T08:05:27.54Z</time></trkpt><trkpt lat="46.1480969" lon="9.5015291"><ele>210.0</ele><time>2026-04-20T08:05:29.541Z</time></trkpt><trkpt lat="46.1480183" lon="9.5016612"><ele>210.0</ele><time>2026-04-20T08:05:31.54Z</time></trkpt><trkpt lat="46.1479362" lon="9.5017998"><ele>210.0</ele><time>2026-04-20T08:05:33.539Z</time></trkpt><trkpt lat="46.1478925" lon="9.501872"><ele>210.0</ele><time>2026-04-20T08:05:34.539Z</time></trkpt><trkpt lat="46.1478233" lon="9.5020102"><ele>209.4</ele><time>2026-04-20T08:05:36.54Z</time></trkpt><trkpt lat="46.1477419" lon="9.5021489"><ele>208.8</ele><time>2026-04-20T08:05:38.54Z</time></trkpt><trkpt lat="46.147699" lon="9.5022221"><ele>208.2</ele><time>2026-04-20T08:05:39.538Z</time></trkpt><trkpt lat="46.147659" lon="9.5022923"><ele>207.6</ele><time>2026-04-20T08:05:40.539Z</time></trkpt><trkpt lat="46.1475813" lon="9.5024334"><ele>207.0</ele><time>2026-04-20T08:05:42.54Z</time></trkpt><trkpt lat="46.1475041" lon="9.5025648"><ele>207.0</ele><time>2026-04-20T08:05:44.54Z</time></trkpt><trkpt lat="46.1474265" lon="9.5027056"><ele>207.0</ele><time>2026-04-20T08:05:46.54Z</time></trkpt><trkpt lat="46.1473532" lon="9.502847"><ele>207.0</ele><time>2026-04-20T08:05:48.539Z</time></trkpt><trkpt lat="46.14729" lon="9.5029805"><ele>207.0</ele><time>2026-04-20T08:05:50.851Z</time></trkpt><trkpt lat="46.1472487" lon="9.5030547"><ele>207.0</ele><time>2026-04-20T08:05:52.102Z</time></trkpt><trkpt lat="46.1471664" lon="9.5031811"><ele>206.66666666666666</ele><time>2026-04-20T08:05:53.539Z</time></trkpt><trkpt lat="46.147122" lon="9.5032534"><ele>206.33333333333331</ele><time>2026-04-20T08:05:54.54Z</time></trkpt><trkpt lat="46.147044" lon="9.5033892"><ele>206.0</ele><time>2026-04-20T08:05:56.539Z</time></trkpt><trkpt lat="46.1469617" lon="9.5035261"><ele>205.66666666666666</ele><time>2026-04-20T08:05:58.539Z</time></trkpt><trkpt lat="46.1469208" lon="9.5035964"><ele>205.33333333333331</ele><time>2026-04-20T08:05:59.539Z</time></trkpt><trkpt lat="46.1468811" lon="9.5036678"><ele>205.0</ele><time>2026-04-20T08:06:00.539Z</time></trkpt><trkpt lat="46.1468021" lon="9.5038048"><ele>204.83333333333331</ele><time>2026-04-20T08:06:02.539Z</time></trkpt><trkpt lat="46.1467596" lon="9.503873"><ele>204.66666666666666</ele><time>2026-04-20T08:06:03.539Z</time></trkpt><trkpt lat="46.1467172" lon="9.5039433"><ele>204.5</ele><time>2026-04-20T08:06:04.54Z</time></trkpt><trkpt lat="46.1466779" lon="9.5040163"><ele>204.33333333333331</ele><time>2026-04-20T08:06:05.54Z</time></trkpt><trkpt lat="46.1466058" lon="9.5041519"><ele>204.16666666666666</ele><time>2026-04-20T08:06:07.54Z</time></trkpt><trkpt lat="46.1465277" lon="9.5042886"><ele>204.0</ele><time>2026-04-20T08:06:09.54Z</time></trkpt><trkpt lat="46.1464441" lon="9.5044172"><ele>204.39999999999998</ele><time>2026-04-20T08:06:11.54Z</time></trkpt><trkpt lat="46.1464012" lon="9.504484"><ele>204.8</ele><time>2026-04-20T08:06:12.54Z</time></trkpt><trkpt lat="46.1463221" lon="9.5046252"><ele>205.2</ele><time>2026-04-20T08:06:14.539Z</time></trkpt><trkpt lat="46.1462796" lon="9.5046979"><ele>205.60000000000002</ele><time>2026-04-20T08:06:15.539Z</time></trkpt><trkpt lat="46.1462026" lon="9.5048355"><ele>206.0</ele><time>2026-04-20T08:06:17.539Z</time></trkpt><trkpt lat="46.146123" lon="9.5049699"><ele>206.0</ele><time>2026-04-20T08:06:19.54Z</time></trkpt><trkpt lat="46.1460527" lon="9.5051121"><ele>206.0</ele><time>2026-04-20T08:06:21.541Z</time></trkpt><trkpt lat="46.1459716" lon="9.505247"><ele>206.0</ele><time>2026-04-20T08:06:23.54Z</time></trkpt><trkpt lat="46.1458964" lon="9.5053799"><ele>206.0</ele><time>2026-04-20T08:06:25.539Z</time></trkpt><trkpt lat="46.1458273" lon="9.5055025"><ele>206.0</ele><time>2026-04-20T08:06:27.539Z</time></trkpt><trkpt lat="46.1457487" lon="9.5056125"><ele>206.0</ele><time>2026-04-20T08:06:29.541Z</time></trkpt><trkpt lat="46.1456752" lon="9.5057392"><ele>206.0</ele><time>2026-04-20T08:06:31.539Z</time></trkpt><trkpt lat="46.1456003" lon="9.5058739"><ele>206.0</ele><time>2026-04-20T08:06:33.541Z</time></trkpt><trkpt lat="46.1455197" lon="9.5060048"><ele>206.75</ele><time>2026-04-20T08:06:35.538Z</time></trkpt><trkpt lat="46.1454438" lon="9.5061433"><ele>207.5</ele><time>2026-04-20T08:06:37.54Z</time></trkpt><trkpt lat="46.1453702" lon="9.506276"><ele>208.25</ele><time>2026-04-20T08:06:39.54Z</time></trkpt><trkpt lat="46.145296" lon="9.5064056"><ele>209.0</ele><time>2026-04-20T08:06:41.54Z</time></trkpt><trkpt lat="46.1452245" lon="9.5065391"><ele>209.25</ele><time>2026-04-20T08:06:43.54Z</time></trkpt><trkpt lat="46.1451487" lon="9.5066783"><ele>209.5</ele><time>2026-04-20T08:06:45.539Z</time></trkpt><trkpt lat="46.1450756" lon="9.5068165"><ele>209.75</ele><time>2026-04-20T08:06:47.541Z</time></trkpt><trkpt lat="46.1449995" lon="9.5069501"><ele>210.0</ele><time>2026-04-20T08:06:49.54Z</time></trkpt><trkpt lat="46.1449231" lon="9.507083"><ele>209.4</ele><time>2026-04-20T08:06:51.539Z</time></trkpt><trkpt lat="46.1448452" lon="9.5072196"><ele>208.8</ele><time>2026-04-20T08:06:53.54Z</time></trkpt><trkpt lat="46.1448036" lon="9.5072882"><ele>208.2</ele><time>2026-04-20T08:06:54.539Z</time></trkpt><trkpt lat="46.1447287" lon="9.5074275"><ele>207.6</ele><time>2026-04-20T08:06:56.539Z</time></trkpt><trkpt lat="46.1446458" lon="9.507561"><ele>207.0</ele><time>2026-04-20T08:06:58.541Z</time></trkpt><trkpt lat="46.1445688" lon="9.5076857"><ele>207.0</ele><time>2026-04-20T08:07:00.54Z</time></trkpt><trkpt lat="46.1444953" lon="9.5078127"><ele>207.0</ele><time>2026-04-20T08:07:02.539Z</time></trkpt><trkpt lat="46.1444193" lon="9.5079469"><ele>207.0</ele><time>2026-04-20T08:07:04.539Z</time></trkpt><trkpt lat="46.1443438" lon="9.5080725"><ele>207.0</ele><time>2026-04-20T08:07:06.54Z</time></trkpt><trkpt lat="46.1442673" lon="9.5082061"><ele>207.0</ele><time>2026-04-20T08:07:08.54Z</time></trkpt><trkpt lat="46.1441877" lon="9.5083463"><ele>207.0</ele><time>2026-04-20T08:07:10.539Z</time></trkpt><trkpt lat="46.14415" lon="9.5084215"><ele>207.0</ele><time>2026-04-20T08:07:11.539Z</time></trkpt><trkpt lat="46.1440742" lon="9.5085641"><ele>207.0</ele><time>2026-04-20T08:07:13.539Z</time></trkpt><trkpt lat="46.1439973" lon="9.5087046"><ele>207.0</ele><time>2026-04-20T08:07:15.54Z</time></trkpt><trkpt lat="46.1439202" lon="9.5088363"><ele>207.25</ele><time>2026-04-20T08:07:17.54Z</time></trkpt><trkpt lat="46.1438432" lon="9.5089681"><ele>207.5</ele><time>2026-04-20T08:07:19.54Z</time></trkpt><trkpt lat="46.1437657" lon="9.5090972"><ele>207.75</ele><time>2026-04-20T08:07:21.541Z</time></trkpt><trkpt lat="46.1436913" lon="9.5092271"><ele>208.0</ele><time>2026-04-20T08:07:23.541Z</time></trkpt><trkpt lat="46.1436153" lon="9.5093448"><ele>208.0</ele><time>2026-04-20T08:07:25.54Z</time></trkpt><trkpt lat="46.143549" lon="9.509465"><ele>208.0</ele><time>2026-04-20T08:07:27.541Z</time></trkpt><trkpt lat="46.1434788" lon="9.5095838"><ele>208.0</ele><time>2026-04-20T08:07:29.54Z</time></trkpt><trkpt lat="46.1434062" lon="9.5097244"><ele>208.0</ele><time>2026-04-20T08:07:31.539Z</time></trkpt><trkpt lat="46.1433679" lon="9.5097988"><ele>208.0</ele><time>2026-04-20T08:07:32.54Z</time></trkpt><trkpt lat="46.1432861" lon="9.5099386"><ele>208.0</ele><time>2026-04-20T08:07:34.539Z</time></trkpt><trkpt lat="46.1432441" lon="9.5100073"><ele>208.0</ele><time>2026-04-20T08:07:35.54Z</time></trkpt><trkpt lat="46.1431628" lon="9.5101526"><ele>208.0</ele><time>2026-04-20T08:07:37.539Z</time></trkpt><trkpt lat="46.1430971" lon="9.5102939"><ele>208.0</ele><time>2026-04-20T08:07:39.539Z</time></trkpt><trkpt lat="46.1430583" lon="9.5103684"><ele>208.0</ele><time>2026-04-20T08:07:40.54Z</time></trkpt><trkpt lat="46.1429926" lon="9.5105147"><ele>208.0</ele><time>2026-04-20T08:07:42.539Z</time></trkpt><trkpt lat="46.1429259" lon="9.5106572"><ele>208.0</ele><time>2026-04-20T08:07:44.539Z</time></trkpt><trkpt lat="46.1428494" lon="9.5107955"><ele>208.0</ele><time>2026-04-20T08:07:46.54Z</time></trkpt><trkpt lat="46.1427811" lon="9.5109333"><ele>208.0</ele><time>2026-04-20T08:07:48.54Z</time></trkpt><trkpt lat="46.1427097" lon="9.5110844"><ele>207.99999999999997</ele><time>2026-04-20T08:07:50.539Z</time></trkpt><trkpt lat="46.1426366" lon="9.5112223"><ele>208.0</ele><time>2026-04-20T08:07:52.541Z</time></trkpt><trkpt lat="46.1425981" lon="9.5113"><ele>208.0</ele><time>2026-04-20T08:07:53.541Z</time></trkpt><trkpt lat="46.1425298" lon="9.5114448"><ele>208.0</ele><time>2026-04-20T08:07:55.54Z</time></trkpt><trkpt lat="46.1424898" lon="9.5115223"><ele>207.99999999999997</ele><time>2026-04-20T08:07:56.541Z</time></trkpt><trkpt lat="46.1424511" lon="9.5115957"><ele>208.0</ele><time>2026-04-20T08:07:57.539Z</time></trkpt><trkpt lat="46.1424135" lon="9.5116688"><ele>207.99999999999997</ele><time>2026-04-20T08:07:58.54Z</time></trkpt><trkpt lat="46.1423751" lon="9.5117438"><ele>208.0</ele><time>2026-04-20T08:07:59.541Z</time></trkpt><trkpt lat="46.1423377" lon="9.5118204"><ele>208.0</ele><time>2026-04-20T08:08:00.54Z</time></trkpt><trkpt lat="46.1422619" lon="9.5119643"><ele>208.0</ele><time>2026-04-20T08:08:02.54Z</time></trkpt><trkpt lat="46.1422204" lon="9.5120392"><ele>207.99999999999997</ele><time>2026-04-20T08:08:03.541Z</time></trkpt><trkpt lat="46.142151" lon="9.5121798"><ele>208.0</ele><time>2026-04-20T08:08:05.54Z</time></trkpt><trkpt lat="46.1420812" lon="9.5123229"><ele>208.0</ele><time>2026-04-20T08:08:07.539Z</time></trkpt><trkpt lat="46.1420163" lon="9.512472"><ele>208.0</ele><time>2026-04-20T08:08:09.541Z</time></trkpt><trkpt lat="46.1419474" lon="9.5126089"><ele>208.0</ele><time>2026-04-20T08:08:11.539Z</time></trkpt><trkpt lat="46.1418787" lon="9.5127426"><ele>208.0</ele><time>2026-04-20T08:08:13.54Z</time></trkpt><trkpt lat="46.1418132" lon="9.5128745"><ele>208.0</ele><time>2026-04-20T08:08:15.539Z</time></trkpt><trkpt lat="46.1417488" lon="9.513011"><ele>208.0</ele><time>2026-04-20T08:08:17.539Z</time></trkpt><trkpt lat="46.1416812" lon="9.513148"><ele>208.0</ele><time>2026-04-20T08:08:19.539Z</time></trkpt><trkpt lat="46.1415996" lon="9.5132718"><ele>208.0</ele><time>2026-04-20T08:08:21.539Z</time></trkpt><trkpt lat="46.1415278" lon="9.5134139"><ele>208.0</ele><time>2026-04-20T08:08:23.54Z</time></trkpt><trkpt lat="46.1414585" lon="9.5135575"><ele>208.0</ele><time>2026-04-20T08:08:25.54Z</time></trkpt><trkpt lat="46.1413895" lon="9.5136985"><ele>208.0</ele><time>2026-04-20T08:08:27.54Z</time></trkpt><trkpt lat="46.1413528" lon="9.5137729"><ele>208.0</ele><time>2026-04-20T08:08:28.539Z</time></trkpt><trkpt lat="46.1412853" lon="9.5139097"><ele>208.0</ele><time>2026-04-20T08:08:30.54Z</time></trkpt><trkpt lat="46.1412259" lon="9.514052"><ele>208.25</ele><time>2026-04-20T08:08:32.54Z</time></trkpt><trkpt lat="46.1411675" lon="9.5141937"><ele>208.5</ele><time>2026-04-20T08:08:34.541Z</time></trkpt><trkpt lat="46.1410986" lon="9.5143395"><ele>208.75</ele><time>2026-04-20T08:08:36.541Z</time></trkpt><trkpt lat="46.1410385" lon="9.5144898"><ele>209.0</ele><time>2026-04-20T08:08:38.541Z</time></trkpt><trkpt lat="46.1409778" lon="9.5146379"><ele>209.0</ele><time>2026-04-20T08:08:40.539Z</time></trkpt><trkpt lat="46.1409158" lon="9.5147858"><ele>209.0</ele><time>2026-04-20T08:08:42.541Z</time></trkpt><trkpt lat="46.1408586" lon="9.5149319"><ele>209.0</ele><time>2026-04-20T08:08:44.54Z</time></trkpt><trkpt lat="46.1408016" lon="9.5150766"><ele>209.0</ele><time>2026-04-20T08:08:46.54Z</time></trkpt><trkpt lat="46.14075" lon="9.5152325"><ele>209.2</ele><time>2026-04-20T08:08:48.539Z</time></trkpt><trkpt lat="46.1406877" lon="9.51538"><ele>209.39999999999998</ele><time>2026-04-20T08:08:50.541Z</time></trkpt><trkpt lat="46.1406323" lon="9.5155287"><ele>209.6</ele><time>2026-04-20T08:08:52.539Z</time></trkpt><trkpt lat="46.1405952" lon="9.5156114"><ele>209.8</ele><time>2026-04-20T08:08:53.541Z</time></trkpt><trkpt lat="46.1405408" lon="9.5157688"><ele>210.0</ele><time>2026-04-20T08:08:55.54Z</time></trkpt><trkpt lat="46.1404789" lon="9.5159304"><ele>210.0</ele><time>2026-04-20T08:08:57.539Z</time></trkpt><trkpt lat="46.1404516" lon="9.5160173"><ele>210.0</ele><time>2026-04-20T08:08:58.539Z</time></trkpt><trkpt lat="46.1403982" lon="9.5161659"><ele>210.0</ele><time>2026-04-20T08:09:00.539Z</time></trkpt><trkpt lat="46.1403528" lon="9.5163097"><ele>210.0</ele><time>2026-04-20T08:09:02.54Z</time></trkpt><trkpt lat="46.1403065" lon="9.5164539"><ele>210.0</ele><time>2026-04-20T08:09:04.541Z</time></trkpt><trkpt lat="46.1402633" lon="9.5165896"><ele>210.0</ele><time>2026-04-20T08:09:06.539Z</time></trkpt><trkpt lat="46.1402161" lon="9.5167375"><ele>210.0</ele><time>2026-04-20T08:09:08.539Z</time></trkpt><trkpt lat="46.1401701" lon="9.516893"><ele>210.0</ele><time>2026-04-20T08:09:10.54Z</time></trkpt><trkpt lat="46.1401199" lon="9.5170308"><ele>210.0</ele><time>2026-04-20T08:09:12.54Z</time></trkpt><trkpt lat="46.1400926" lon="9.5171132"><ele>210.0</ele><time>2026-04-20T08:09:13.541Z</time></trkpt><trkpt lat="46.1400432" lon="9.5172726"><ele>210.0</ele><time>2026-04-20T08:09:15.539Z</time></trkpt><trkpt lat="46.1399958" lon="9.5174382"><ele>210.0</ele><time>2026-04-20T08:09:17.54Z</time></trkpt><trkpt lat="46.1399499" lon="9.5176029"><ele>210.0</ele><time>2026-04-20T08:09:19.54Z</time></trkpt><trkpt lat="46.1399068" lon="9.5177625"><ele>210.0</ele><time>2026-04-20T08:09:21.542Z</time></trkpt><trkpt lat="46.1398671" lon="9.5179125"><ele>210.5</ele><time>2026-04-20T08:09:23.54Z</time></trkpt><trkpt lat="46.139821" lon="9.5180683"><ele>211.0</ele><time>2026-04-20T08:09:25.541Z</time></trkpt><trkpt lat="46.1397767" lon="9.5182274"><ele>211.5</ele><time>2026-04-20T08:09:27.54Z</time></trkpt><trkpt lat="46.1397324" lon="9.518395"><ele>212.0</ele><time>2026-04-20T08:09:29.541Z</time></trkpt><trkpt lat="46.1396858" lon="9.5185621"><ele>212.0</ele><time>2026-04-20T08:09:31.54Z</time></trkpt><trkpt lat="46.1396419" lon="9.5187303"><ele>212.0</ele><time>2026-04-20T08:09:33.541Z</time></trkpt><trkpt lat="46.139601" lon="9.5188933"><ele>212.0</ele><time>2026-04-20T08:09:35.54Z</time></trkpt><trkpt lat="46.139556" lon="9.519056"><ele>212.0</ele><time>2026-04-20T08:09:37.539Z</time></trkpt><trkpt lat="46.1395117" lon="9.5192192"><ele>211.75</ele><time>2026-04-20T08:09:39.54Z</time></trkpt><trkpt lat="46.1394651" lon="9.519369"><ele>211.5</ele><time>2026-04-20T08:09:41.54Z</time></trkpt><trkpt lat="46.1394165" lon="9.5195255"><ele>211.25</ele><time>2026-04-20T08:09:43.541Z</time></trkpt><trkpt lat="46.139372" lon="9.5196897"><ele>211.0</ele><time>2026-04-20T08:09:45.539Z</time></trkpt><trkpt lat="46.1393174" lon="9.5198516"><ele>210.75</ele><time>2026-04-20T08:09:47.541Z</time></trkpt><trkpt lat="46.1392746" lon="9.5200119"><ele>210.5</ele><time>2026-04-20T08:09:49.54Z</time></trkpt><trkpt lat="46.1392289" lon="9.5201657"><ele>210.25</ele><time>2026-04-20T08:09:51.539Z</time></trkpt><trkpt lat="46.1391782" lon="9.5203198"><ele>210.0</ele><time>2026-04-20T08:09:53.54Z</time></trkpt><trkpt lat="46.1391342" lon="9.5204765"><ele>210.0</ele><time>2026-04-20T08:09:55.541Z</time></trkpt><trkpt lat="46.1390884" lon="9.520637"><ele>210.0</ele><time>2026-04-20T08:09:57.54Z</time></trkpt><trkpt lat="46.1390415" lon="9.5207922"><ele>210.0</ele><time>2026-04-20T08:09:59.54Z</time></trkpt><trkpt lat="46.1389937" lon="9.5209326"><ele>210.0</ele><time>2026-04-20T08:10:01.539Z</time></trkpt><trkpt lat="46.1389489" lon="9.5210735"><ele>210.0</ele><time>2026-04-20T08:10:03.54Z</time></trkpt><trkpt lat="46.1389037" lon="9.521226"><ele>210.0</ele><time>2026-04-20T08:10:05.54Z</time></trkpt><trkpt lat="46.1388664" lon="9.5213732"><ele>210.0</ele><time>2026-04-20T08:10:07.54Z</time></trkpt><trkpt lat="46.1388197" lon="9.5215293"><ele>210.0</ele><time>2026-04-20T08:10:09.541Z</time></trkpt><trkpt lat="46.138772" lon="9.5216901"><ele>210.0</ele><time>2026-04-20T08:10:11.542Z</time></trkpt><trkpt lat="46.1387314" lon="9.5218481"><ele>210.0</ele><time>2026-04-20T08:10:13.539Z</time></trkpt><trkpt lat="46.1386937" lon="9.5220108"><ele>210.0</ele><time>2026-04-20T08:10:15.54Z</time></trkpt><trkpt lat="46.1386779" lon="9.5221018"><ele>210.0</ele><time>2026-04-20T08:10:16.54Z</time></trkpt><trkpt lat="46.1386394" lon="9.5222646"><ele>210.0</ele><time>2026-04-20T08:10:18.541Z</time></trkpt><trkpt lat="46.1386038" lon="9.5224355"><ele>210.25</ele><time>2026-04-20T08:10:20.541Z</time></trkpt><trkpt lat="46.1385713" lon="9.5226034"><ele>210.5</ele><time>2026-04-20T08:10:22.541Z</time></trkpt><trkpt lat="46.1385435" lon="9.5227681"><ele>210.75</ele><time>2026-04-20T08:10:24.54Z</time></trkpt><trkpt lat="46.1385189" lon="9.5229273"><ele>211.0</ele><time>2026-04-20T08:10:26.541Z</time></trkpt><trkpt lat="46.138494" lon="9.5230917"><ele>211.0</ele><time>2026-04-20T08:10:28.54Z</time></trkpt><trkpt lat="46.1384735" lon="9.5232523"><ele>211.0</ele><time>2026-04-20T08:10:30.54Z</time></trkpt><trkpt lat="46.1384668" lon="9.5233452"><ele>211.0</ele><time>2026-04-20T08:10:31.54Z</time></trkpt><trkpt lat="46.1384424" lon="9.5235145"><ele>211.0</ele><time>2026-04-20T08:10:33.541Z</time></trkpt><trkpt lat="46.1384292" lon="9.5236832"><ele>211.0</ele><time>2026-04-20T08:10:35.541Z</time></trkpt><trkpt lat="46.1384178" lon="9.5238551"><ele>210.83333333333331</ele><time>2026-04-20T08:10:37.539Z</time></trkpt><trkpt lat="46.1384268" lon="9.52403"><ele>210.66666666666666</ele><time>2026-04-20T08:10:39.542Z</time></trkpt><trkpt lat="46.1384368" lon="9.5241266"><ele>210.5</ele><time>2026-04-20T08:10:40.54Z</time></trkpt><trkpt lat="46.1384365" lon="9.5242223"><ele>210.33333333333331</ele><time>2026-04-20T08:10:41.541Z</time></trkpt><trkpt lat="46.1384388" lon="9.5243239"><ele>210.16666666666666</ele><time>2026-04-20T08:10:42.541Z</time></trkpt><trkpt lat="46.1384458" lon="9.5244173"><ele>210.0</ele><time>2026-04-20T08:10:43.54Z</time></trkpt><trkpt lat="46.1384373" lon="9.5245321"><ele>210.0</ele><time>2026-04-20T08:10:44.539Z</time></trkpt><trkpt lat="46.1384404" lon="9.5246438"><ele>210.0</ele><time>2026-04-20T08:10:45.541Z</time></trkpt><trkpt lat="46.1384331" lon="9.5247588"><ele>210.0</ele><time>2026-04-20T08:10:46.54Z</time></trkpt><trkpt lat="46.1384275" lon="9.5248687"><ele>210.0</ele><time>2026-04-20T08:10:47.539Z</time></trkpt><trkpt lat="46.1384182" lon="9.5249883"><ele>210.0</ele><time>2026-04-20T08:10:48.54Z</time></trkpt><trkpt lat="46.1384097" lon="9.5251093"><ele>210.0</ele><time>2026-04-20T08:10:49.542Z</time></trkpt><trkpt lat="46.1384066" lon="9.5252142"><ele>210.0</ele><time>2026-04-20T08:10:50.54Z</time></trkpt><trkpt lat="46.1383987" lon="9.5253244"><ele>210.0</ele><time>2026-04-20T08:10:51.542Z</time></trkpt><trkpt lat="46.1383966" lon="9.5254248"><ele>210.0</ele><time>2026-04-20T08:10:52.54Z</time></trkpt><trkpt lat="46.1383924" lon="9.5255254"><ele>210.0</ele><time>2026-04-20T08:10:53.54Z</time></trkpt><trkpt lat="46.1383903" lon="9.5256248"><ele>210.0</ele><time>2026-04-20T08:10:54.541Z</time></trkpt><trkpt lat="46.1383871" lon="9.5257191"><ele>210.0</ele><time>2026-04-20T08:10:55.54Z</time></trkpt><trkpt lat="46.1383822" lon="9.5258185"><ele>210.0</ele><time>2026-04-20T08:10:56.54Z</time></trkpt><trkpt lat="46.1383748" lon="9.5259117"><ele>210.0</ele><time>2026-04-20T08:10:57.541Z</time></trkpt><trkpt lat="46.1383702" lon="9.5260923"><ele>210.0</ele><time>2026-04-20T08:10:59.541Z</time></trkpt><trkpt lat="46.138367" lon="9.5261892"><ele>210.0</ele><time>2026-04-20T08:11:00.539Z</time></trkpt><trkpt lat="46.138367" lon="9.5262896"><ele>210.0</ele><time>2026-04-20T08:11:01.54Z</time></trkpt><trkpt lat="46.1383652" lon="9.5263932"><ele>210.0</ele><time>2026-04-20T08:11:02.541Z</time></trkpt><trkpt lat="46.1383591" lon="9.5264921"><ele>210.0</ele><time>2026-04-20T08:11:03.541Z</time></trkpt><trkpt lat="46.1383509" lon="9.5265899"><ele>210.0</ele><time>2026-04-20T08:11:04.541Z</time></trkpt><trkpt lat="46.1383487" lon="9.5266853"><ele>210.0</ele><time>2026-04-20T08:11:05.541Z</time></trkpt><trkpt lat="46.1383466" lon="9.5268555"><ele>210.0</ele><time>2026-04-20T08:11:07.54Z</time></trkpt><trkpt lat="46.1383405" lon="9.5269568"><ele>210.0</ele><time>2026-04-20T08:11:08.54Z</time></trkpt><trkpt lat="46.1383356" lon="9.5270623"><ele>210.0</ele><time>2026-04-20T08:11:09.541Z</time></trkpt><trkpt lat="46.1383269" lon="9.5272522"><ele>210.0</ele><time>2026-04-20T08:11:11.54Z</time></trkpt><trkpt lat="46.1383223" lon="9.5273461"><ele>210.0</ele><time>2026-04-20T08:11:12.542Z</time></trkpt><trkpt lat="46.1383188" lon="9.5274379"><ele>210.0</ele><time>2026-04-20T08:11:13.539Z</time></trkpt><trkpt lat="46.1383122" lon="9.5275929"><ele>210.0</ele><time>2026-04-20T08:11:15.54Z</time></trkpt><trkpt lat="46.138291" lon="9.5277191"><ele>210.0</ele><time>2026-04-20T08:11:17.54Z</time></trkpt><trkpt lat="46.138279" lon="9.527832"><ele>210.0</ele><time>2026-04-20T08:11:19.54Z</time></trkpt><trkpt lat="46.1382648" lon="9.5279462"><ele>210.2</ele><time>2026-04-20T08:11:21.54Z</time></trkpt><trkpt lat="46.1382536" lon="9.5280549"><ele>210.4</ele><time>2026-04-20T08:11:23.54Z</time></trkpt><trkpt lat="46.1382354" lon="9.5281991"><ele>210.60000000000002</ele><time>2026-04-20T08:11:25.54Z</time></trkpt><trkpt lat="46.1382161" lon="9.5283437"><ele>210.8</ele><time>2026-04-20T08:11:27.541Z</time></trkpt><trkpt lat="46.138213" lon="9.528477"><ele>211.0</ele><time>2026-04-20T08:11:29.542Z</time></trkpt><trkpt lat="46.1382115" lon="9.5286114"><ele>211.20000000000002</ele><time>2026-04-20T08:11:31.539Z</time></trkpt><trkpt lat="46.1382149" lon="9.5287614"><ele>211.4</ele><time>2026-04-20T08:11:33.541Z</time></trkpt><trkpt lat="46.138212" lon="9.5289082"><ele>211.6</ele><time>2026-04-20T08:11:35.54Z</time></trkpt><trkpt lat="46.1382156" lon="9.5290725"><ele>211.8</ele><time>2026-04-20T08:11:37.541Z</time></trkpt><trkpt lat="46.1382097" lon="9.5292475"><ele>212.0</ele><time>2026-04-20T08:11:39.54Z</time></trkpt><trkpt lat="46.1381986" lon="9.5294102"><ele>212.5</ele><time>2026-04-20T08:11:41.541Z</time></trkpt><trkpt lat="46.1381794" lon="9.5295864"><ele>213.0</ele><time>2026-04-20T08:11:43.541Z</time></trkpt><trkpt lat="46.1381563" lon="9.5297443"><ele>213.5</ele><time>2026-04-20T08:11:45.541Z</time></trkpt><trkpt lat="46.1381209" lon="9.5298839"><ele>214.0</ele><time>2026-04-20T08:11:47.541Z</time></trkpt><trkpt lat="46.1380783" lon="9.5300413"><ele>214.0</ele><time>2026-04-20T08:11:49.539Z</time></trkpt><trkpt lat="46.1380701" lon="9.5301335"><ele>213.99999999999997</ele><time>2026-04-20T08:11:50.54Z</time></trkpt><trkpt lat="46.1380567" lon="9.5303064"><ele>213.99999999999997</ele><time>2026-04-20T08:11:52.54Z</time></trkpt><trkpt lat="46.1380489" lon="9.5304746"><ele>214.0</ele><time>2026-04-20T08:11:54.54Z</time></trkpt><trkpt lat="46.1380326" lon="9.5306372"><ele>214.0</ele><time>2026-04-20T08:11:56.541Z</time></trkpt><trkpt lat="46.1380295" lon="9.5307293"><ele>214.39999999999998</ele><time>2026-04-20T08:11:57.54Z</time></trkpt><trkpt lat="46.1380174" lon="9.5309013"><ele>214.79999999999998</ele><time>2026-04-20T08:11:59.542Z</time></trkpt><trkpt lat="46.1380134" lon="9.5309922"><ele>215.20000000000002</ele><time>2026-04-20T08:12:00.54Z</time></trkpt><trkpt lat="46.1380086" lon="9.5311517"><ele>215.60000000000002</ele><time>2026-04-20T08:12:02.54Z</time></trkpt><trkpt lat="46.1380002" lon="9.5313039"><ele>216.0</ele><time>2026-04-20T08:12:04.541Z</time></trkpt><trkpt lat="46.1379922" lon="9.5314592"><ele>216.0</ele><time>2026-04-20T08:12:06.541Z</time></trkpt><trkpt lat="46.1379879" lon="9.5316142"><ele>216.0</ele><time>2026-04-20T08:12:08.54Z</time></trkpt><trkpt lat="46.1379836" lon="9.53178"><ele>216.0</ele><time>2026-04-20T08:12:10.54Z</time></trkpt><trkpt lat="46.1379792" lon="9.5319462"><ele>216.0</ele><time>2026-04-20T08:12:12.54Z</time></trkpt><trkpt lat="46.1379787" lon="9.5321119"><ele>215.8</ele><time>2026-04-20T08:12:14.54Z</time></trkpt><trkpt lat="46.1379697" lon="9.5322766"><ele>215.60000000000002</ele><time>2026-04-20T08:12:16.54Z</time></trkpt><trkpt lat="46.1379621" lon="9.5323721"><ele>215.4</ele><time>2026-04-20T08:12:17.541Z</time></trkpt><trkpt lat="46.1379537" lon="9.5325336"><ele>215.2</ele><time>2026-04-20T08:12:19.54Z</time></trkpt><trkpt lat="46.1379641" lon="9.5326588"><ele>215.0</ele><time>2026-04-20T08:12:21.54Z</time></trkpt><trkpt lat="46.1379713" lon="9.5328017"><ele>214.6</ele><time>2026-04-20T08:12:23.54Z</time></trkpt><trkpt lat="46.1379594" lon="9.5329638"><ele>214.2</ele><time>2026-04-20T08:12:25.541Z</time></trkpt><trkpt lat="46.1379405" lon="9.5331526"><ele>213.8</ele><time>2026-04-20T08:12:27.541Z</time></trkpt><trkpt lat="46.1379475" lon="9.5333092"><ele>213.4</ele><time>2026-04-20T08:12:29.541Z</time></trkpt><trkpt lat="46.1379515" lon="9.5334432"><ele>213.0</ele><time>2026-04-20T08:12:31.54Z</time></trkpt><trkpt lat="46.1379433" lon="9.5335464"><ele>212.99999999999997</ele><time>2026-04-20T08:12:32.54Z</time></trkpt><trkpt lat="46.1379316" lon="9.5336396"><ele>213.0</ele><time>2026-04-20T08:12:33.542Z</time></trkpt><trkpt lat="46.1379187" lon="9.5337364"><ele>213.0</ele><time>2026-04-20T08:12:34.541Z</time></trkpt><trkpt lat="46.137912" lon="9.5338272"><ele>213.0</ele><time>2026-04-20T08:12:35.54Z</time></trkpt><trkpt lat="46.1378989" lon="9.5339224"><ele>213.0</ele><time>2026-04-20T08:12:36.541Z</time></trkpt><trkpt lat="46.1378884" lon="9.5340877"><ele>212.99999999999997</ele><time>2026-04-20T08:12:38.541Z</time></trkpt><trkpt lat="46.1378883" lon="9.53418"><ele>213.0</ele><time>2026-04-20T08:12:39.54Z</time></trkpt><trkpt lat="46.1378824" lon="9.5342742"><ele>213.8</ele><time>2026-04-20T08:12:40.541Z</time></trkpt><trkpt lat="46.1378837" lon="9.5343658"><ele>214.60000000000002</ele><time>2026-04-20T08:12:41.541Z</time></trkpt><trkpt lat="46.137873" lon="9.5345194"><ele>215.39999999999998</ele><time>2026-04-20T08:12:43.542Z</time></trkpt><trkpt lat="46.1378707" lon="9.5346846"><ele>216.2</ele><time>2026-04-20T08:12:45.54Z</time></trkpt><trkpt lat="46.1378879" lon="9.5348668"><ele>217.0</ele><time>2026-04-20T08:12:47.544Z</time></trkpt><trkpt lat="46.1379251" lon="9.5350459"><ele>217.5</ele><time>2026-04-20T08:12:49.542Z</time></trkpt><trkpt lat="46.1379588" lon="9.535213"><ele>218.0</ele><time>2026-04-20T08:12:51.541Z</time></trkpt><trkpt lat="46.1379873" lon="9.5353669"><ele>218.5</ele><time>2026-04-20T08:12:53.542Z</time></trkpt><trkpt lat="46.1380259" lon="9.5355201"><ele>219.0</ele><time>2026-04-20T08:12:55.541Z</time></trkpt><trkpt lat="46.1380615" lon="9.5356646"><ele>218.0</ele><time>2026-04-20T08:12:57.542Z</time></trkpt><trkpt lat="46.1380955" lon="9.535825"><ele>217.0</ele><time>2026-04-20T08:12:59.54Z</time></trkpt><trkpt lat="46.1381249" lon="9.535993"><ele>216.0</ele><time>2026-04-20T08:13:01.54Z</time></trkpt><trkpt lat="46.1381453" lon="9.5361691"><ele>215.0</ele><time>2026-04-20T08:13:03.54Z</time></trkpt><trkpt lat="46.1381557" lon="9.5363278"><ele>214.75</ele><time>2026-04-20T08:13:05.544Z</time></trkpt><trkpt lat="46.1381677" lon="9.5365052"><ele>214.5</ele><time>2026-04-20T08:13:07.544Z</time></trkpt><trkpt lat="46.1381793" lon="9.5366672"><ele>214.25</ele><time>2026-04-20T08:13:09.543Z</time></trkpt><trkpt lat="46.138186" lon="9.5368382"><ele>214.0</ele><time>2026-04-20T08:13:11.545Z</time></trkpt><trkpt lat="46.1382033" lon="9.537008"><ele>214.25</ele><time>2026-04-20T08:13:13.544Z</time></trkpt><trkpt lat="46.1382169" lon="9.5371763"><ele>214.5</ele><time>2026-04-20T08:13:15.545Z</time></trkpt><trkpt lat="46.1382244" lon="9.5373408"><ele>214.75</ele><time>2026-04-20T08:13:17.54Z</time></trkpt><trkpt lat="46.1382339" lon="9.5375094"><ele>215.0</ele><time>2026-04-20T08:13:19.54Z</time></trkpt><trkpt lat="46.1382425" lon="9.5376706"><ele>216.4</ele><time>2026-04-20T08:13:21.541Z</time></trkpt><trkpt lat="46.1382641" lon="9.5379248"><ele>217.8</ele><time>2026-04-20T08:13:24.54Z</time></trkpt><trkpt lat="46.1382735" lon="9.5380166"><ele>219.2</ele><time>2026-04-20T08:13:25.545Z</time></trkpt><trkpt lat="46.1382879" lon="9.5381782"><ele>220.6</ele><time>2026-04-20T08:13:27.541Z</time></trkpt><trkpt lat="46.1382937" lon="9.5382703"><ele>222.0</ele><time>2026-04-20T08:13:28.545Z</time></trkpt><trkpt lat="46.1383109" lon="9.5384329"><ele>222.0</ele><time>2026-04-20T08:13:30.546Z</time></trkpt><trkpt lat="46.1383179" lon="9.5385914"><ele>222.0</ele><time>2026-04-20T08:13:32.541Z</time></trkpt><trkpt lat="46.1383392" lon="9.5387493"><ele>222.0</ele><time>2026-04-20T08:13:34.549Z</time></trkpt><trkpt lat="46.138352" lon="9.5388994"><ele>222.0</ele><time>2026-04-20T08:13:36.548Z</time></trkpt><trkpt lat="46.1383604" lon="9.5390629"><ele>222.0</ele><time>2026-04-20T08:13:38.547Z</time></trkpt><trkpt lat="46.1383677" lon="9.5392369"><ele>221.25</ele><time>2026-04-20T08:13:40.542Z</time></trkpt><trkpt lat="46.1383733" lon="9.5394139"><ele>220.5</ele><time>2026-04-20T08:13:42.545Z</time></trkpt><trkpt lat="46.1383876" lon="9.539573"><ele>219.75</ele><time>2026-04-20T08:13:44.547Z</time></trkpt><trkpt lat="46.1384209" lon="9.5397236"><ele>219.0</ele><time>2026-04-20T08:13:46.54Z</time></trkpt><trkpt lat="46.1384333" lon="9.5398869"><ele>218.2</ele><time>2026-04-20T08:13:48.541Z</time></trkpt><trkpt lat="46.1384299" lon="9.5400476"><ele>217.39999999999998</ele><time>2026-04-20T08:13:50.541Z</time></trkpt><trkpt lat="46.1384336" lon="9.5401973"><ele>216.6</ele><time>2026-04-20T08:13:52.54Z</time></trkpt><trkpt lat="46.1384981" lon="9.5402721"><ele>215.8</ele><time>2026-04-20T08:13:54.547Z</time></trkpt><trkpt lat="46.1385946" lon="9.5402986"><ele>215.0</ele><time>2026-04-20T08:13:56.541Z</time></trkpt><trkpt lat="46.1387279" lon="9.5403111"><ele>215.25</ele><time>2026-04-20T08:13:59.541Z</time></trkpt><trkpt lat="46.1388066" lon="9.5404172"><ele>215.5</ele><time>2026-04-20T08:14:01.547Z</time></trkpt><trkpt lat="46.1388602" lon="9.5405709"><ele>215.75</ele><time>2026-04-20T08:14:03.548Z</time></trkpt><trkpt lat="46.1389085" lon="9.5407418"><ele>216.0</ele><time>2026-04-20T08:14:05.541Z</time></trkpt><trkpt lat="46.1389503" lon="9.5409041"><ele>216.0</ele><time>2026-04-20T08:14:07.546Z</time></trkpt><trkpt lat="46.1389745" lon="9.540993"><ele>216.00000000000003</ele><time>2026-04-20T08:14:08.547Z</time></trkpt><trkpt lat="46.1390118" lon="9.5411746"><ele>216.00000000000003</ele><time>2026-04-20T08:14:10.541Z</time></trkpt><trkpt lat="46.1390458" lon="9.5413446"><ele>216.0</ele><time>2026-04-20T08:14:12.541Z</time></trkpt><trkpt lat="46.1390887" lon="9.5414993"><ele>216.0</ele><time>2026-04-20T08:14:14.548Z</time></trkpt><trkpt lat="46.1391106" lon="9.5415849"><ele>216.0</ele><time>2026-04-20T08:14:15.548Z</time></trkpt><trkpt lat="46.1391495" lon="9.5417269"><ele>216.00000000000003</ele><time>2026-04-20T08:14:17.547Z</time></trkpt><trkpt lat="46.1391794" lon="9.5418938"><ele>216.00000000000003</ele><time>2026-04-20T08:14:19.54Z</time></trkpt><trkpt lat="46.1392069" lon="9.5420505"><ele>216.0</ele><time>2026-04-20T08:14:21.542Z</time></trkpt><trkpt lat="46.1392371" lon="9.5422004"><ele>216.0</ele><time>2026-04-20T08:14:23.541Z</time></trkpt><trkpt lat="46.1392652" lon="9.5423707"><ele>216.0</ele><time>2026-04-20T08:14:25.541Z</time></trkpt><trkpt lat="46.1392989" lon="9.5425427"><ele>216.00000000000003</ele><time>2026-04-20T08:14:27.54Z</time></trkpt><trkpt lat="46.1393152" lon="9.5426366"><ele>216.00000000000003</ele><time>2026-04-20T08:14:28.54Z</time></trkpt><trkpt lat="46.1393657" lon="9.5427986"><ele>216.0</ele><time>2026-04-20T08:14:30.542Z</time></trkpt><trkpt lat="46.1394096" lon="9.542953"><ele>216.0</ele><time>2026-04-20T08:14:32.542Z</time></trkpt><trkpt lat="46.139456" lon="9.5431123"><ele>216.25</ele><time>2026-04-20T08:14:34.547Z</time></trkpt><trkpt lat="46.1394973" lon="9.5432745"><ele>216.5</ele><time>2026-04-20T08:14:36.541Z</time></trkpt><trkpt lat="46.1395418" lon="9.5434346"><ele>216.75</ele><time>2026-04-20T08:14:38.548Z</time></trkpt><trkpt lat="46.1395919" lon="9.5435922"><ele>217.0</ele><time>2026-04-20T08:14:40.549Z</time></trkpt><trkpt lat="46.1396267" lon="9.5437451"><ele>217.0</ele><time>2026-04-20T08:14:42.548Z</time></trkpt><trkpt lat="46.1396663" lon="9.5439156"><ele>217.0</ele><time>2026-04-20T08:14:44.542Z</time></trkpt><trkpt lat="46.139704" lon="9.5440756"><ele>217.0</ele><time>2026-04-20T08:14:46.546Z</time></trkpt><trkpt lat="46.1397388" lon="9.5442373"><ele>217.0</ele><time>2026-04-20T08:14:48.548Z</time></trkpt><trkpt lat="46.1397738" lon="9.5443896"><ele>217.0</ele><time>2026-04-20T08:14:50.542Z</time></trkpt><trkpt lat="46.1398058" lon="9.5445347"><ele>217.0</ele><time>2026-04-20T08:14:52.541Z</time></trkpt><trkpt lat="46.1398385" lon="9.5446985"><ele>217.0</ele><time>2026-04-20T08:14:54.541Z</time></trkpt><trkpt lat="46.1398747" lon="9.5448517"><ele>217.0</ele><time>2026-04-20T08:14:56.547Z</time></trkpt><trkpt lat="46.1399086" lon="9.5450066"><ele>217.0</ele><time>2026-04-20T08:14:58.548Z</time></trkpt><trkpt lat="46.1399426" lon="9.54517"><ele>216.75</ele><time>2026-04-20T08:15:00.542Z</time></trkpt><trkpt lat="46.139978" lon="9.5453208"><ele>216.5</ele><time>2026-04-20T08:15:02.549Z</time></trkpt><trkpt lat="46.140014" lon="9.5454846"><ele>216.25</ele><time>2026-04-20T08:15:04.54Z</time></trkpt><trkpt lat="46.1400527" lon="9.545635"><ele>216.0</ele><time>2026-04-20T08:15:06.543Z</time></trkpt><trkpt lat="46.1400941" lon="9.5457898"><ele>216.0</ele><time>2026-04-20T08:15:08.541Z</time></trkpt><trkpt lat="46.1401277" lon="9.5459488"><ele>216.0</ele><time>2026-04-20T08:15:10.549Z</time></trkpt><trkpt lat="46.1401698" lon="9.546103"><ele>216.0</ele><time>2026-04-20T08:15:12.549Z</time></trkpt><trkpt lat="46.1402139" lon="9.5462604"><ele>216.0</ele><time>2026-04-20T08:15:14.548Z</time></trkpt><trkpt lat="46.1402603" lon="9.5464193"><ele>216.75</ele><time>2026-04-20T08:15:16.541Z</time></trkpt><trkpt lat="46.1403168" lon="9.5465753"><ele>217.5</ele><time>2026-04-20T08:15:18.546Z</time></trkpt><trkpt lat="46.14037" lon="9.5467258"><ele>218.25</ele><time>2026-04-20T08:15:20.549Z</time></trkpt><trkpt lat="46.1404175" lon="9.5468666"><ele>219.0</ele><time>2026-04-20T08:15:22.542Z</time></trkpt><trkpt lat="46.1404556" lon="9.5470089"><ele>219.2</ele><time>2026-04-20T08:15:24.544Z</time></trkpt><trkpt lat="46.1405095" lon="9.5471552"><ele>219.39999999999998</ele><time>2026-04-20T08:15:26.545Z</time></trkpt><trkpt lat="46.140576" lon="9.5472726"><ele>219.6</ele><time>2026-04-20T08:15:28.54Z</time></trkpt><trkpt lat="46.14064" lon="9.547389"><ele>219.8</ele><time>2026-04-20T08:15:30.542Z</time></trkpt><trkpt lat="46.1406917" lon="9.5475319"><ele>220.0</ele><time>2026-04-20T08:15:32.542Z</time></trkpt><trkpt lat="46.1407432" lon="9.5476671"><ele>219.2</ele><time>2026-04-20T08:15:34.541Z</time></trkpt><trkpt lat="46.1407985" lon="9.5478043"><ele>218.4</ele><time>2026-04-20T08:15:36.541Z</time></trkpt><trkpt lat="46.1408434" lon="9.5479466"><ele>217.60000000000002</ele><time>2026-04-20T08:15:38.542Z</time></trkpt><trkpt lat="46.1408901" lon="9.5480744"><ele>216.8</ele><time>2026-04-20T08:15:40.543Z</time></trkpt><trkpt lat="46.1409349" lon="9.5482128"><ele>216.0</ele><time>2026-04-20T08:15:42.542Z</time></trkpt><trkpt lat="46.1409229" lon="9.5483778"><ele>216.0</ele><time>2026-04-20T08:15:44.541Z</time></trkpt><trkpt lat="46.1408841" lon="9.5485186"><ele>216.0</ele><time>2026-04-20T08:15:46.542Z</time></trkpt><trkpt lat="46.1409169" lon="9.5486362"><ele>216.0</ele><time>2026-04-20T08:15:48.542Z</time></trkpt><trkpt lat="46.140993" lon="9.548615"><ele>216.0</ele><time>2026-04-20T08:15:50.541Z</time></trkpt><trkpt lat="46.1410672" lon="9.54857"><ele>216.0</ele><time>2026-04-20T08:15:53.542Z</time></trkpt><trkpt lat="46.1411443" lon="9.5485268"><ele>216.0</ele><time>2026-04-20T08:15:57.541Z</time></trkpt><trkpt lat="46.1412125" lon="9.5484793"><ele>216.0</ele><time>2026-04-20T08:16:00.541Z</time></trkpt><trkpt lat="46.1413059" lon="9.5484548"><ele>216.0</ele><time>2026-04-20T08:16:03.541Z</time></trkpt><trkpt lat="46.141385" lon="9.5483864"><ele>216.0</ele><time>2026-04-20T08:16:05.545Z</time></trkpt><trkpt lat="46.1414437" lon="9.5483353"><ele>216.0</ele><time>2026-04-20T08:16:06.543Z</time></trkpt><trkpt lat="46.1415008" lon="9.5482954"><ele>216.0</ele><time>2026-04-20T08:16:07.543Z</time></trkpt><trkpt lat="46.1416133" lon="9.5482792"><ele>216.0</ele><time>2026-04-20T08:16:09.543Z</time></trkpt><trkpt lat="46.1416696" lon="9.5484266"><ele>217.0</ele><time>2026-04-20T08:16:11.547Z</time></trkpt><trkpt lat="46.1416693" lon="9.5485794"><ele>218.0</ele><time>2026-04-20T08:16:13.541Z</time></trkpt><trkpt lat="46.1417041" lon="9.5487342"><ele>219.0</ele><time>2026-04-20T08:16:15.542Z</time></trkpt><trkpt lat="46.1417775" lon="9.548864"><ele>220.0</ele><time>2026-04-20T08:16:17.541Z</time></trkpt><trkpt lat="46.1418701" lon="9.5489774"><ele>220.16666666666666</ele><time>2026-04-20T08:16:19.54Z</time></trkpt><trkpt lat="46.1419655" lon="9.5491032"><ele>220.33333333333331</ele><time>2026-04-20T08:16:21.54Z</time></trkpt><trkpt lat="46.1420028" lon="9.5491775"><ele>220.5</ele><time>2026-04-20T08:16:22.54Z</time></trkpt><trkpt lat="46.1420426" lon="9.5492524"><ele>220.66666666666669</ele><time>2026-04-20T08:16:23.545Z</time></trkpt><trkpt lat="46.1421229" lon="9.5493878"><ele>220.83333333333334</ele><time>2026-04-20T08:16:25.541Z</time></trkpt><trkpt lat="46.1421638" lon="9.5494648"><ele>221.0</ele><time>2026-04-20T08:16:26.54Z</time></trkpt><trkpt lat="46.1422411" lon="9.5495946"><ele>220.5</ele><time>2026-04-20T08:16:28.544Z</time></trkpt><trkpt lat="46.1423291" lon="9.5497134"><ele>220.0</ele><time>2026-04-20T08:16:30.544Z</time></trkpt><trkpt lat="46.1424033" lon="9.5498359"><ele>219.5</ele><time>2026-04-20T08:16:32.545Z</time></trkpt><trkpt lat="46.1424877" lon="9.5499517"><ele>219.0</ele><time>2026-04-20T08:16:34.541Z</time></trkpt><trkpt lat="46.1425729" lon="9.5500721"><ele>219.5</ele><time>2026-04-20T08:16:36.542Z</time></trkpt><trkpt lat="46.1426644" lon="9.5501798"><ele>220.0</ele><time>2026-04-20T08:16:38.547Z</time></trkpt><trkpt lat="46.1427518" lon="9.5502957"><ele>220.5</ele><time>2026-04-20T08:16:40.542Z</time></trkpt><trkpt lat="46.1428398" lon="9.5504177"><ele>221.0</ele><time>2026-04-20T08:16:42.546Z</time></trkpt><trkpt lat="46.1429216" lon="9.5505397"><ele>221.0</ele><time>2026-04-20T08:16:44.545Z</time></trkpt><trkpt lat="46.1429837" lon="9.5506666"><ele>221.00000000000003</ele><time>2026-04-20T08:16:46.54Z</time></trkpt><trkpt lat="46.143045" lon="9.5507862"><ele>221.00000000000003</ele><time>2026-04-20T08:16:48.542Z</time></trkpt><trkpt lat="46.1431023" lon="9.550901"><ele>221.0</ele><time>2026-04-20T08:16:50.541Z</time></trkpt><trkpt lat="46.1431673" lon="9.5510027"><ele>221.0</ele><time>2026-04-20T08:16:52.54Z</time></trkpt><trkpt lat="46.1432474" lon="9.5510454"><ele>220.83333333333334</ele><time>2026-04-20T08:16:54.541Z</time></trkpt><trkpt lat="46.1433447" lon="9.5510294"><ele>220.66666666666669</ele><time>2026-04-20T08:16:56.542Z</time></trkpt><trkpt lat="46.1434261" lon="9.5509575"><ele>220.5</ele><time>2026-04-20T08:16:58.542Z</time></trkpt><trkpt lat="46.1434978" lon="9.5508914"><ele>220.33333333333331</ele><time>2026-04-20T08:17:00.541Z</time></trkpt><trkpt lat="46.1435556" lon="9.5508328"><ele>220.16666666666666</ele><time>2026-04-20T08:17:02.545Z</time></trkpt><trkpt lat="46.1436165" lon="9.5507751"><ele>220.0</ele><time>2026-04-20T08:17:05.542Z</time></trkpt><trkpt lat="46.1436913" lon="9.550721"><ele>220.0</ele><time>2026-04-20T08:17:08.54Z</time></trkpt><trkpt lat="46.1437419" lon="9.5506651"><ele>220.0</ele><time>2026-04-20T08:17:11.627Z</time></trkpt><trkpt lat="46.1438316" lon="9.5505961"><ele>220.0</ele><time>2026-04-20T08:17:13.56Z</time></trkpt><trkpt lat="46.1439116" lon="9.5505002"><ele>220.0</ele><time>2026-04-20T08:17:15.541Z</time></trkpt><trkpt lat="46.1438977" lon="9.5503812"><ele>220.0</ele><time>2026-04-20T08:17:17.544Z</time></trkpt><trkpt lat="46.1437952" lon="9.5502969"><ele>220.16666666666666</ele><time>2026-04-20T08:17:19.541Z</time></trkpt><trkpt lat="46.1437442" lon="9.5502334"><ele>220.33333333333331</ele><time>2026-04-20T08:17:20.541Z</time></trkpt><trkpt lat="46.1436586" lon="9.5501095"><ele>220.5</ele><time>2026-04-20T08:17:22.541Z</time></trkpt><trkpt lat="46.1435829" lon="9.54997"><ele>220.66666666666669</ele><time>2026-04-20T08:17:24.542Z</time></trkpt><trkpt lat="46.1435484" lon="9.5498938"><ele>220.83333333333334</ele><time>2026-04-20T08:17:25.543Z</time></trkpt><trkpt lat="46.143518" lon="9.5498137"><ele>221.0</ele><time>2026-04-20T08:17:26.542Z</time></trkpt><trkpt lat="46.1435065" lon="9.5496564"><ele>220.5</ele><time>2026-04-20T08:17:28.542Z</time></trkpt><trkpt lat="46.1434636" lon="9.5495081"><ele>220.0</ele><time>2026-04-20T08:17:30.541Z</time></trkpt><trkpt lat="46.143394" lon="9.5493816"><ele>219.5</ele><time>2026-04-20T08:17:32.541Z</time></trkpt><trkpt lat="46.1433172" lon="9.5492448"><ele>219.0</ele><time>2026-04-20T08:17:34.541Z</time></trkpt><trkpt lat="46.1432406" lon="9.549112"><ele>218.75</ele><time>2026-04-20T08:17:36.541Z</time></trkpt><trkpt lat="46.1431633" lon="9.5489608"><ele>218.5</ele><time>2026-04-20T08:17:38.542Z</time></trkpt><trkpt lat="46.1430961" lon="9.5488142"><ele>218.25</ele><time>2026-04-20T08:17:40.542Z</time></trkpt><trkpt lat="46.1430274" lon="9.5486799"><ele>218.0</ele><time>2026-04-20T08:17:42.542Z</time></trkpt><trkpt lat="46.1429558" lon="9.5485424"><ele>218.0</ele><time>2026-04-20T08:17:44.542Z</time></trkpt><trkpt lat="46.1429145" lon="9.5483856"><ele>218.0</ele><time>2026-04-20T08:17:46.542Z</time></trkpt><trkpt lat="46.1428893" lon="9.5482213"><ele>218.0</ele><time>2026-04-20T08:17:48.542Z</time></trkpt><trkpt lat="46.1428656" lon="9.5480485"><ele>218.0</ele><time>2026-04-20T08:17:50.541Z</time></trkpt><trkpt lat="46.1428492" lon="9.5479531"><ele>218.0</ele><time>2026-04-20T08:17:51.541Z</time></trkpt><trkpt lat="46.142837" lon="9.5478548"><ele>217.71428571428572</ele><time>2026-04-20T08:17:52.542Z</time></trkpt><trkpt lat="46.1428253" lon="9.5477542"><ele>217.42857142857144</ele><time>2026-04-20T08:17:53.542Z</time></trkpt><trkpt lat="46.1428147" lon="9.5476555"><ele>217.14285714285714</ele><time>2026-04-20T08:17:54.54Z</time></trkpt><trkpt lat="46.1428084" lon="9.5475581"><ele>216.85714285714286</ele><time>2026-04-20T08:17:55.542Z</time></trkpt><trkpt lat="46.1428102" lon="9.547457"><ele>216.57142857142856</ele><time>2026-04-20T08:17:56.542Z</time></trkpt><trkpt lat="46.1428176" lon="9.5473567"><ele>216.28571428571428</ele><time>2026-04-20T08:17:57.542Z</time></trkpt><trkpt lat="46.1428244" lon="9.5472545"><ele>216.0</ele><time>2026-04-20T08:17:58.542Z</time></trkpt><trkpt lat="46.1428274" lon="9.5471547"><ele>216.0</ele><time>2026-04-20T08:17:59.542Z</time></trkpt><trkpt lat="46.1428348" lon="9.5470552"><ele>216.0</ele><time>2026-04-20T08:18:00.542Z</time></trkpt><trkpt lat="46.14284" lon="9.5469567"><ele>216.0</ele><time>2026-04-20T08:18:01.541Z</time></trkpt><trkpt lat="46.1428469" lon="9.5468613"><ele>216.0</ele><time>2026-04-20T08:18:02.542Z</time></trkpt><trkpt lat="46.1428667" lon="9.5466799"><ele>216.0</ele><time>2026-04-20T08:18:04.541Z</time></trkpt><trkpt lat="46.1428726" lon="9.5465835"><ele>216.0</ele><time>2026-04-20T08:18:05.543Z</time></trkpt><trkpt lat="46.1428704" lon="9.5464919"><ele>216.0</ele><time>2026-04-20T08:18:06.541Z</time></trkpt><trkpt lat="46.1428625" lon="9.5464014"><ele>216.0</ele><time>2026-04-20T08:18:07.541Z</time></trkpt><trkpt lat="46.1428459" lon="9.5462298"><ele>216.0</ele><time>2026-04-20T08:18:09.542Z</time></trkpt><trkpt lat="46.1428252" lon="9.5460658"><ele>216.0</ele><time>2026-04-20T08:18:11.542Z</time></trkpt><trkpt lat="46.1428118" lon="9.5459754"><ele>216.0</ele><time>2026-04-20T08:18:12.541Z</time></trkpt><trkpt lat="46.1427959" lon="9.5458862"><ele>216.0</ele><time>2026-04-20T08:18:13.541Z</time></trkpt><trkpt lat="46.1427701" lon="9.5457205"><ele>216.0</ele><time>2026-04-20T08:18:15.541Z</time></trkpt><trkpt lat="46.1427442" lon="9.5455492"><ele>216.00000000000003</ele><time>2026-04-20T08:18:17.542Z</time></trkpt><trkpt lat="46.1427107" lon="9.5453682"><ele>216.00000000000003</ele><time>2026-04-20T08:18:19.541Z</time></trkpt><trkpt lat="46.1426953" lon="9.5452693"><ele>216.0</ele><time>2026-04-20T08:18:20.541Z</time></trkpt><trkpt lat="46.1426819" lon="9.5451765"><ele>216.0</ele><time>2026-04-20T08:18:21.542Z</time></trkpt><trkpt lat="46.1426684" lon="9.5450862"><ele>215.83333333333334</ele><time>2026-04-20T08:18:22.541Z</time></trkpt><trkpt lat="46.1426579" lon="9.5449966"><ele>215.66666666666669</ele><time>2026-04-20T08:18:23.543Z</time></trkpt><trkpt lat="46.1426409" lon="9.5449053"><ele>215.5</ele><time>2026-04-20T08:18:24.542Z</time></trkpt><trkpt lat="46.1426241" lon="9.5448135"><ele>215.33333333333334</ele><time>2026-04-20T08:18:25.541Z</time></trkpt><trkpt lat="46.1426048" lon="9.5446437"><ele>215.16666666666669</ele><time>2026-04-20T08:18:27.541Z</time></trkpt><trkpt lat="46.1425891" lon="9.5445555"><ele>215.0</ele><time>2026-04-20T08:18:28.541Z</time></trkpt><trkpt lat="46.142552" lon="9.5443839"><ele>214.85714285714286</ele><time>2026-04-20T08:18:30.542Z</time></trkpt><trkpt lat="46.1425312" lon="9.544294"><ele>214.71428571428572</ele><time>2026-04-20T08:18:31.542Z</time></trkpt><trkpt lat="46.1425129" lon="9.5442019"><ele>214.57142857142858</ele><time>2026-04-20T08:18:32.542Z</time></trkpt><trkpt lat="46.1424971" lon="9.5441123"><ele>214.42857142857144</ele><time>2026-04-20T08:18:33.541Z</time></trkpt><trkpt lat="46.1424791" lon="9.544017"><ele>214.28571428571428</ele><time>2026-04-20T08:18:34.541Z</time></trkpt><trkpt lat="46.1424661" lon="9.5439231"><ele>214.14285714285717</ele><time>2026-04-20T08:18:35.541Z</time></trkpt><trkpt lat="46.1424562" lon="9.5438311"><ele>214.0</ele><time>2026-04-20T08:18:36.542Z</time></trkpt><trkpt lat="46.1424448" lon="9.5437405"><ele>214.39999999999998</ele><time>2026-04-20T08:18:37.542Z</time></trkpt><trkpt lat="46.1424355" lon="9.543648"><ele>214.79999999999998</ele><time>2026-04-20T08:18:38.542Z</time></trkpt><trkpt lat="46.1424296" lon="9.5435537"><ele>215.20000000000002</ele><time>2026-04-20T08:18:39.542Z</time></trkpt><trkpt lat="46.1424242" lon="9.5433831"><ele>215.60000000000002</ele><time>2026-04-20T08:18:41.541Z</time></trkpt><trkpt lat="46.1424258" lon="9.5432218"><ele>216.0</ele><time>2026-04-20T08:18:43.541Z</time></trkpt><trkpt lat="46.1424221" lon="9.5430615"><ele>216.0</ele><time>2026-04-20T08:18:45.543Z</time></trkpt><trkpt lat="46.1424131" lon="9.5429263"><ele>216.0</ele><time>2026-04-20T08:18:47.544Z</time></trkpt><trkpt lat="46.1424274" lon="9.542818"><ele>216.0</ele><time>2026-04-20T08:18:49.541Z</time></trkpt><trkpt lat="46.14246" lon="9.5427383"><ele>216.0</ele><time>2026-04-20T08:18:52.549Z</time></trkpt><trkpt lat="46.1425295" lon="9.5426858"><ele>216.0</ele><time>2026-04-20T08:19:12.542Z</time></trkpt><trkpt lat="46.1426071" lon="9.5426501"><ele>216.0</ele><time>2026-04-20T08:19:15.543Z</time></trkpt><trkpt lat="46.1426802" lon="9.5426438"><ele>215.83333333333334</ele><time>2026-04-20T08:19:17.542Z</time></trkpt><trkpt lat="46.1427617" lon="9.5426192"><ele>215.66666666666669</ele><time>2026-04-20T08:19:19.543Z</time></trkpt><trkpt lat="46.1428403" lon="9.542581"><ele>215.5</ele><time>2026-04-20T08:19:21.541Z</time></trkpt><trkpt lat="46.1429247" lon="9.542544"><ele>215.33333333333334</ele><time>2026-04-20T08:19:23.543Z</time></trkpt><trkpt lat="46.1430144" lon="9.5425087"><ele>215.16666666666669</ele><time>2026-04-20T08:19:25.543Z</time></trkpt><trkpt lat="46.1431058" lon="9.5424754"><ele>215.0</ele><time>2026-04-20T08:19:27.547Z</time></trkpt><trkpt lat="46.1431933" lon="9.5424391"><ele>215.33333333333334</ele><time>2026-04-20T08:19:29.542Z</time></trkpt><trkpt lat="46.1432773" lon="9.5423983"><ele>215.66666666666669</ele><time>2026-04-20T08:19:31.541Z</time></trkpt><trkpt lat="46.1433573" lon="9.5423674"><ele>216.0</ele><time>2026-04-20T08:19:33.542Z</time></trkpt><trkpt lat="46.1434351" lon="9.5423469"><ele>216.33333333333331</ele><time>2026-04-20T08:19:35.543Z</time></trkpt><trkpt lat="46.1434997" lon="9.5423548"><ele>216.66666666666666</ele><time>2026-04-20T08:20:00.542Z</time></trkpt><trkpt lat="46.1434824" lon="9.5422596"><ele>217.0</ele><time>2026-04-20T08:20:05.542Z</time></trkpt><trkpt lat="46.1434377" lon="9.5421594"><ele>217.0</ele><time>2026-04-20T08:20:08.543Z</time></trkpt><trkpt lat="46.1434092" lon="9.5420751"><ele>217.0</ele><time>2026-04-20T08:20:10.541Z</time></trkpt><trkpt lat="46.1433674" lon="9.5419632"><ele>217.0</ele><time>2026-04-20T08:20:13.541Z</time></trkpt><trkpt lat="46.14334" lon="9.5418768"><ele>217.0</ele><time>2026-04-20T08:20:15.541Z</time></trkpt><trkpt lat="46.1433133" lon="9.5417921"><ele>217.0</ele><time>2026-04-20T08:20:17.543Z</time></trkpt><trkpt lat="46.1432829" lon="9.5416879"><ele>217.0</ele><time>2026-04-20T08:20:19.541Z</time></trkpt><trkpt lat="46.1432565" lon="9.5415691"><ele>217.0</ele><time>2026-04-20T08:20:21.543Z</time></trkpt><trkpt lat="46.1432273" lon="9.5414266"><ele>216.6</ele><time>2026-04-20T08:20:23.542Z</time></trkpt><trkpt lat="46.1431982" lon="9.5412909"><ele>216.2</ele><time>2026-04-20T08:20:25.541Z</time></trkpt><trkpt lat="46.1431722" lon="9.5411413"><ele>215.8</ele><time>2026-04-20T08:20:27.542Z</time></trkpt><trkpt lat="46.1431342" lon="9.5409933"><ele>215.4</ele><time>2026-04-20T08:20:29.541Z</time></trkpt><trkpt lat="46.1431014" lon="9.5408371"><ele>215.0</ele><time>2026-04-20T08:20:31.543Z</time></trkpt><trkpt lat="46.1430695" lon="9.5406779"><ele>215.0</ele><time>2026-04-20T08:20:33.543Z</time></trkpt><trkpt lat="46.1430298" lon="9.5405137"><ele>215.0</ele><time>2026-04-20T08:20:35.543Z</time></trkpt><trkpt lat="46.1429955" lon="9.5403461"><ele>215.0</ele><time>2026-04-20T08:20:37.541Z</time></trkpt><trkpt lat="46.1429713" lon="9.5401872"><ele>215.0</ele><time>2026-04-20T08:20:39.542Z</time></trkpt><trkpt lat="46.1429439" lon="9.5400322"><ele>215.25</ele><time>2026-04-20T08:20:41.542Z</time></trkpt><trkpt lat="46.1429045" lon="9.5398728"><ele>215.5</ele><time>2026-04-20T08:20:43.542Z</time></trkpt><trkpt lat="46.1428703" lon="9.5397212"><ele>215.75</ele><time>2026-04-20T08:20:45.541Z</time></trkpt><trkpt lat="46.1428414" lon="9.5395588"><ele>216.0</ele><time>2026-04-20T08:20:47.542Z</time></trkpt><trkpt lat="46.1428079" lon="9.5394072"><ele>216.25</ele><time>2026-04-20T08:20:49.541Z</time></trkpt><trkpt lat="46.1427821" lon="9.5392449"><ele>216.5</ele><time>2026-04-20T08:20:51.542Z</time></trkpt><trkpt lat="46.1427498" lon="9.539075"><ele>216.75</ele><time>2026-04-20T08:20:53.542Z</time></trkpt><trkpt lat="46.1427154" lon="9.5389257"><ele>217.0</ele><time>2026-04-20T08:20:55.542Z</time></trkpt><trkpt lat="46.1426861" lon="9.5387772"><ele>216.75</ele><time>2026-04-20T08:20:57.541Z</time></trkpt><trkpt lat="46.1426494" lon="9.5386175"><ele>216.5</ele><time>2026-04-20T08:20:59.542Z</time></trkpt><trkpt lat="46.1426199" lon="9.5384522"><ele>216.25</ele><time>2026-04-20T08:21:01.542Z</time></trkpt><trkpt lat="46.1425891" lon="9.5382958"><ele>216.0</ele><time>2026-04-20T08:21:03.543Z</time></trkpt><trkpt lat="46.1425568" lon="9.5380626"><ele>216.0</ele><time>2026-04-20T08:21:06.543Z</time></trkpt><trkpt lat="46.1425401" lon="9.537944"><ele>216.0</ele><time>2026-04-20T08:21:08.542Z</time></trkpt><trkpt lat="46.1425067" lon="9.5378309"><ele>216.0</ele><time>2026-04-20T08:21:11.543Z</time></trkpt><trkpt lat="46.1424186" lon="9.5378186"><ele>216.0</ele><time>2026-04-20T08:21:14.541Z</time></trkpt><trkpt lat="46.142363" lon="9.537867"><ele>216.0</ele><time>2026-04-20T08:21:16.543Z</time></trkpt><trkpt lat="46.1422801" lon="9.5379444"><ele>216.0</ele><time>2026-04-20T08:21:18.669Z</time></trkpt><trkpt lat="46.142207" lon="9.5380002"><ele>216.0</ele><time>2026-04-20T08:21:20.655Z</time></trkpt><trkpt lat="46.142112" lon="9.5380138"><ele>216.00000000000003</ele><time>2026-04-20T08:21:22.542Z</time></trkpt><trkpt lat="46.1420016" lon="9.5380535"><ele>216.00000000000003</ele><time>2026-04-20T08:21:24.542Z</time></trkpt><trkpt lat="46.1418997" lon="9.5381032"><ele>216.0</ele><time>2026-04-20T08:21:26.542Z</time></trkpt><trkpt lat="46.1418025" lon="9.5381348"><ele>216.0</ele><time>2026-04-20T08:21:28.542Z</time></trkpt><trkpt lat="46.1417144" lon="9.5381687"><ele>216.0</ele><time>2026-04-20T08:21:30.542Z</time></trkpt><trkpt lat="46.141635" lon="9.5381877"><ele>216.0</ele><time>2026-04-20T08:21:32.543Z</time></trkpt><trkpt lat="46.1415679" lon="9.5382395"><ele>216.0</ele><time>2026-04-20T08:21:35.541Z</time></trkpt><trkpt lat="46.1416417" lon="9.5382483"><ele>216.0</ele><time>2026-04-20T08:21:39.542Z</time></trkpt><trkpt lat="46.1417064" lon="9.5382103"><ele>216.0</ele><time>2026-04-20T08:21:41.542Z</time></trkpt><trkpt lat="46.141783" lon="9.5381828"><ele>216.0</ele><time>2026-04-20T08:21:43.542Z</time></trkpt><trkpt lat="46.1418668" lon="9.538155"><ele>216.0</ele><time>2026-04-20T08:21:45.544Z</time></trkpt><trkpt lat="46.1419543" lon="9.5381155"><ele>216.00000000000003</ele><time>2026-04-20T08:21:47.543Z</time></trkpt><trkpt lat="46.1420524" lon="9.5380738"><ele>216.00000000000003</ele><time>2026-04-20T08:21:49.543Z</time></trkpt><trkpt lat="46.1421511" lon="9.5380264"><ele>216.0</ele><time>2026-04-20T08:21:51.541Z</time></trkpt><trkpt lat="46.1422515" lon="9.5379674"><ele>216.0</ele><time>2026-04-20T08:21:53.543Z</time></trkpt><trkpt lat="46.1423508" lon="9.5379014"><ele>215.8</ele><time>2026-04-20T08:21:55.542Z</time></trkpt><trkpt lat="46.14245" lon="9.5378425"><ele>215.60000000000002</ele><time>2026-04-20T08:21:57.544Z</time></trkpt><trkpt lat="46.1425294" lon="9.5377622"><ele>215.4</ele><time>2026-04-20T08:21:59.542Z</time></trkpt><trkpt lat="46.1425835" lon="9.5376564"><ele>215.2</ele><time>2026-04-20T08:22:01.542Z</time></trkpt><trkpt lat="46.1426123" lon="9.5375321"><ele>215.0</ele><time>2026-04-20T08:22:03.542Z</time></trkpt><trkpt lat="46.1426289" lon="9.5373989"><ele>215.0</ele><time>2026-04-20T08:22:05.542Z</time></trkpt><trkpt lat="46.1426442" lon="9.5372542"><ele>215.0</ele><time>2026-04-20T08:22:07.542Z</time></trkpt><trkpt lat="46.14266" lon="9.5370927"><ele>215.0</ele><time>2026-04-20T08:22:09.542Z</time></trkpt><trkpt lat="46.1426774" lon="9.5369325"><ele>215.0</ele><time>2026-04-20T08:22:11.543Z</time></trkpt><trkpt lat="46.1426974" lon="9.5367628"><ele>215.0</ele><time>2026-04-20T08:22:13.542Z</time></trkpt><trkpt lat="46.14272" lon="9.5365922"><ele>214.25</ele><time>2026-04-20T08:22:15.543Z</time></trkpt><trkpt lat="46.1427271" lon="9.5364193"><ele>213.5</ele><time>2026-04-20T08:22:17.542Z</time></trkpt><trkpt lat="46.142722" lon="9.5362523"><ele>212.75</ele><time>2026-04-20T08:22:19.542Z</time></trkpt><trkpt lat="46.1427224" lon="9.5360896"><ele>212.0</ele><time>2026-04-20T08:22:21.543Z</time></trkpt><trkpt lat="46.1427163" lon="9.5359172"><ele>212.0</ele><time>2026-04-20T08:22:23.543Z</time></trkpt><trkpt lat="46.1427248" lon="9.5357615"><ele>212.0</ele><time>2026-04-20T08:22:25.542Z</time></trkpt><trkpt lat="46.1427293" lon="9.5356029"><ele>212.0</ele><time>2026-04-20T08:22:27.542Z</time></trkpt><trkpt lat="46.1427355" lon="9.5354513"><ele>212.0</ele><time>2026-04-20T08:22:29.542Z</time></trkpt><trkpt lat="46.1427339" lon="9.5353126"><ele>212.0</ele><time>2026-04-20T08:22:31.542Z</time></trkpt><trkpt lat="46.1427401" lon="9.5351896"><ele>212.00000000000003</ele><time>2026-04-20T08:22:33.542Z</time></trkpt><trkpt lat="46.1427633" lon="9.5350586"><ele>212.0</ele><time>2026-04-20T08:22:36.542Z</time></trkpt><trkpt lat="46.1428419" lon="9.5349895"><ele>212.0</ele><time>2026-04-20T08:22:39.542Z</time></trkpt><trkpt lat="46.1429156" lon="9.5349764"><ele>212.0</ele><time>2026-04-20T08:22:41.542Z</time></trkpt><trkpt lat="46.1429938" lon="9.5349501"><ele>212.00000000000003</ele><time>2026-04-20T08:22:43.543Z</time></trkpt><trkpt lat="46.143081" lon="9.5349198"><ele>212.0</ele><time>2026-04-20T08:22:45.543Z</time></trkpt><trkpt lat="46.1431704" lon="9.5348695"><ele>212.0</ele><time>2026-04-20T08:22:47.542Z</time></trkpt><trkpt lat="46.1432603" lon="9.534813"><ele>212.0</ele><time>2026-04-20T08:22:49.541Z</time></trkpt><trkpt lat="46.1433397" lon="9.5347258"><ele>212.0</ele><time>2026-04-20T08:22:51.542Z</time></trkpt><trkpt lat="46.1434084" lon="9.5346239"><ele>212.0</ele><time>2026-04-20T08:22:53.542Z</time></trkpt><trkpt lat="46.1434818" lon="9.5345277"><ele>212.0</ele><time>2026-04-20T08:22:55.542Z</time></trkpt><trkpt lat="46.1435555" lon="9.5344442"><ele>211.8</ele><time>2026-04-20T08:22:57.543Z</time></trkpt><trkpt lat="46.1436253" lon="9.5343485"><ele>211.6</ele><time>2026-04-20T08:22:59.542Z</time></trkpt><trkpt lat="46.1437008" lon="9.5342588"><ele>211.4</ele><time>2026-04-20T08:23:01.543Z</time></trkpt><trkpt lat="46.1437835" lon="9.5341881"><ele>211.20000000000002</ele><time>2026-04-20T08:23:03.542Z</time></trkpt><trkpt lat="46.1438658" lon="9.5341079"><ele>211.0</ele><time>2026-04-20T08:23:05.542Z</time></trkpt><trkpt lat="46.1439454" lon="9.5340339"><ele>211.0</ele><time>2026-04-20T08:23:07.543Z</time></trkpt><trkpt lat="46.1440598" lon="9.533914"><ele>211.0</ele><time>2026-04-20T08:23:10.542Z</time></trkpt><trkpt lat="46.1441342" lon="9.533847"><ele>211.0</ele><time>2026-04-20T08:23:12.542Z</time></trkpt><trkpt lat="46.1442019" lon="9.5338071"><ele>211.0</ele><time>2026-04-20T08:23:14.544Z</time></trkpt><trkpt lat="46.1442144" lon="9.533704"><ele>211.0</ele><time>2026-04-20T08:23:17.542Z</time></trkpt><trkpt lat="46.1441852" lon="9.5335748"><ele>210.99999999999997</ele><time>2026-04-20T08:23:20.543Z</time></trkpt><trkpt lat="46.1441837" lon="9.5334567"><ele>211.0</ele><time>2026-04-20T08:23:22.542Z</time></trkpt><trkpt lat="46.1441885" lon="9.533349"><ele>211.0</ele><time>2026-04-20T08:23:24.542Z</time></trkpt><trkpt lat="46.1442067" lon="9.5332314"><ele>211.0</ele><time>2026-04-20T08:23:26.542Z</time></trkpt><trkpt lat="46.1442399" lon="9.5331204"><ele>210.99999999999997</ele><time>2026-04-20T08:23:28.542Z</time></trkpt><trkpt lat="46.1442725" lon="9.5330256"><ele>211.0</ele><time>2026-04-20T08:23:30.542Z</time></trkpt><trkpt lat="46.1443251" lon="9.532941"><ele>210.83333333333331</ele><time>2026-04-20T08:23:32.542Z</time></trkpt><trkpt lat="46.1443766" lon="9.5328514"><ele>210.66666666666666</ele><time>2026-04-20T08:23:34.543Z</time></trkpt><trkpt lat="46.1444327" lon="9.5327566"><ele>210.5</ele><time>2026-04-20T08:23:36.542Z</time></trkpt><trkpt lat="46.1444834" lon="9.5326551"><ele>210.33333333333331</ele><time>2026-04-20T08:23:38.542Z</time></trkpt><trkpt lat="46.1445356" lon="9.5325533"><ele>210.16666666666666</ele><time>2026-04-20T08:23:40.543Z</time></trkpt><trkpt lat="46.1445875" lon="9.5324468"><ele>210.0</ele><time>2026-04-20T08:23:42.543Z</time></trkpt><trkpt lat="46.1446418" lon="9.5323418"><ele>210.0</ele><time>2026-04-20T08:23:44.543Z</time></trkpt><trkpt lat="46.1447094" lon="9.5322593"><ele>210.0</ele><time>2026-04-20T08:23:46.543Z</time></trkpt><trkpt lat="46.1447759" lon="9.5321725"><ele>210.0</ele><time>2026-04-20T08:23:48.543Z</time></trkpt><trkpt lat="46.1448522" lon="9.532098"><ele>210.0</ele><time>2026-04-20T08:23:50.543Z</time></trkpt><trkpt lat="46.1449166" lon="9.5320267"><ele>210.0</ele><time>2026-04-20T08:23:52.544Z</time></trkpt><trkpt lat="46.1449806" lon="9.5319392"><ele>210.0</ele><time>2026-04-20T08:23:55.542Z</time></trkpt><trkpt lat="46.1449842" lon="9.5318468"><ele>210.5</ele><time>2026-04-20T08:23:58.543Z</time></trkpt><trkpt lat="46.144957" lon="9.5317282"><ele>211.0</ele><time>2026-04-20T08:24:01.543Z</time></trkpt><trkpt lat="46.144927" lon="9.5316243"><ele>211.5</ele><time>2026-04-20T08:24:03.542Z</time></trkpt><trkpt lat="46.1448963" lon="9.531513"><ele>212.0</ele><time>2026-04-20T08:24:05.542Z</time></trkpt><trkpt lat="46.1448732" lon="9.5314034"><ele>212.5</ele><time>2026-04-20T08:24:07.543Z</time></trkpt><trkpt lat="46.1448627" lon="9.5312762"><ele>213.0</ele><time>2026-04-20T08:24:09.544Z</time></trkpt><trkpt lat="46.1448591" lon="9.5311495"><ele>213.33333333333334</ele><time>2026-04-20T08:24:11.543Z</time></trkpt><trkpt lat="46.1448587" lon="9.5310252"><ele>213.66666666666669</ele><time>2026-04-20T08:24:13.543Z</time></trkpt><trkpt lat="46.1448625" lon="9.5309039"><ele>214.0</ele><time>2026-04-20T08:24:15.542Z</time></trkpt><trkpt lat="46.1448592" lon="9.5307838"><ele>214.33333333333334</ele><time>2026-04-20T08:24:17.542Z</time></trkpt><trkpt lat="46.1448616" lon="9.5306668"><ele>214.66666666666669</ele><time>2026-04-20T08:24:19.542Z</time></trkpt><trkpt lat="46.1448645" lon="9.5305594"><ele>215.0</ele><time>2026-04-20T08:24:21.543Z</time></trkpt><trkpt lat="46.14487" lon="9.5304526"><ele>215.83333333333334</ele><time>2026-04-20T08:24:23.543Z</time></trkpt><trkpt lat="46.1449027" lon="9.5303351"><ele>216.66666666666669</ele><time>2026-04-20T08:24:26.543Z</time></trkpt><trkpt lat="46.1449701" lon="9.5303173"><ele>217.5</ele><time>2026-04-20T08:24:28.543Z</time></trkpt><trkpt lat="46.1450348" lon="9.530327"><ele>218.33333333333331</ele><time>2026-04-20T08:24:30.543Z</time></trkpt><trkpt lat="46.1451196" lon="9.5303189"><ele>219.16666666666666</ele><time>2026-04-20T08:24:33.542Z</time></trkpt><trkpt lat="46.1452155" lon="9.5303024"><ele>220.0</ele><time>2026-04-20T08:24:36.543Z</time></trkpt><trkpt lat="46.1452812" lon="9.5302917"><ele>219.99999999999997</ele><time>2026-04-20T08:24:38.543Z</time></trkpt><trkpt lat="46.145375" lon="9.5302721"><ele>220.0</ele><time>2026-04-20T08:24:41.543Z</time></trkpt><trkpt lat="46.1454689" lon="9.5302599"><ele>220.0</ele><time>2026-04-20T08:24:44.543Z</time></trkpt><trkpt lat="46.1455364" lon="9.5302492"><ele>220.0</ele><time>2026-04-20T08:24:46.542Z</time></trkpt><trkpt lat="46.1456003" lon="9.5302398"><ele>219.99999999999997</ele><time>2026-04-20T08:24:48.543Z</time></trkpt><trkpt lat="46.1456691" lon="9.5302425"><ele>220.0</ele><time>2026-04-20T08:24:50.544Z</time></trkpt><trkpt lat="46.1457441" lon="9.5302348"><ele>220.42857142857142</ele><time>2026-04-20T08:24:53.543Z</time></trkpt><trkpt lat="46.1458086" lon="9.5302306"><ele>220.85714285714286</ele><time>2026-04-20T08:24:55.542Z</time></trkpt><trkpt lat="46.1458919" lon="9.530216"><ele>221.28571428571428</ele><time>2026-04-20T08:24:58.543Z</time></trkpt><trkpt lat="46.1459586" lon="9.530201"><ele>221.71428571428572</ele><time>2026-04-20T08:25:01.542Z</time></trkpt><trkpt lat="46.1460125" lon="9.5302659"><ele>222.14285714285714</ele><time>2026-04-20T08:25:05.544Z</time></trkpt><trkpt lat="46.1459521" lon="9.5303168"><ele>222.57142857142856</ele><time>2026-04-20T08:25:08.544Z</time></trkpt><trkpt lat="46.1458711" lon="9.5303573"><ele>223.0</ele><time>2026-04-20T08:25:11.543Z</time></trkpt><trkpt lat="46.1457919" lon="9.5303883"><ele>223.0</ele><time>2026-04-20T08:25:14.542Z</time></trkpt><trkpt lat="46.1457386" lon="9.5303286"><ele>223.0</ele><time>2026-04-20T08:25:17.543Z</time></trkpt><trkpt lat="46.1457485" lon="9.5302065"><ele>223.0</ele><time>2026-04-20T08:25:20.543Z</time></trkpt><trkpt lat="46.145765" lon="9.5301124"><ele>223.0</ele><time>2026-04-20T08:25:22.544Z</time></trkpt><trkpt lat="46.1457812" lon="9.5300103"><ele>223.0</ele><time>2026-04-20T08:25:24.543Z</time></trkpt><trkpt lat="46.1457956" lon="9.5299073"><ele>223.0</ele><time>2026-04-20T08:25:26.543Z</time></trkpt><trkpt lat="46.1458077" lon="9.5297961"><ele>223.0</ele><time>2026-04-20T08:25:28.543Z</time></trkpt><trkpt lat="46.1458186" lon="9.5296841"><ele>223.0</ele><time>2026-04-20T08:25:30.542Z</time></trkpt><trkpt lat="46.145835" lon="9.5295604"><ele>223.0</ele><time>2026-04-20T08:25:32.542Z</time></trkpt><trkpt lat="46.1458524" lon="9.5294252"><ele>223.0</ele><time>2026-04-20T08:25:34.542Z</time></trkpt><trkpt lat="46.1458745" lon="9.5292786"><ele>223.0</ele><time>2026-04-20T08:25:36.544Z</time></trkpt><trkpt lat="46.1458937" lon="9.5291286"><ele>223.0</ele><time>2026-04-20T08:25:38.544Z</time></trkpt><trkpt lat="46.1459159" lon="9.5289817"><ele>223.0</ele><time>2026-04-20T08:25:40.543Z</time></trkpt><trkpt lat="46.1459492" lon="9.5288346"><ele>223.0</ele><time>2026-04-20T08:25:42.543Z</time></trkpt><trkpt lat="46.1459945" lon="9.5286713"><ele>223.0</ele><time>2026-04-20T08:25:44.543Z</time></trkpt><trkpt lat="46.1460536" lon="9.5285164"><ele>223.0</ele><time>2026-04-20T08:25:46.542Z</time></trkpt><trkpt lat="46.1460878" lon="9.5284356"><ele>223.0</ele><time>2026-04-20T08:25:47.543Z</time></trkpt><trkpt lat="46.1461253" lon="9.5283578"><ele>223.14285714285714</ele><time>2026-04-20T08:25:48.542Z</time></trkpt><trkpt lat="46.1461617" lon="9.5282699"><ele>223.28571428571428</ele><time>2026-04-20T08:25:49.544Z</time></trkpt><trkpt lat="46.1462052" lon="9.5281851"><ele>223.42857142857144</ele><time>2026-04-20T08:25:50.542Z</time></trkpt><trkpt lat="46.1462463" lon="9.5281012"><ele>223.57142857142856</ele><time>2026-04-20T08:25:51.542Z</time></trkpt><trkpt lat="46.1462868" lon="9.528011"><ele>223.71428571428572</ele><time>2026-04-20T08:25:52.543Z</time></trkpt><trkpt lat="46.1463306" lon="9.5279225"><ele>223.85714285714286</ele><time>2026-04-20T08:25:53.545Z</time></trkpt><trkpt lat="46.1463685" lon="9.5278302"><ele>224.0</ele><time>2026-04-20T08:25:54.543Z</time></trkpt><trkpt lat="46.1464094" lon="9.527742"><ele>223.57142857142858</ele><time>2026-04-20T08:25:55.543Z</time></trkpt><trkpt lat="46.1464524" lon="9.5276519"><ele>223.14285714285714</ele><time>2026-04-20T08:25:56.545Z</time></trkpt><trkpt lat="46.1464934" lon="9.5275644"><ele>222.71428571428572</ele><time>2026-04-20T08:25:57.543Z</time></trkpt><trkpt lat="46.1465272" lon="9.5274728"><ele>222.28571428571428</ele><time>2026-04-20T08:25:58.542Z</time></trkpt><trkpt lat="46.1465582" lon="9.5273884"><ele>221.85714285714286</ele><time>2026-04-20T08:25:59.544Z</time></trkpt><trkpt lat="46.1465869" lon="9.5272982"><ele>221.42857142857144</ele><time>2026-04-20T08:26:00.543Z</time></trkpt><trkpt lat="46.1466189" lon="9.5272136"><ele>221.0</ele><time>2026-04-20T08:26:01.544Z</time></trkpt><trkpt lat="46.1466525" lon="9.5271226"><ele>221.33333333333334</ele><time>2026-04-20T08:26:02.544Z</time></trkpt><trkpt lat="46.1466826" lon="9.5270285"><ele>221.66666666666669</ele><time>2026-04-20T08:26:03.544Z</time></trkpt><trkpt lat="46.1467125" lon="9.5269431"><ele>222.0</ele><time>2026-04-20T08:26:04.542Z</time></trkpt><trkpt lat="46.1467733" lon="9.5267804"><ele>222.33333333333331</ele><time>2026-04-20T08:26:06.543Z</time></trkpt><trkpt lat="46.1468028" lon="9.5266941"><ele>222.66666666666666</ele><time>2026-04-20T08:26:07.543Z</time></trkpt><trkpt lat="46.1468373" lon="9.5266155"><ele>223.0</ele><time>2026-04-20T08:26:08.543Z</time></trkpt><trkpt lat="46.1468671" lon="9.5265314"><ele>222.99999999999997</ele><time>2026-04-20T08:26:09.543Z</time></trkpt><trkpt lat="46.1468998" lon="9.5264505"><ele>223.0</ele><time>2026-04-20T08:26:10.543Z</time></trkpt><trkpt lat="46.1469318" lon="9.5263698"><ele>223.0</ele><time>2026-04-20T08:26:11.543Z</time></trkpt><trkpt lat="46.1469668" lon="9.5262883"><ele>223.0</ele><time>2026-04-20T08:26:12.544Z</time></trkpt><trkpt lat="46.1470447" lon="9.5261395"><ele>222.99999999999997</ele><time>2026-04-20T08:26:14.543Z</time></trkpt><trkpt lat="46.1470901" lon="9.5260643"><ele>223.0</ele><time>2026-04-20T08:26:15.543Z</time></trkpt><trkpt lat="46.1471273" lon="9.5259892"><ele>223.4</ele><time>2026-04-20T08:26:16.543Z</time></trkpt><trkpt lat="46.1471682" lon="9.5259185"><ele>223.8</ele><time>2026-04-20T08:26:17.542Z</time></trkpt><trkpt lat="46.1472075" lon="9.5258449"><ele>224.2</ele><time>2026-04-20T08:26:18.544Z</time></trkpt><trkpt lat="46.1472664" lon="9.5256952"><ele>224.6</ele><time>2026-04-20T08:26:20.543Z</time></trkpt><trkpt lat="46.1473438" lon="9.5255596"><ele>225.0</ele><time>2026-04-20T08:26:22.544Z</time></trkpt><trkpt lat="46.1474202" lon="9.5254174"><ele>224.8</ele><time>2026-04-20T08:26:24.544Z</time></trkpt><trkpt lat="46.1474938" lon="9.5252788"><ele>224.6</ele><time>2026-04-20T08:26:26.543Z</time></trkpt><trkpt lat="46.1475661" lon="9.5251316"><ele>224.39999999999998</ele><time>2026-04-20T08:26:28.543Z</time></trkpt><trkpt lat="46.1475997" lon="9.5250526"><ele>224.2</ele><time>2026-04-20T08:26:29.543Z</time></trkpt><trkpt lat="46.1476721" lon="9.5249035"><ele>224.0</ele><time>2026-04-20T08:26:31.544Z</time></trkpt><trkpt lat="46.1477447" lon="9.5247626"><ele>224.0</ele><time>2026-04-20T08:26:33.543Z</time></trkpt><trkpt lat="46.1478208" lon="9.5246152"><ele>224.0</ele><time>2026-04-20T08:26:35.543Z</time></trkpt><trkpt lat="46.1479071" lon="9.5245067"><ele>224.0</ele><time>2026-04-20T08:26:37.542Z</time></trkpt><trkpt lat="46.1479633" lon="9.5243762"><ele>224.0</ele><time>2026-04-20T08:26:39.543Z</time></trkpt><trkpt lat="46.1480175" lon="9.5242195"><ele>223.83333333333334</ele><time>2026-04-20T08:26:41.544Z</time></trkpt><trkpt lat="46.148092" lon="9.5240713"><ele>223.66666666666669</ele><time>2026-04-20T08:26:43.543Z</time></trkpt><trkpt lat="46.1481297" lon="9.5239929"><ele>223.5</ele><time>2026-04-20T08:26:44.544Z</time></trkpt><trkpt lat="46.1481688" lon="9.52392"><ele>223.33333333333331</ele><time>2026-04-20T08:26:45.544Z</time></trkpt><trkpt lat="46.1482051" lon="9.5238409"><ele>223.16666666666666</ele><time>2026-04-20T08:26:46.543Z</time></trkpt><trkpt lat="46.1482475" lon="9.5237585"><ele>223.0</ele><time>2026-04-20T08:26:47.544Z</time></trkpt><trkpt lat="46.1482874" lon="9.523677"><ele>222.85714285714286</ele><time>2026-04-20T08:26:48.544Z</time></trkpt><trkpt lat="46.1483276" lon="9.523594"><ele>222.71428571428572</ele><time>2026-04-20T08:26:49.543Z</time></trkpt><trkpt lat="46.1483683" lon="9.5235081"><ele>222.57142857142856</ele><time>2026-04-20T08:26:50.542Z</time></trkpt><trkpt lat="46.1484058" lon="9.5234243"><ele>222.42857142857144</ele><time>2026-04-20T08:26:51.544Z</time></trkpt><trkpt lat="46.148444" lon="9.5233338"><ele>222.2857142857143</ele><time>2026-04-20T08:26:52.543Z</time></trkpt><trkpt lat="46.1484797" lon="9.5232424"><ele>222.14285714285714</ele><time>2026-04-20T08:26:53.543Z</time></trkpt><trkpt lat="46.1485142" lon="9.5231484"><ele>222.0</ele><time>2026-04-20T08:26:54.543Z</time></trkpt><trkpt lat="46.1485495" lon="9.5230576"><ele>222.0</ele><time>2026-04-20T08:26:55.544Z</time></trkpt><trkpt lat="46.148583" lon="9.5229641"><ele>222.0</ele><time>2026-04-20T08:26:56.543Z</time></trkpt><trkpt lat="46.1486154" lon="9.5228649"><ele>222.0</ele><time>2026-04-20T08:26:57.543Z</time></trkpt><trkpt lat="46.1486479" lon="9.5227638"><ele>222.0</ele><time>2026-04-20T08:26:58.544Z</time></trkpt><trkpt lat="46.1486816" lon="9.5226675"><ele>222.0</ele><time>2026-04-20T08:26:59.543Z</time></trkpt><trkpt lat="46.1487166" lon="9.5225743"><ele>222.0</ele><time>2026-04-20T08:27:00.544Z</time></trkpt><trkpt lat="46.1487582" lon="9.5224725"><ele>221.5</ele><time>2026-04-20T08:27:01.544Z</time></trkpt><trkpt lat="46.1487963" lon="9.5223616"><ele>221.0</ele><time>2026-04-20T08:27:02.543Z</time></trkpt><trkpt lat="46.1488347" lon="9.522255"><ele>220.5</ele><time>2026-04-20T08:27:03.543Z</time></trkpt><trkpt lat="46.1488744" lon="9.5221429"><ele>220.0</ele><time>2026-04-20T08:27:04.544Z</time></trkpt><trkpt lat="46.1489132" lon="9.5220292"><ele>219.5</ele><time>2026-04-20T08:27:05.545Z</time></trkpt><trkpt lat="46.1489497" lon="9.5219142"><ele>219.0</ele><time>2026-04-20T08:27:06.542Z</time></trkpt><trkpt lat="46.148985" lon="9.521804"><ele>219.0</ele><time>2026-04-20T08:27:07.543Z</time></trkpt><trkpt lat="46.1490232" lon="9.5216969"><ele>219.0</ele><time>2026-04-20T08:27:08.542Z</time></trkpt><trkpt lat="46.1490613" lon="9.5215916"><ele>219.0</ele><time>2026-04-20T08:27:09.544Z</time></trkpt><trkpt lat="46.1491001" lon="9.5214842"><ele>219.0</ele><time>2026-04-20T08:27:10.544Z</time></trkpt><trkpt lat="46.1491347" lon="9.5213751"><ele>219.0</ele><time>2026-04-20T08:27:11.542Z</time></trkpt><trkpt lat="46.1491713" lon="9.5212703"><ele>219.0</ele><time>2026-04-20T08:27:12.544Z</time></trkpt><trkpt lat="46.1492056" lon="9.5211649"><ele>219.0</ele><time>2026-04-20T08:27:13.542Z</time></trkpt><trkpt lat="46.149239" lon="9.5210621"><ele>218.99999999999997</ele><time>2026-04-20T08:27:14.543Z</time></trkpt><trkpt lat="46.1492743" lon="9.5209577"><ele>218.99999999999997</ele><time>2026-04-20T08:27:15.543Z</time></trkpt><trkpt lat="46.1493098" lon="9.5208528"><ele>219.0</ele><time>2026-04-20T08:27:16.543Z</time></trkpt><trkpt lat="46.1493793" lon="9.5206361"><ele>219.0</ele><time>2026-04-20T08:27:18.544Z</time></trkpt><trkpt lat="46.1494166" lon="9.5205255"><ele>219.0</ele><time>2026-04-20T08:27:19.543Z</time></trkpt><trkpt lat="46.149454" lon="9.520416"><ele>219.0</ele><time>2026-04-20T08:27:20.543Z</time></trkpt><trkpt lat="46.1494896" lon="9.5203068"><ele>219.0</ele><time>2026-04-20T08:27:21.543Z</time></trkpt><trkpt lat="46.1495269" lon="9.5201946"><ele>219.0</ele><time>2026-04-20T08:27:22.542Z</time></trkpt><trkpt lat="46.1495652" lon="9.5200849"><ele>219.0</ele><time>2026-04-20T08:27:23.543Z</time></trkpt><trkpt lat="46.1496019" lon="9.5199756"><ele>219.0</ele><time>2026-04-20T08:27:24.544Z</time></trkpt><trkpt lat="46.149641" lon="9.5198673"><ele>218.16666666666666</ele><time>2026-04-20T08:27:25.543Z</time></trkpt><trkpt lat="46.1496782" lon="9.5197593"><ele>217.33333333333331</ele><time>2026-04-20T08:27:26.543Z</time></trkpt><trkpt lat="46.1497182" lon="9.5196509"><ele>216.5</ele><time>2026-04-20T08:27:27.543Z</time></trkpt><trkpt lat="46.1497574" lon="9.5195409"><ele>215.66666666666666</ele><time>2026-04-20T08:27:28.542Z</time></trkpt><trkpt lat="46.1497943" lon="9.5194336"><ele>214.83333333333331</ele><time>2026-04-20T08:27:29.545Z</time></trkpt><trkpt lat="46.1498295" lon="9.519325"><ele>214.0</ele><time>2026-04-20T08:27:30.544Z</time></trkpt><trkpt lat="46.149861" lon="9.5192267"><ele>214.33333333333331</ele><time>2026-04-20T08:27:31.545Z</time></trkpt><trkpt lat="46.149895" lon="9.5191292"><ele>214.66666666666666</ele><time>2026-04-20T08:27:32.543Z</time></trkpt><trkpt lat="46.1499244" lon="9.5190399"><ele>215.0</ele><time>2026-04-20T08:27:33.543Z</time></trkpt><trkpt lat="46.1499565" lon="9.5189561"><ele>215.33333333333331</ele><time>2026-04-20T08:27:34.543Z</time></trkpt><trkpt lat="46.1499941" lon="9.5188814"><ele>215.66666666666666</ele><time>2026-04-20T08:27:35.544Z</time></trkpt><trkpt lat="46.1500628" lon="9.5187616"><ele>216.0</ele><time>2026-04-20T08:27:37.543Z</time></trkpt><trkpt lat="46.1500867" lon="9.518599"><ele>215.33333333333334</ele><time>2026-04-20T08:27:39.544Z</time></trkpt><trkpt lat="46.1500867" lon="9.5184542"><ele>214.66666666666669</ele><time>2026-04-20T08:27:41.543Z</time></trkpt><trkpt lat="46.1500777" lon="9.5183506"><ele>214.0</ele><time>2026-04-20T08:27:43.543Z</time></trkpt><trkpt lat="46.1500061" lon="9.5183089"><ele>213.33333333333334</ele><time>2026-04-20T08:27:46.544Z</time></trkpt><trkpt lat="46.1499577" lon="9.5184001"><ele>212.66666666666669</ele><time>2026-04-20T08:27:49.544Z</time></trkpt><trkpt lat="46.1499057" lon="9.5184576"><ele>212.0</ele><time>2026-04-20T08:27:52.543Z</time></trkpt><trkpt lat="46.1498721" lon="9.5183434"><ele>212.0</ele><time>2026-04-20T08:31:53.544Z</time></trkpt><trkpt lat="46.1498478" lon="9.5184632"><ele>212.0</ele><time>2026-04-20T08:41:34.546Z</time></trkpt><trkpt lat="46.1498997" lon="9.5184096"><ele>212.0</ele><time>2026-04-20T08:42:45.545Z</time></trkpt><trkpt lat="46.1499427" lon="9.518334"><ele>212.0</ele><time>2026-04-20T08:42:49.545Z</time></trkpt><trkpt lat="46.1500178" lon="9.5183712"><ele>212.0</ele><time>2026-04-20T08:42:54.544Z</time></trkpt><trkpt lat="46.1500936" lon="9.5183356"><ele>212.0</ele><time>2026-04-20T08:42:57.544Z</time></trkpt><trkpt lat="46.1501248" lon="9.5182431"><ele>212.0</ele><time>2026-04-20T08:42:59.545Z</time></trkpt><trkpt lat="46.1501608" lon="9.5181445"><ele>212.0</ele><time>2026-04-20T08:43:01.545Z</time></trkpt><trkpt lat="46.150198" lon="9.5180416"><ele>212.0</ele><time>2026-04-20T08:43:03.546Z</time></trkpt><trkpt lat="46.1502506" lon="9.5179125"><ele>212.0</ele><time>2026-04-20T08:43:05.546Z</time></trkpt><trkpt lat="46.1503025" lon="9.5177941"><ele>212.0</ele><time>2026-04-20T08:43:07.546Z</time></trkpt><trkpt lat="46.1503663" lon="9.5176602"><ele>212.0</ele><time>2026-04-20T08:43:09.545Z</time></trkpt><trkpt lat="46.1504278" lon="9.517518"><ele>211.83333333333334</ele><time>2026-04-20T08:43:11.544Z</time></trkpt><trkpt lat="46.1504483" lon="9.5174281"><ele>211.66666666666669</ele><time>2026-04-20T08:43:12.545Z</time></trkpt><trkpt lat="46.1504788" lon="9.5173364"><ele>211.5</ele><time>2026-04-20T08:43:13.545Z</time></trkpt><trkpt lat="46.150508" lon="9.5172479"><ele>211.33333333333331</ele><time>2026-04-20T08:43:14.545Z</time></trkpt><trkpt lat="46.1505365" lon="9.517162"><ele>211.16666666666666</ele><time>2026-04-20T08:43:15.546Z</time></trkpt><trkpt lat="46.150596" lon="9.516991"><ele>211.0</ele><time>2026-04-20T08:43:17.544Z</time></trkpt><trkpt lat="46.1506272" lon="9.5169116"><ele>210.99999999999997</ele><time>2026-04-20T08:43:18.546Z</time></trkpt><trkpt lat="46.1506555" lon="9.5168254"><ele>211.0</ele><time>2026-04-20T08:43:19.546Z</time></trkpt><trkpt lat="46.1506929" lon="9.5167413"><ele>211.0</ele><time>2026-04-20T08:43:20.544Z</time></trkpt><trkpt lat="46.1507345" lon="9.5165624"><ele>211.0</ele><time>2026-04-20T08:43:22.544Z</time></trkpt><trkpt lat="46.1507559" lon="9.5164747"><ele>210.99999999999997</ele><time>2026-04-20T08:43:23.544Z</time></trkpt><trkpt lat="46.1507754" lon="9.5163795"><ele>211.0</ele><time>2026-04-20T08:43:24.544Z</time></trkpt><trkpt lat="46.1507979" lon="9.5162833"><ele>210.99999999999997</ele><time>2026-04-20T08:43:25.546Z</time></trkpt><trkpt lat="46.1508183" lon="9.5161781"><ele>211.0</ele><time>2026-04-20T08:43:26.545Z</time></trkpt><trkpt lat="46.1508329" lon="9.5160838"><ele>211.0</ele><time>2026-04-20T08:43:27.544Z</time></trkpt><trkpt lat="46.1508439" lon="9.5159928"><ele>211.0</ele><time>2026-04-20T08:43:28.546Z</time></trkpt><trkpt lat="46.1508695" lon="9.5158226"><ele>210.99999999999997</ele><time>2026-04-20T08:43:30.544Z</time></trkpt><trkpt lat="46.1508867" lon="9.5157195"><ele>211.0</ele><time>2026-04-20T08:43:31.545Z</time></trkpt><trkpt lat="46.1508966" lon="9.5156285"><ele>211.0</ele><time>2026-04-20T08:43:32.544Z</time></trkpt><trkpt lat="46.1509244" lon="9.5155107"><ele>211.0</ele><time>2026-04-20T08:43:33.546Z</time></trkpt><trkpt lat="46.1509297" lon="9.5153998"><ele>211.0</ele><time>2026-04-20T08:43:34.545Z</time></trkpt><trkpt lat="46.1509282" lon="9.5152958"><ele>211.0</ele><time>2026-04-20T08:43:35.545Z</time></trkpt><trkpt lat="46.1509351" lon="9.5151972"><ele>211.0</ele><time>2026-04-20T08:43:36.545Z</time></trkpt><trkpt lat="46.1509409" lon="9.5150969"><ele>211.0</ele><time>2026-04-20T08:43:37.545Z</time></trkpt><trkpt lat="46.1509443" lon="9.5150034"><ele>211.0</ele><time>2026-04-20T08:43:38.546Z</time></trkpt><trkpt lat="46.1509513" lon="9.514899"><ele>210.85714285714286</ele><time>2026-04-20T08:43:39.544Z</time></trkpt><trkpt lat="46.1509575" lon="9.5147859"><ele>210.71428571428572</ele><time>2026-04-20T08:43:40.546Z</time></trkpt><trkpt lat="46.1509609" lon="9.5146883"><ele>210.57142857142856</ele><time>2026-04-20T08:43:41.545Z</time></trkpt><trkpt lat="46.1509599" lon="9.5145741"><ele>210.42857142857144</ele><time>2026-04-20T08:43:42.545Z</time></trkpt><trkpt lat="46.1509623" lon="9.5144675"><ele>210.28571428571428</ele><time>2026-04-20T08:43:43.546Z</time></trkpt><trkpt lat="46.1509662" lon="9.5143685"><ele>210.14285714285714</ele><time>2026-04-20T08:43:44.545Z</time></trkpt><trkpt lat="46.1509661" lon="9.5142661"><ele>210.0</ele><time>2026-04-20T08:43:45.546Z</time></trkpt><trkpt lat="46.1509673" lon="9.5141463"><ele>210.14285714285714</ele><time>2026-04-20T08:43:46.546Z</time></trkpt><trkpt lat="46.1509629" lon="9.5140393"><ele>210.28571428571428</ele><time>2026-04-20T08:43:47.545Z</time></trkpt><trkpt lat="46.1509665" lon="9.5139353"><ele>210.42857142857144</ele><time>2026-04-20T08:43:48.546Z</time></trkpt><trkpt lat="46.1509657" lon="9.5138279"><ele>210.57142857142856</ele><time>2026-04-20T08:43:49.545Z</time></trkpt><trkpt lat="46.1509701" lon="9.5137304"><ele>210.71428571428572</ele><time>2026-04-20T08:43:50.546Z</time></trkpt><trkpt lat="46.1509688" lon="9.5136314"><ele>210.85714285714286</ele><time>2026-04-20T08:43:51.546Z</time></trkpt><trkpt lat="46.1509816" lon="9.5135206"><ele>211.0</ele><time>2026-04-20T08:43:52.545Z</time></trkpt><trkpt lat="46.1509832" lon="9.5134158"><ele>211.0</ele><time>2026-04-20T08:43:53.545Z</time></trkpt><trkpt lat="46.1509876" lon="9.5133119"><ele>211.0</ele><time>2026-04-20T08:43:54.545Z</time></trkpt><trkpt lat="46.150989" lon="9.5132128"><ele>211.0</ele><time>2026-04-20T08:43:55.545Z</time></trkpt><trkpt lat="46.1509945" lon="9.5131164"><ele>211.0</ele><time>2026-04-20T08:43:56.544Z</time></trkpt><trkpt lat="46.1509889" lon="9.5129269"><ele>211.0</ele><time>2026-04-20T08:43:58.545Z</time></trkpt><trkpt lat="46.1509973" lon="9.5127422"><ele>211.14285714285714</ele><time>2026-04-20T08:44:00.545Z</time></trkpt><trkpt lat="46.1510004" lon="9.5126474"><ele>211.28571428571428</ele><time>2026-04-20T08:44:01.546Z</time></trkpt><trkpt lat="46.151006" lon="9.5125492"><ele>211.42857142857144</ele><time>2026-04-20T08:44:02.544Z</time></trkpt><trkpt lat="46.1510136" lon="9.5124511"><ele>211.57142857142856</ele><time>2026-04-20T08:44:03.545Z</time></trkpt><trkpt lat="46.1509947" lon="9.5122929"><ele>211.7142857142857</ele><time>2026-04-20T08:44:05.544Z</time></trkpt><trkpt lat="46.1509941" lon="9.5121959"><ele>211.85714285714286</ele><time>2026-04-20T08:44:06.545Z</time></trkpt><trkpt lat="46.1509885" lon="9.5121012"><ele>212.0</ele><time>2026-04-20T08:44:07.546Z</time></trkpt><trkpt lat="46.1509876" lon="9.5119264"><ele>212.0</ele><time>2026-04-20T08:44:09.544Z</time></trkpt><trkpt lat="46.1509915" lon="9.5117295"><ele>212.0</ele><time>2026-04-20T08:44:11.545Z</time></trkpt><trkpt lat="46.1509896" lon="9.511535"><ele>212.0</ele><time>2026-04-20T08:44:13.545Z</time></trkpt><trkpt lat="46.1509991" lon="9.5114431"><ele>212.0</ele><time>2026-04-20T08:44:14.545Z</time></trkpt><trkpt lat="46.1509937" lon="9.5112723"><ele>211.39999999999998</ele><time>2026-04-20T08:44:16.546Z</time></trkpt><trkpt lat="46.1509951" lon="9.5111782"><ele>210.79999999999998</ele><time>2026-04-20T08:44:17.546Z</time></trkpt><trkpt lat="46.1509965" lon="9.5110867"><ele>210.2</ele><time>2026-04-20T08:44:18.545Z</time></trkpt><trkpt lat="46.1509948" lon="9.5109134"><ele>209.6</ele><time>2026-04-20T08:44:20.546Z</time></trkpt><trkpt lat="46.1509954" lon="9.5107432"><ele>209.0</ele><time>2026-04-20T08:44:22.545Z</time></trkpt><trkpt lat="46.150997" lon="9.5105812"><ele>209.0</ele><time>2026-04-20T08:44:24.544Z</time></trkpt><trkpt lat="46.1510086" lon="9.5104911"><ele>209.0</ele><time>2026-04-20T08:44:25.545Z</time></trkpt><trkpt lat="46.1510251" lon="9.5103202"><ele>209.0</ele><time>2026-04-20T08:44:27.547Z</time></trkpt><trkpt lat="46.1510377" lon="9.5101506"><ele>209.0</ele><time>2026-04-20T08:44:29.545Z</time></trkpt><trkpt lat="46.1510706" lon="9.5099815"><ele>209.0</ele><time>2026-04-20T08:44:31.544Z</time></trkpt><trkpt lat="46.1510984" lon="9.5098181"><ele>209.0</ele><time>2026-04-20T08:44:33.546Z</time></trkpt><trkpt lat="46.1511241" lon="9.5096537"><ele>209.0</ele><time>2026-04-20T08:44:35.546Z</time></trkpt><trkpt lat="46.151155" lon="9.5094877"><ele>209.0</ele><time>2026-04-20T08:44:37.545Z</time></trkpt><trkpt lat="46.151188" lon="9.509302"><ele>209.0</ele><time>2026-04-20T08:44:39.545Z</time></trkpt><trkpt lat="46.151187" lon="9.5091598"><ele>209.0</ele><time>2026-04-20T08:44:41.545Z</time></trkpt><trkpt lat="46.1511834" lon="9.5089799"><ele>209.0</ele><time>2026-04-20T08:44:43.545Z</time></trkpt><trkpt lat="46.1511893" lon="9.5088157"><ele>209.0</ele><time>2026-04-20T08:44:45.545Z</time></trkpt><trkpt lat="46.1511694" lon="9.5086585"><ele>209.0</ele><time>2026-04-20T08:44:47.544Z</time></trkpt><trkpt lat="46.1511565" lon="9.5085049"><ele>209.6</ele><time>2026-04-20T08:44:49.544Z</time></trkpt><trkpt lat="46.1511476" lon="9.5084057"><ele>210.2</ele><time>2026-04-20T08:44:50.545Z</time></trkpt><trkpt lat="46.1511165" lon="9.5082572"><ele>210.79999999999998</ele><time>2026-04-20T08:44:52.547Z</time></trkpt><trkpt lat="46.1510922" lon="9.5081036"><ele>211.39999999999998</ele><time>2026-04-20T08:44:54.545Z</time></trkpt><trkpt lat="46.15104" lon="9.5079644"><ele>212.0</ele><time>2026-04-20T08:44:56.545Z</time></trkpt><trkpt lat="46.1509762" lon="9.5078311"><ele>212.39999999999998</ele><time>2026-04-20T08:44:58.545Z</time></trkpt><trkpt lat="46.1509236" lon="9.5076836"><ele>212.79999999999998</ele><time>2026-04-20T08:45:00.545Z</time></trkpt><trkpt lat="46.1508977" lon="9.5075804"><ele>213.2</ele><time>2026-04-20T08:45:01.546Z</time></trkpt><trkpt lat="46.150868" lon="9.5074255"><ele>213.6</ele><time>2026-04-20T08:45:03.544Z</time></trkpt><trkpt lat="46.1508405" lon="9.5073096"><ele>214.0</ele><time>2026-04-20T08:45:05.545Z</time></trkpt><trkpt lat="46.150785" lon="9.5071589"><ele>214.6</ele><time>2026-04-20T08:45:07.545Z</time></trkpt><trkpt lat="46.1507362" lon="9.5070249"><ele>215.2</ele><time>2026-04-20T08:45:09.546Z</time></trkpt><trkpt lat="46.1506993" lon="9.5069075"><ele>215.79999999999998</ele><time>2026-04-20T08:45:11.546Z</time></trkpt><trkpt lat="46.150672" lon="9.5067781"><ele>216.39999999999998</ele><time>2026-04-20T08:45:13.547Z</time></trkpt><trkpt lat="46.1506407" lon="9.5066491"><ele>217.0</ele><time>2026-04-20T08:45:15.546Z</time></trkpt><trkpt lat="46.1506114" lon="9.5065011"><ele>215.83333333333331</ele><time>2026-04-20T08:45:17.545Z</time></trkpt><trkpt lat="46.1505842" lon="9.5064052"><ele>214.66666666666666</ele><time>2026-04-20T08:45:18.546Z</time></trkpt><trkpt lat="46.1505481" lon="9.5062631"><ele>213.5</ele><time>2026-04-20T08:45:20.546Z</time></trkpt><trkpt lat="46.1505123" lon="9.5061299"><ele>212.33333333333331</ele><time>2026-04-20T08:45:22.544Z</time></trkpt><trkpt lat="46.1504675" lon="9.5060015"><ele>211.16666666666666</ele><time>2026-04-20T08:45:24.546Z</time></trkpt><trkpt lat="46.1504321" lon="9.5059113"><ele>210.0</ele><time>2026-04-20T08:45:25.544Z</time></trkpt><trkpt lat="46.15038" lon="9.5057554"><ele>210.0</ele><time>2026-04-20T08:45:27.544Z</time></trkpt><trkpt lat="46.1503196" lon="9.5055934"><ele>210.0</ele><time>2026-04-20T08:45:29.545Z</time></trkpt><trkpt lat="46.1502889" lon="9.5054297"><ele>210.0</ele><time>2026-04-20T08:45:31.547Z</time></trkpt><trkpt lat="46.1502453" lon="9.5052287"><ele>210.0</ele><time>2026-04-20T08:45:33.545Z</time></trkpt><trkpt lat="46.1502195" lon="9.5050633"><ele>210.5</ele><time>2026-04-20T08:45:35.545Z</time></trkpt><trkpt lat="46.1502071" lon="9.5048935"><ele>211.0</ele><time>2026-04-20T08:45:37.544Z</time></trkpt><trkpt lat="46.150193" lon="9.5047326"><ele>211.5</ele><time>2026-04-20T08:45:39.545Z</time></trkpt><trkpt lat="46.1501957" lon="9.5045529"><ele>212.0</ele><time>2026-04-20T08:45:41.545Z</time></trkpt><trkpt lat="46.1502011" lon="9.504378"><ele>212.0</ele><time>2026-04-20T08:45:43.546Z</time></trkpt><trkpt lat="46.1501878" lon="9.5042703"><ele>212.0</ele><time>2026-04-20T08:45:44.544Z</time></trkpt><trkpt lat="46.1501821" lon="9.5041762"><ele>212.0</ele><time>2026-04-20T08:45:45.545Z</time></trkpt><trkpt lat="46.1501832" lon="9.50401"><ele>212.0</ele><time>2026-04-20T08:45:47.545Z</time></trkpt><trkpt lat="46.1501906" lon="9.503918"><ele>212.0</ele><time>2026-04-20T08:45:48.544Z</time></trkpt><trkpt lat="46.1502141" lon="9.5036794"><ele>212.0</ele><time>2026-04-20T08:45:51.547Z</time></trkpt><trkpt lat="46.1502077" lon="9.5035224"><ele>212.0</ele><time>2026-04-20T08:45:53.547Z</time></trkpt><trkpt lat="46.1502017" lon="9.5033591"><ele>212.0</ele><time>2026-04-20T08:45:55.546Z</time></trkpt><trkpt lat="46.1502014" lon="9.5031982"><ele>212.0</ele><time>2026-04-20T08:45:57.546Z</time></trkpt><trkpt lat="46.1502146" lon="9.5030293"><ele>211.5</ele><time>2026-04-20T08:45:59.546Z</time></trkpt><trkpt lat="46.1502314" lon="9.502855"><ele>211.0</ele><time>2026-04-20T08:46:01.545Z</time></trkpt><trkpt lat="46.1502612" lon="9.5026943"><ele>210.5</ele><time>2026-04-20T08:46:03.546Z</time></trkpt><trkpt lat="46.1502804" lon="9.5025413"><ele>210.0</ele><time>2026-04-20T08:46:05.545Z</time></trkpt><trkpt lat="46.1503114" lon="9.5023737"><ele>210.0</ele><time>2026-04-20T08:46:07.545Z</time></trkpt><trkpt lat="46.1503432" lon="9.5022042"><ele>210.0</ele><time>2026-04-20T08:46:09.547Z</time></trkpt><trkpt lat="46.1503991" lon="9.5020394"><ele>210.0</ele><time>2026-04-20T08:46:11.546Z</time></trkpt><trkpt lat="46.1504185" lon="9.5019513"><ele>210.0</ele><time>2026-04-20T08:46:12.546Z</time></trkpt><trkpt lat="46.1504678" lon="9.5018068"><ele>210.0</ele><time>2026-04-20T08:46:14.545Z</time></trkpt><trkpt lat="46.1505" lon="9.5017222"><ele>209.8</ele><time>2026-04-20T08:46:15.546Z</time></trkpt><trkpt lat="46.1505278" lon="9.5016327"><ele>209.6</ele><time>2026-04-20T08:46:16.545Z</time></trkpt><trkpt lat="46.1506029" lon="9.5014431"><ele>209.39999999999998</ele><time>2026-04-20T08:46:18.546Z</time></trkpt><trkpt lat="46.1506536" lon="9.5012711"><ele>209.2</ele><time>2026-04-20T08:46:20.547Z</time></trkpt><trkpt lat="46.1506841" lon="9.5011894"><ele>209.0</ele><time>2026-04-20T08:46:21.545Z</time></trkpt><trkpt lat="46.1507288" lon="9.5010347"><ele>210.2</ele><time>2026-04-20T08:46:23.546Z</time></trkpt><trkpt lat="46.1507784" lon="9.5009101"><ele>211.39999999999998</ele><time>2026-04-20T08:46:24.547Z</time></trkpt><trkpt lat="46.1508453" lon="9.5007426"><ele>212.6</ele><time>2026-04-20T08:46:26.545Z</time></trkpt><trkpt lat="46.1508778" lon="9.5006475"><ele>213.8</ele><time>2026-04-20T08:46:27.544Z</time></trkpt><trkpt lat="46.1509173" lon="9.5005664"><ele>215.0</ele><time>2026-04-20T08:46:28.547Z</time></trkpt><trkpt lat="46.1509556" lon="9.5004586"><ele>214.50000000000003</ele><time>2026-04-20T08:46:29.545Z</time></trkpt><trkpt lat="46.1509943" lon="9.5003509"><ele>214.0</ele><time>2026-04-20T08:46:30.545Z</time></trkpt><trkpt lat="46.1510253" lon="9.5002596"><ele>213.5</ele><time>2026-04-20T08:46:31.546Z</time></trkpt><trkpt lat="46.1510587" lon="9.5001559"><ele>213.0</ele><time>2026-04-20T08:46:32.546Z</time></trkpt><trkpt lat="46.1510941" lon="9.5000576"><ele>212.50000000000003</ele><time>2026-04-20T08:46:33.546Z</time></trkpt><trkpt lat="46.1511232" lon="9.4999472"><ele>212.0</ele><time>2026-04-20T08:46:34.545Z</time></trkpt><trkpt lat="46.1511893" lon="9.4997869"><ele>212.0</ele><time>2026-04-20T08:46:36.544Z</time></trkpt><trkpt lat="46.1512235" lon="9.4996798"><ele>212.0</ele><time>2026-04-20T08:46:37.545Z</time></trkpt><trkpt lat="46.1512632" lon="9.4995704"><ele>212.0</ele><time>2026-04-20T08:46:38.545Z</time></trkpt><trkpt lat="46.1513011" lon="9.4994571"><ele>212.0</ele><time>2026-04-20T08:46:39.545Z</time></trkpt><trkpt lat="46.151336" lon="9.4993605"><ele>212.0</ele><time>2026-04-20T08:46:40.546Z</time></trkpt><trkpt lat="46.1513887" lon="9.4992013"><ele>211.83333333333334</ele><time>2026-04-20T08:46:42.545Z</time></trkpt><trkpt lat="46.1514208" lon="9.4991176"><ele>211.66666666666669</ele><time>2026-04-20T08:46:43.545Z</time></trkpt><trkpt lat="46.151454" lon="9.4990194"><ele>211.5</ele><time>2026-04-20T08:46:44.545Z</time></trkpt><trkpt lat="46.1514841" lon="9.4989265"><ele>211.33333333333331</ele><time>2026-04-20T08:46:45.545Z</time></trkpt><trkpt lat="46.1515223" lon="9.4988122"><ele>211.16666666666666</ele><time>2026-04-20T08:46:46.547Z</time></trkpt><trkpt lat="46.1515908" lon="9.4986715"><ele>211.0</ele><time>2026-04-20T08:46:47.546Z</time></trkpt><trkpt lat="46.1516185" lon="9.4985728"><ele>210.83333333333331</ele><time>2026-04-20T08:46:48.546Z</time></trkpt><trkpt lat="46.1516665" lon="9.4984332"><ele>210.66666666666666</ele><time>2026-04-20T08:46:50.546Z</time></trkpt><trkpt lat="46.1517033" lon="9.4983359"><ele>210.5</ele><time>2026-04-20T08:46:51.547Z</time></trkpt><trkpt lat="46.1517309" lon="9.4982411"><ele>210.33333333333331</ele><time>2026-04-20T08:46:52.545Z</time></trkpt><trkpt lat="46.1517568" lon="9.4981533"><ele>210.16666666666666</ele><time>2026-04-20T08:46:53.545Z</time></trkpt><trkpt lat="46.1517886" lon="9.4980699"><ele>210.0</ele><time>2026-04-20T08:46:54.545Z</time></trkpt><trkpt lat="46.151816" lon="9.4979787"><ele>209.4</ele><time>2026-04-20T08:46:55.545Z</time></trkpt><trkpt lat="46.151851" lon="9.497875"><ele>208.8</ele><time>2026-04-20T08:46:56.546Z</time></trkpt><trkpt lat="46.151885" lon="9.4977668"><ele>208.2</ele><time>2026-04-20T08:46:57.544Z</time></trkpt><trkpt lat="46.1519166" lon="9.4976761"><ele>207.6</ele><time>2026-04-20T08:46:58.545Z</time></trkpt><trkpt lat="46.151979" lon="9.497505"><ele>207.0</ele><time>2026-04-20T08:47:00.546Z</time></trkpt><trkpt lat="46.1520292" lon="9.497381"><ele>207.0</ele><time>2026-04-20T08:47:01.546Z</time></trkpt><trkpt lat="46.1520579" lon="9.4972858"><ele>207.0</ele><time>2026-04-20T08:47:02.544Z</time></trkpt><trkpt lat="46.1520922" lon="9.4971887"><ele>207.0</ele><time>2026-04-20T08:47:03.546Z</time></trkpt><trkpt lat="46.1521158" lon="9.4970981"><ele>207.0</ele><time>2026-04-20T08:47:04.545Z</time></trkpt><trkpt lat="46.1521574" lon="9.4969878"><ele>207.0</ele><time>2026-04-20T08:47:05.546Z</time></trkpt><trkpt lat="46.1521856" lon="9.4969014"><ele>207.0</ele><time>2026-04-20T08:47:06.545Z</time></trkpt><trkpt lat="46.1522578" lon="9.4967334"><ele>207.0</ele><time>2026-04-20T08:47:08.545Z</time></trkpt><trkpt lat="46.1522907" lon="9.4966538"><ele>207.0</ele><time>2026-04-20T08:47:09.545Z</time></trkpt><trkpt lat="46.1523193" lon="9.4965557"><ele>207.0</ele><time>2026-04-20T08:47:10.545Z</time></trkpt><trkpt lat="46.1523878" lon="9.4963816"><ele>207.0</ele><time>2026-04-20T08:47:12.545Z</time></trkpt><trkpt lat="46.1524369" lon="9.4962094"><ele>207.0</ele><time>2026-04-20T08:47:14.545Z</time></trkpt><trkpt lat="46.1524832" lon="9.496044"><ele>207.0</ele><time>2026-04-20T08:47:16.546Z</time></trkpt><trkpt lat="46.1525125" lon="9.4959445"><ele>207.0</ele><time>2026-04-20T08:47:17.544Z</time></trkpt><trkpt lat="46.1525368" lon="9.4958465"><ele>207.0</ele><time>2026-04-20T08:47:18.546Z</time></trkpt><trkpt lat="46.1525678" lon="9.49567"><ele>207.0</ele><time>2026-04-20T08:47:20.545Z</time></trkpt><trkpt lat="46.1525752" lon="9.495488"><ele>207.0</ele><time>2026-04-20T08:47:22.545Z</time></trkpt><trkpt lat="46.1525705" lon="9.4953923"><ele>207.00000000000003</ele><time>2026-04-20T08:47:23.546Z</time></trkpt><trkpt lat="46.1525688" lon="9.4952968"><ele>207.0</ele><time>2026-04-20T08:47:24.545Z</time></trkpt><trkpt lat="46.1525656" lon="9.4951966"><ele>207.0</ele><time>2026-04-20T08:47:25.546Z</time></trkpt><trkpt lat="46.1525599" lon="9.4950928"><ele>207.0</ele><time>2026-04-20T08:47:26.545Z</time></trkpt><trkpt lat="46.1525515" lon="9.4949999"><ele>207.0</ele><time>2026-04-20T08:47:27.545Z</time></trkpt><trkpt lat="46.15254" lon="9.4948961"><ele>207.00000000000003</ele><time>2026-04-20T08:47:28.547Z</time></trkpt><trkpt lat="46.1525338" lon="9.4947875"><ele>207.0</ele><time>2026-04-20T08:47:29.545Z</time></trkpt><trkpt lat="46.1525199" lon="9.4946937"><ele>207.2857142857143</ele><time>2026-04-20T08:47:30.546Z</time></trkpt><trkpt lat="46.1525078" lon="9.4945786"><ele>207.57142857142858</ele><time>2026-04-20T08:47:31.546Z</time></trkpt><trkpt lat="46.152489" lon="9.4944802"><ele>207.85714285714286</ele><time>2026-04-20T08:47:32.545Z</time></trkpt><trkpt lat="46.152476" lon="9.4943721"><ele>208.14285714285717</ele><time>2026-04-20T08:47:33.545Z</time></trkpt><trkpt lat="46.1524705" lon="9.4942704"><ele>208.42857142857142</ele><time>2026-04-20T08:47:34.547Z</time></trkpt><trkpt lat="46.152458" lon="9.4941694"><ele>208.71428571428572</ele><time>2026-04-20T08:47:35.546Z</time></trkpt><trkpt lat="46.1524455" lon="9.4940673"><ele>209.0</ele><time>2026-04-20T08:47:36.545Z</time></trkpt><trkpt lat="46.1524228" lon="9.4939711"><ele>209.0</ele><time>2026-04-20T08:47:37.546Z</time></trkpt><trkpt lat="46.152408" lon="9.4938773"><ele>209.0</ele><time>2026-04-20T08:47:38.547Z</time></trkpt><trkpt lat="46.1523993" lon="9.4937784"><ele>209.0</ele><time>2026-04-20T08:47:39.545Z</time></trkpt><trkpt lat="46.1523826" lon="9.4936882"><ele>209.0</ele><time>2026-04-20T08:47:40.546Z</time></trkpt><trkpt lat="46.1523698" lon="9.4935868"><ele>209.0</ele><time>2026-04-20T08:47:41.545Z</time></trkpt><trkpt lat="46.1523663" lon="9.4934884"><ele>209.0</ele><time>2026-04-20T08:47:42.545Z</time></trkpt><trkpt lat="46.1523497" lon="9.4933966"><ele>209.0</ele><time>2026-04-20T08:47:43.546Z</time></trkpt><trkpt lat="46.1523351" lon="9.4933062"><ele>208.33333333333334</ele><time>2026-04-20T08:47:44.546Z</time></trkpt><trkpt lat="46.1523243" lon="9.4931997"><ele>207.66666666666669</ele><time>2026-04-20T08:47:45.545Z</time></trkpt><trkpt lat="46.152309" lon="9.4931023"><ele>207.0</ele><time>2026-04-20T08:47:46.545Z</time></trkpt><trkpt lat="46.1522936" lon="9.4930032"><ele>206.33333333333331</ele><time>2026-04-20T08:47:47.546Z</time></trkpt><trkpt lat="46.1522705" lon="9.4928398"><ele>205.66666666666666</ele><time>2026-04-20T08:47:49.547Z</time></trkpt><trkpt lat="46.1522515" lon="9.492743"><ele>205.0</ele><time>2026-04-20T08:47:50.546Z</time></trkpt><trkpt lat="46.1522259" lon="9.4926498"><ele>205.0</ele><time>2026-04-20T08:47:51.546Z</time></trkpt><trkpt lat="46.1522127" lon="9.4925486"><ele>205.0</ele><time>2026-04-20T08:47:52.545Z</time></trkpt><trkpt lat="46.1521958" lon="9.4924444"><ele>205.0</ele><time>2026-04-20T08:47:53.545Z</time></trkpt><trkpt lat="46.1521775" lon="9.4923464"><ele>205.0</ele><time>2026-04-20T08:47:54.546Z</time></trkpt><trkpt lat="46.1521575" lon="9.4922532"><ele>205.0</ele><time>2026-04-20T08:47:55.547Z</time></trkpt><trkpt lat="46.1521364" lon="9.4921512"><ele>205.0</ele><time>2026-04-20T08:47:56.546Z</time></trkpt><trkpt lat="46.1521175" lon="9.4920566"><ele>205.0</ele><time>2026-04-20T08:47:57.546Z</time></trkpt><trkpt lat="46.1521036" lon="9.4919586"><ele>205.0</ele><time>2026-04-20T08:47:58.545Z</time></trkpt><trkpt lat="46.1520747" lon="9.4917939"><ele>205.0</ele><time>2026-04-20T08:48:00.545Z</time></trkpt><trkpt lat="46.152068" lon="9.4916252"><ele>205.0</ele><time>2026-04-20T08:48:02.545Z</time></trkpt><trkpt lat="46.1520426" lon="9.4914526"><ele>205.0</ele><time>2026-04-20T08:48:04.546Z</time></trkpt><trkpt lat="46.1520271" lon="9.4913591"><ele>205.0</ele><time>2026-04-20T08:48:05.545Z</time></trkpt><trkpt lat="46.1520017" lon="9.4911885"><ele>204.8</ele><time>2026-04-20T08:48:07.547Z</time></trkpt><trkpt lat="46.1519788" lon="9.4910322"><ele>204.6</ele><time>2026-04-20T08:48:09.545Z</time></trkpt><trkpt lat="46.1519636" lon="9.4909436"><ele>204.39999999999998</ele><time>2026-04-20T08:48:10.546Z</time></trkpt><trkpt lat="46.1519502" lon="9.4907646"><ele>204.2</ele><time>2026-04-20T08:48:12.546Z</time></trkpt><trkpt lat="46.151921" lon="9.4905944"><ele>204.0</ele><time>2026-04-20T08:48:14.546Z</time></trkpt><trkpt lat="46.1518982" lon="9.4904219"><ele>204.66666666666666</ele><time>2026-04-20T08:48:16.546Z</time></trkpt><trkpt lat="46.1518861" lon="9.4903235"><ele>205.33333333333331</ele><time>2026-04-20T08:48:17.545Z</time></trkpt><trkpt lat="46.1518725" lon="9.4901565"><ele>206.0</ele><time>2026-04-20T08:48:19.545Z</time></trkpt><trkpt lat="46.1518545" lon="9.4900601"><ele>206.66666666666666</ele><time>2026-04-20T08:48:20.546Z</time></trkpt><trkpt lat="46.1518496" lon="9.489965"><ele>207.33333333333331</ele><time>2026-04-20T08:48:21.545Z</time></trkpt><trkpt lat="46.1518375" lon="9.4897992"><ele>208.0</ele><time>2026-04-20T08:48:23.546Z</time></trkpt><trkpt lat="46.1518339" lon="9.4896232"><ele>208.4</ele><time>2026-04-20T08:48:25.547Z</time></trkpt><trkpt lat="46.1518" lon="9.489449"><ele>208.8</ele><time>2026-04-20T08:48:27.545Z</time></trkpt><trkpt lat="46.1517863" lon="9.4893576"><ele>209.2</ele><time>2026-04-20T08:48:28.545Z</time></trkpt><trkpt lat="46.1517746" lon="9.4891666"><ele>209.6</ele><time>2026-04-20T08:48:30.545Z</time></trkpt><trkpt lat="46.1517615" lon="9.4890709"><ele>210.0</ele><time>2026-04-20T08:48:31.545Z</time></trkpt><trkpt lat="46.1517296" lon="9.4888824"><ele>210.0</ele><time>2026-04-20T08:48:33.546Z</time></trkpt><trkpt lat="46.1516929" lon="9.4886791"><ele>210.0</ele><time>2026-04-20T08:48:35.545Z</time></trkpt><trkpt lat="46.1516747" lon="9.4885693"><ele>210.0</ele><time>2026-04-20T08:48:36.545Z</time></trkpt><trkpt lat="46.1516642" lon="9.488476"><ele>210.0</ele><time>2026-04-20T08:48:37.546Z</time></trkpt><trkpt lat="46.1516449" lon="9.4883844"><ele>210.0</ele><time>2026-04-20T08:48:38.546Z</time></trkpt><trkpt lat="46.1516289" lon="9.488294"><ele>210.0</ele><time>2026-04-20T08:48:39.547Z</time></trkpt><trkpt lat="46.1516156" lon="9.4881336"><ele>210.0</ele><time>2026-04-20T08:48:41.546Z</time></trkpt><trkpt lat="46.1515941" lon="9.4880362"><ele>210.0</ele><time>2026-04-20T08:48:42.546Z</time></trkpt><trkpt lat="46.1515664" lon="9.4879177"><ele>210.0</ele><time>2026-04-20T08:48:43.547Z</time></trkpt><trkpt lat="46.1515501" lon="9.4877666"><ele>210.0</ele><time>2026-04-20T08:48:45.546Z</time></trkpt><trkpt lat="46.1515211" lon="9.4876001"><ele>210.0</ele><time>2026-04-20T08:48:47.545Z</time></trkpt><trkpt lat="46.1515032" lon="9.4874921"><ele>209.0</ele><time>2026-04-20T08:48:48.546Z</time></trkpt><trkpt lat="46.1514832" lon="9.4873379"><ele>208.0</ele><time>2026-04-20T08:48:50.546Z</time></trkpt><trkpt lat="46.1514847" lon="9.4871863"><ele>207.0</ele><time>2026-04-20T08:48:52.546Z</time></trkpt><trkpt lat="46.1514976" lon="9.4870242"><ele>206.0</ele><time>2026-04-20T08:48:54.545Z</time></trkpt><trkpt lat="46.1514937" lon="9.4869064"><ele>205.0</ele><time>2026-04-20T08:48:56.546Z</time></trkpt><trkpt lat="46.1515143" lon="9.4867337"><ele>205.0</ele><time>2026-04-20T08:48:58.546Z</time></trkpt><trkpt lat="46.1515316" lon="9.4866358"><ele>205.0</ele><time>2026-04-20T08:48:59.546Z</time></trkpt><trkpt lat="46.1515372" lon="9.486468"><ele>205.0</ele><time>2026-04-20T08:49:01.545Z</time></trkpt><trkpt lat="46.1515531" lon="9.4863049"><ele>205.0</ele><time>2026-04-20T08:49:03.545Z</time></trkpt><trkpt lat="46.1515455" lon="9.4861468"><ele>205.0</ele><time>2026-04-20T08:49:05.546Z</time></trkpt><trkpt lat="46.151546" lon="9.4859997"><ele>205.0</ele><time>2026-04-20T08:49:07.545Z</time></trkpt><trkpt lat="46.1515337" lon="9.485875"><ele>205.0</ele><time>2026-04-20T08:49:09.546Z</time></trkpt><trkpt lat="46.1514813" lon="9.4857591"><ele>205.0</ele><time>2026-04-20T08:49:11.545Z</time></trkpt><trkpt lat="46.1513903" lon="9.4857463"><ele>205.0</ele><time>2026-04-20T08:49:13.545Z</time></trkpt><trkpt lat="46.1513181" lon="9.4858357"><ele>205.0</ele><time>2026-04-20T08:49:15.546Z</time></trkpt><trkpt lat="46.151263" lon="9.4859477"><ele>205.0</ele><time>2026-04-20T08:49:17.546Z</time></trkpt><trkpt lat="46.1511872" lon="9.4860687"><ele>205.0</ele><time>2026-04-20T08:49:19.545Z</time></trkpt><trkpt lat="46.1511022" lon="9.4861284"><ele>205.0</ele><time>2026-04-20T08:49:21.545Z</time></trkpt><trkpt lat="46.1510201" lon="9.4861158"><ele>205.0</ele><time>2026-04-20T08:49:23.547Z</time></trkpt><trkpt lat="46.1509165" lon="9.4861289"><ele>205.0</ele><time>2026-04-20T08:49:25.546Z</time></trkpt><trkpt lat="46.1508157" lon="9.4861391"><ele>205.0</ele><time>2026-04-20T08:49:27.546Z</time></trkpt><trkpt lat="46.1507178" lon="9.4861287"><ele>205.0</ele><time>2026-04-20T08:49:29.545Z</time></trkpt><trkpt lat="46.1506153" lon="9.4861196"><ele>205.0</ele><time>2026-04-20T08:49:31.545Z</time></trkpt><trkpt lat="46.1505163" lon="9.4861212"><ele>205.0</ele><time>2026-04-20T08:49:33.546Z</time></trkpt><trkpt lat="46.1504095" lon="9.4861162"><ele>205.0</ele><time>2026-04-20T08:49:35.547Z</time></trkpt><trkpt lat="46.1503102" lon="9.4861257"><ele>205.33333333333331</ele><time>2026-04-20T08:49:37.547Z</time></trkpt><trkpt lat="46.1502085" lon="9.4860724"><ele>205.66666666666666</ele><time>2026-04-20T08:49:39.545Z</time></trkpt><trkpt lat="46.1501292" lon="9.485955"><ele>206.0</ele><time>2026-04-20T08:49:41.545Z</time></trkpt><trkpt lat="46.1500966" lon="9.4858738"><ele>206.33333333333331</ele><time>2026-04-20T08:49:42.545Z</time></trkpt><trkpt lat="46.150058" lon="9.485795"><ele>206.66666666666666</ele><time>2026-04-20T08:49:43.545Z</time></trkpt><trkpt lat="46.1500302" lon="9.4856982"><ele>207.0</ele><time>2026-04-20T08:49:44.546Z</time></trkpt><trkpt lat="46.1499603" lon="9.4854531"><ele>207.0</ele><time>2026-04-20T08:49:47.546Z</time></trkpt><trkpt lat="46.1499231" lon="9.4852716"><ele>207.0</ele><time>2026-04-20T08:49:49.546Z</time></trkpt><trkpt lat="46.1499038" lon="9.4851784"><ele>207.0</ele><time>2026-04-20T08:49:50.545Z</time></trkpt><trkpt lat="46.1498639" lon="9.4850133"><ele>207.0</ele><time>2026-04-20T08:49:52.545Z</time></trkpt><trkpt lat="46.1498344" lon="9.4848295"><ele>207.0</ele><time>2026-04-20T08:49:54.546Z</time></trkpt><trkpt lat="46.1497992" lon="9.4846721"><ele>207.0</ele><time>2026-04-20T08:49:56.546Z</time></trkpt><trkpt lat="46.1497606" lon="9.4845072"><ele>207.0</ele><time>2026-04-20T08:49:58.545Z</time></trkpt><trkpt lat="46.1497388" lon="9.4843982"><ele>207.0</ele><time>2026-04-20T08:49:59.546Z</time></trkpt><trkpt lat="46.1497135" lon="9.4842274"><ele>207.0</ele><time>2026-04-20T08:50:01.547Z</time></trkpt><trkpt lat="46.1496982" lon="9.4841277"><ele>207.2</ele><time>2026-04-20T08:50:02.545Z</time></trkpt><trkpt lat="46.1496781" lon="9.4840093"><ele>207.39999999999998</ele><time>2026-04-20T08:50:03.546Z</time></trkpt><trkpt lat="46.1496617" lon="9.4839213"><ele>207.60000000000002</ele><time>2026-04-20T08:50:04.545Z</time></trkpt><trkpt lat="46.1496255" lon="9.4837766"><ele>207.8</ele><time>2026-04-20T08:50:06.546Z</time></trkpt><trkpt lat="46.1495933" lon="9.4836157"><ele>208.0</ele><time>2026-04-20T08:50:08.547Z</time></trkpt><trkpt lat="46.1495567" lon="9.4834526"><ele>208.16666666666666</ele><time>2026-04-20T08:50:10.547Z</time></trkpt><trkpt lat="46.1495368" lon="9.4833563"><ele>208.33333333333331</ele><time>2026-04-20T08:50:11.547Z</time></trkpt><trkpt lat="46.1494992" lon="9.4832056"><ele>208.5</ele><time>2026-04-20T08:50:13.546Z</time></trkpt><trkpt lat="46.1494698" lon="9.4830479"><ele>208.66666666666669</ele><time>2026-04-20T08:50:15.546Z</time></trkpt><trkpt lat="46.1494536" lon="9.4829543"><ele>208.83333333333334</ele><time>2026-04-20T08:50:16.546Z</time></trkpt><trkpt lat="46.1494331" lon="9.4828676"><ele>209.0</ele><time>2026-04-20T08:50:17.547Z</time></trkpt><trkpt lat="46.1493969" lon="9.4827084"><ele>208.6</ele><time>2026-04-20T08:50:19.546Z</time></trkpt><trkpt lat="46.149385" lon="9.4825588"><ele>208.2</ele><time>2026-04-20T08:50:21.546Z</time></trkpt><trkpt lat="46.1493522" lon="9.4824135"><ele>207.79999999999998</ele><time>2026-04-20T08:50:23.546Z</time></trkpt><trkpt lat="46.1493184" lon="9.482288"><ele>207.39999999999998</ele><time>2026-04-20T08:50:25.547Z</time></trkpt><trkpt lat="46.1492939" lon="9.4821358"><ele>207.0</ele><time>2026-04-20T08:50:27.545Z</time></trkpt><trkpt lat="46.1492598" lon="9.4820559"><ele>207.0</ele><time>2026-04-20T08:50:28.545Z</time></trkpt><trkpt lat="46.1492212" lon="9.4819215"><ele>207.0</ele><time>2026-04-20T08:50:30.546Z</time></trkpt><trkpt lat="46.1491796" lon="9.4817779"><ele>207.0</ele><time>2026-04-20T08:50:32.545Z</time></trkpt><trkpt lat="46.1491507" lon="9.481655"><ele>207.0</ele><time>2026-04-20T08:50:34.545Z</time></trkpt><trkpt lat="46.1491258" lon="9.4815496"><ele>207.0</ele><time>2026-04-20T08:50:36.545Z</time></trkpt><trkpt lat="46.1491137" lon="9.4814456"><ele>207.0</ele><time>2026-04-20T08:50:38.546Z</time></trkpt><trkpt lat="46.1490641" lon="9.4813578"><ele>207.16666666666666</ele><time>2026-04-20T08:51:04.548Z</time></trkpt><trkpt lat="46.1490193" lon="9.4812757"><ele>207.33333333333331</ele><time>2026-04-20T08:51:08.545Z</time></trkpt><trkpt lat="46.1490045" lon="9.4811741"><ele>207.5</ele><time>2026-04-20T08:51:11.547Z</time></trkpt><trkpt lat="46.1489784" lon="9.4810549"><ele>207.66666666666666</ele><time>2026-04-20T08:51:14.545Z</time></trkpt><trkpt lat="46.1489485" lon="9.4809214"><ele>207.83333333333331</ele><time>2026-04-20T08:51:17.546Z</time></trkpt><trkpt lat="46.1489294" lon="9.4808207"><ele>208.0</ele><time>2026-04-20T08:51:19.546Z</time></trkpt><trkpt lat="46.1489031" lon="9.4807147"><ele>207.66666666666666</ele><time>2026-04-20T08:51:21.546Z</time></trkpt><trkpt lat="46.1488776" lon="9.4806015"><ele>207.33333333333331</ele><time>2026-04-20T08:51:23.545Z</time></trkpt><trkpt lat="46.1488564" lon="9.480482"><ele>207.0</ele><time>2026-04-20T08:51:25.546Z</time></trkpt><trkpt lat="46.1488213" lon="9.4803454"><ele>206.66666666666669</ele><time>2026-04-20T08:51:27.545Z</time></trkpt><trkpt lat="46.1487891" lon="9.4802213"><ele>206.33333333333334</ele><time>2026-04-20T08:51:29.548Z</time></trkpt><trkpt lat="46.1487556" lon="9.4801094"><ele>206.0</ele><time>2026-04-20T08:51:31.545Z</time></trkpt><trkpt lat="46.1487248" lon="9.4799393"><ele>206.0</ele><time>2026-04-20T08:51:33.545Z</time></trkpt><trkpt lat="46.1486824" lon="9.4797157"><ele>206.0</ele><time>2026-04-20T08:51:36.546Z</time></trkpt><trkpt lat="46.1486534" lon="9.4795605"><ele>206.0</ele><time>2026-04-20T08:51:38.546Z</time></trkpt><trkpt lat="46.1486326" lon="9.4794274"><ele>206.0</ele><time>2026-04-20T08:51:40.546Z</time></trkpt><trkpt lat="46.1485955" lon="9.4792745"><ele>205.75</ele><time>2026-04-20T08:51:42.547Z</time></trkpt><trkpt lat="46.1485639" lon="9.4791164"><ele>205.5</ele><time>2026-04-20T08:51:44.547Z</time></trkpt><trkpt lat="46.1485256" lon="9.4789606"><ele>205.25</ele><time>2026-04-20T08:51:46.546Z</time></trkpt><trkpt lat="46.1484759" lon="9.4787996"><ele>205.0</ele><time>2026-04-20T08:51:48.546Z</time></trkpt><trkpt lat="46.1484239" lon="9.4786467"><ele>205.4</ele><time>2026-04-20T08:51:50.546Z</time></trkpt><trkpt lat="46.1483984" lon="9.4785054"><ele>205.8</ele><time>2026-04-20T08:51:52.547Z</time></trkpt><trkpt lat="46.1483695" lon="9.4783691"><ele>206.2</ele><time>2026-04-20T08:51:54.546Z</time></trkpt><trkpt lat="46.1482757" lon="9.4783043"><ele>206.6</ele><time>2026-04-20T08:51:56.547Z</time></trkpt><trkpt lat="46.1482003" lon="9.4782872"><ele>207.0</ele><time>2026-04-20T08:51:58.545Z</time></trkpt><trkpt lat="46.148102" lon="9.4782394"><ele>207.0</ele><time>2026-04-20T08:52:00.545Z</time></trkpt><trkpt lat="46.1479996" lon="9.4781985"><ele>207.0</ele><time>2026-04-20T08:52:02.546Z</time></trkpt><trkpt lat="46.147892" lon="9.4781548"><ele>207.0</ele><time>2026-04-20T08:52:04.545Z</time></trkpt><trkpt lat="46.1477912" lon="9.4781201"><ele>207.0</ele><time>2026-04-20T08:52:06.547Z</time></trkpt><trkpt lat="46.1476784" lon="9.4780818"><ele>207.0</ele><time>2026-04-20T08:52:08.545Z</time></trkpt><trkpt lat="46.1476062" lon="9.4780647"><ele>207.0</ele><time>2026-04-20T08:52:09.547Z</time></trkpt><trkpt lat="46.1474889" lon="9.4780417"><ele>207.0</ele><time>2026-04-20T08:52:11.547Z</time></trkpt><trkpt lat="46.1474294" lon="9.4780097"><ele>207.0</ele><time>2026-04-20T08:52:12.546Z</time></trkpt><trkpt lat="46.1473294" lon="9.4779402"><ele>207.0</ele><time>2026-04-20T08:52:14.546Z</time></trkpt><trkpt lat="46.147319" lon="9.4777803"><ele>207.0</ele><time>2026-04-20T08:52:16.547Z</time></trkpt><trkpt lat="46.1473453" lon="9.4776144"><ele>207.16666666666666</ele><time>2026-04-20T08:52:18.545Z</time></trkpt><trkpt lat="46.1473314" lon="9.4775229"><ele>207.33333333333331</ele><time>2026-04-20T08:52:19.547Z</time></trkpt><trkpt lat="46.1473187" lon="9.4774225"><ele>207.5</ele><time>2026-04-20T08:52:20.545Z</time></trkpt><trkpt lat="46.147286" lon="9.4772826"><ele>207.66666666666666</ele><time>2026-04-20T08:52:22.546Z</time></trkpt><trkpt lat="46.147274" lon="9.4771728"><ele>207.83333333333331</ele><time>2026-04-20T08:52:23.545Z</time></trkpt><trkpt lat="46.1472479" lon="9.4770045"><ele>208.0</ele><time>2026-04-20T08:52:25.546Z</time></trkpt><trkpt lat="46.1472304" lon="9.476915"><ele>207.4</ele><time>2026-04-20T08:52:26.545Z</time></trkpt><trkpt lat="46.1472133" lon="9.4768096"><ele>206.8</ele><time>2026-04-20T08:52:27.547Z</time></trkpt><trkpt lat="46.147183" lon="9.4766375"><ele>206.2</ele><time>2026-04-20T08:52:29.546Z</time></trkpt><trkpt lat="46.1471795" lon="9.4764734"><ele>205.6</ele><time>2026-04-20T08:52:31.546Z</time></trkpt><trkpt lat="46.1471497" lon="9.4762988"><ele>205.0</ele><time>2026-04-20T08:52:33.546Z</time></trkpt><trkpt lat="46.1471388" lon="9.4762092"><ele>204.8</ele><time>2026-04-20T08:52:34.545Z</time></trkpt><trkpt lat="46.1471004" lon="9.4760362"><ele>204.6</ele><time>2026-04-20T08:52:36.546Z</time></trkpt><trkpt lat="46.1470933" lon="9.4759425"><ele>204.39999999999998</ele><time>2026-04-20T08:52:37.546Z</time></trkpt><trkpt lat="46.147078" lon="9.4757406"><ele>204.2</ele><time>2026-04-20T08:52:39.547Z</time></trkpt><trkpt lat="46.1470672" lon="9.4756374"><ele>204.0</ele><time>2026-04-20T08:52:40.545Z</time></trkpt><trkpt lat="46.1470602" lon="9.4755438"><ele>205.2</ele><time>2026-04-20T08:52:41.547Z</time></trkpt><trkpt lat="46.1470568" lon="9.4753954"><ele>206.39999999999998</ele><time>2026-04-20T08:52:43.546Z</time></trkpt><trkpt lat="46.1470573" lon="9.4752625"><ele>207.6</ele><time>2026-04-20T08:52:45.546Z</time></trkpt><trkpt lat="46.1470872" lon="9.4751321"><ele>208.8</ele><time>2026-04-20T08:52:47.546Z</time></trkpt><trkpt lat="46.1471247" lon="9.4749893"><ele>210.0</ele><time>2026-04-20T08:52:49.546Z</time></trkpt><trkpt lat="46.1471786" lon="9.4748582"><ele>210.0</ele><time>2026-04-20T08:52:51.547Z</time></trkpt><trkpt lat="46.1472096" lon="9.4747276"><ele>210.0</ele><time>2026-04-20T08:52:52.547Z</time></trkpt><trkpt lat="46.1472362" lon="9.4746407"><ele>210.0</ele><time>2026-04-20T08:52:53.546Z</time></trkpt><trkpt lat="46.1472811" lon="9.4745428"><ele>210.0</ele><time>2026-04-20T08:52:54.546Z</time></trkpt><trkpt lat="46.1473112" lon="9.47445"><ele>210.0</ele><time>2026-04-20T08:52:55.546Z</time></trkpt><trkpt lat="46.1473208" lon="9.4743292"><ele>210.0</ele><time>2026-04-20T08:52:58.546Z</time></trkpt><trkpt lat="46.1473398" lon="9.4741915"><ele>210.0</ele><time>2026-04-20T08:53:00.546Z</time></trkpt><trkpt lat="46.1473772" lon="9.4740164"><ele>210.0</ele><time>2026-04-20T08:53:02.548Z</time></trkpt><trkpt lat="46.1474611" lon="9.4738228"><ele>210.0</ele><time>2026-04-20T08:53:04.547Z</time></trkpt><trkpt lat="46.1474755" lon="9.4736725"><ele>210.0</ele><time>2026-04-20T08:53:05.546Z</time></trkpt><trkpt lat="46.1475081" lon="9.4735533"><ele>210.0</ele><time>2026-04-20T08:53:06.545Z</time></trkpt><trkpt lat="46.1475287" lon="9.4734669"><ele>210.0</ele><time>2026-04-20T08:53:07.545Z</time></trkpt><trkpt lat="46.1475573" lon="9.4733641"><ele>210.0</ele><time>2026-04-20T08:53:10.546Z</time></trkpt><trkpt lat="46.147592" lon="9.4732376"><ele>210.0</ele><time>2026-04-20T08:53:11.547Z</time></trkpt><trkpt lat="46.1476425" lon="9.4730482"><ele>210.0</ele><time>2026-04-20T08:53:13.547Z</time></trkpt><trkpt lat="46.1476725" lon="9.4729282"><ele>209.6</ele><time>2026-04-20T08:53:14.546Z</time></trkpt><trkpt lat="46.1477085" lon="9.4727438"><ele>209.2</ele><time>2026-04-20T08:53:16.545Z</time></trkpt><trkpt lat="46.1477396" lon="9.4726144"><ele>208.8</ele><time>2026-04-20T08:53:18.546Z</time></trkpt><trkpt lat="46.1477615" lon="9.4724879"><ele>208.4</ele><time>2026-04-20T08:53:20.545Z</time></trkpt><trkpt lat="46.1477954" lon="9.4723276"><ele>208.0</ele><time>2026-04-20T08:53:22.546Z</time></trkpt><trkpt lat="46.147836" lon="9.4721675"><ele>207.60000000000002</ele><time>2026-04-20T08:53:24.546Z</time></trkpt><trkpt lat="46.1478407" lon="9.4720398"><ele>207.20000000000002</ele><time>2026-04-20T08:53:25.545Z</time></trkpt><trkpt lat="46.1478748" lon="9.4718885"><ele>206.8</ele><time>2026-04-20T08:53:27.546Z</time></trkpt><trkpt lat="46.1479021" lon="9.4718042"><ele>206.4</ele><time>2026-04-20T08:53:28.547Z</time></trkpt><trkpt lat="46.1479342" lon="9.4716546"><ele>206.0</ele><time>2026-04-20T08:53:30.548Z</time></trkpt><trkpt lat="46.1479654" lon="9.4715257"><ele>206.0</ele><time>2026-04-20T08:53:31.547Z</time></trkpt><trkpt lat="46.1479867" lon="9.4714028"><ele>206.0</ele><time>2026-04-20T08:53:32.546Z</time></trkpt><trkpt lat="46.1479854" lon="9.4711931"><ele>206.0</ele><time>2026-04-20T08:53:34.546Z</time></trkpt><trkpt lat="46.1479593" lon="9.4710966"><ele>206.0</ele><time>2026-04-20T08:53:35.546Z</time></trkpt><trkpt lat="46.1479008" lon="9.4709233"><ele>206.0</ele><time>2026-04-20T08:53:37.547Z</time></trkpt><trkpt lat="46.1478677" lon="9.4708418"><ele>206.00000000000003</ele><time>2026-04-20T08:53:38.547Z</time></trkpt><trkpt lat="46.147805" lon="9.4707058"><ele>206.0</ele><time>2026-04-20T08:53:40.546Z</time></trkpt><trkpt lat="46.147775" lon="9.4706227"><ele>206.0</ele><time>2026-04-20T08:53:41.546Z</time></trkpt><trkpt lat="46.1477468" lon="9.4705401"><ele>206.0</ele><time>2026-04-20T08:53:42.546Z</time></trkpt><trkpt lat="46.1477119" lon="9.4704642"><ele>206.00000000000003</ele><time>2026-04-20T08:53:43.547Z</time></trkpt><trkpt lat="46.1476804" lon="9.4703745"><ele>206.0</ele><time>2026-04-20T08:53:44.547Z</time></trkpt><trkpt lat="46.1476151" lon="9.4702325"><ele>205.83333333333334</ele><time>2026-04-20T08:53:46.547Z</time></trkpt><trkpt lat="46.1475275" lon="9.4701421"><ele>205.66666666666669</ele><time>2026-04-20T08:53:48.548Z</time></trkpt><trkpt lat="46.1474555" lon="9.4700932"><ele>205.5</ele><time>2026-04-20T08:53:50.547Z</time></trkpt><trkpt lat="46.1473878" lon="9.4700401"><ele>205.33333333333331</ele><time>2026-04-20T08:53:52.546Z</time></trkpt><trkpt lat="46.1473239" lon="9.470002"><ele>205.16666666666666</ele><time>2026-04-20T08:53:53.546Z</time></trkpt><trkpt lat="46.147265" lon="9.4699234"><ele>205.0</ele><time>2026-04-20T08:53:54.547Z</time></trkpt><trkpt lat="46.1472117" lon="9.4698493"><ele>205.0</ele><time>2026-04-20T08:53:55.547Z</time></trkpt><trkpt lat="46.1472232" lon="9.4697216"><ele>205.0</ele><time>2026-04-20T08:53:57.547Z</time></trkpt><trkpt lat="46.1472519" lon="9.4695699"><ele>205.0</ele><time>2026-04-20T08:53:59.546Z</time></trkpt><trkpt lat="46.1472916" lon="9.4694556"><ele>205.0</ele><time>2026-04-20T08:54:01.546Z</time></trkpt><trkpt lat="46.1473417" lon="9.4693252"><ele>205.0</ele><time>2026-04-20T08:54:03.547Z</time></trkpt><trkpt lat="46.1473956" lon="9.469169"><ele>205.0</ele><time>2026-04-20T08:54:05.546Z</time></trkpt><trkpt lat="46.1474549" lon="9.4690323"><ele>205.0</ele><time>2026-04-20T08:54:07.546Z</time></trkpt><trkpt lat="46.1474806" lon="9.4689472"><ele>205.0</ele><time>2026-04-20T08:54:08.545Z</time></trkpt><trkpt lat="46.1474719" lon="9.4687727"><ele>205.0</ele><time>2026-04-20T08:54:10.545Z</time></trkpt><trkpt lat="46.1474516" lon="9.4686751"><ele>205.0</ele><time>2026-04-20T08:54:11.546Z</time></trkpt><trkpt lat="46.1473926" lon="9.4685303"><ele>204.75</ele><time>2026-04-20T08:54:13.546Z</time></trkpt><trkpt lat="46.1473362" lon="9.4683795"><ele>204.5</ele><time>2026-04-20T08:54:15.547Z</time></trkpt><trkpt lat="46.1472936" lon="9.4682155"><ele>204.25</ele><time>2026-04-20T08:54:17.546Z</time></trkpt><trkpt lat="46.1472681" lon="9.4680329"><ele>204.0</ele><time>2026-04-20T08:54:19.547Z</time></trkpt><trkpt lat="46.1472337" lon="9.4678701"><ele>204.0</ele><time>2026-04-20T08:54:21.548Z</time></trkpt><trkpt lat="46.1471968" lon="9.4677277"><ele>204.0</ele><time>2026-04-20T08:54:23.546Z</time></trkpt><trkpt lat="46.1471472" lon="9.4675605"><ele>204.0</ele><time>2026-04-20T08:54:25.548Z</time></trkpt><trkpt lat="46.1470777" lon="9.4673247"><ele>204.0</ele><time>2026-04-20T08:54:28.547Z</time></trkpt><trkpt lat="46.1470486" lon="9.467164"><ele>204.0</ele><time>2026-04-20T08:54:30.547Z</time></trkpt><trkpt lat="46.1470325" lon="9.4670029"><ele>204.0</ele><time>2026-04-20T08:54:32.546Z</time></trkpt><trkpt lat="46.1470087" lon="9.46684"><ele>204.0</ele><time>2026-04-20T08:54:34.545Z</time></trkpt><trkpt lat="46.1469935" lon="9.4667366"><ele>204.0</ele><time>2026-04-20T08:54:35.549Z</time></trkpt><trkpt lat="46.1469904" lon="9.4665659"><ele>204.0</ele><time>2026-04-20T08:54:37.547Z</time></trkpt><trkpt lat="46.1469652" lon="9.4664815"><ele>204.0</ele><time>2026-04-20T08:54:38.546Z</time></trkpt><trkpt lat="46.1469364" lon="9.4663092"><ele>204.0</ele><time>2026-04-20T08:54:40.546Z</time></trkpt><trkpt lat="46.146894" lon="9.4661358"><ele>204.0</ele><time>2026-04-20T08:54:42.546Z</time></trkpt><trkpt lat="46.1468558" lon="9.4659695"><ele>204.0</ele><time>2026-04-20T08:54:44.546Z</time></trkpt><trkpt lat="46.1468435" lon="9.4658709"><ele>204.0</ele><time>2026-04-20T08:54:45.546Z</time></trkpt><trkpt lat="46.1468052" lon="9.4657168"><ele>204.0</ele><time>2026-04-20T08:54:47.546Z</time></trkpt><trkpt lat="46.1467864" lon="9.4655456"><ele>204.0</ele><time>2026-04-20T08:54:49.547Z</time></trkpt><trkpt lat="46.146784" lon="9.4653929"><ele>204.0</ele><time>2026-04-20T08:54:51.547Z</time></trkpt><trkpt lat="46.1467865" lon="9.4652403"><ele>204.0</ele><time>2026-04-20T08:54:53.546Z</time></trkpt><trkpt lat="46.1467924" lon="9.4650961"><ele>204.0</ele><time>2026-04-20T08:54:55.547Z</time></trkpt><trkpt lat="46.1468027" lon="9.4649693"><ele>204.0</ele><time>2026-04-20T08:54:57.546Z</time></trkpt><trkpt lat="46.1468177" lon="9.4648524"><ele>204.0</ele><time>2026-04-20T08:54:59.877Z</time></trkpt><trkpt lat="46.1468359" lon="9.4647247"><ele>204.0</ele><time>2026-04-20T08:55:01.546Z</time></trkpt><trkpt lat="46.1468633" lon="9.4646203"><ele>204.0</ele><time>2026-04-20T08:55:03.545Z</time></trkpt><trkpt lat="46.1469057" lon="9.4644762"><ele>204.0</ele><time>2026-04-20T08:55:05.545Z</time></trkpt><trkpt lat="46.1469476" lon="9.4643454"><ele>204.2</ele><time>2026-04-20T08:55:07.546Z</time></trkpt><trkpt lat="46.1469756" lon="9.464236"><ele>204.39999999999998</ele><time>2026-04-20T08:55:09.896Z</time></trkpt><trkpt lat="46.1470271" lon="9.4641041"><ele>204.6</ele><time>2026-04-20T08:55:11.545Z</time></trkpt><trkpt lat="46.1470897" lon="9.4639751"><ele>204.8</ele><time>2026-04-20T08:55:13.545Z</time></trkpt><trkpt lat="46.1471503" lon="9.4638377"><ele>205.0</ele><time>2026-04-20T08:55:15.546Z</time></trkpt><trkpt lat="46.1472089" lon="9.4636893"><ele>205.2</ele><time>2026-04-20T08:55:17.546Z</time></trkpt><trkpt lat="46.1472689" lon="9.4635609"><ele>205.4</ele><time>2026-04-20T08:55:19.546Z</time></trkpt><trkpt lat="46.1473299" lon="9.4634214"><ele>205.60000000000002</ele><time>2026-04-20T08:55:21.546Z</time></trkpt><trkpt lat="46.1473984" lon="9.463312"><ele>205.8</ele><time>2026-04-20T08:55:23.546Z</time></trkpt><trkpt lat="46.1474634" lon="9.4631856"><ele>206.0</ele><time>2026-04-20T08:55:25.546Z</time></trkpt><trkpt lat="46.1475327" lon="9.4630467"><ele>205.60000000000002</ele><time>2026-04-20T08:55:27.547Z</time></trkpt><trkpt lat="46.1475795" lon="9.4629794"><ele>205.2</ele><time>2026-04-20T08:55:28.546Z</time></trkpt><trkpt lat="46.1476516" lon="9.4628523"><ele>204.8</ele><time>2026-04-20T08:55:30.547Z</time></trkpt><trkpt lat="46.1477393" lon="9.4627469"><ele>204.39999999999998</ele><time>2026-04-20T08:55:32.547Z</time></trkpt><trkpt lat="46.1478284" lon="9.4626434"><ele>204.0</ele><time>2026-04-20T08:55:34.546Z</time></trkpt><trkpt lat="46.1478798" lon="9.4625907"><ele>204.0</ele><time>2026-04-20T08:55:35.546Z</time></trkpt><trkpt lat="46.1479641" lon="9.4624725"><ele>204.0</ele><time>2026-04-20T08:55:37.547Z</time></trkpt><trkpt lat="46.148037" lon="9.4623708"><ele>204.0</ele><time>2026-04-20T08:55:39.546Z</time></trkpt><trkpt lat="46.1481321" lon="9.4622619"><ele>204.0</ele><time>2026-04-20T08:55:41.547Z</time></trkpt><trkpt lat="46.148182" lon="9.4622033"><ele>204.0</ele><time>2026-04-20T08:55:42.546Z</time></trkpt><trkpt lat="46.1482904" lon="9.4621069"><ele>203.79999999999998</ele><time>2026-04-20T08:55:44.546Z</time></trkpt><trkpt lat="46.1483636" lon="9.4620081"><ele>203.6</ele><time>2026-04-20T08:55:46.546Z</time></trkpt><trkpt lat="46.1484572" lon="9.4619113"><ele>203.4</ele><time>2026-04-20T08:55:48.546Z</time></trkpt><trkpt lat="46.1485536" lon="9.4617912"><ele>203.2</ele><time>2026-04-20T08:55:50.548Z</time></trkpt><trkpt lat="46.1486304" lon="9.4616875"><ele>203.0</ele><time>2026-04-20T08:55:52.547Z</time></trkpt><trkpt lat="46.1486797" lon="9.4616117"><ele>203.0</ele><time>2026-04-20T08:55:53.547Z</time></trkpt><trkpt lat="46.1487683" lon="9.4615006"><ele>203.0</ele><time>2026-04-20T08:55:55.546Z</time></trkpt><trkpt lat="46.1488547" lon="9.4613819"><ele>203.0</ele><time>2026-04-20T08:55:57.546Z</time></trkpt><trkpt lat="46.1489031" lon="9.4613187"><ele>203.0</ele><time>2026-04-20T08:55:58.546Z</time></trkpt><trkpt lat="46.1489897" lon="9.4611891"><ele>203.0</ele><time>2026-04-20T08:56:00.547Z</time></trkpt><trkpt lat="46.1490655" lon="9.4610437"><ele>203.0</ele><time>2026-04-20T08:56:02.547Z</time></trkpt><trkpt lat="46.1491226" lon="9.4608923"><ele>203.0</ele><time>2026-04-20T08:56:04.547Z</time></trkpt><trkpt lat="46.1491498" lon="9.4608103"><ele>203.0</ele><time>2026-04-20T08:56:05.545Z</time></trkpt><trkpt lat="46.1491898" lon="9.4606533"><ele>203.0</ele><time>2026-04-20T08:56:07.547Z</time></trkpt><trkpt lat="46.1492406" lon="9.460497"><ele>203.0</ele><time>2026-04-20T08:56:09.546Z</time></trkpt><trkpt lat="46.1492748" lon="9.4604141"><ele>203.00000000000003</ele><time>2026-04-20T08:56:10.548Z</time></trkpt><trkpt lat="46.1493098" lon="9.4603317"><ele>203.0</ele><time>2026-04-20T08:56:11.547Z</time></trkpt><trkpt lat="46.1493491" lon="9.4602422"><ele>203.0</ele><time>2026-04-20T08:56:12.547Z</time></trkpt><trkpt lat="46.1493805" lon="9.4601467"><ele>203.0</ele><time>2026-04-20T08:56:13.547Z</time></trkpt><trkpt lat="46.1494051" lon="9.4600476"><ele>203.00000000000003</ele><time>2026-04-20T08:56:14.548Z</time></trkpt><trkpt lat="46.1494162" lon="9.4598862"><ele>203.0</ele><time>2026-04-20T08:56:17.546Z</time></trkpt><trkpt lat="46.1494515" lon="9.4597815"><ele>203.00000000000003</ele><time>2026-04-20T08:56:18.547Z</time></trkpt><trkpt lat="46.149472" lon="9.4596757"><ele>203.0</ele><time>2026-04-20T08:56:19.545Z</time></trkpt><trkpt lat="46.1494956" lon="9.4595611"><ele>203.0</ele><time>2026-04-20T08:56:20.546Z</time></trkpt><trkpt lat="46.1494986" lon="9.4594557"><ele>203.0</ele><time>2026-04-20T08:56:21.546Z</time></trkpt><trkpt lat="46.1495111" lon="9.4593411"><ele>203.00000000000003</ele><time>2026-04-20T08:56:22.545Z</time></trkpt><trkpt lat="46.149516" lon="9.4592344"><ele>203.0</ele><time>2026-04-20T08:56:23.545Z</time></trkpt><trkpt lat="46.1495167" lon="9.4591413"><ele>203.0</ele><time>2026-04-20T08:56:24.545Z</time></trkpt><trkpt lat="46.1494844" lon="9.4589832"><ele>203.0</ele><time>2026-04-20T08:56:26.545Z</time></trkpt><trkpt lat="46.149461" lon="9.4588938"><ele>203.0</ele><time>2026-04-20T08:56:27.546Z</time></trkpt><trkpt lat="46.1493952" lon="9.4587728"><ele>203.0</ele><time>2026-04-20T08:56:29.547Z</time></trkpt><trkpt lat="46.1493494" lon="9.4587013"><ele>203.0</ele><time>2026-04-20T08:56:30.547Z</time></trkpt><trkpt lat="46.1492812" lon="9.4585528"><ele>203.2</ele><time>2026-04-20T08:56:32.546Z</time></trkpt><trkpt lat="46.1492154" lon="9.4584099"><ele>203.4</ele><time>2026-04-20T08:56:34.547Z</time></trkpt><trkpt lat="46.1491452" lon="9.4582579"><ele>203.6</ele><time>2026-04-20T08:56:36.545Z</time></trkpt><trkpt lat="46.1491067" lon="9.4581782"><ele>203.79999999999998</ele><time>2026-04-20T08:56:37.547Z</time></trkpt><trkpt lat="46.1490313" lon="9.4580442"><ele>204.0</ele><time>2026-04-20T08:56:39.545Z</time></trkpt><trkpt lat="46.1489535" lon="9.4579266"><ele>203.66666666666666</ele><time>2026-04-20T08:56:41.546Z</time></trkpt><trkpt lat="46.1489183" lon="9.4578349"><ele>203.33333333333331</ele><time>2026-04-20T08:56:42.547Z</time></trkpt><trkpt lat="46.1488234" lon="9.4577309"><ele>203.0</ele><time>2026-04-20T08:56:44.547Z</time></trkpt><trkpt lat="46.1487677" lon="9.4576776"><ele>202.66666666666666</ele><time>2026-04-20T08:56:45.546Z</time></trkpt><trkpt lat="46.1487161" lon="9.4576118"><ele>202.33333333333331</ele><time>2026-04-20T08:56:46.547Z</time></trkpt><trkpt lat="46.148659" lon="9.4575399"><ele>202.0</ele><time>2026-04-20T08:56:47.545Z</time></trkpt><trkpt lat="46.1486088" lon="9.4574726"><ele>202.0</ele><time>2026-04-20T08:56:48.546Z</time></trkpt><trkpt lat="46.1485718" lon="9.4573963"><ele>202.0</ele><time>2026-04-20T08:56:49.546Z</time></trkpt><trkpt lat="46.1484924" lon="9.4572863"><ele>202.0</ele><time>2026-04-20T08:56:51.547Z</time></trkpt><trkpt lat="46.1484002" lon="9.4571381"><ele>202.0</ele><time>2026-04-20T08:56:53.546Z</time></trkpt><trkpt lat="46.1483095" lon="9.4570585"><ele>202.0</ele><time>2026-04-20T08:56:55.547Z</time></trkpt><trkpt lat="46.1482584" lon="9.4569997"><ele>202.39999999999998</ele><time>2026-04-20T08:56:56.546Z</time></trkpt><trkpt lat="46.1482139" lon="9.4569315"><ele>202.79999999999998</ele><time>2026-04-20T08:56:57.547Z</time></trkpt><trkpt lat="46.1481123" lon="9.4568075"><ele>203.2</ele><time>2026-04-20T08:56:59.547Z</time></trkpt><trkpt lat="46.14806" lon="9.4567468"><ele>203.6</ele><time>2026-04-20T08:57:00.547Z</time></trkpt><trkpt lat="46.1479523" lon="9.4566481"><ele>204.0</ele><time>2026-04-20T08:57:02.548Z</time></trkpt><trkpt lat="46.1479053" lon="9.4565874"><ele>204.16666666666666</ele><time>2026-04-20T08:57:03.546Z</time></trkpt><trkpt lat="46.1478529" lon="9.4565338"><ele>204.33333333333331</ele><time>2026-04-20T08:57:04.548Z</time></trkpt><trkpt lat="46.1477536" lon="9.4564344"><ele>204.5</ele><time>2026-04-20T08:57:06.546Z</time></trkpt><trkpt lat="46.1477004" lon="9.4563801"><ele>204.66666666666666</ele><time>2026-04-20T08:57:07.546Z</time></trkpt><trkpt lat="46.1476427" lon="9.4563249"><ele>204.83333333333331</ele><time>2026-04-20T08:57:08.546Z</time></trkpt><trkpt lat="46.1475379" lon="9.4562231"><ele>205.0</ele><time>2026-04-20T08:57:10.548Z</time></trkpt><trkpt lat="46.147482" lon="9.4561719"><ele>204.66666666666666</ele><time>2026-04-20T08:57:11.547Z</time></trkpt><trkpt lat="46.1474216" lon="9.4561297"><ele>204.33333333333331</ele><time>2026-04-20T08:57:12.545Z</time></trkpt><trkpt lat="46.1473639" lon="9.4560843"><ele>204.0</ele><time>2026-04-20T08:57:13.548Z</time></trkpt><trkpt lat="46.1472572" lon="9.4559949"><ele>203.66666666666669</ele><time>2026-04-20T08:57:15.546Z</time></trkpt><trkpt lat="46.1471877" lon="9.4559471"><ele>203.33333333333334</ele><time>2026-04-20T08:57:16.547Z</time></trkpt><trkpt lat="46.1471277" lon="9.4558973"><ele>203.0</ele><time>2026-04-20T08:57:17.546Z</time></trkpt><trkpt lat="46.1470693" lon="9.4558477"><ele>202.8</ele><time>2026-04-20T08:57:18.546Z</time></trkpt><trkpt lat="46.1469565" lon="9.455774"><ele>202.60000000000002</ele><time>2026-04-20T08:57:20.546Z</time></trkpt><trkpt lat="46.1468463" lon="9.4556845"><ele>202.39999999999998</ele><time>2026-04-20T08:57:22.546Z</time></trkpt><trkpt lat="46.1467771" lon="9.4556337"><ele>202.2</ele><time>2026-04-20T08:57:23.547Z</time></trkpt><trkpt lat="46.1467158" lon="9.4555955"><ele>202.0</ele><time>2026-04-20T08:57:24.547Z</time></trkpt><trkpt lat="46.1466486" lon="9.4555486"><ele>202.16666666666666</ele><time>2026-04-20T08:57:25.547Z</time></trkpt><trkpt lat="46.1465417" lon="9.455489"><ele>202.33333333333331</ele><time>2026-04-20T08:57:27.547Z</time></trkpt><trkpt lat="46.1464268" lon="9.4554336"><ele>202.5</ele><time>2026-04-20T08:57:29.546Z</time></trkpt><trkpt lat="46.1463641" lon="9.4554004"><ele>202.66666666666669</ele><time>2026-04-20T08:57:30.547Z</time></trkpt><trkpt lat="46.1463052" lon="9.455368"><ele>202.83333333333334</ele><time>2026-04-20T08:57:31.547Z</time></trkpt><trkpt lat="46.1462441" lon="9.4553389"><ele>203.0</ele><time>2026-04-20T08:57:32.546Z</time></trkpt><trkpt lat="46.1461249" lon="9.4552881"><ele>202.60000000000002</ele><time>2026-04-20T08:57:34.547Z</time></trkpt><trkpt lat="46.1460601" lon="9.4552584"><ele>202.20000000000002</ele><time>2026-04-20T08:57:35.546Z</time></trkpt><trkpt lat="46.145948" lon="9.4551992"><ele>201.8</ele><time>2026-04-20T08:57:37.548Z</time></trkpt><trkpt lat="46.1458271" lon="9.45514"><ele>201.4</ele><time>2026-04-20T08:57:39.547Z</time></trkpt><trkpt lat="46.1457067" lon="9.4550961"><ele>201.0</ele><time>2026-04-20T08:57:41.547Z</time></trkpt><trkpt lat="46.1456383" lon="9.4550684"><ele>202.0</ele><time>2026-04-20T08:57:42.546Z</time></trkpt><trkpt lat="46.1455074" lon="9.4550322"><ele>203.0</ele><time>2026-04-20T08:57:44.547Z</time></trkpt><trkpt lat="46.1454409" lon="9.4550095"><ele>204.0</ele><time>2026-04-20T08:57:45.547Z</time></trkpt><trkpt lat="46.1453314" lon="9.45493"><ele>205.0</ele><time>2026-04-20T08:57:47.547Z</time></trkpt><trkpt lat="46.1452338" lon="9.454856"><ele>206.0</ele><time>2026-04-20T08:57:49.546Z</time></trkpt><trkpt lat="46.1451222" lon="9.4547958"><ele>206.0</ele><time>2026-04-20T08:57:51.546Z</time></trkpt><trkpt lat="46.1450026" lon="9.4547278"><ele>206.0</ele><time>2026-04-20T08:57:53.547Z</time></trkpt><trkpt lat="46.1448897" lon="9.4546597"><ele>206.0</ele><time>2026-04-20T08:57:55.546Z</time></trkpt><trkpt lat="46.1448188" lon="9.4546253"><ele>206.0</ele><time>2026-04-20T08:57:56.547Z</time></trkpt><trkpt lat="46.1447259" lon="9.4545651"><ele>206.0</ele><time>2026-04-20T08:57:58.546Z</time></trkpt><trkpt lat="46.1446283" lon="9.4545488"><ele>205.50000000000003</ele><time>2026-04-20T08:58:00.547Z</time></trkpt><trkpt lat="46.1445519" lon="9.4545076"><ele>205.0</ele><time>2026-04-20T08:58:02.546Z</time></trkpt><trkpt lat="46.1444504" lon="9.4544599"><ele>204.5</ele><time>2026-04-20T08:58:04.548Z</time></trkpt><trkpt lat="46.1443858" lon="9.4544231"><ele>204.0</ele><time>2026-04-20T08:58:05.547Z</time></trkpt><trkpt lat="46.1443095" lon="9.4544135"><ele>203.50000000000003</ele><time>2026-04-20T08:58:07.546Z</time></trkpt><trkpt lat="46.1442335" lon="9.4543791"><ele>203.0</ele><time>2026-04-20T08:58:09.547Z</time></trkpt><trkpt lat="46.1441877" lon="9.4542725"><ele>203.0</ele><time>2026-04-20T08:58:11.548Z</time></trkpt><trkpt lat="46.1441483" lon="9.4541529"><ele>203.0</ele><time>2026-04-20T08:58:13.547Z</time></trkpt><trkpt lat="46.1441116" lon="9.4540231"><ele>203.0</ele><time>2026-04-20T08:58:15.547Z</time></trkpt><trkpt lat="46.1440659" lon="9.4538848"><ele>203.0</ele><time>2026-04-20T08:58:17.547Z</time></trkpt><trkpt lat="46.1440342" lon="9.4537423"><ele>203.0</ele><time>2026-04-20T08:58:19.546Z</time></trkpt><trkpt lat="46.1439967" lon="9.4535815"><ele>203.0</ele><time>2026-04-20T08:58:21.546Z</time></trkpt><trkpt lat="46.1439752" lon="9.4534188"><ele>203.0</ele><time>2026-04-20T08:58:23.546Z</time></trkpt><trkpt lat="46.143953" lon="9.4532535"><ele>203.0</ele><time>2026-04-20T08:58:25.547Z</time></trkpt><trkpt lat="46.143888" lon="9.4531136"><ele>203.0</ele><time>2026-04-20T08:58:27.547Z</time></trkpt><trkpt lat="46.1437919" lon="9.4530122"><ele>202.8</ele><time>2026-04-20T08:58:29.547Z</time></trkpt><trkpt lat="46.1436911" lon="9.4529196"><ele>202.60000000000002</ele><time>2026-04-20T08:58:31.546Z</time></trkpt><trkpt lat="46.143625" lon="9.4528655"><ele>202.39999999999998</ele><time>2026-04-20T08:58:32.546Z</time></trkpt><trkpt lat="46.1435057" lon="9.4528033"><ele>202.2</ele><time>2026-04-20T08:58:34.547Z</time></trkpt><trkpt lat="46.1433931" lon="9.4528042"><ele>202.0</ele><time>2026-04-20T08:58:36.546Z</time></trkpt><trkpt lat="46.1432732" lon="9.4528107"><ele>202.16666666666666</ele><time>2026-04-20T08:58:38.546Z</time></trkpt><trkpt lat="46.143154" lon="9.452822"><ele>202.33333333333331</ele><time>2026-04-20T08:58:40.548Z</time></trkpt><trkpt lat="46.1430857" lon="9.4528268"><ele>202.5</ele><time>2026-04-20T08:58:41.546Z</time></trkpt><trkpt lat="46.1430228" lon="9.452842"><ele>202.66666666666669</ele><time>2026-04-20T08:58:42.547Z</time></trkpt><trkpt lat="46.1429531" lon="9.4528572"><ele>202.83333333333334</ele><time>2026-04-20T08:58:43.547Z</time></trkpt><trkpt lat="46.1428829" lon="9.4528667"><ele>203.0</ele><time>2026-04-20T08:58:44.548Z</time></trkpt><trkpt lat="46.1428115" lon="9.4528814"><ele>203.0</ele><time>2026-04-20T08:58:45.547Z</time></trkpt><trkpt lat="46.1427483" lon="9.4528919"><ele>203.0</ele><time>2026-04-20T08:58:46.549Z</time></trkpt><trkpt lat="46.1426836" lon="9.4528847"><ele>203.0</ele><time>2026-04-20T08:58:47.547Z</time></trkpt><trkpt lat="46.1426215" lon="9.4528621"><ele>203.0</ele><time>2026-04-20T08:58:48.546Z</time></trkpt><trkpt lat="46.1425552" lon="9.4528342"><ele>203.0</ele><time>2026-04-20T08:58:49.547Z</time></trkpt><trkpt lat="46.142491" lon="9.4528138"><ele>203.0</ele><time>2026-04-20T08:58:50.547Z</time></trkpt><trkpt lat="46.1424277" lon="9.452788"><ele>203.0</ele><time>2026-04-20T08:58:51.546Z</time></trkpt><trkpt lat="46.1423013" lon="9.4527456"><ele>203.0</ele><time>2026-04-20T08:58:53.546Z</time></trkpt><trkpt lat="46.1421779" lon="9.4527232"><ele>203.0</ele><time>2026-04-20T08:58:55.547Z</time></trkpt><trkpt lat="46.1420685" lon="9.4527743"><ele>203.0</ele><time>2026-04-20T08:58:57.548Z</time></trkpt><trkpt lat="46.1419577" lon="9.4528295"><ele>203.0</ele><time>2026-04-20T08:58:59.546Z</time></trkpt><trkpt lat="46.1419005" lon="9.4528704"><ele>203.0</ele><time>2026-04-20T08:59:00.547Z</time></trkpt><trkpt lat="46.1418399" lon="9.4529015"><ele>203.0</ele><time>2026-04-20T08:59:01.546Z</time></trkpt><trkpt lat="46.141767" lon="9.4529414"><ele>203.0</ele><time>2026-04-20T08:59:02.546Z</time></trkpt><trkpt lat="46.1417035" lon="9.452978"><ele>203.0</ele><time>2026-04-20T08:59:03.547Z</time></trkpt><trkpt lat="46.1416383" lon="9.4530126"><ele>203.0</ele><time>2026-04-20T08:59:04.546Z</time></trkpt><trkpt lat="46.1415781" lon="9.4530476"><ele>203.0</ele><time>2026-04-20T08:59:05.547Z</time></trkpt><trkpt lat="46.1415164" lon="9.4530724"><ele>203.0</ele><time>2026-04-20T08:59:06.546Z</time></trkpt><trkpt lat="46.141458" lon="9.4531082"><ele>203.0</ele><time>2026-04-20T08:59:07.546Z</time></trkpt><trkpt lat="46.1413983" lon="9.4531444"><ele>203.16666666666669</ele><time>2026-04-20T08:59:08.546Z</time></trkpt><trkpt lat="46.1413415" lon="9.4531866"><ele>203.33333333333334</ele><time>2026-04-20T08:59:09.548Z</time></trkpt><trkpt lat="46.1412777" lon="9.4532122"><ele>203.5</ele><time>2026-04-20T08:59:10.547Z</time></trkpt><trkpt lat="46.1412099" lon="9.4532428"><ele>203.66666666666669</ele><time>2026-04-20T08:59:11.546Z</time></trkpt><trkpt lat="46.1411486" lon="9.4532758"><ele>203.83333333333334</ele><time>2026-04-20T08:59:12.547Z</time></trkpt><trkpt lat="46.1410807" lon="9.453314"><ele>204.0</ele><time>2026-04-20T08:59:13.547Z</time></trkpt><trkpt lat="46.1409603" lon="9.4533769"><ele>204.0</ele><time>2026-04-20T08:59:15.547Z</time></trkpt><trkpt lat="46.1409009" lon="9.4534151"><ele>204.0</ele><time>2026-04-20T08:59:16.547Z</time></trkpt><trkpt lat="46.1408044" lon="9.4534592"><ele>204.0</ele><time>2026-04-20T08:59:18.546Z</time></trkpt><trkpt lat="46.1407387" lon="9.4535049"><ele>204.0</ele><time>2026-04-20T08:59:20.547Z</time></trkpt><trkpt lat="46.1406608" lon="9.4536005"><ele>204.0</ele><time>2026-04-20T08:59:24.548Z</time></trkpt><trkpt lat="46.1406432" lon="9.4537054"><ele>204.0</ele><time>2026-04-20T08:59:26.547Z</time></trkpt><trkpt lat="46.1406105" lon="9.4538161"><ele>204.2</ele><time>2026-04-20T08:59:28.547Z</time></trkpt><trkpt lat="46.1405762" lon="9.4539331"><ele>204.39999999999998</ele><time>2026-04-20T08:59:30.546Z</time></trkpt><trkpt lat="46.1405331" lon="9.4540494"><ele>204.6</ele><time>2026-04-20T08:59:32.547Z</time></trkpt><trkpt lat="46.1404977" lon="9.4541668"><ele>204.8</ele><time>2026-04-20T08:59:34.547Z</time></trkpt><trkpt lat="46.1404541" lon="9.4542795"><ele>205.0</ele><time>2026-04-20T08:59:36.546Z</time></trkpt><trkpt lat="46.1404115" lon="9.4544094"><ele>205.0</ele><time>2026-04-20T08:59:38.546Z</time></trkpt><trkpt lat="46.1403591" lon="9.4545643"><ele>205.0</ele><time>2026-04-20T08:59:40.547Z</time></trkpt><trkpt lat="46.140317" lon="9.4546969"><ele>205.0</ele><time>2026-04-20T08:59:42.546Z</time></trkpt><trkpt lat="46.1402839" lon="9.4548317"><ele>205.0</ele><time>2026-04-20T08:59:44.547Z</time></trkpt><trkpt lat="46.1402507" lon="9.4549835"><ele>205.0</ele><time>2026-04-20T08:59:46.546Z</time></trkpt><trkpt lat="46.1402197" lon="9.4551339"><ele>205.4</ele><time>2026-04-20T08:59:48.548Z</time></trkpt><trkpt lat="46.1401677" lon="9.4552766"><ele>205.8</ele><time>2026-04-20T08:59:50.546Z</time></trkpt><trkpt lat="46.1401086" lon="9.4553984"><ele>206.2</ele><time>2026-04-20T08:59:52.547Z</time></trkpt><trkpt lat="46.1400662" lon="9.4555363"><ele>206.6</ele><time>2026-04-20T08:59:54.546Z</time></trkpt><trkpt lat="46.1400015" lon="9.4556556"><ele>207.0</ele><time>2026-04-20T08:59:56.549Z</time></trkpt><trkpt lat="46.1399378" lon="9.4557517"><ele>207.0</ele><time>2026-04-20T08:59:58.547Z</time></trkpt><trkpt lat="46.1398869" lon="9.4558499"><ele>207.0</ele><time>2026-04-20T09:00:00.548Z</time></trkpt><trkpt lat="46.1398393" lon="9.4559247"><ele>207.0</ele><time>2026-04-20T09:00:02.547Z</time></trkpt><trkpt lat="46.1397301" lon="9.4560248"><ele>207.0</ele><time>2026-04-20T09:00:05.546Z</time></trkpt><trkpt lat="46.1396337" lon="9.4560258"><ele>207.0</ele><time>2026-04-20T09:00:07.547Z</time></trkpt><trkpt lat="46.1395304" lon="9.4560153"><ele>207.0</ele><time>2026-04-20T09:00:09.548Z</time></trkpt><trkpt lat="46.1394389" lon="9.4560287"><ele>207.0</ele><time>2026-04-20T09:00:11.548Z</time></trkpt><trkpt lat="46.139324" lon="9.4560265"><ele>207.0</ele><time>2026-04-20T09:00:13.547Z</time></trkpt><trkpt lat="46.1392069" lon="9.4560204"><ele>207.0</ele><time>2026-04-20T09:00:15.547Z</time></trkpt><trkpt lat="46.1391037" lon="9.4560227"><ele>207.0</ele><time>2026-04-20T09:00:17.548Z</time></trkpt><trkpt lat="46.1389997" lon="9.4560216"><ele>208.6</ele><time>2026-04-20T09:00:19.547Z</time></trkpt><trkpt lat="46.1388959" lon="9.4560255"><ele>210.2</ele><time>2026-04-20T09:00:21.547Z</time></trkpt><trkpt lat="46.1388039" lon="9.4559955"><ele>211.8</ele><time>2026-04-20T09:00:23.548Z</time></trkpt><trkpt lat="46.1387501" lon="9.4558756"><ele>213.4</ele><time>2026-04-20T09:00:25.547Z</time></trkpt><trkpt lat="46.1387257" lon="9.4557124"><ele>215.0</ele><time>2026-04-20T09:00:27.547Z</time></trkpt><trkpt lat="46.1387155" lon="9.4555416"><ele>214.6</ele><time>2026-04-20T09:00:29.548Z</time></trkpt><trkpt lat="46.1387172" lon="9.4553686"><ele>214.2</ele><time>2026-04-20T09:00:31.547Z</time></trkpt><trkpt lat="46.1387134" lon="9.4551933"><ele>213.8</ele><time>2026-04-20T09:00:33.547Z</time></trkpt><trkpt lat="46.138712" lon="9.4550387"><ele>213.4</ele><time>2026-04-20T09:00:35.546Z</time></trkpt><trkpt lat="46.1387022" lon="9.4549463"><ele>213.0</ele><time>2026-04-20T09:00:36.547Z</time></trkpt><trkpt lat="46.1386985" lon="9.4547744"><ele>213.0</ele><time>2026-04-20T09:00:38.549Z</time></trkpt><trkpt lat="46.1386942" lon="9.4546145"><ele>213.0</ele><time>2026-04-20T09:00:40.546Z</time></trkpt><trkpt lat="46.1386917" lon="9.4545206"><ele>213.0</ele><time>2026-04-20T09:00:41.547Z</time></trkpt><trkpt lat="46.1386948" lon="9.4543419"><ele>213.0</ele><time>2026-04-20T09:00:43.546Z</time></trkpt><trkpt lat="46.1386951" lon="9.4542482"><ele>213.0</ele><time>2026-04-20T09:00:44.549Z</time></trkpt><trkpt lat="46.1386869" lon="9.4540698"><ele>213.0</ele><time>2026-04-20T09:00:46.547Z</time></trkpt><trkpt lat="46.1386905" lon="9.4538897"><ele>213.0</ele><time>2026-04-20T09:00:48.548Z</time></trkpt><trkpt lat="46.1386954" lon="9.4537973"><ele>213.0</ele><time>2026-04-20T09:00:49.547Z</time></trkpt><trkpt lat="46.1387026" lon="9.4537029"><ele>213.0</ele><time>2026-04-20T09:00:50.546Z</time></trkpt><trkpt lat="46.138703" lon="9.4536081"><ele>213.0</ele><time>2026-04-20T09:00:51.548Z</time></trkpt><trkpt lat="46.1387035" lon="9.4534222"><ele>213.0</ele><time>2026-04-20T09:00:53.546Z</time></trkpt><trkpt lat="46.1387015" lon="9.4533283"><ele>213.0</ele><time>2026-04-20T09:00:54.548Z</time></trkpt><trkpt lat="46.1387081" lon="9.4531658"><ele>213.0</ele><time>2026-04-20T09:00:56.546Z</time></trkpt><trkpt lat="46.1387046" lon="9.4530735"><ele>213.0</ele><time>2026-04-20T09:00:57.547Z</time></trkpt><trkpt lat="46.1387054" lon="9.4529804"><ele>213.0</ele><time>2026-04-20T09:00:58.548Z</time></trkpt><trkpt lat="46.1387059" lon="9.45281"><ele>213.0</ele><time>2026-04-20T09:01:00.546Z</time></trkpt><trkpt lat="46.1387081" lon="9.4527158"><ele>213.0</ele><time>2026-04-20T09:01:01.547Z</time></trkpt><trkpt lat="46.1387141" lon="9.4525456"><ele>213.0</ele><time>2026-04-20T09:01:03.547Z</time></trkpt><trkpt lat="46.1387325" lon="9.4523602"><ele>213.0</ele><time>2026-04-20T09:01:05.548Z</time></trkpt><trkpt lat="46.138743" lon="9.452266"><ele>213.0</ele><time>2026-04-20T09:01:06.547Z</time></trkpt><trkpt lat="46.1387478" lon="9.4521738"><ele>213.0</ele><time>2026-04-20T09:01:07.548Z</time></trkpt><trkpt lat="46.1387535" lon="9.4520775"><ele>213.0</ele><time>2026-04-20T09:01:08.546Z</time></trkpt><trkpt lat="46.1387538" lon="9.4519755"><ele>213.0</ele><time>2026-04-20T09:01:09.547Z</time></trkpt><trkpt lat="46.1387531" lon="9.4518842"><ele>212.5</ele><time>2026-04-20T09:01:10.546Z</time></trkpt><trkpt lat="46.1387526" lon="9.4516967"><ele>212.0</ele><time>2026-04-20T09:01:12.546Z</time></trkpt><trkpt lat="46.1387537" lon="9.4516037"><ele>211.5</ele><time>2026-04-20T09:01:13.547Z</time></trkpt><trkpt lat="46.1387401" lon="9.4515045"><ele>211.0</ele><time>2026-04-20T09:01:14.547Z</time></trkpt><trkpt lat="46.1387246" lon="9.4513318"><ele>210.5</ele><time>2026-04-20T09:01:16.546Z</time></trkpt><trkpt lat="46.1387246" lon="9.45124"><ele>210.0</ele><time>2026-04-20T09:01:17.546Z</time></trkpt><trkpt lat="46.1387199" lon="9.4511468"><ele>209.2</ele><time>2026-04-20T09:01:18.547Z</time></trkpt><trkpt lat="46.1387121" lon="9.4509503"><ele>208.4</ele><time>2026-04-20T09:01:20.546Z</time></trkpt><trkpt lat="46.1387173" lon="9.4507856"><ele>207.60000000000002</ele><time>2026-04-20T09:01:22.547Z</time></trkpt><trkpt lat="46.1387093" lon="9.4506173"><ele>206.8</ele><time>2026-04-20T09:01:24.548Z</time></trkpt><trkpt lat="46.1386989" lon="9.4505274"><ele>206.0</ele><time>2026-04-20T09:01:25.548Z</time></trkpt><trkpt lat="46.1386947" lon="9.4503467"><ele>205.83333333333334</ele><time>2026-04-20T09:01:27.548Z</time></trkpt><trkpt lat="46.138693" lon="9.450255"><ele>205.66666666666669</ele><time>2026-04-20T09:01:28.548Z</time></trkpt><trkpt lat="46.1386985" lon="9.4500856"><ele>205.5</ele><time>2026-04-20T09:01:30.549Z</time></trkpt><trkpt lat="46.1386962" lon="9.4499926"><ele>205.33333333333331</ele><time>2026-04-20T09:01:31.546Z</time></trkpt><trkpt lat="46.1386808" lon="9.4498071"><ele>205.16666666666666</ele><time>2026-04-20T09:01:33.547Z</time></trkpt><trkpt lat="46.13867" lon="9.4497089"><ele>205.0</ele><time>2026-04-20T09:01:34.548Z</time></trkpt><trkpt lat="46.1386714" lon="9.4496166"><ele>204.85714285714286</ele><time>2026-04-20T09:01:35.548Z</time></trkpt><trkpt lat="46.1386686" lon="9.4495251"><ele>204.7142857142857</ele><time>2026-04-20T09:01:36.547Z</time></trkpt><trkpt lat="46.1386736" lon="9.4494316"><ele>204.57142857142856</ele><time>2026-04-20T09:01:37.548Z</time></trkpt><trkpt lat="46.1386702" lon="9.4493408"><ele>204.42857142857144</ele><time>2026-04-20T09:01:38.547Z</time></trkpt><trkpt lat="46.1386741" lon="9.4492464"><ele>204.28571428571428</ele><time>2026-04-20T09:01:39.548Z</time></trkpt><trkpt lat="46.138671" lon="9.449155"><ele>204.14285714285714</ele><time>2026-04-20T09:01:40.546Z</time></trkpt><trkpt lat="46.138672" lon="9.4490611"><ele>204.0</ele><time>2026-04-20T09:01:41.547Z</time></trkpt><trkpt lat="46.1386734" lon="9.4488831"><ele>204.0</ele><time>2026-04-20T09:01:43.547Z</time></trkpt><trkpt lat="46.1386754" lon="9.4487879"><ele>204.0</ele><time>2026-04-20T09:01:44.547Z</time></trkpt><trkpt lat="46.1386748" lon="9.4486863"><ele>204.0</ele><time>2026-04-20T09:01:45.548Z</time></trkpt><trkpt lat="46.1386788" lon="9.4485823"><ele>204.0</ele><time>2026-04-20T09:01:46.547Z</time></trkpt><trkpt lat="46.1386811" lon="9.448489"><ele>204.0</ele><time>2026-04-20T09:01:47.546Z</time></trkpt><trkpt lat="46.1386786" lon="9.4483832"><ele>204.0</ele><time>2026-04-20T09:01:48.548Z</time></trkpt><trkpt lat="46.1386789" lon="9.4482908"><ele>204.0</ele><time>2026-04-20T09:01:49.546Z</time></trkpt><trkpt lat="46.1386778" lon="9.4481956"><ele>204.0</ele><time>2026-04-20T09:01:50.547Z</time></trkpt><trkpt lat="46.1386802" lon="9.4480978"><ele>204.0</ele><time>2026-04-20T09:01:51.548Z</time></trkpt><trkpt lat="46.1386809" lon="9.4480038"><ele>204.0</ele><time>2026-04-20T09:01:52.547Z</time></trkpt><trkpt lat="46.1386795" lon="9.4479076"><ele>204.0</ele><time>2026-04-20T09:01:53.547Z</time></trkpt><trkpt lat="46.138682" lon="9.4478086"><ele>204.0</ele><time>2026-04-20T09:01:54.547Z</time></trkpt><trkpt lat="46.1386787" lon="9.4476267"><ele>204.0</ele><time>2026-04-20T09:01:56.548Z</time></trkpt><trkpt lat="46.1386813" lon="9.4475222"><ele>204.0</ele><time>2026-04-20T09:01:57.546Z</time></trkpt><trkpt lat="46.1386842" lon="9.4473336"><ele>204.0</ele><time>2026-04-20T09:01:59.547Z</time></trkpt><trkpt lat="46.1386837" lon="9.4472372"><ele>204.0</ele><time>2026-04-20T09:02:00.546Z</time></trkpt><trkpt lat="46.1386837" lon="9.4471367"><ele>204.0</ele><time>2026-04-20T09:02:01.547Z</time></trkpt><trkpt lat="46.1386939" lon="9.4469464"><ele>204.0</ele><time>2026-04-20T09:02:03.547Z</time></trkpt><trkpt lat="46.1386919" lon="9.4468487"><ele>204.0</ele><time>2026-04-20T09:02:04.546Z</time></trkpt><trkpt lat="46.1386896" lon="9.4467542"><ele>204.0</ele><time>2026-04-20T09:02:05.546Z</time></trkpt><trkpt lat="46.1386864" lon="9.4466572"><ele>204.0</ele><time>2026-04-20T09:02:06.547Z</time></trkpt><trkpt lat="46.1386844" lon="9.4465645"><ele>204.0</ele><time>2026-04-20T09:02:07.548Z</time></trkpt><trkpt lat="46.1386876" lon="9.4463689"><ele>204.0</ele><time>2026-04-20T09:02:09.547Z</time></trkpt><trkpt lat="46.1386902" lon="9.4462776"><ele>204.0</ele><time>2026-04-20T09:02:10.547Z</time></trkpt><trkpt lat="46.1386903" lon="9.4461838"><ele>204.2</ele><time>2026-04-20T09:02:11.546Z</time></trkpt><trkpt lat="46.1386859" lon="9.4460086"><ele>204.39999999999998</ele><time>2026-04-20T09:02:13.548Z</time></trkpt><trkpt lat="46.1386891" lon="9.4458335"><ele>204.6</ele><time>2026-04-20T09:02:15.547Z</time></trkpt><trkpt lat="46.1386881" lon="9.4457332"><ele>204.8</ele><time>2026-04-20T09:02:16.548Z</time></trkpt><trkpt lat="46.1386829" lon="9.4456254"><ele>205.0</ele><time>2026-04-20T09:02:17.548Z</time></trkpt><trkpt lat="46.1386827" lon="9.4455307"><ele>204.8</ele><time>2026-04-20T09:02:18.546Z</time></trkpt><trkpt lat="46.1386826" lon="9.4454295"><ele>204.6</ele><time>2026-04-20T09:02:19.547Z</time></trkpt><trkpt lat="46.1386833" lon="9.4453285"><ele>204.39999999999998</ele><time>2026-04-20T09:02:20.547Z</time></trkpt><trkpt lat="46.1386828" lon="9.4452238"><ele>204.2</ele><time>2026-04-20T09:02:21.547Z</time></trkpt><trkpt lat="46.1386838" lon="9.4450452"><ele>204.0</ele><time>2026-04-20T09:02:23.547Z</time></trkpt><trkpt lat="46.1386893" lon="9.4448629"><ele>204.0</ele><time>2026-04-20T09:02:25.546Z</time></trkpt><trkpt lat="46.1386914" lon="9.4447652"><ele>204.0</ele><time>2026-04-20T09:02:26.547Z</time></trkpt><trkpt lat="46.1386939" lon="9.4446695"><ele>204.0</ele><time>2026-04-20T09:02:27.547Z</time></trkpt><trkpt lat="46.1386979" lon="9.4444981"><ele>204.0</ele><time>2026-04-20T09:02:29.547Z</time></trkpt><trkpt lat="46.1386952" lon="9.4444036"><ele>204.0</ele><time>2026-04-20T09:02:30.546Z</time></trkpt><trkpt lat="46.1386936" lon="9.4443046"><ele>204.0</ele><time>2026-04-20T09:02:31.547Z</time></trkpt><trkpt lat="46.1386949" lon="9.4442101"><ele>203.83333333333334</ele><time>2026-04-20T09:02:32.547Z</time></trkpt><trkpt lat="46.1386921" lon="9.4441143"><ele>203.66666666666669</ele><time>2026-04-20T09:02:33.548Z</time></trkpt><trkpt lat="46.1386895" lon="9.4439314"><ele>203.5</ele><time>2026-04-20T09:02:35.548Z</time></trkpt><trkpt lat="46.1386923" lon="9.4438293"><ele>203.33333333333334</ele><time>2026-04-20T09:02:36.547Z</time></trkpt><trkpt lat="46.1386921" lon="9.4437294"><ele>203.16666666666669</ele><time>2026-04-20T09:02:37.547Z</time></trkpt><trkpt lat="46.138689" lon="9.4436339"><ele>203.0</ele><time>2026-04-20T09:02:38.547Z</time></trkpt><trkpt lat="46.1386873" lon="9.4435355"><ele>202.83333333333334</ele><time>2026-04-20T09:02:39.546Z</time></trkpt><trkpt lat="46.138687" lon="9.4434334"><ele>202.66666666666669</ele><time>2026-04-20T09:02:40.547Z</time></trkpt><trkpt lat="46.1386896" lon="9.443331"><ele>202.5</ele><time>2026-04-20T09:02:41.548Z</time></trkpt><trkpt lat="46.1386937" lon="9.4431559"><ele>202.33333333333331</ele><time>2026-04-20T09:02:43.546Z</time></trkpt><trkpt lat="46.1386923" lon="9.4429876"><ele>202.16666666666666</ele><time>2026-04-20T09:02:45.548Z</time></trkpt><trkpt lat="46.1386902" lon="9.4428934"><ele>202.0</ele><time>2026-04-20T09:02:46.547Z</time></trkpt><trkpt lat="46.1386882" lon="9.4427971"><ele>202.0</ele><time>2026-04-20T09:02:47.548Z</time></trkpt><trkpt lat="46.1386846" lon="9.442632"><ele>202.0</ele><time>2026-04-20T09:02:49.547Z</time></trkpt><trkpt lat="46.1386865" lon="9.4425344"><ele>202.0</ele><time>2026-04-20T09:02:50.547Z</time></trkpt><trkpt lat="46.1386828" lon="9.4424428"><ele>202.0</ele><time>2026-04-20T09:02:51.546Z</time></trkpt><trkpt lat="46.1386851" lon="9.4423448"><ele>202.0</ele><time>2026-04-20T09:02:52.547Z</time></trkpt><trkpt lat="46.1386805" lon="9.4422466"><ele>202.0</ele><time>2026-04-20T09:02:53.546Z</time></trkpt><trkpt lat="46.1386843" lon="9.4421491"><ele>202.0</ele><time>2026-04-20T09:02:54.547Z</time></trkpt><trkpt lat="46.1386853" lon="9.4420485"><ele>201.83333333333331</ele><time>2026-04-20T09:02:55.546Z</time></trkpt><trkpt lat="46.1386866" lon="9.4419525"><ele>201.66666666666666</ele><time>2026-04-20T09:02:56.547Z</time></trkpt><trkpt lat="46.138684" lon="9.4418526"><ele>201.5</ele><time>2026-04-20T09:02:57.548Z</time></trkpt><trkpt lat="46.1386831" lon="9.4417581"><ele>201.33333333333331</ele><time>2026-04-20T09:02:58.548Z</time></trkpt><trkpt lat="46.1386809" lon="9.4416567"><ele>201.16666666666666</ele><time>2026-04-20T09:02:59.549Z</time></trkpt><trkpt lat="46.138685" lon="9.4414702"><ele>201.0</ele><time>2026-04-20T09:03:01.546Z</time></trkpt><trkpt lat="46.1386913" lon="9.4413786"><ele>201.5</ele><time>2026-04-20T09:03:02.548Z</time></trkpt><trkpt lat="46.1386913" lon="9.4412033"><ele>202.0</ele><time>2026-04-20T09:03:04.548Z</time></trkpt><trkpt lat="46.1386934" lon="9.4410339"><ele>202.5</ele><time>2026-04-20T09:03:06.548Z</time></trkpt><trkpt lat="46.1386997" lon="9.4409384"><ele>203.0</ele><time>2026-04-20T09:03:07.548Z</time></trkpt><trkpt lat="46.1387118" lon="9.4406859"><ele>203.0</ele><time>2026-04-20T09:03:10.548Z</time></trkpt><trkpt lat="46.1387194" lon="9.4405375"><ele>203.0</ele><time>2026-04-20T09:03:12.546Z</time></trkpt><trkpt lat="46.1387228" lon="9.4404454"><ele>203.0</ele><time>2026-04-20T09:03:13.548Z</time></trkpt><trkpt lat="46.1387295" lon="9.4402675"><ele>203.0</ele><time>2026-04-20T09:03:15.548Z</time></trkpt><trkpt lat="46.1387377" lon="9.4400905"><ele>203.0</ele><time>2026-04-20T09:03:17.547Z</time></trkpt><trkpt lat="46.1387554" lon="9.4399145"><ele>203.00000000000003</ele><time>2026-04-20T09:03:19.546Z</time></trkpt><trkpt lat="46.138783" lon="9.4397425"><ele>203.0</ele><time>2026-04-20T09:03:21.546Z</time></trkpt><trkpt lat="46.138793" lon="9.4396476"><ele>203.0</ele><time>2026-04-20T09:03:22.547Z</time></trkpt><trkpt lat="46.1388179" lon="9.4394752"><ele>203.0</ele><time>2026-04-20T09:03:24.548Z</time></trkpt><trkpt lat="46.1388334" lon="9.4393855"><ele>203.00000000000003</ele><time>2026-04-20T09:03:25.547Z</time></trkpt><trkpt lat="46.1388452" lon="9.4392945"><ele>203.0</ele><time>2026-04-20T09:03:26.546Z</time></trkpt><trkpt lat="46.1388616" lon="9.4391953"><ele>202.75</ele><time>2026-04-20T09:03:27.548Z</time></trkpt><trkpt lat="46.1389026" lon="9.4390191"><ele>202.5</ele><time>2026-04-20T09:03:29.547Z</time></trkpt><trkpt lat="46.1389213" lon="9.4389222"><ele>202.25</ele><time>2026-04-20T09:03:30.547Z</time></trkpt><trkpt lat="46.1389704" lon="9.4387391"><ele>202.0</ele><time>2026-04-20T09:03:32.547Z</time></trkpt><trkpt lat="46.1390134" lon="9.4385815"><ele>201.75</ele><time>2026-04-20T09:03:34.547Z</time></trkpt><trkpt lat="46.139051" lon="9.4384316"><ele>201.5</ele><time>2026-04-20T09:03:36.547Z</time></trkpt><trkpt lat="46.1390928" lon="9.4382762"><ele>201.25</ele><time>2026-04-20T09:03:38.547Z</time></trkpt><trkpt lat="46.1391293" lon="9.4381177"><ele>201.0</ele><time>2026-04-20T09:03:40.547Z</time></trkpt><trkpt lat="46.1391723" lon="9.4379687"><ele>200.8</ele><time>2026-04-20T09:03:42.548Z</time></trkpt><trkpt lat="46.139205" lon="9.437891"><ele>200.60000000000002</ele><time>2026-04-20T09:03:43.547Z</time></trkpt><trkpt lat="46.1392511" lon="9.43773"><ele>200.4</ele><time>2026-04-20T09:03:45.548Z</time></trkpt><trkpt lat="46.1392998" lon="9.4375784"><ele>200.2</ele><time>2026-04-20T09:03:47.547Z</time></trkpt><trkpt lat="46.1393488" lon="9.4374387"><ele>200.0</ele><time>2026-04-20T09:03:49.548Z</time></trkpt><trkpt lat="46.1393903" lon="9.4372909"><ele>199.8</ele><time>2026-04-20T09:03:51.547Z</time></trkpt><trkpt lat="46.1394223" lon="9.437128"><ele>199.6</ele><time>2026-04-20T09:03:53.547Z</time></trkpt><trkpt lat="46.1394655" lon="9.4369748"><ele>199.39999999999998</ele><time>2026-04-20T09:03:55.547Z</time></trkpt><trkpt lat="46.1395021" lon="9.4368184"><ele>199.2</ele><time>2026-04-20T09:03:57.547Z</time></trkpt><trkpt lat="46.1395238" lon="9.4367281"><ele>199.0</ele><time>2026-04-20T09:03:58.548Z</time></trkpt><trkpt lat="46.1395602" lon="9.43664"><ele>198.99999999999997</ele><time>2026-04-20T09:03:59.546Z</time></trkpt><trkpt lat="46.1395913" lon="9.4365436"><ele>199.0</ele><time>2026-04-20T09:04:00.548Z</time></trkpt><trkpt lat="46.1396146" lon="9.4364567"><ele>199.0</ele><time>2026-04-20T09:04:01.546Z</time></trkpt><trkpt lat="46.139638" lon="9.4363714"><ele>199.0</ele><time>2026-04-20T09:04:02.548Z</time></trkpt><trkpt lat="46.1396688" lon="9.4362844"><ele>199.0</ele><time>2026-04-20T09:04:03.547Z</time></trkpt><trkpt lat="46.1396958" lon="9.4362015"><ele>198.99999999999997</ele><time>2026-04-20T09:04:04.547Z</time></trkpt><trkpt lat="46.1397268" lon="9.4361121"><ele>199.0</ele><time>2026-04-20T09:04:05.548Z</time></trkpt><trkpt lat="46.1397668" lon="9.4359801"><ele>199.39999999999998</ele><time>2026-04-20T09:04:07.548Z</time></trkpt><trkpt lat="46.1398163" lon="9.4358302"><ele>199.8</ele><time>2026-04-20T09:04:09.547Z</time></trkpt><trkpt lat="46.1398655" lon="9.4356844"><ele>200.2</ele><time>2026-04-20T09:04:11.547Z</time></trkpt><trkpt lat="46.1399125" lon="9.435527"><ele>200.60000000000002</ele><time>2026-04-20T09:04:13.548Z</time></trkpt><trkpt lat="46.1399348" lon="9.4354414"><ele>201.0</ele><time>2026-04-20T09:04:14.548Z</time></trkpt><trkpt lat="46.1399902" lon="9.4352805"><ele>201.0</ele><time>2026-04-20T09:04:16.547Z</time></trkpt><trkpt lat="46.1400386" lon="9.4351251"><ele>201.0</ele><time>2026-04-20T09:04:18.547Z</time></trkpt><trkpt lat="46.1400814" lon="9.4349725"><ele>201.0</ele><time>2026-04-20T09:04:20.548Z</time></trkpt><trkpt lat="46.1401247" lon="9.4348115"><ele>201.0</ele><time>2026-04-20T09:04:22.547Z</time></trkpt><trkpt lat="46.140168" lon="9.4346471"><ele>201.20000000000002</ele><time>2026-04-20T09:04:24.548Z</time></trkpt><trkpt lat="46.1402169" lon="9.4344904"><ele>201.4</ele><time>2026-04-20T09:04:26.547Z</time></trkpt><trkpt lat="46.1402706" lon="9.4343564"><ele>201.6</ele><time>2026-04-20T09:04:28.547Z</time></trkpt><trkpt lat="46.1403233" lon="9.4342242"><ele>201.8</ele><time>2026-04-20T09:04:30.546Z</time></trkpt><trkpt lat="46.1403995" lon="9.4341282"><ele>202.0</ele><time>2026-04-20T09:04:32.547Z</time></trkpt><trkpt lat="46.1405094" lon="9.4340907"><ele>202.0</ele><time>2026-04-20T09:04:34.547Z</time></trkpt><trkpt lat="46.1406117" lon="9.4340927"><ele>202.0</ele><time>2026-04-20T09:04:36.546Z</time></trkpt><trkpt lat="46.1407308" lon="9.434125"><ele>202.0</ele><time>2026-04-20T09:04:38.548Z</time></trkpt><trkpt lat="46.1408408" lon="9.4341458"><ele>202.0</ele><time>2026-04-20T09:04:40.547Z</time></trkpt><trkpt lat="46.1409598" lon="9.4341553"><ele>201.83333333333331</ele><time>2026-04-20T09:04:42.548Z</time></trkpt><trkpt lat="46.141077" lon="9.4341664"><ele>201.66666666666666</ele><time>2026-04-20T09:04:44.547Z</time></trkpt><trkpt lat="46.14114" lon="9.4341584"><ele>201.5</ele><time>2026-04-20T09:04:45.548Z</time></trkpt><trkpt lat="46.1412567" lon="9.4341615"><ele>201.33333333333331</ele><time>2026-04-20T09:04:47.547Z</time></trkpt><trkpt lat="46.141325" lon="9.4341526"><ele>201.16666666666666</ele><time>2026-04-20T09:04:48.547Z</time></trkpt><trkpt lat="46.1413882" lon="9.4341505"><ele>201.0</ele><time>2026-04-20T09:04:49.547Z</time></trkpt><trkpt lat="46.1414976" lon="9.4341412"><ele>201.0</ele><time>2026-04-20T09:04:51.547Z</time></trkpt><trkpt lat="46.1415602" lon="9.4341514"><ele>201.0</ele><time>2026-04-20T09:04:52.547Z</time></trkpt><trkpt lat="46.1416771" lon="9.4341607"><ele>201.0</ele><time>2026-04-20T09:04:54.547Z</time></trkpt><trkpt lat="46.14179" lon="9.4341522"><ele>201.0</ele><time>2026-04-20T09:04:56.548Z</time></trkpt><trkpt lat="46.1419072" lon="9.4341584"><ele>201.0</ele><time>2026-04-20T09:04:58.548Z</time></trkpt><trkpt lat="46.1420147" lon="9.4341679"><ele>201.0</ele><time>2026-04-20T09:05:00.548Z</time></trkpt><trkpt lat="46.1421172" lon="9.4341779"><ele>201.0</ele><time>2026-04-20T09:05:02.547Z</time></trkpt><trkpt lat="46.1422328" lon="9.4341909"><ele>201.0</ele><time>2026-04-20T09:05:04.548Z</time></trkpt><trkpt lat="46.142353" lon="9.4342304"><ele>201.0</ele><time>2026-04-20T09:05:06.547Z</time></trkpt><trkpt lat="46.1424534" lon="9.4342066"><ele>201.0</ele><time>2026-04-20T09:05:08.547Z</time></trkpt><trkpt lat="46.1425567" lon="9.4341495"><ele>201.0</ele><time>2026-04-20T09:05:10.547Z</time></trkpt><trkpt lat="46.1426058" lon="9.4339924"><ele>201.0</ele><time>2026-04-20T09:05:12.548Z</time></trkpt><trkpt lat="46.1426533" lon="9.4338311"><ele>201.0</ele><time>2026-04-20T09:05:14.548Z</time></trkpt><trkpt lat="46.1426985" lon="9.4336815"><ele>201.0</ele><time>2026-04-20T09:05:16.549Z</time></trkpt><trkpt lat="46.1427413" lon="9.4335388"><ele>201.20000000000002</ele><time>2026-04-20T09:05:18.547Z</time></trkpt><trkpt lat="46.1427887" lon="9.4334073"><ele>201.4</ele><time>2026-04-20T09:05:20.547Z</time></trkpt><trkpt lat="46.1428388" lon="9.4332651"><ele>201.6</ele><time>2026-04-20T09:05:22.547Z</time></trkpt><trkpt lat="46.1428861" lon="9.4331141"><ele>201.8</ele><time>2026-04-20T09:05:24.547Z</time></trkpt><trkpt lat="46.1429308" lon="9.4329552"><ele>202.0</ele><time>2026-04-20T09:05:26.549Z</time></trkpt><trkpt lat="46.1429787" lon="9.4328011"><ele>201.5</ele><time>2026-04-20T09:05:28.548Z</time></trkpt><trkpt lat="46.1430121" lon="9.4326466"><ele>201.0</ele><time>2026-04-20T09:05:30.549Z</time></trkpt><trkpt lat="46.1430566" lon="9.4324944"><ele>200.5</ele><time>2026-04-20T09:05:32.546Z</time></trkpt><trkpt lat="46.1431059" lon="9.4323417"><ele>200.0</ele><time>2026-04-20T09:05:34.547Z</time></trkpt><trkpt lat="46.1431475" lon="9.432194"><ele>200.0</ele><time>2026-04-20T09:05:36.548Z</time></trkpt><trkpt lat="46.1431958" lon="9.4320389"><ele>200.0</ele><time>2026-04-20T09:05:38.547Z</time></trkpt><trkpt lat="46.1432556" lon="9.4318801"><ele>200.0</ele><time>2026-04-20T09:05:40.548Z</time></trkpt><trkpt lat="46.143283" lon="9.4317943"><ele>200.0</ele><time>2026-04-20T09:05:41.547Z</time></trkpt><trkpt lat="46.1433317" lon="9.4316336"><ele>200.0</ele><time>2026-04-20T09:05:43.547Z</time></trkpt><trkpt lat="46.1433923" lon="9.4314878"><ele>200.0</ele><time>2026-04-20T09:05:45.548Z</time></trkpt><trkpt lat="46.1434496" lon="9.4313425"><ele>200.0</ele><time>2026-04-20T09:05:47.547Z</time></trkpt><trkpt lat="46.1435117" lon="9.4311849"><ele>200.0</ele><time>2026-04-20T09:05:49.547Z</time></trkpt><trkpt lat="46.1435654" lon="9.431034"><ele>200.0</ele><time>2026-04-20T09:05:51.549Z</time></trkpt><trkpt lat="46.1436189" lon="9.4308831"><ele>200.25</ele><time>2026-04-20T09:05:53.547Z</time></trkpt><trkpt lat="46.1436767" lon="9.4307269"><ele>200.5</ele><time>2026-04-20T09:05:55.548Z</time></trkpt><trkpt lat="46.1437377" lon="9.430585"><ele>200.75</ele><time>2026-04-20T09:05:57.548Z</time></trkpt><trkpt lat="46.1437938" lon="9.4304353"><ele>201.0</ele><time>2026-04-20T09:05:59.549Z</time></trkpt><trkpt lat="46.1438528" lon="9.4302938"><ele>201.0</ele><time>2026-04-20T09:06:01.548Z</time></trkpt><trkpt lat="46.1439077" lon="9.4301276"><ele>201.0</ele><time>2026-04-20T09:06:03.548Z</time></trkpt><trkpt lat="46.1439642" lon="9.4299723"><ele>201.0</ele><time>2026-04-20T09:06:05.548Z</time></trkpt><trkpt lat="46.1440232" lon="9.4298269"><ele>201.0</ele><time>2026-04-20T09:06:07.547Z</time></trkpt><trkpt lat="46.1440897" lon="9.4296944"><ele>200.8</ele><time>2026-04-20T09:06:09.547Z</time></trkpt><trkpt lat="46.1441464" lon="9.4295393"><ele>200.60000000000002</ele><time>2026-04-20T09:06:11.549Z</time></trkpt><trkpt lat="46.1442089" lon="9.4294059"><ele>200.4</ele><time>2026-04-20T09:06:13.547Z</time></trkpt><trkpt lat="46.1442526" lon="9.4292688"><ele>200.2</ele><time>2026-04-20T09:06:15.548Z</time></trkpt><trkpt lat="46.1443012" lon="9.429145"><ele>200.0</ele><time>2026-04-20T09:06:17.548Z</time></trkpt><trkpt lat="46.1443485" lon="9.4290136"><ele>200.0</ele><time>2026-04-20T09:06:19.548Z</time></trkpt><trkpt lat="46.1444025" lon="9.4288946"><ele>200.0</ele><time>2026-04-20T09:06:21.548Z</time></trkpt><trkpt lat="46.1444598" lon="9.4287591"><ele>200.0</ele><time>2026-04-20T09:06:23.547Z</time></trkpt><trkpt lat="46.1445072" lon="9.4286156"><ele>200.0</ele><time>2026-04-20T09:06:25.547Z</time></trkpt><trkpt lat="46.1445634" lon="9.428474"><ele>200.0</ele><time>2026-04-20T09:06:27.548Z</time></trkpt><trkpt lat="46.1446062" lon="9.4283308"><ele>200.25</ele><time>2026-04-20T09:06:29.548Z</time></trkpt><trkpt lat="46.1446644" lon="9.4281913"><ele>200.5</ele><time>2026-04-20T09:06:31.548Z</time></trkpt><trkpt lat="46.1447344" lon="9.42804"><ele>200.75</ele><time>2026-04-20T09:06:33.547Z</time></trkpt><trkpt lat="46.1447896" lon="9.4278945"><ele>201.0</ele><time>2026-04-20T09:06:35.548Z</time></trkpt><trkpt lat="46.1448519" lon="9.4277638"><ele>201.0</ele><time>2026-04-20T09:06:37.547Z</time></trkpt><trkpt lat="46.1449012" lon="9.4276271"><ele>201.0</ele><time>2026-04-20T09:06:39.549Z</time></trkpt><trkpt lat="46.1449365" lon="9.4274643"><ele>201.0</ele><time>2026-04-20T09:06:41.548Z</time></trkpt><trkpt lat="46.1449698" lon="9.4273109"><ele>201.0</ele><time>2026-04-20T09:06:43.548Z</time></trkpt><trkpt lat="46.1449533" lon="9.4271615"><ele>201.0</ele><time>2026-04-20T09:06:45.548Z</time></trkpt><trkpt lat="46.1448905" lon="9.42706"><ele>201.4</ele><time>2026-04-20T09:06:47.548Z</time></trkpt><trkpt lat="46.1448015" lon="9.4269988"><ele>201.8</ele><time>2026-04-20T09:06:49.548Z</time></trkpt><trkpt lat="46.1447422" lon="9.4268897"><ele>202.20000000000002</ele><time>2026-04-20T09:06:51.548Z</time></trkpt><trkpt lat="46.1447219" lon="9.4267559"><ele>202.60000000000002</ele><time>2026-04-20T09:06:53.548Z</time></trkpt><trkpt lat="46.1447115" lon="9.4266005"><ele>203.0</ele><time>2026-04-20T09:06:55.547Z</time></trkpt><trkpt lat="46.1446953" lon="9.4264392"><ele>203.5</ele><time>2026-04-20T09:06:57.547Z</time></trkpt><trkpt lat="46.1446317" lon="9.4262935"><ele>204.0</ele><time>2026-04-20T09:06:59.549Z</time></trkpt><trkpt lat="46.1445363" lon="9.4262358"><ele>204.5</ele><time>2026-04-20T09:07:01.547Z</time></trkpt><trkpt lat="46.1444176" lon="9.4262279"><ele>205.0</ele><time>2026-04-20T09:07:03.548Z</time></trkpt><trkpt lat="46.1443086" lon="9.426229"><ele>204.99999999999997</ele><time>2026-04-20T09:07:05.548Z</time></trkpt><trkpt lat="46.1442449" lon="9.4262359"><ele>205.0</ele><time>2026-04-20T09:07:06.547Z</time></trkpt><trkpt lat="46.1441814" lon="9.4262454"><ele>205.0</ele><time>2026-04-20T09:07:07.547Z</time></trkpt><trkpt lat="46.1440738" lon="9.4262694"><ele>205.0</ele><time>2026-04-20T09:07:09.548Z</time></trkpt><trkpt lat="46.1440095" lon="9.426274"><ele>204.99999999999997</ele><time>2026-04-20T09:07:10.548Z</time></trkpt><trkpt lat="46.1438979" lon="9.4262969"><ele>205.0</ele><time>2026-04-20T09:07:12.547Z</time></trkpt><trkpt lat="46.1437859" lon="9.4263199"><ele>204.6</ele><time>2026-04-20T09:07:14.548Z</time></trkpt><trkpt lat="46.1436787" lon="9.4263431"><ele>204.2</ele><time>2026-04-20T09:07:16.547Z</time></trkpt><trkpt lat="46.1435766" lon="9.426361"><ele>203.8</ele><time>2026-04-20T09:07:18.548Z</time></trkpt><trkpt lat="46.1434712" lon="9.4263847"><ele>203.4</ele><time>2026-04-20T09:07:20.549Z</time></trkpt><trkpt lat="46.1433592" lon="9.4263947"><ele>203.0</ele><time>2026-04-20T09:07:22.547Z</time></trkpt><trkpt lat="46.1432452" lon="9.4264122"><ele>203.0</ele><time>2026-04-20T09:07:24.547Z</time></trkpt><trkpt lat="46.1431378" lon="9.4264396"><ele>203.0</ele><time>2026-04-20T09:07:26.547Z</time></trkpt><trkpt lat="46.1430209" lon="9.4264387"><ele>203.0</ele><time>2026-04-20T09:07:28.547Z</time></trkpt><trkpt lat="46.1429041" lon="9.4264164"><ele>203.0</ele><time>2026-04-20T09:07:30.548Z</time></trkpt><trkpt lat="46.1427872" lon="9.4263849"><ele>203.00000000000003</ele><time>2026-04-20T09:07:32.547Z</time></trkpt><trkpt lat="46.1426704" lon="9.4263673"><ele>203.0</ele><time>2026-04-20T09:07:34.547Z</time></trkpt><trkpt lat="46.1425707" lon="9.4263444"><ele>203.0</ele><time>2026-04-20T09:07:36.547Z</time></trkpt><trkpt lat="46.1425021" lon="9.4263061"><ele>203.0</ele><time>2026-04-20T09:07:38.547Z</time></trkpt><trkpt lat="46.1424561" lon="9.4262276"><ele>203.00000000000003</ele><time>2026-04-20T09:07:41.548Z</time></trkpt><trkpt lat="46.1424761" lon="9.4261256"><ele>203.0</ele><time>2026-04-20T09:07:43.548Z</time></trkpt><trkpt lat="46.142515" lon="9.4260081"><ele>202.66666666666669</ele><time>2026-04-20T09:07:45.548Z</time></trkpt><trkpt lat="46.1425517" lon="9.425908"><ele>202.33333333333334</ele><time>2026-04-20T09:07:47.548Z</time></trkpt><trkpt lat="46.1425849" lon="9.4257945"><ele>202.0</ele><time>2026-04-20T09:07:49.547Z</time></trkpt><trkpt lat="46.1426131" lon="9.425683"><ele>201.66666666666669</ele><time>2026-04-20T09:07:51.547Z</time></trkpt><trkpt lat="46.1426352" lon="9.4255811"><ele>201.33333333333334</ele><time>2026-04-20T09:07:53.548Z</time></trkpt><trkpt lat="46.1426774" lon="9.4254639"><ele>201.0</ele><time>2026-04-20T09:07:56.547Z</time></trkpt><trkpt lat="46.1427059" lon="9.4253511"><ele>200.8</ele><time>2026-04-20T09:07:58.547Z</time></trkpt><trkpt lat="46.1427312" lon="9.4252353"><ele>200.60000000000002</ele><time>2026-04-20T09:08:00.547Z</time></trkpt><trkpt lat="46.1427603" lon="9.4251029"><ele>200.4</ele><time>2026-04-20T09:08:02.548Z</time></trkpt><trkpt lat="46.1427927" lon="9.4249758"><ele>200.2</ele><time>2026-04-20T09:08:04.549Z</time></trkpt><trkpt lat="46.1428289" lon="9.4248461"><ele>200.0</ele><time>2026-04-20T09:08:06.549Z</time></trkpt><trkpt lat="46.1428601" lon="9.4247043"><ele>200.0</ele><time>2026-04-20T09:08:08.548Z</time></trkpt><trkpt lat="46.1429051" lon="9.4245676"><ele>200.0</ele><time>2026-04-20T09:08:10.548Z</time></trkpt><trkpt lat="46.1429506" lon="9.4244473"><ele>200.0</ele><time>2026-04-20T09:08:12.548Z</time></trkpt><trkpt lat="46.1429895" lon="9.4243281"><ele>200.0</ele><time>2026-04-20T09:08:14.549Z</time></trkpt><trkpt lat="46.143023" lon="9.4241919"><ele>200.0</ele><time>2026-04-20T09:08:16.548Z</time></trkpt><trkpt lat="46.1430605" lon="9.4240661"><ele>200.0</ele><time>2026-04-20T09:08:18.547Z</time></trkpt><trkpt lat="46.1430914" lon="9.4239668"><ele>200.0</ele><time>2026-04-20T09:08:20.548Z</time></trkpt><trkpt lat="46.1431287" lon="9.4238438"><ele>200.0</ele><time>2026-04-20T09:08:22.547Z</time></trkpt><trkpt lat="46.143171" lon="9.4237223"><ele>200.0</ele><time>2026-04-20T09:08:24.548Z</time></trkpt><trkpt lat="46.1432089" lon="9.4235963"><ele>200.0</ele><time>2026-04-20T09:08:26.548Z</time></trkpt><trkpt lat="46.1432475" lon="9.423474"><ele>200.2</ele><time>2026-04-20T09:08:28.547Z</time></trkpt><trkpt lat="46.1432888" lon="9.4233424"><ele>200.4</ele><time>2026-04-20T09:08:30.547Z</time></trkpt><trkpt lat="46.1433299" lon="9.4232257"><ele>200.60000000000002</ele><time>2026-04-20T09:08:32.548Z</time></trkpt><trkpt lat="46.1433674" lon="9.4231011"><ele>200.8</ele><time>2026-04-20T09:08:34.549Z</time></trkpt><trkpt lat="46.1434092" lon="9.4229757"><ele>201.0</ele><time>2026-04-20T09:08:36.548Z</time></trkpt><trkpt lat="46.1434478" lon="9.4228516"><ele>201.20000000000002</ele><time>2026-04-20T09:08:38.548Z</time></trkpt><trkpt lat="46.1434848" lon="9.4227116"><ele>201.4</ele><time>2026-04-20T09:08:40.548Z</time></trkpt><trkpt lat="46.1435172" lon="9.4225528"><ele>201.6</ele><time>2026-04-20T09:08:42.548Z</time></trkpt><trkpt lat="46.1435473" lon="9.4224339"><ele>201.8</ele><time>2026-04-20T09:08:44.547Z</time></trkpt><trkpt lat="46.1435758" lon="9.4223191"><ele>202.0</ele><time>2026-04-20T09:08:46.548Z</time></trkpt><trkpt lat="46.1436138" lon="9.4222087"><ele>202.33333333333331</ele><time>2026-04-20T09:08:48.547Z</time></trkpt><trkpt lat="46.1436433" lon="9.4220878"><ele>202.66666666666666</ele><time>2026-04-20T09:08:50.547Z</time></trkpt><trkpt lat="46.143659" lon="9.4219905"><ele>203.0</ele><time>2026-04-20T09:08:52.547Z</time></trkpt><trkpt lat="46.143678" lon="9.4218787"><ele>203.33333333333331</ele><time>2026-04-20T09:08:55.547Z</time></trkpt><trkpt lat="46.1437249" lon="9.4217495"><ele>203.66666666666666</ele><time>2026-04-20T09:08:58.547Z</time></trkpt><trkpt lat="46.1437526" lon="9.4216453"><ele>204.0</ele><time>2026-04-20T09:09:00.547Z</time></trkpt><trkpt lat="46.1437865" lon="9.421534"><ele>204.0</ele><time>2026-04-20T09:09:02.548Z</time></trkpt><trkpt lat="46.1438278" lon="9.4214181"><ele>204.0</ele><time>2026-04-20T09:09:04.549Z</time></trkpt><trkpt lat="46.1438644" lon="9.421313"><ele>204.0</ele><time>2026-04-20T09:09:06.548Z</time></trkpt><trkpt lat="46.1438875" lon="9.4211936"><ele>204.0</ele><time>2026-04-20T09:09:08.548Z</time></trkpt><trkpt lat="46.1439235" lon="9.4210761"><ele>204.0</ele><time>2026-04-20T09:09:10.547Z</time></trkpt><trkpt lat="46.1439542" lon="9.4209457"><ele>204.0</ele><time>2026-04-20T09:09:12.547Z</time></trkpt><trkpt lat="46.1439937" lon="9.4208212"><ele>203.6</ele><time>2026-04-20T09:09:14.549Z</time></trkpt><trkpt lat="46.1440302" lon="9.420692"><ele>203.2</ele><time>2026-04-20T09:09:16.549Z</time></trkpt><trkpt lat="46.1440559" lon="9.4205607"><ele>202.79999999999998</ele><time>2026-04-20T09:09:18.548Z</time></trkpt><trkpt lat="46.1440891" lon="9.4204243"><ele>202.39999999999998</ele><time>2026-04-20T09:09:20.548Z</time></trkpt><trkpt lat="46.1441233" lon="9.4202862"><ele>202.0</ele><time>2026-04-20T09:09:22.547Z</time></trkpt><trkpt lat="46.1441202" lon="9.4201506"><ele>201.75</ele><time>2026-04-20T09:09:24.547Z</time></trkpt><trkpt lat="46.1441074" lon="9.4199836"><ele>201.5</ele><time>2026-04-20T09:09:26.549Z</time></trkpt><trkpt lat="46.1440861" lon="9.4197957"><ele>201.25</ele><time>2026-04-20T09:09:28.55Z</time></trkpt><trkpt lat="46.144079" lon="9.4196291"><ele>201.0</ele><time>2026-04-20T09:09:30.548Z</time></trkpt><trkpt lat="46.1440697" lon="9.4195022"><ele>201.0</ele><time>2026-04-20T09:09:32.547Z</time></trkpt><trkpt lat="46.1440499" lon="9.4193428"><ele>201.0</ele><time>2026-04-20T09:09:34.55Z</time></trkpt><trkpt lat="46.1440378" lon="9.419253"><ele>201.0</ele><time>2026-04-20T09:09:35.547Z</time></trkpt><trkpt lat="46.1440316" lon="9.4191194"><ele>201.0</ele><time>2026-04-20T09:09:37.549Z</time></trkpt><trkpt lat="46.1440253" lon="9.4189708"><ele>201.0</ele><time>2026-04-20T09:09:39.548Z</time></trkpt><trkpt lat="46.1440017" lon="9.4188261"><ele>200.60000000000002</ele><time>2026-04-20T09:09:41.549Z</time></trkpt><trkpt lat="46.1439667" lon="9.4186735"><ele>200.2</ele><time>2026-04-20T09:09:43.549Z</time></trkpt><trkpt lat="46.1438901" lon="9.4185745"><ele>199.8</ele><time>2026-04-20T09:09:45.548Z</time></trkpt><trkpt lat="46.1438121" lon="9.4184815"><ele>199.39999999999998</ele><time>2026-04-20T09:09:47.548Z</time></trkpt><trkpt lat="46.1437024" lon="9.4183989"><ele>199.0</ele><time>2026-04-20T09:09:49.548Z</time></trkpt><trkpt lat="46.14357" lon="9.4182439"><ele>199.0</ele><time>2026-04-20T09:09:52.547Z</time></trkpt><trkpt lat="46.1435328" lon="9.4180953"><ele>199.0</ele><time>2026-04-20T09:09:54.549Z</time></trkpt><trkpt lat="46.1435415" lon="9.4179386"><ele>199.0</ele><time>2026-04-20T09:09:56.548Z</time></trkpt><trkpt lat="46.1435486" lon="9.4177757"><ele>199.0</ele><time>2026-04-20T09:09:58.549Z</time></trkpt><trkpt lat="46.1435462" lon="9.4176839"><ele>199.0</ele><time>2026-04-20T09:09:59.548Z</time></trkpt><trkpt lat="46.1435375" lon="9.4175093"><ele>199.0</ele><time>2026-04-20T09:10:01.548Z</time></trkpt><trkpt lat="46.1435183" lon="9.4173527"><ele>199.0</ele><time>2026-04-20T09:10:03.548Z</time></trkpt><trkpt lat="46.1435005" lon="9.4171932"><ele>199.0</ele><time>2026-04-20T09:10:05.547Z</time></trkpt><trkpt lat="46.1434519" lon="9.4170557"><ele>199.0</ele><time>2026-04-20T09:10:07.549Z</time></trkpt><trkpt lat="46.1433741" lon="9.4169431"><ele>199.0</ele><time>2026-04-20T09:10:09.548Z</time></trkpt><trkpt lat="46.1432895" lon="9.4168544"><ele>199.0</ele><time>2026-04-20T09:10:11.548Z</time></trkpt><trkpt lat="46.1432165" lon="9.4167576"><ele>199.0</ele><time>2026-04-20T09:10:13.547Z</time></trkpt><trkpt lat="46.1431531" lon="9.4166514"><ele>199.0</ele><time>2026-04-20T09:10:15.548Z</time></trkpt><trkpt lat="46.1431354" lon="9.4165249"><ele>199.0</ele><time>2026-04-20T09:10:17.549Z</time></trkpt><trkpt lat="46.1431519" lon="9.4163966"><ele>199.0</ele><time>2026-04-20T09:10:19.549Z</time></trkpt><trkpt lat="46.1431988" lon="9.4162753"><ele>199.33333333333331</ele><time>2026-04-20T09:10:21.549Z</time></trkpt><trkpt lat="46.1432094" lon="9.4161838"><ele>199.66666666666666</ele><time>2026-04-20T09:10:23.547Z</time></trkpt><trkpt lat="46.1431826" lon="9.4160801"><ele>200.0</ele><time>2026-04-20T09:10:51.548Z</time></trkpt><trkpt lat="46.1431397" lon="9.4159943"><ele>200.33333333333331</ele><time>2026-04-20T09:10:55.549Z</time></trkpt><trkpt lat="46.1431003" lon="9.4158789"><ele>200.66666666666666</ele><time>2026-04-20T09:10:59.549Z</time></trkpt><trkpt lat="46.1430735" lon="9.4157785"><ele>201.0</ele><time>2026-04-20T09:11:01.549Z</time></trkpt><trkpt lat="46.1430618" lon="9.4156591"><ele>201.0</ele><time>2026-04-20T09:11:03.547Z</time></trkpt><trkpt lat="46.1430356" lon="9.4155416"><ele>201.0</ele><time>2026-04-20T09:11:05.547Z</time></trkpt><trkpt lat="46.1429706" lon="9.4154309"><ele>201.0</ele><time>2026-04-20T09:11:07.548Z</time></trkpt><trkpt lat="46.1428906" lon="9.4153536"><ele>201.0</ele><time>2026-04-20T09:11:09.549Z</time></trkpt><trkpt lat="46.1428026" lon="9.4153093"><ele>201.0</ele><time>2026-04-20T09:11:11.547Z</time></trkpt><trkpt lat="46.1427165" lon="9.4153021"><ele>201.0</ele><time>2026-04-20T09:11:13.548Z</time></trkpt><trkpt lat="46.1426353" lon="9.4153523"><ele>201.0</ele><time>2026-04-20T09:11:15.549Z</time></trkpt><trkpt lat="46.1425626" lon="9.4154425"><ele>201.0</ele><time>2026-04-20T09:11:17.548Z</time></trkpt><trkpt lat="46.142494" lon="9.4155593"><ele>201.0</ele><time>2026-04-20T09:11:19.548Z</time></trkpt><trkpt lat="46.1424751" lon="9.4157222"><ele>201.0</ele><time>2026-04-20T09:11:21.547Z</time></trkpt><trkpt lat="46.142454" lon="9.4158721"><ele>201.0</ele><time>2026-04-20T09:11:23.549Z</time></trkpt><trkpt lat="46.1423744" lon="9.4159905"><ele>201.0</ele><time>2026-04-20T09:11:25.549Z</time></trkpt><trkpt lat="46.1423212" lon="9.4160422"><ele>201.0</ele><time>2026-04-20T09:11:26.547Z</time></trkpt><trkpt lat="46.1422608" lon="9.4160914"><ele>201.0</ele><time>2026-04-20T09:11:27.549Z</time></trkpt><trkpt lat="46.1422064" lon="9.4161411"><ele>201.0</ele><time>2026-04-20T09:11:28.547Z</time></trkpt><trkpt lat="46.1420884" lon="9.4162033"><ele>201.0</ele><time>2026-04-20T09:11:30.549Z</time></trkpt><trkpt lat="46.1419678" lon="9.4161984"><ele>201.0</ele><time>2026-04-20T09:11:32.547Z</time></trkpt><trkpt lat="46.141854" lon="9.4162251"><ele>201.0</ele><time>2026-04-20T09:11:34.549Z</time></trkpt><trkpt lat="46.1417409" lon="9.4164134"><ele>201.0</ele><time>2026-04-20T09:11:37.547Z</time></trkpt><trkpt lat="46.1417524" lon="9.4165854"><ele>201.0</ele><time>2026-04-20T09:11:39.548Z</time></trkpt><trkpt lat="46.1417805" lon="9.4167591"><ele>201.16666666666666</ele><time>2026-04-20T09:11:41.549Z</time></trkpt><trkpt lat="46.1418028" lon="9.4168616"><ele>201.33333333333331</ele><time>2026-04-20T09:11:42.547Z</time></trkpt><trkpt lat="46.1418124" lon="9.4170482"><ele>201.5</ele><time>2026-04-20T09:11:44.548Z</time></trkpt><trkpt lat="46.141802" lon="9.4171504"><ele>201.66666666666666</ele><time>2026-04-20T09:11:45.549Z</time></trkpt><trkpt lat="46.1417916" lon="9.4172468"><ele>201.83333333333331</ele><time>2026-04-20T09:11:46.547Z</time></trkpt><trkpt lat="46.1417793" lon="9.4173455"><ele>202.0</ele><time>2026-04-20T09:11:47.548Z</time></trkpt><trkpt lat="46.1417746" lon="9.4174504"><ele>202.2</ele><time>2026-04-20T09:11:48.549Z</time></trkpt><trkpt lat="46.1417692" lon="9.4175452"><ele>202.39999999999998</ele><time>2026-04-20T09:11:49.55Z</time></trkpt><trkpt lat="46.1417409" lon="9.4177133"><ele>202.60000000000002</ele><time>2026-04-20T09:11:51.548Z</time></trkpt><trkpt lat="46.1417043" lon="9.4178539"><ele>202.8</ele><time>2026-04-20T09:11:53.548Z</time></trkpt><trkpt lat="46.1416443" lon="9.4178996"><ele>203.0</ele><time>2026-04-20T09:11:54.549Z</time></trkpt><trkpt lat="46.1415331" lon="9.4179317"><ele>203.8</ele><time>2026-04-20T09:11:56.547Z</time></trkpt><trkpt lat="46.1414073" lon="9.4179478"><ele>204.60000000000002</ele><time>2026-04-20T09:11:58.549Z</time></trkpt><trkpt lat="46.141278" lon="9.4179543"><ele>205.39999999999998</ele><time>2026-04-20T09:12:00.55Z</time></trkpt><trkpt lat="46.1412084" lon="9.4179618"><ele>206.2</ele><time>2026-04-20T09:12:01.549Z</time></trkpt><trkpt lat="46.1410866" lon="9.4179652"><ele>207.0</ele><time>2026-04-20T09:12:03.548Z</time></trkpt><trkpt lat="46.1410154" lon="9.4179595"><ele>207.00000000000003</ele><time>2026-04-20T09:12:04.549Z</time></trkpt><trkpt lat="46.1409514" lon="9.4179655"><ele>207.0</ele><time>2026-04-20T09:12:05.548Z</time></trkpt><trkpt lat="46.1408848" lon="9.417975"><ele>207.0</ele><time>2026-04-20T09:12:06.547Z</time></trkpt><trkpt lat="46.1408142" lon="9.4179507"><ele>207.0</ele><time>2026-04-20T09:12:07.549Z</time></trkpt><trkpt lat="46.1407434" lon="9.4179636"><ele>207.0</ele><time>2026-04-20T09:12:08.549Z</time></trkpt><trkpt lat="46.1406784" lon="9.4179782"><ele>207.00000000000003</ele><time>2026-04-20T09:12:09.549Z</time></trkpt><trkpt lat="46.1406132" lon="9.4179839"><ele>207.0</ele><time>2026-04-20T09:12:10.549Z</time></trkpt><trkpt lat="46.1405467" lon="9.4179915"><ele>206.8</ele><time>2026-04-20T09:12:11.547Z</time></trkpt><trkpt lat="46.1404294" lon="9.4179795"><ele>206.6</ele><time>2026-04-20T09:12:13.548Z</time></trkpt><trkpt lat="46.1402988" lon="9.4179752"><ele>206.4</ele><time>2026-04-20T09:12:15.549Z</time></trkpt><trkpt lat="46.1401721" lon="9.4179837"><ele>206.20000000000002</ele><time>2026-04-20T09:12:17.548Z</time></trkpt><trkpt lat="46.1401064" lon="9.4179858"><ele>206.0</ele><time>2026-04-20T09:12:18.549Z</time></trkpt><trkpt lat="46.1400097" lon="9.4179832"><ele>206.0</ele><time>2026-04-20T09:12:20.548Z</time></trkpt><trkpt lat="46.1399138" lon="9.4179186"><ele>206.0</ele><time>2026-04-20T09:12:22.547Z</time></trkpt><trkpt lat="46.1398156" lon="9.4178527"><ele>206.0</ele><time>2026-04-20T09:12:24.549Z</time></trkpt><trkpt lat="46.1397105" lon="9.4178015"><ele>206.0</ele><time>2026-04-20T09:12:26.549Z</time></trkpt><trkpt lat="46.1395835" lon="9.417792"><ele>205.60000000000002</ele><time>2026-04-20T09:12:28.548Z</time></trkpt><trkpt lat="46.139474" lon="9.4178058"><ele>205.2</ele><time>2026-04-20T09:12:30.549Z</time></trkpt><trkpt lat="46.1394109" lon="9.4178228"><ele>204.8</ele><time>2026-04-20T09:12:31.548Z</time></trkpt><trkpt lat="46.1392766" lon="9.4178368"><ele>204.39999999999998</ele><time>2026-04-20T09:12:33.549Z</time></trkpt><trkpt lat="46.1392132" lon="9.4178472"><ele>204.0</ele><time>2026-04-20T09:12:34.548Z</time></trkpt><trkpt lat="46.1390824" lon="9.4178557"><ele>206.75</ele><time>2026-04-20T09:12:36.549Z</time></trkpt><trkpt lat="46.1389594" lon="9.4178631"><ele>209.5</ele><time>2026-04-20T09:12:38.549Z</time></trkpt><trkpt lat="46.138844" lon="9.4178618"><ele>212.25</ele><time>2026-04-20T09:12:40.549Z</time></trkpt><trkpt lat="46.1387323" lon="9.4178692"><ele>215.0</ele><time>2026-04-20T09:12:42.548Z</time></trkpt><trkpt lat="46.1386228" lon="9.4178865"><ele>215.0</ele><time>2026-04-20T09:12:44.55Z</time></trkpt><trkpt lat="46.1385215" lon="9.4178859"><ele>215.0</ele><time>2026-04-20T09:12:46.549Z</time></trkpt><trkpt lat="46.138471" lon="9.4177694"><ele>215.0</ele><time>2026-04-20T09:12:48.549Z</time></trkpt><trkpt lat="46.1384561" lon="9.4176281"><ele>215.0</ele><time>2026-04-20T09:12:50.548Z</time></trkpt><trkpt lat="46.1384354" lon="9.4174886"><ele>215.0</ele><time>2026-04-20T09:12:52.55Z</time></trkpt><trkpt lat="46.1383996" lon="9.417342"><ele>215.0</ele><time>2026-04-20T09:12:54.549Z</time></trkpt><trkpt lat="46.1383331" lon="9.4172196"><ele>215.0</ele><time>2026-04-20T09:12:56.548Z</time></trkpt><trkpt lat="46.1382758" lon="9.4170921"><ele>215.0</ele><time>2026-04-20T09:12:58.549Z</time></trkpt><trkpt lat="46.1382372" lon="9.4169722"><ele>215.0</ele><time>2026-04-20T09:13:00.549Z</time></trkpt><trkpt lat="46.1381809" lon="9.4168456"><ele>215.0</ele><time>2026-04-20T09:13:02.549Z</time></trkpt><trkpt lat="46.1381252" lon="9.4167211"><ele>216.75</ele><time>2026-04-20T09:13:04.547Z</time></trkpt><trkpt lat="46.138066" lon="9.4165904"><ele>218.5</ele><time>2026-04-20T09:13:06.55Z</time></trkpt><trkpt lat="46.1380149" lon="9.4164474"><ele>220.25</ele><time>2026-04-20T09:13:08.548Z</time></trkpt><trkpt lat="46.137944" lon="9.4163113"><ele>222.0</ele><time>2026-04-20T09:13:10.548Z</time></trkpt><trkpt lat="46.1378853" lon="9.4161737"><ele>222.0</ele><time>2026-04-20T09:13:12.549Z</time></trkpt><trkpt lat="46.1378257" lon="9.4160301"><ele>222.0</ele><time>2026-04-20T09:13:14.549Z</time></trkpt><trkpt lat="46.1377618" lon="9.4158792"><ele>222.0</ele><time>2026-04-20T09:13:16.549Z</time></trkpt><trkpt lat="46.1377084" lon="9.4157288"><ele>222.0</ele><time>2026-04-20T09:13:18.547Z</time></trkpt><trkpt lat="46.137659" lon="9.4155864"><ele>218.5</ele><time>2026-04-20T09:13:20.548Z</time></trkpt><trkpt lat="46.1376007" lon="9.4154381"><ele>215.0</ele><time>2026-04-20T09:13:22.547Z</time></trkpt><trkpt lat="46.1375567" lon="9.4152767"><ele>211.5</ele><time>2026-04-20T09:13:24.548Z</time></trkpt><trkpt lat="46.1374942" lon="9.4151316"><ele>208.0</ele><time>2026-04-20T09:13:26.549Z</time></trkpt><trkpt lat="46.1374479" lon="9.4149911"><ele>208.0</ele><time>2026-04-20T09:13:28.549Z</time></trkpt><trkpt lat="46.1373924" lon="9.414852"><ele>208.0</ele><time>2026-04-20T09:13:30.548Z</time></trkpt><trkpt lat="46.1373439" lon="9.4147464"><ele>208.0</ele><time>2026-04-20T09:13:32.548Z</time></trkpt><trkpt lat="46.1372798" lon="9.4146268"><ele>208.0</ele><time>2026-04-20T09:13:34.547Z</time></trkpt><trkpt lat="46.13723" lon="9.4144667"><ele>208.0</ele><time>2026-04-20T09:13:37.549Z</time></trkpt><trkpt lat="46.1371849" lon="9.4143361"><ele>211.2</ele><time>2026-04-20T09:13:39.549Z</time></trkpt><trkpt lat="46.1371518" lon="9.4142034"><ele>214.4</ele><time>2026-04-20T09:13:41.548Z</time></trkpt><trkpt lat="46.1371043" lon="9.4140651"><ele>217.59999999999997</ele><time>2026-04-20T09:13:43.549Z</time></trkpt><trkpt lat="46.13705" lon="9.4139104"><ele>220.79999999999998</ele><time>2026-04-20T09:13:45.548Z</time></trkpt><trkpt lat="46.1370113" lon="9.4137683"><ele>224.0</ele><time>2026-04-20T09:13:47.547Z</time></trkpt><trkpt lat="46.1369814" lon="9.4136473"><ele>224.0</ele><time>2026-04-20T09:13:49.549Z</time></trkpt><trkpt lat="46.1369401" lon="9.4135207"><ele>223.99999999999997</ele><time>2026-04-20T09:13:51.548Z</time></trkpt><trkpt lat="46.1369161" lon="9.4133751"><ele>223.99999999999997</ele><time>2026-04-20T09:13:53.549Z</time></trkpt><trkpt lat="46.1368981" lon="9.4132363"><ele>224.0</ele><time>2026-04-20T09:13:55.549Z</time></trkpt><trkpt lat="46.1368763" lon="9.4130983"><ele>224.0</ele><time>2026-04-20T09:13:57.548Z</time></trkpt><trkpt lat="46.1368537" lon="9.4129613"><ele>222.50000000000003</ele><time>2026-04-20T09:13:59.549Z</time></trkpt><trkpt lat="46.1368314" lon="9.4128303"><ele>221.0</ele><time>2026-04-20T09:14:01.549Z</time></trkpt><trkpt lat="46.1367931" lon="9.4126984"><ele>219.5</ele><time>2026-04-20T09:14:03.549Z</time></trkpt><trkpt lat="46.1367914" lon="9.4125787"><ele>218.0</ele><time>2026-04-20T09:14:05.549Z</time></trkpt><trkpt lat="46.1367631" lon="9.4124419"><ele>216.50000000000003</ele><time>2026-04-20T09:14:07.548Z</time></trkpt><trkpt lat="46.1367581" lon="9.4123359"><ele>215.0</ele><time>2026-04-20T09:14:09.548Z</time></trkpt><trkpt lat="46.1367136" lon="9.412181"><ele>213.6</ele><time>2026-04-20T09:14:11.548Z</time></trkpt><trkpt lat="46.1366889" lon="9.4120783"><ele>212.2</ele><time>2026-04-20T09:14:13.548Z</time></trkpt><trkpt lat="46.1366636" lon="9.4119148"><ele>210.8</ele><time>2026-04-20T09:14:15.548Z</time></trkpt><trkpt lat="46.136632" lon="9.4118334"><ele>209.4</ele><time>2026-04-20T09:14:16.548Z</time></trkpt><trkpt lat="46.1366111" lon="9.4116675"><ele>208.0</ele><time>2026-04-20T09:14:19.549Z</time></trkpt><trkpt lat="46.1366004" lon="9.4115397"><ele>207.99999999999997</ele><time>2026-04-20T09:14:21.549Z</time></trkpt><trkpt lat="46.136561" lon="9.4114493"><ele>208.0</ele><time>2026-04-20T09:14:22.549Z</time></trkpt><trkpt lat="46.1365533" lon="9.4113447"><ele>208.0</ele><time>2026-04-20T09:14:24.549Z</time></trkpt><trkpt lat="46.1365306" lon="9.4112203"><ele>208.0</ele><time>2026-04-20T09:14:26.549Z</time></trkpt><trkpt lat="46.1364989" lon="9.4111204"><ele>207.99999999999997</ele><time>2026-04-20T09:14:28.549Z</time></trkpt><trkpt lat="46.1364574" lon="9.4110253"><ele>208.0</ele><time>2026-04-20T09:14:29.55Z</time></trkpt><trkpt lat="46.1364434" lon="9.4109271"><ele>210.0</ele><time>2026-04-20T09:14:30.548Z</time></trkpt><trkpt lat="46.1364342" lon="9.4108318"><ele>212.0</ele><time>2026-04-20T09:14:31.548Z</time></trkpt><trkpt lat="46.1363934" lon="9.4106507"><ele>214.0</ele><time>2026-04-20T09:14:33.548Z</time></trkpt><trkpt lat="46.1363797" lon="9.4105605"><ele>216.0</ele><time>2026-04-20T09:14:34.549Z</time></trkpt><trkpt lat="46.1363543" lon="9.4103817"><ele>218.0</ele><time>2026-04-20T09:14:36.548Z</time></trkpt><trkpt lat="46.1363301" lon="9.4102772"><ele>218.0</ele><time>2026-04-20T09:14:37.549Z</time></trkpt><trkpt lat="46.1362957" lon="9.4101074"><ele>218.0</ele><time>2026-04-20T09:14:39.549Z</time></trkpt><trkpt lat="46.1362693" lon="9.4099769"><ele>218.0</ele><time>2026-04-20T09:14:41.548Z</time></trkpt><trkpt lat="46.1362628" lon="9.4098819"><ele>218.0</ele><time>2026-04-20T09:14:42.55Z</time></trkpt><trkpt lat="46.1362382" lon="9.4097225"><ele>218.0</ele><time>2026-04-20T09:14:44.548Z</time></trkpt><trkpt lat="46.1362368" lon="9.4095462"><ele>216.60000000000002</ele><time>2026-04-20T09:14:46.548Z</time></trkpt><trkpt lat="46.1362243" lon="9.4094192"><ele>215.20000000000002</ele><time>2026-04-20T09:14:48.549Z</time></trkpt><trkpt lat="46.1362163" lon="9.4093285"><ele>213.8</ele><time>2026-04-20T09:14:49.549Z</time></trkpt><trkpt lat="46.1362361" lon="9.4091428"><ele>212.4</ele><time>2026-04-20T09:14:51.548Z</time></trkpt><trkpt lat="46.1362546" lon="9.4089715"><ele>211.0</ele><time>2026-04-20T09:14:53.548Z</time></trkpt><trkpt lat="46.1362849" lon="9.4088915"><ele>210.8</ele><time>2026-04-20T09:14:54.549Z</time></trkpt><trkpt lat="46.136317" lon="9.4088048"><ele>210.60000000000002</ele><time>2026-04-20T09:14:55.548Z</time></trkpt><trkpt lat="46.1363594" lon="9.4086496"><ele>210.4</ele><time>2026-04-20T09:14:57.549Z</time></trkpt><trkpt lat="46.1364037" lon="9.4085001"><ele>210.2</ele><time>2026-04-20T09:14:59.549Z</time></trkpt><trkpt lat="46.1364054" lon="9.4083544"><ele>210.0</ele><time>2026-04-20T09:15:01.548Z</time></trkpt><trkpt lat="46.136454" lon="9.4082077"><ele>210.0</ele><time>2026-04-20T09:15:03.548Z</time></trkpt><trkpt lat="46.1364921" lon="9.4080633"><ele>210.0</ele><time>2026-04-20T09:15:05.549Z</time></trkpt><trkpt lat="46.1365176" lon="9.4079109"><ele>210.0</ele><time>2026-04-20T09:15:07.548Z</time></trkpt><trkpt lat="46.1365836" lon="9.4077559"><ele>210.0</ele><time>2026-04-20T09:15:09.549Z</time></trkpt><trkpt lat="46.1366241" lon="9.4076094"><ele>210.0</ele><time>2026-04-20T09:15:11.549Z</time></trkpt><trkpt lat="46.1366573" lon="9.4074696"><ele>210.0</ele><time>2026-04-20T09:15:13.55Z</time></trkpt><trkpt lat="46.1367019" lon="9.4073206"><ele>210.0</ele><time>2026-04-20T09:15:15.549Z</time></trkpt><trkpt lat="46.1367388" lon="9.407178"><ele>210.0</ele><time>2026-04-20T09:15:17.549Z</time></trkpt><trkpt lat="46.136843" lon="9.4068284"><ele>210.4</ele><time>2026-04-20T09:15:22.548Z</time></trkpt><trkpt lat="46.136874" lon="9.4066982"><ele>210.8</ele><time>2026-04-20T09:15:24.548Z</time></trkpt><trkpt lat="46.1368935" lon="9.4065772"><ele>211.2</ele><time>2026-04-20T09:15:26.548Z</time></trkpt><trkpt lat="46.13692" lon="9.406459"><ele>211.6</ele><time>2026-04-20T09:15:28.548Z</time></trkpt><trkpt lat="46.1369588" lon="9.4063368"><ele>212.0</ele><time>2026-04-20T09:15:30.549Z</time></trkpt><trkpt lat="46.1369918" lon="9.4062117"><ele>212.0</ele><time>2026-04-20T09:15:32.549Z</time></trkpt><trkpt lat="46.1370382" lon="9.4060968"><ele>212.0</ele><time>2026-04-20T09:15:34.548Z</time></trkpt><trkpt lat="46.1370622" lon="9.405948"><ele>212.0</ele><time>2026-04-20T09:15:36.549Z</time></trkpt><trkpt lat="46.1370866" lon="9.4057964"><ele>212.0</ele><time>2026-04-20T09:15:38.549Z</time></trkpt><trkpt lat="46.1371166" lon="9.4056727"><ele>212.0</ele><time>2026-04-20T09:15:40.549Z</time></trkpt><trkpt lat="46.1371534" lon="9.4055244"><ele>212.2</ele><time>2026-04-20T09:15:42.548Z</time></trkpt><trkpt lat="46.1371934" lon="9.4053777"><ele>212.39999999999998</ele><time>2026-04-20T09:15:44.549Z</time></trkpt><trkpt lat="46.1372279" lon="9.4052382"><ele>212.60000000000002</ele><time>2026-04-20T09:15:46.548Z</time></trkpt><trkpt lat="46.1372504" lon="9.4051101"><ele>212.8</ele><time>2026-04-20T09:15:48.55Z</time></trkpt><trkpt lat="46.1372808" lon="9.4049744"><ele>213.0</ele><time>2026-04-20T09:15:51.549Z</time></trkpt><trkpt lat="46.1373043" lon="9.4048574"><ele>213.0</ele><time>2026-04-20T09:15:53.55Z</time></trkpt><trkpt lat="46.1373331" lon="9.4047552"><ele>213.0</ele><time>2026-04-20T09:15:55.549Z</time></trkpt><trkpt lat="46.1373867" lon="9.4046109"><ele>213.0</ele><time>2026-04-20T09:15:57.549Z</time></trkpt><trkpt lat="46.1374151" lon="9.4044953"><ele>213.0</ele><time>2026-04-20T09:15:59.549Z</time></trkpt><trkpt lat="46.1374591" lon="9.4043796"><ele>213.0</ele><time>2026-04-20T09:16:00.549Z</time></trkpt><trkpt lat="46.1374839" lon="9.4042925"><ele>213.0</ele><time>2026-04-20T09:16:01.549Z</time></trkpt><trkpt lat="46.1374789" lon="9.4041997"><ele>213.0</ele><time>2026-04-20T09:16:03.549Z</time></trkpt><trkpt lat="46.1375068" lon="9.4040735"><ele>213.0</ele><time>2026-04-20T09:16:05.549Z</time></trkpt><trkpt lat="46.1375063" lon="9.4039175"><ele>213.0</ele><time>2026-04-20T09:16:07.549Z</time></trkpt><trkpt lat="46.1375426" lon="9.4037818"><ele>213.0</ele><time>2026-04-20T09:16:09.548Z</time></trkpt><trkpt lat="46.1375748" lon="9.4036395"><ele>213.0</ele><time>2026-04-20T09:16:11.548Z</time></trkpt><trkpt lat="46.1375945" lon="9.4035324"><ele>213.0</ele><time>2026-04-20T09:16:13.55Z</time></trkpt><trkpt lat="46.137616" lon="9.4034095"><ele>213.0</ele><time>2026-04-20T09:16:15.549Z</time></trkpt><trkpt lat="46.137638" lon="9.4032988"><ele>213.0</ele><time>2026-04-20T09:16:17.548Z</time></trkpt><trkpt lat="46.1376711" lon="9.4031568"><ele>213.0</ele><time>2026-04-20T09:16:19.55Z</time></trkpt><trkpt lat="46.1377066" lon="9.4030338"><ele>213.0</ele><time>2026-04-20T09:16:21.549Z</time></trkpt><trkpt lat="46.137738" lon="9.4029522"><ele>213.0</ele><time>2026-04-20T09:16:22.549Z</time></trkpt><trkpt lat="46.1377695" lon="9.402812"><ele>213.4</ele><time>2026-04-20T09:16:24.548Z</time></trkpt><trkpt lat="46.1378024" lon="9.4026673"><ele>213.8</ele><time>2026-04-20T09:16:26.548Z</time></trkpt><trkpt lat="46.1378414" lon="9.402537"><ele>214.2</ele><time>2026-04-20T09:16:28.549Z</time></trkpt><trkpt lat="46.1378756" lon="9.4023978"><ele>214.6</ele><time>2026-04-20T09:16:30.549Z</time></trkpt><trkpt lat="46.1379059" lon="9.4022734"><ele>215.0</ele><time>2026-04-20T09:16:32.548Z</time></trkpt><trkpt lat="46.1379318" lon="9.4021475"><ele>215.16666666666669</ele><time>2026-04-20T09:16:34.549Z</time></trkpt><trkpt lat="46.1379778" lon="9.402036"><ele>215.33333333333334</ele><time>2026-04-20T09:16:36.549Z</time></trkpt><trkpt lat="46.1380102" lon="9.4019306"><ele>215.5</ele><time>2026-04-20T09:16:38.548Z</time></trkpt><trkpt lat="46.1380338" lon="9.4018032"><ele>215.66666666666669</ele><time>2026-04-20T09:16:40.549Z</time></trkpt><trkpt lat="46.1380781" lon="9.4016956"><ele>215.83333333333334</ele><time>2026-04-20T09:16:42.549Z</time></trkpt><trkpt lat="46.1380916" lon="9.4016023"><ele>216.0</ele><time>2026-04-20T09:16:44.551Z</time></trkpt><trkpt lat="46.1381368" lon="9.4014815"><ele>216.4</ele><time>2026-04-20T09:16:46.549Z</time></trkpt><trkpt lat="46.1381745" lon="9.4013242"><ele>216.8</ele><time>2026-04-20T09:16:48.549Z</time></trkpt><trkpt lat="46.1382067" lon="9.4012099"><ele>217.20000000000002</ele><time>2026-04-20T09:16:50.549Z</time></trkpt><trkpt lat="46.1382159" lon="9.4010746"><ele>217.60000000000002</ele><time>2026-04-20T09:16:52.549Z</time></trkpt><trkpt lat="46.1382398" lon="9.4009557"><ele>218.0</ele><time>2026-04-20T09:16:54.55Z</time></trkpt><trkpt lat="46.1382656" lon="9.400854"><ele>217.33333333333334</ele><time>2026-04-20T09:16:56.548Z</time></trkpt><trkpt lat="46.1382911" lon="9.4007339"><ele>216.66666666666669</ele><time>2026-04-20T09:16:58.55Z</time></trkpt><trkpt lat="46.1383402" lon="9.4006016"><ele>216.0</ele><time>2026-04-20T09:17:00.549Z</time></trkpt><trkpt lat="46.1383616" lon="9.4004862"><ele>215.33333333333331</ele><time>2026-04-20T09:17:02.55Z</time></trkpt><trkpt lat="46.138388" lon="9.4004031"><ele>214.66666666666666</ele><time>2026-04-20T09:17:04.549Z</time></trkpt><trkpt lat="46.1384182" lon="9.4002792"><ele>214.0</ele><time>2026-04-20T09:17:06.549Z</time></trkpt><trkpt lat="46.1384433" lon="9.4001605"><ele>213.99999999999997</ele><time>2026-04-20T09:17:08.549Z</time></trkpt><trkpt lat="46.13848" lon="9.4000257"><ele>214.0</ele><time>2026-04-20T09:17:10.549Z</time></trkpt><trkpt lat="46.1384899" lon="9.3998909"><ele>214.0</ele><time>2026-04-20T09:17:12.548Z</time></trkpt><trkpt lat="46.1385144" lon="9.3997828"><ele>214.0</ele><time>2026-04-20T09:17:14.549Z</time></trkpt><trkpt lat="46.1385572" lon="9.3996417"><ele>213.99999999999997</ele><time>2026-04-20T09:17:16.55Z</time></trkpt><trkpt lat="46.1385861" lon="9.3995553"><ele>214.0</ele><time>2026-04-20T09:17:17.55Z</time></trkpt><trkpt lat="46.1386118" lon="9.3994293"><ele>214.6</ele><time>2026-04-20T09:17:19.549Z</time></trkpt><trkpt lat="46.1386422" lon="9.3992969"><ele>215.2</ele><time>2026-04-20T09:17:21.548Z</time></trkpt><trkpt lat="46.138674" lon="9.3991584"><ele>215.79999999999998</ele><time>2026-04-20T09:17:23.549Z</time></trkpt><trkpt lat="46.1387269" lon="9.3990128"><ele>216.39999999999998</ele><time>2026-04-20T09:17:25.548Z</time></trkpt><trkpt lat="46.1387344" lon="9.3988746"><ele>217.0</ele><time>2026-04-20T09:17:27.55Z</time></trkpt><trkpt lat="46.1387703" lon="9.3987549"><ele>217.2</ele><time>2026-04-20T09:17:29.55Z</time></trkpt><trkpt lat="46.138832" lon="9.3986217"><ele>217.39999999999998</ele><time>2026-04-20T09:17:31.549Z</time></trkpt><trkpt lat="46.1388541" lon="9.398509"><ele>217.60000000000002</ele><time>2026-04-20T09:17:33.548Z</time></trkpt><trkpt lat="46.1389053" lon="9.3983912"><ele>217.8</ele><time>2026-04-20T09:17:35.549Z</time></trkpt><trkpt lat="46.1389151" lon="9.3982825"><ele>218.0</ele><time>2026-04-20T09:17:37.551Z</time></trkpt><trkpt lat="46.1389514" lon="9.3981511"><ele>218.0</ele><time>2026-04-20T09:17:39.549Z</time></trkpt><trkpt lat="46.138984" lon="9.3980331"><ele>218.0</ele><time>2026-04-20T09:17:41.549Z</time></trkpt><trkpt lat="46.1390149" lon="9.3979121"><ele>218.0</ele><time>2026-04-20T09:17:43.549Z</time></trkpt><trkpt lat="46.1390436" lon="9.3977729"><ele>218.0</ele><time>2026-04-20T09:17:45.55Z</time></trkpt><trkpt lat="46.1390508" lon="9.3976626"><ele>218.0</ele><time>2026-04-20T09:17:47.549Z</time></trkpt><trkpt lat="46.1391333" lon="9.3975044"><ele>217.8</ele><time>2026-04-20T09:17:49.55Z</time></trkpt><trkpt lat="46.1391506" lon="9.3973781"><ele>217.60000000000002</ele><time>2026-04-20T09:17:51.551Z</time></trkpt><trkpt lat="46.1391866" lon="9.3972422"><ele>217.39999999999998</ele><time>2026-04-20T09:17:53.55Z</time></trkpt><trkpt lat="46.1392308" lon="9.3970907"><ele>217.2</ele><time>2026-04-20T09:17:55.55Z</time></trkpt><trkpt lat="46.1392831" lon="9.3969277"><ele>217.0</ele><time>2026-04-20T09:17:57.549Z</time></trkpt><trkpt lat="46.1393168" lon="9.3967719"><ele>217.0</ele><time>2026-04-20T09:17:59.549Z</time></trkpt><trkpt lat="46.1393355" lon="9.3966456"><ele>217.0</ele><time>2026-04-20T09:18:01.548Z</time></trkpt><trkpt lat="46.1393799" lon="9.3964935"><ele>217.0</ele><time>2026-04-20T09:18:03.55Z</time></trkpt><trkpt lat="46.1394221" lon="9.3963351"><ele>217.0</ele><time>2026-04-20T09:18:05.548Z</time></trkpt><trkpt lat="46.1394588" lon="9.3961968"><ele>217.0</ele><time>2026-04-20T09:18:07.55Z</time></trkpt><trkpt lat="46.1394935" lon="9.3960572"><ele>217.0</ele><time>2026-04-20T09:18:09.549Z</time></trkpt><trkpt lat="46.139516" lon="9.3959044"><ele>217.0</ele><time>2026-04-20T09:18:11.548Z</time></trkpt><trkpt lat="46.139559" lon="9.395759"><ele>217.0</ele><time>2026-04-20T09:18:13.549Z</time></trkpt><trkpt lat="46.1395829" lon="9.3956058"><ele>217.0</ele><time>2026-04-20T09:18:15.548Z</time></trkpt><trkpt lat="46.1396162" lon="9.3954711"><ele>217.0</ele><time>2026-04-20T09:18:17.549Z</time></trkpt><trkpt lat="46.1396653" lon="9.3953291"><ele>216.99999999999997</ele><time>2026-04-20T09:18:19.55Z</time></trkpt><trkpt lat="46.139714" lon="9.3951926"><ele>217.0</ele><time>2026-04-20T09:18:21.548Z</time></trkpt><trkpt lat="46.1397405" lon="9.3950652"><ele>217.0</ele><time>2026-04-20T09:18:23.549Z</time></trkpt><trkpt lat="46.1397575" lon="9.3949266"><ele>217.0</ele><time>2026-04-20T09:18:25.549Z</time></trkpt><trkpt lat="46.1397809" lon="9.3948143"><ele>216.99999999999997</ele><time>2026-04-20T09:18:27.549Z</time></trkpt><trkpt lat="46.1398105" lon="9.3947341"><ele>217.0</ele><time>2026-04-20T09:18:30.551Z</time></trkpt><trkpt lat="46.1398871" lon="9.394631"><ele>216.66666666666666</ele><time>2026-04-20T09:18:37.55Z</time></trkpt><trkpt lat="46.1399158" lon="9.3945434"><ele>216.33333333333331</ele><time>2026-04-20T09:18:40.55Z</time></trkpt><trkpt lat="46.1399712" lon="9.3944423"><ele>216.0</ele><time>2026-04-20T09:18:43.549Z</time></trkpt><trkpt lat="46.1400326" lon="9.3943697"><ele>215.66666666666669</ele><time>2026-04-20T09:18:46.549Z</time></trkpt><trkpt lat="46.1401364" lon="9.3943843"><ele>215.33333333333334</ele><time>2026-04-20T09:20:06.549Z</time></trkpt><trkpt lat="46.1401617" lon="9.394275"><ele>215.0</ele><time>2026-04-20T09:20:10.549Z</time></trkpt><trkpt lat="46.1401405" lon="9.3941381"><ele>215.00000000000003</ele><time>2026-04-20T09:20:13.549Z</time></trkpt><trkpt lat="46.1401195" lon="9.3939995"><ele>215.0</ele><time>2026-04-20T09:20:16.549Z</time></trkpt><trkpt lat="46.1401072" lon="9.3938892"><ele>215.0</ele><time>2026-04-20T09:20:18.55Z</time></trkpt><trkpt lat="46.1400995" lon="9.3937649"><ele>215.0</ele><time>2026-04-20T09:20:20.549Z</time></trkpt><trkpt lat="46.1400957" lon="9.3936349"><ele>215.00000000000003</ele><time>2026-04-20T09:20:22.55Z</time></trkpt><trkpt lat="46.1400934" lon="9.393504"><ele>215.0</ele><time>2026-04-20T09:20:24.55Z</time></trkpt><trkpt lat="46.1401058" lon="9.3933758"><ele>215.6</ele><time>2026-04-20T09:20:26.55Z</time></trkpt><trkpt lat="46.1401024" lon="9.3932207"><ele>216.2</ele><time>2026-04-20T09:20:28.55Z</time></trkpt><trkpt lat="46.1401004" lon="9.3930824"><ele>216.8</ele><time>2026-04-20T09:20:30.55Z</time></trkpt><trkpt lat="46.1401043" lon="9.3929619"><ele>217.4</ele><time>2026-04-20T09:20:32.55Z</time></trkpt><trkpt lat="46.1400924" lon="9.3928128"><ele>218.0</ele><time>2026-04-20T09:20:34.549Z</time></trkpt><trkpt lat="46.1401026" lon="9.3926865"><ele>218.2</ele><time>2026-04-20T09:20:36.55Z</time></trkpt><trkpt lat="46.1400843" lon="9.3925652"><ele>218.4</ele><time>2026-04-20T09:20:37.55Z</time></trkpt><trkpt lat="46.1400945" lon="9.3924177"><ele>218.59999999999997</ele><time>2026-04-20T09:20:39.551Z</time></trkpt><trkpt lat="46.1400924" lon="9.3922912"><ele>218.79999999999998</ele><time>2026-04-20T09:20:41.549Z</time></trkpt><trkpt lat="46.1400823" lon="9.3921484"><ele>219.0</ele><time>2026-04-20T09:20:43.55Z</time></trkpt><trkpt lat="46.1400943" lon="9.3919555"><ele>219.0</ele><time>2026-04-20T09:20:46.549Z</time></trkpt><trkpt lat="46.1400815" lon="9.3918088"><ele>218.99999999999997</ele><time>2026-04-20T09:20:48.55Z</time></trkpt><trkpt lat="46.1400595" lon="9.3916554"><ele>218.99999999999997</ele><time>2026-04-20T09:20:50.551Z</time></trkpt><trkpt lat="46.1400479" lon="9.3914948"><ele>219.0</ele><time>2026-04-20T09:20:52.549Z</time></trkpt><trkpt lat="46.1400428" lon="9.391373"><ele>219.0</ele><time>2026-04-20T09:20:54.55Z</time></trkpt><trkpt lat="46.1401081" lon="9.3913123"><ele>218.66666666666666</ele><time>2026-04-20T09:20:56.549Z</time></trkpt><trkpt lat="46.1401669" lon="9.39135"><ele>218.33333333333331</ele><time>2026-04-20T09:20:57.549Z</time></trkpt><trkpt lat="46.1402738" lon="9.3913994"><ele>218.0</ele><time>2026-04-20T09:20:59.55Z</time></trkpt><trkpt lat="46.1403899" lon="9.391426"><ele>217.66666666666666</ele><time>2026-04-20T09:21:01.55Z</time></trkpt><trkpt lat="46.1404584" lon="9.391458"><ele>217.33333333333331</ele><time>2026-04-20T09:21:02.55Z</time></trkpt><trkpt lat="46.1405267" lon="9.3914883"><ele>217.0</ele><time>2026-04-20T09:21:03.549Z</time></trkpt><trkpt lat="46.1406155" lon="9.3915175"><ele>217.0</ele><time>2026-04-20T09:21:05.551Z</time></trkpt><trkpt lat="46.1407104" lon="9.3915537"><ele>217.0</ele><time>2026-04-20T09:21:07.549Z</time></trkpt><trkpt lat="46.1408232" lon="9.3915808"><ele>217.0</ele><time>2026-04-20T09:21:09.55Z</time></trkpt><trkpt lat="46.1409457" lon="9.391606"><ele>217.0</ele><time>2026-04-20T09:21:11.551Z</time></trkpt><trkpt lat="46.1410219" lon="9.391629"><ele>217.0</ele><time>2026-04-20T09:21:12.549Z</time></trkpt><trkpt lat="46.14109" lon="9.3916498"><ele>216.0</ele><time>2026-04-20T09:21:13.55Z</time></trkpt><trkpt lat="46.1412029" lon="9.3916754"><ele>215.0</ele><time>2026-04-20T09:21:15.55Z</time></trkpt><trkpt lat="46.1413222" lon="9.3916741"><ele>214.0</ele><time>2026-04-20T09:21:17.55Z</time></trkpt><trkpt lat="46.1414394" lon="9.391667"><ele>213.0</ele><time>2026-04-20T09:21:19.55Z</time></trkpt><trkpt lat="46.1415475" lon="9.3916724"><ele>212.8</ele><time>2026-04-20T09:21:21.548Z</time></trkpt><trkpt lat="46.1416158" lon="9.3916113"><ele>212.60000000000002</ele><time>2026-04-20T09:21:23.549Z</time></trkpt><trkpt lat="46.1416703" lon="9.3915192"><ele>212.39999999999998</ele><time>2026-04-20T09:21:25.549Z</time></trkpt><trkpt lat="46.1417205" lon="9.3913722"><ele>212.2</ele><time>2026-04-20T09:21:27.549Z</time></trkpt><trkpt lat="46.1417673" lon="9.3912006"><ele>212.0</ele><time>2026-04-20T09:21:29.549Z</time></trkpt><trkpt lat="46.1417866" lon="9.3910997"><ele>211.8</ele><time>2026-04-20T09:21:30.549Z</time></trkpt><trkpt lat="46.1417922" lon="9.3910032"><ele>211.6</ele><time>2026-04-20T09:21:31.55Z</time></trkpt><trkpt lat="46.1418263" lon="9.3908503"><ele>211.4</ele><time>2026-04-20T09:21:33.55Z</time></trkpt><trkpt lat="46.1418505" lon="9.3907604"><ele>211.20000000000002</ele><time>2026-04-20T09:21:34.55Z</time></trkpt><trkpt lat="46.1418784" lon="9.3905864"><ele>211.0</ele><time>2026-04-20T09:21:36.55Z</time></trkpt><trkpt lat="46.1418826" lon="9.3904169"><ele>211.0</ele><time>2026-04-20T09:21:38.549Z</time></trkpt><trkpt lat="46.1418891" lon="9.3902531"><ele>211.0</ele><time>2026-04-20T09:21:40.549Z</time></trkpt><trkpt lat="46.1418989" lon="9.3901169"><ele>211.0</ele><time>2026-04-20T09:21:42.55Z</time></trkpt><trkpt lat="46.1419033" lon="9.3900104"><ele>211.0</ele><time>2026-04-20T09:21:43.55Z</time></trkpt><trkpt lat="46.1419001" lon="9.3898458"><ele>211.0</ele><time>2026-04-20T09:21:45.549Z</time></trkpt><trkpt lat="46.1418593" lon="9.3896702"><ele>210.8</ele><time>2026-04-20T09:21:47.55Z</time></trkpt><trkpt lat="46.1418404" lon="9.3895749"><ele>210.60000000000002</ele><time>2026-04-20T09:21:48.549Z</time></trkpt><trkpt lat="46.141845" lon="9.3894548"><ele>210.4</ele><time>2026-04-20T09:21:50.549Z</time></trkpt><trkpt lat="46.1417889" lon="9.3893705"><ele>210.2</ele><time>2026-04-20T09:21:51.55Z</time></trkpt><trkpt lat="46.1417198" lon="9.3892404"><ele>210.0</ele><time>2026-04-20T09:21:53.549Z</time></trkpt><trkpt lat="46.141694" lon="9.3890942"><ele>210.0</ele><time>2026-04-20T09:21:55.551Z</time></trkpt><trkpt lat="46.141664" lon="9.3890139"><ele>210.0</ele><time>2026-04-20T09:21:56.55Z</time></trkpt><trkpt lat="46.1416398" lon="9.3889228"><ele>210.0</ele><time>2026-04-20T09:21:57.549Z</time></trkpt><trkpt lat="46.1415906" lon="9.3888185"><ele>210.0</ele><time>2026-04-20T09:21:58.55Z</time></trkpt><trkpt lat="46.1415358" lon="9.3886731"><ele>210.0</ele><time>2026-04-20T09:22:00.549Z</time></trkpt><trkpt lat="46.1414995" lon="9.388575"><ele>210.0</ele><time>2026-04-20T09:22:02.549Z</time></trkpt><trkpt lat="46.1414649" lon="9.3884783"><ele>210.66666666666666</ele><time>2026-04-20T09:22:04.549Z</time></trkpt><trkpt lat="46.1414214" lon="9.388372"><ele>211.33333333333331</ele><time>2026-04-20T09:22:06.55Z</time></trkpt><trkpt lat="46.1413698" lon="9.3882599"><ele>212.0</ele><time>2026-04-20T09:22:09.549Z</time></trkpt><trkpt lat="46.1413216" lon="9.3881896"><ele>212.66666666666666</ele><time>2026-04-20T09:22:12.55Z</time></trkpt><trkpt lat="46.1412719" lon="9.3880939"><ele>213.33333333333331</ele><time>2026-04-20T09:22:38.55Z</time></trkpt><trkpt lat="46.1412275" lon="9.3879962"><ele>214.0</ele><time>2026-04-20T09:22:40.549Z</time></trkpt><trkpt lat="46.1411909" lon="9.3878875"><ele>213.99999999999997</ele><time>2026-04-20T09:22:42.55Z</time></trkpt><trkpt lat="46.1411453" lon="9.3877839"><ele>214.0</ele><time>2026-04-20T09:22:44.549Z</time></trkpt><trkpt lat="46.1411113" lon="9.3876684"><ele>214.0</ele><time>2026-04-20T09:22:46.55Z</time></trkpt><trkpt lat="46.1410792" lon="9.3875553"><ele>214.0</ele><time>2026-04-20T09:22:48.55Z</time></trkpt><trkpt lat="46.1410496" lon="9.3874428"><ele>213.99999999999997</ele><time>2026-04-20T09:22:50.55Z</time></trkpt><trkpt lat="46.1410163" lon="9.3873513"><ele>214.0</ele><time>2026-04-20T09:22:52.549Z</time></trkpt><trkpt lat="46.1409968" lon="9.3872315"><ele>214.16666666666666</ele><time>2026-04-20T09:22:55.55Z</time></trkpt><trkpt lat="46.1409474" lon="9.3871166"><ele>214.33333333333331</ele><time>2026-04-20T09:22:57.55Z</time></trkpt><trkpt lat="46.1408944" lon="9.3869947"><ele>214.5</ele><time>2026-04-20T09:22:59.55Z</time></trkpt><trkpt lat="46.1408676" lon="9.3869106"><ele>214.66666666666669</ele><time>2026-04-20T09:23:01.55Z</time></trkpt><trkpt lat="46.1408463" lon="9.3868069"><ele>214.83333333333334</ele><time>2026-04-20T09:23:03.55Z</time></trkpt><trkpt lat="46.1408017" lon="9.3866877"><ele>215.0</ele><time>2026-04-20T09:23:05.55Z</time></trkpt><trkpt lat="46.1407689" lon="9.3865902"><ele>215.0</ele><time>2026-04-20T09:23:07.55Z</time></trkpt><trkpt lat="46.1407168" lon="9.3864821"><ele>215.0</ele><time>2026-04-20T09:23:09.55Z</time></trkpt><trkpt lat="46.1406612" lon="9.3863615"><ele>215.0</ele><time>2026-04-20T09:23:11.55Z</time></trkpt><trkpt lat="46.1406533" lon="9.386247"><ele>215.0</ele><time>2026-04-20T09:23:12.551Z</time></trkpt><trkpt lat="46.1406412" lon="9.3861021"><ele>215.0</ele><time>2026-04-20T09:23:14.55Z</time></trkpt><trkpt lat="46.1406179" lon="9.385953"><ele>215.6</ele><time>2026-04-20T09:23:16.551Z</time></trkpt><trkpt lat="46.1405831" lon="9.3857812"><ele>216.2</ele><time>2026-04-20T09:23:18.551Z</time></trkpt><trkpt lat="46.1405514" lon="9.3856455"><ele>216.8</ele><time>2026-04-20T09:23:21.55Z</time></trkpt><trkpt lat="46.1405077" lon="9.3855288"><ele>217.4</ele><time>2026-04-20T09:23:23.549Z</time></trkpt><trkpt lat="46.1404436" lon="9.3853961"><ele>218.0</ele><time>2026-04-20T09:23:25.55Z</time></trkpt><trkpt lat="46.1403873" lon="9.3852441"><ele>218.0</ele><time>2026-04-20T09:23:27.55Z</time></trkpt><trkpt lat="46.1403341" lon="9.3851161"><ele>218.0</ele><time>2026-04-20T09:23:29.549Z</time></trkpt><trkpt lat="46.1402799" lon="9.3849816"><ele>218.0</ele><time>2026-04-20T09:23:31.55Z</time></trkpt><trkpt lat="46.1402321" lon="9.3848629"><ele>218.0</ele><time>2026-04-20T09:23:33.549Z</time></trkpt><trkpt lat="46.1402043" lon="9.3847473"><ele>218.0</ele><time>2026-04-20T09:23:35.551Z</time></trkpt><trkpt lat="46.140261" lon="9.3846681"><ele>218.0</ele><time>2026-04-20T09:23:37.551Z</time></trkpt><trkpt lat="46.1403477" lon="9.3846564"><ele>218.0</ele><time>2026-04-20T09:23:39.55Z</time></trkpt><trkpt lat="46.140453" lon="9.3846269"><ele>218.0</ele><time>2026-04-20T09:23:41.549Z</time></trkpt><trkpt lat="46.1405319" lon="9.3846165"><ele>218.0</ele><time>2026-04-20T09:23:42.549Z</time></trkpt><trkpt lat="46.1406593" lon="9.3845895"><ele>218.0</ele><time>2026-04-20T09:23:44.551Z</time></trkpt><trkpt lat="46.1407571" lon="9.3845633"><ele>217.0</ele><time>2026-04-20T09:23:46.55Z</time></trkpt><trkpt lat="46.1408416" lon="9.3845153"><ele>216.0</ele><time>2026-04-20T09:23:48.55Z</time></trkpt><trkpt lat="46.1409575" lon="9.3844829"><ele>215.0</ele><time>2026-04-20T09:23:50.55Z</time></trkpt><trkpt lat="46.14103" lon="9.3844641"><ele>214.0</ele><time>2026-04-20T09:23:52.55Z</time></trkpt><trkpt lat="46.1411063" lon="9.3844358"><ele>213.0</ele><time>2026-04-20T09:23:54.55Z</time></trkpt><trkpt lat="46.1411926" lon="9.3844057"><ele>213.0</ele><time>2026-04-20T09:23:57.549Z</time></trkpt><trkpt lat="46.1412566" lon="9.3843908"><ele>213.0</ele><time>2026-04-20T09:23:59.551Z</time></trkpt><trkpt lat="46.1413295" lon="9.3843726"><ele>213.0</ele><time>2026-04-20T09:24:01.549Z</time></trkpt><trkpt lat="46.1414048" lon="9.3843307"><ele>213.0</ele><time>2026-04-20T09:24:03.55Z</time></trkpt><trkpt lat="46.1414917" lon="9.3842771"><ele>213.0</ele><time>2026-04-20T09:24:05.549Z</time></trkpt><trkpt lat="46.1415881" lon="9.3842436"><ele>213.0</ele><time>2026-04-20T09:24:07.55Z</time></trkpt><trkpt lat="46.1416517" lon="9.3841471"><ele>212.0</ele><time>2026-04-20T09:24:08.549Z</time></trkpt><trkpt lat="46.1417814" lon="9.3839912"><ele>211.0</ele><time>2026-04-20T09:24:10.551Z</time></trkpt><trkpt lat="46.1418459" lon="9.3839167"><ele>210.0</ele><time>2026-04-20T09:24:11.55Z</time></trkpt><trkpt lat="46.1419125" lon="9.3837622"><ele>209.0</ele><time>2026-04-20T09:24:12.552Z</time></trkpt><trkpt lat="46.1418787" lon="9.383593"><ele>208.79999999999998</ele><time>2026-04-20T09:24:13.549Z</time></trkpt><trkpt lat="46.1418927" lon="9.3834799"><ele>208.6</ele><time>2026-04-20T09:24:14.55Z</time></trkpt><trkpt lat="46.1418447" lon="9.3833596"><ele>208.4</ele><time>2026-04-20T09:24:15.552Z</time></trkpt><trkpt lat="46.1418013" lon="9.3832404"><ele>208.2</ele><time>2026-04-20T09:24:16.551Z</time></trkpt><trkpt lat="46.1417442" lon="9.3831246"><ele>208.0</ele><time>2026-04-20T09:24:17.551Z</time></trkpt><trkpt lat="46.141654" lon="9.3830605"><ele>208.16666666666666</ele><time>2026-04-20T09:24:18.55Z</time></trkpt><trkpt lat="46.1415892" lon="9.3830078"><ele>208.33333333333331</ele><time>2026-04-20T09:24:19.549Z</time></trkpt><trkpt lat="46.1415115" lon="9.3829541"><ele>208.5</ele><time>2026-04-20T09:24:20.551Z</time></trkpt><trkpt lat="46.141435" lon="9.3830099"><ele>208.66666666666669</ele><time>2026-04-20T09:24:21.55Z</time></trkpt><trkpt lat="46.1413584" lon="9.3830025"><ele>208.83333333333334</ele><time>2026-04-20T09:24:22.55Z</time></trkpt><trkpt lat="46.1412769" lon="9.3829939"><ele>209.0</ele><time>2026-04-20T09:24:23.55Z</time></trkpt><trkpt lat="46.1411805" lon="9.3829648"><ele>209.6</ele><time>2026-04-20T09:24:24.55Z</time></trkpt><trkpt lat="46.1411083" lon="9.3827912"><ele>210.2</ele><time>2026-04-20T09:24:26.551Z</time></trkpt><trkpt lat="46.1410663" lon="9.3827046"><ele>210.79999999999998</ele><time>2026-04-20T09:24:27.549Z</time></trkpt><trkpt lat="46.1410395" lon="9.3826024"><ele>211.39999999999998</ele><time>2026-04-20T09:24:29.549Z</time></trkpt><trkpt lat="46.1410024" lon="9.3824405"><ele>212.0</ele><time>2026-04-20T09:24:31.551Z</time></trkpt><trkpt lat="46.1410016" lon="9.3823479"><ele>212.0</ele><time>2026-04-20T09:24:32.55Z</time></trkpt><trkpt lat="46.1409839" lon="9.3822291"><ele>212.0</ele><time>2026-04-20T09:24:33.55Z</time></trkpt><trkpt lat="46.1409692" lon="9.3821384"><ele>212.0</ele><time>2026-04-20T09:24:34.549Z</time></trkpt><trkpt lat="46.1409375" lon="9.3820017"><ele>212.0</ele><time>2026-04-20T09:24:35.552Z</time></trkpt><trkpt lat="46.1408884" lon="9.3819039"><ele>212.0</ele><time>2026-04-20T09:24:36.55Z</time></trkpt><trkpt lat="46.1408443" lon="9.3817391"><ele>211.83333333333334</ele><time>2026-04-20T09:24:38.549Z</time></trkpt><trkpt lat="46.1408786" lon="9.38163"><ele>211.66666666666669</ele><time>2026-04-20T09:24:39.55Z</time></trkpt><trkpt lat="46.1408574" lon="9.3814786"><ele>211.5</ele><time>2026-04-20T09:24:40.55Z</time></trkpt><trkpt lat="46.1408168" lon="9.3813708"><ele>211.33333333333331</ele><time>2026-04-20T09:24:41.549Z</time></trkpt><trkpt lat="46.1407957" lon="9.3812728"><ele>211.16666666666666</ele><time>2026-04-20T09:24:42.55Z</time></trkpt><trkpt lat="46.1407581" lon="9.381194"><ele>211.0</ele><time>2026-04-20T09:24:43.551Z</time></trkpt><trkpt lat="46.1407515" lon="9.3810932"><ele>210.99999999999997</ele><time>2026-04-20T09:24:44.55Z</time></trkpt><trkpt lat="46.1407247" lon="9.3809932"><ele>211.0</ele><time>2026-04-20T09:24:45.55Z</time></trkpt><trkpt lat="46.1407023" lon="9.3809035"><ele>211.0</ele><time>2026-04-20T09:24:46.55Z</time></trkpt><trkpt lat="46.1406445" lon="9.380748"><ele>211.0</ele><time>2026-04-20T09:24:48.55Z</time></trkpt><trkpt lat="46.1406095" lon="9.380621"><ele>210.99999999999997</ele><time>2026-04-20T09:24:49.551Z</time></trkpt><trkpt lat="46.1405801" lon="9.3805299"><ele>211.0</ele><time>2026-04-20T09:24:50.549Z</time></trkpt><trkpt lat="46.1405412" lon="9.3803997"><ele>211.20000000000002</ele><time>2026-04-20T09:24:52.549Z</time></trkpt><trkpt lat="46.1404811" lon="9.3802623"><ele>211.4</ele><time>2026-04-20T09:24:54.551Z</time></trkpt><trkpt lat="46.1404299" lon="9.3801118"><ele>211.6</ele><time>2026-04-20T09:24:56.551Z</time></trkpt><trkpt lat="46.1404159" lon="9.3799497"><ele>211.8</ele><time>2026-04-20T09:24:57.551Z</time></trkpt><trkpt lat="46.1403652" lon="9.3798429"><ele>212.0</ele><time>2026-04-20T09:24:58.551Z</time></trkpt><trkpt lat="46.1403325" lon="9.3797464"><ele>211.6</ele><time>2026-04-20T09:24:59.549Z</time></trkpt><trkpt lat="46.1403116" lon="9.3796442"><ele>211.2</ele><time>2026-04-20T09:25:00.55Z</time></trkpt><trkpt lat="46.140264" lon="9.3794952"><ele>210.8</ele><time>2026-04-20T09:25:02.549Z</time></trkpt><trkpt lat="46.1402686" lon="9.3793196"><ele>210.4</ele><time>2026-04-20T09:25:03.551Z</time></trkpt><trkpt lat="46.1402517" lon="9.3792181"><ele>210.0</ele><time>2026-04-20T09:25:04.55Z</time></trkpt><trkpt lat="46.1402157" lon="9.3791019"><ele>210.0</ele><time>2026-04-20T09:25:05.549Z</time></trkpt><trkpt lat="46.1401925" lon="9.3789879"><ele>210.0</ele><time>2026-04-20T09:25:06.551Z</time></trkpt><trkpt lat="46.1401796" lon="9.3788702"><ele>210.0</ele><time>2026-04-20T09:25:07.549Z</time></trkpt><trkpt lat="46.1401578" lon="9.3787677"><ele>210.0</ele><time>2026-04-20T09:25:08.549Z</time></trkpt><trkpt lat="46.140105" lon="9.3785835"><ele>210.0</ele><time>2026-04-20T09:25:10.549Z</time></trkpt><trkpt lat="46.1400754" lon="9.3784979"><ele>210.0</ele><time>2026-04-20T09:25:11.55Z</time></trkpt><trkpt lat="46.1400193" lon="9.3783599"><ele>210.0</ele><time>2026-04-20T09:25:13.549Z</time></trkpt><trkpt lat="46.1399469" lon="9.3781858"><ele>210.0</ele><time>2026-04-20T09:25:15.55Z</time></trkpt><trkpt lat="46.1399146" lon="9.3780994"><ele>210.0</ele><time>2026-04-20T09:25:16.55Z</time></trkpt><trkpt lat="46.1398651" lon="9.3780294"><ele>210.0</ele><time>2026-04-20T09:25:17.55Z</time></trkpt><trkpt lat="46.1398223" lon="9.3779533"><ele>210.0</ele><time>2026-04-20T09:25:18.55Z</time></trkpt><trkpt lat="46.1397736" lon="9.3778696"><ele>210.0</ele><time>2026-04-20T09:25:19.549Z</time></trkpt><trkpt lat="46.1397335" lon="9.377799"><ele>209.83333333333334</ele><time>2026-04-20T09:25:20.55Z</time></trkpt><trkpt lat="46.1396798" lon="9.3777113"><ele>209.66666666666669</ele><time>2026-04-20T09:25:21.551Z</time></trkpt><trkpt lat="46.1396289" lon="9.3776244"><ele>209.5</ele><time>2026-04-20T09:25:22.551Z</time></trkpt><trkpt lat="46.1395875" lon="9.377541"><ele>209.33333333333334</ele><time>2026-04-20T09:25:23.551Z</time></trkpt><trkpt lat="46.1395296" lon="9.3773843"><ele>209.16666666666669</ele><time>2026-04-20T09:25:25.55Z</time></trkpt><trkpt lat="46.1395008" lon="9.3772864"><ele>209.0</ele><time>2026-04-20T09:25:26.55Z</time></trkpt><trkpt lat="46.1394582" lon="9.3771815"><ele>208.83333333333334</ele><time>2026-04-20T09:25:27.549Z</time></trkpt><trkpt lat="46.1394254" lon="9.3771014"><ele>208.66666666666669</ele><time>2026-04-20T09:25:28.549Z</time></trkpt><trkpt lat="46.1393832" lon="9.3769991"><ele>208.5</ele><time>2026-04-20T09:25:29.549Z</time></trkpt><trkpt lat="46.1393246" lon="9.3768487"><ele>208.33333333333331</ele><time>2026-04-20T09:25:31.551Z</time></trkpt><trkpt lat="46.1393014" lon="9.3767446"><ele>208.16666666666666</ele><time>2026-04-20T09:25:32.55Z</time></trkpt><trkpt lat="46.139274" lon="9.3766535"><ele>208.0</ele><time>2026-04-20T09:25:33.55Z</time></trkpt><trkpt lat="46.1392469" lon="9.3765616"><ele>207.99999999999997</ele><time>2026-04-20T09:25:34.551Z</time></trkpt><trkpt lat="46.139191" lon="9.3764092"><ele>208.0</ele><time>2026-04-20T09:25:36.549Z</time></trkpt><trkpt lat="46.1391631" lon="9.3763249"><ele>208.0</ele><time>2026-04-20T09:25:37.55Z</time></trkpt><trkpt lat="46.1391359" lon="9.3762368"><ele>208.0</ele><time>2026-04-20T09:25:38.549Z</time></trkpt><trkpt lat="46.139092" lon="9.3760791"><ele>207.99999999999997</ele><time>2026-04-20T09:25:40.552Z</time></trkpt><trkpt lat="46.139074" lon="9.3759859"><ele>208.0</ele><time>2026-04-20T09:25:41.55Z</time></trkpt><trkpt lat="46.1390473" lon="9.3758835"><ele>208.2</ele><time>2026-04-20T09:25:42.55Z</time></trkpt><trkpt lat="46.1389955" lon="9.3757748"><ele>208.4</ele><time>2026-04-20T09:25:43.55Z</time></trkpt><trkpt lat="46.1389643" lon="9.3756829"><ele>208.6</ele><time>2026-04-20T09:25:44.55Z</time></trkpt><trkpt lat="46.1389415" lon="9.3755812"><ele>208.79999999999998</ele><time>2026-04-20T09:25:45.55Z</time></trkpt><trkpt lat="46.1388738" lon="9.3754195"><ele>209.0</ele><time>2026-04-20T09:25:47.55Z</time></trkpt><trkpt lat="46.1388043" lon="9.3752736"><ele>208.66666666666669</ele><time>2026-04-20T09:25:49.549Z</time></trkpt><trkpt lat="46.1387686" lon="9.3751877"><ele>208.33333333333334</ele><time>2026-04-20T09:25:50.551Z</time></trkpt><trkpt lat="46.13873" lon="9.375104"><ele>208.0</ele><time>2026-04-20T09:25:51.55Z</time></trkpt><trkpt lat="46.1387025" lon="9.3750132"><ele>207.66666666666669</ele><time>2026-04-20T09:25:52.55Z</time></trkpt><trkpt lat="46.1387093" lon="9.3749053"><ele>207.33333333333334</ele><time>2026-04-20T09:25:53.55Z</time></trkpt><trkpt lat="46.1386596" lon="9.3747131"><ele>207.0</ele><time>2026-04-20T09:25:55.551Z</time></trkpt><trkpt lat="46.1386368" lon="9.3745364"><ele>206.5</ele><time>2026-04-20T09:25:57.55Z</time></trkpt><trkpt lat="46.1386249" lon="9.3744342"><ele>206.0</ele><time>2026-04-20T09:25:58.55Z</time></trkpt><trkpt lat="46.1386153" lon="9.374342"><ele>205.5</ele><time>2026-04-20T09:25:59.55Z</time></trkpt><trkpt lat="46.1385874" lon="9.3741648"><ele>205.0</ele><time>2026-04-20T09:26:01.55Z</time></trkpt><trkpt lat="46.1385861" lon="9.3740674"><ele>204.5</ele><time>2026-04-20T09:26:02.55Z</time></trkpt><trkpt lat="46.1385854" lon="9.3739003"><ele>204.0</ele><time>2026-04-20T09:26:04.55Z</time></trkpt><trkpt lat="46.1385892" lon="9.3738055"><ele>203.5</ele><time>2026-04-20T09:26:05.55Z</time></trkpt><trkpt lat="46.1385752" lon="9.3737022"><ele>203.0</ele><time>2026-04-20T09:26:06.551Z</time></trkpt><trkpt lat="46.1385526" lon="9.373586"><ele>202.5</ele><time>2026-04-20T09:26:07.551Z</time></trkpt><trkpt lat="46.1385579" lon="9.37349"><ele>202.0</ele><time>2026-04-20T09:26:08.55Z</time></trkpt><trkpt lat="46.1385629" lon="9.3733963"><ele>201.5</ele><time>2026-04-20T09:26:09.551Z</time></trkpt><trkpt lat="46.1385501" lon="9.3732326"><ele>201.0</ele><time>2026-04-20T09:26:11.55Z</time></trkpt><trkpt lat="46.1385432" lon="9.3731419"><ele>201.0</ele><time>2026-04-20T09:26:12.551Z</time></trkpt><trkpt lat="46.1385279" lon="9.3730369"><ele>201.0</ele><time>2026-04-20T09:26:13.55Z</time></trkpt><trkpt lat="46.1384948" lon="9.3729314"><ele>201.0</ele><time>2026-04-20T09:26:14.55Z</time></trkpt><trkpt lat="46.1384789" lon="9.3727743"><ele>201.0</ele><time>2026-04-20T09:26:16.55Z</time></trkpt><trkpt lat="46.1384501" lon="9.3726102"><ele>201.0</ele><time>2026-04-20T09:26:18.55Z</time></trkpt><trkpt lat="46.138387" lon="9.3724909"><ele>200.66666666666666</ele><time>2026-04-20T09:26:20.551Z</time></trkpt><trkpt lat="46.1383083" lon="9.3724358"><ele>200.33333333333331</ele><time>2026-04-20T09:26:22.55Z</time></trkpt><trkpt lat="46.1382011" lon="9.3723832"><ele>200.0</ele><time>2026-04-20T09:26:24.551Z</time></trkpt><trkpt lat="46.1381383" lon="9.3723659"><ele>199.66666666666666</ele><time>2026-04-20T09:26:26.551Z</time></trkpt><trkpt lat="46.138074" lon="9.3723408"><ele>199.33333333333331</ele><time>2026-04-20T09:26:28.549Z</time></trkpt><trkpt lat="46.137972" lon="9.3722815"><ele>199.0</ele><time>2026-04-20T09:26:31.551Z</time></trkpt><trkpt lat="46.1378685" lon="9.3722144"><ele>199.6</ele><time>2026-04-20T09:26:33.549Z</time></trkpt><trkpt lat="46.1377788" lon="9.3721645"><ele>200.2</ele><time>2026-04-20T09:26:35.55Z</time></trkpt><trkpt lat="46.1376922" lon="9.3720964"><ele>200.79999999999998</ele><time>2026-04-20T09:26:37.549Z</time></trkpt><trkpt lat="46.1376337" lon="9.3719883"><ele>201.39999999999998</ele><time>2026-04-20T09:26:39.551Z</time></trkpt><trkpt lat="46.1375611" lon="9.3718639"><ele>202.0</ele><time>2026-04-20T09:26:41.551Z</time></trkpt><trkpt lat="46.1375153" lon="9.3718005"><ele>201.99999999999997</ele><time>2026-04-20T09:26:43.549Z</time></trkpt><trkpt lat="46.1374739" lon="9.3716947"><ele>202.0</ele><time>2026-04-20T09:26:45.551Z</time></trkpt><trkpt lat="46.1374338" lon="9.3715774"><ele>202.0</ele><time>2026-04-20T09:26:47.551Z</time></trkpt><trkpt lat="46.1373874" lon="9.3714677"><ele>202.0</ele><time>2026-04-20T09:26:49.552Z</time></trkpt><trkpt lat="46.1373692" lon="9.371364"><ele>201.99999999999997</ele><time>2026-04-20T09:26:51.551Z</time></trkpt><trkpt lat="46.1373414" lon="9.3712617"><ele>202.0</ele><time>2026-04-20T09:26:53.55Z</time></trkpt><trkpt lat="46.1372995" lon="9.3711864"><ele>202.66666666666666</ele><time>2026-04-20T09:26:55.551Z</time></trkpt><trkpt lat="46.1372468" lon="9.3711092"><ele>203.33333333333331</ele><time>2026-04-20T09:26:57.55Z</time></trkpt><trkpt lat="46.1371963" lon="9.3710081"><ele>204.0</ele><time>2026-04-20T09:26:59.55Z</time></trkpt><trkpt lat="46.1371799" lon="9.3708842"><ele>204.66666666666669</ele><time>2026-04-20T09:27:01.551Z</time></trkpt><trkpt lat="46.1371754" lon="9.3707802"><ele>205.33333333333334</ele><time>2026-04-20T09:27:03.55Z</time></trkpt><trkpt lat="46.1371638" lon="9.3706719"><ele>206.0</ele><time>2026-04-20T09:27:05.551Z</time></trkpt><trkpt lat="46.1371532" lon="9.3705762"><ele>205.85714285714283</ele><time>2026-04-20T09:27:07.552Z</time></trkpt><trkpt lat="46.137134" lon="9.3704869"><ele>205.71428571428572</ele><time>2026-04-20T09:27:09.551Z</time></trkpt><trkpt lat="46.13709" lon="9.3703894"><ele>205.57142857142856</ele><time>2026-04-20T09:27:12.551Z</time></trkpt><trkpt lat="46.1370863" lon="9.3702969"><ele>205.42857142857142</ele><time>2026-04-20T09:27:14.551Z</time></trkpt><trkpt lat="46.1370922" lon="9.3701895"><ele>205.28571428571428</ele><time>2026-04-20T09:27:17.55Z</time></trkpt><trkpt lat="46.1371053" lon="9.3700943"><ele>205.14285714285714</ele><time>2026-04-20T09:27:19.55Z</time></trkpt><trkpt lat="46.137102" lon="9.3700001"><ele>205.0</ele><time>2026-04-20T09:27:21.551Z</time></trkpt><trkpt lat="46.1371194" lon="9.3699103"><ele>204.99999999999997</ele><time>2026-04-20T09:27:23.55Z</time></trkpt><trkpt lat="46.1371356" lon="9.3698133"><ele>205.0</ele><time>2026-04-20T09:27:25.552Z</time></trkpt><trkpt lat="46.1371514" lon="9.3697072"><ele>205.0</ele><time>2026-04-20T09:27:27.551Z</time></trkpt><trkpt lat="46.1371729" lon="9.3696013"><ele>205.0</ele><time>2026-04-20T09:27:29.552Z</time></trkpt><trkpt lat="46.1371944" lon="9.3694909"><ele>204.99999999999997</ele><time>2026-04-20T09:27:31.551Z</time></trkpt><trkpt lat="46.137219" lon="9.3693953"><ele>205.0</ele><time>2026-04-20T09:27:33.549Z</time></trkpt><trkpt lat="46.1372496" lon="9.3692812"><ele>204.99999999999997</ele><time>2026-04-20T09:27:35.55Z</time></trkpt><trkpt lat="46.1372677" lon="9.3691627"><ele>205.0</ele><time>2026-04-20T09:27:37.549Z</time></trkpt><trkpt lat="46.1372755" lon="9.3690487"><ele>205.0</ele><time>2026-04-20T09:27:39.551Z</time></trkpt><trkpt lat="46.1372743" lon="9.3689432"><ele>205.0</ele><time>2026-04-20T09:27:41.55Z</time></trkpt><trkpt lat="46.1372573" lon="9.3688326"><ele>204.99999999999997</ele><time>2026-04-20T09:27:43.551Z</time></trkpt><trkpt lat="46.1372458" lon="9.3687219"><ele>205.0</ele><time>2026-04-20T09:27:45.55Z</time></trkpt><trkpt lat="46.1372533" lon="9.3686148"><ele>205.0</ele><time>2026-04-20T09:27:47.549Z</time></trkpt><trkpt lat="46.1372558" lon="9.3684838"><ele>205.0</ele><time>2026-04-20T09:27:49.549Z</time></trkpt><trkpt lat="46.137254" lon="9.3683402"><ele>205.0</ele><time>2026-04-20T09:27:51.55Z</time></trkpt><trkpt lat="46.1372421" lon="9.3682243"><ele>205.0</ele><time>2026-04-20T09:27:53.551Z</time></trkpt><trkpt lat="46.1371969" lon="9.3681048"><ele>205.0</ele><time>2026-04-20T09:27:55.551Z</time></trkpt><trkpt lat="46.1371483" lon="9.3679803"><ele>204.4</ele><time>2026-04-20T09:27:57.551Z</time></trkpt><trkpt lat="46.1371073" lon="9.3678682"><ele>203.8</ele><time>2026-04-20T09:27:59.55Z</time></trkpt><trkpt lat="46.1370544" lon="9.3677424"><ele>203.2</ele><time>2026-04-20T09:28:01.551Z</time></trkpt><trkpt lat="46.1370063" lon="9.3675977"><ele>202.6</ele><time>2026-04-20T09:28:03.551Z</time></trkpt><trkpt lat="46.1369365" lon="9.3675507"><ele>202.0</ele><time>2026-04-20T09:28:04.551Z</time></trkpt><trkpt lat="46.1368761" lon="9.3674079"><ele>202.0</ele><time>2026-04-20T09:28:06.551Z</time></trkpt><trkpt lat="46.1368185" lon="9.3672854"><ele>202.0</ele><time>2026-04-20T09:28:08.55Z</time></trkpt><trkpt lat="46.1367259" lon="9.3670615"><ele>202.0</ele><time>2026-04-20T09:28:11.55Z</time></trkpt><trkpt lat="46.1367097" lon="9.3669644"><ele>202.0</ele><time>2026-04-20T09:28:12.55Z</time></trkpt><trkpt lat="46.1367026" lon="9.3668604"><ele>202.0</ele><time>2026-04-20T09:28:13.55Z</time></trkpt><trkpt lat="46.1366713" lon="9.3667391"><ele>202.0</ele><time>2026-04-20T09:28:15.551Z</time></trkpt><trkpt lat="46.1366418" lon="9.3665881"><ele>202.0</ele><time>2026-04-20T09:28:17.551Z</time></trkpt><trkpt lat="46.1366364" lon="9.3664339"><ele>202.0</ele><time>2026-04-20T09:28:19.551Z</time></trkpt><trkpt lat="46.1366166" lon="9.3662545"><ele>202.0</ele><time>2026-04-20T09:28:21.551Z</time></trkpt><trkpt lat="46.1365989" lon="9.3661338"><ele>202.0</ele><time>2026-04-20T09:28:23.552Z</time></trkpt><trkpt lat="46.1365498" lon="9.3659524"><ele>201.99999999999997</ele><time>2026-04-20T09:28:25.552Z</time></trkpt><trkpt lat="46.1364968" lon="9.3658619"><ele>202.0</ele><time>2026-04-20T09:28:26.55Z</time></trkpt><trkpt lat="46.136427" lon="9.3657671"><ele>202.0</ele><time>2026-04-20T09:28:28.551Z</time></trkpt><trkpt lat="46.1363581" lon="9.365677"><ele>202.0</ele><time>2026-04-20T09:28:30.55Z</time></trkpt><trkpt lat="46.1363079" lon="9.3656095"><ele>201.99999999999997</ele><time>2026-04-20T09:28:32.549Z</time></trkpt><trkpt lat="46.136239" lon="9.365523"><ele>202.0</ele><time>2026-04-20T09:28:34.55Z</time></trkpt><trkpt lat="46.1361653" lon="9.3654122"><ele>201.8</ele><time>2026-04-20T09:28:36.551Z</time></trkpt><trkpt lat="46.1361122" lon="9.365324"><ele>201.6</ele><time>2026-04-20T09:28:37.551Z</time></trkpt><trkpt lat="46.1360757" lon="9.3652082"><ele>201.4</ele><time>2026-04-20T09:28:39.551Z</time></trkpt><trkpt lat="46.136037" lon="9.3650653"><ele>201.20000000000002</ele><time>2026-04-20T09:28:41.551Z</time></trkpt><trkpt lat="46.1359933" lon="9.3649193"><ele>201.0</ele><time>2026-04-20T09:28:43.551Z</time></trkpt><trkpt lat="46.1359521" lon="9.3647815"><ele>200.8</ele><time>2026-04-20T09:28:45.55Z</time></trkpt><trkpt lat="46.1359249" lon="9.3646912"><ele>200.60000000000002</ele><time>2026-04-20T09:28:46.55Z</time></trkpt><trkpt lat="46.1358882" lon="9.3645353"><ele>200.4</ele><time>2026-04-20T09:28:48.551Z</time></trkpt><trkpt lat="46.1358675" lon="9.3644474"><ele>200.2</ele><time>2026-04-20T09:28:49.551Z</time></trkpt><trkpt lat="46.1358267" lon="9.3642786"><ele>200.0</ele><time>2026-04-20T09:28:51.551Z</time></trkpt><trkpt lat="46.1357899" lon="9.3641483"><ele>200.0</ele><time>2026-04-20T09:28:53.551Z</time></trkpt><trkpt lat="46.1357675" lon="9.3640262"><ele>200.0</ele><time>2026-04-20T09:28:55.55Z</time></trkpt><trkpt lat="46.1357574" lon="9.3638805"><ele>200.0</ele><time>2026-04-20T09:28:57.55Z</time></trkpt><trkpt lat="46.1357362" lon="9.3637571"><ele>200.0</ele><time>2026-04-20T09:28:58.551Z</time></trkpt><trkpt lat="46.1357253" lon="9.3635997"><ele>200.0</ele><time>2026-04-20T09:29:00.551Z</time></trkpt><trkpt lat="46.1357129" lon="9.3634352"><ele>200.2</ele><time>2026-04-20T09:29:02.55Z</time></trkpt><trkpt lat="46.1357017" lon="9.3632871"><ele>200.4</ele><time>2026-04-20T09:29:04.551Z</time></trkpt><trkpt lat="46.1356831" lon="9.3631433"><ele>200.60000000000002</ele><time>2026-04-20T09:29:06.551Z</time></trkpt><trkpt lat="46.1356707" lon="9.3629814"><ele>200.8</ele><time>2026-04-20T09:29:08.55Z</time></trkpt><trkpt lat="46.1356561" lon="9.3628447"><ele>201.0</ele><time>2026-04-20T09:29:10.55Z</time></trkpt><trkpt lat="46.1356342" lon="9.3627176"><ele>201.0</ele><time>2026-04-20T09:29:12.551Z</time></trkpt><trkpt lat="46.1355673" lon="9.3627128"><ele>201.0</ele><time>2026-04-20T09:29:14.552Z</time></trkpt><trkpt lat="46.1355043" lon="9.3627463"><ele>201.0</ele><time>2026-04-20T09:29:16.552Z</time></trkpt><trkpt lat="46.1354354" lon="9.3627834"><ele>201.0</ele><time>2026-04-20T09:29:18.549Z</time></trkpt><trkpt lat="46.1353673" lon="9.3628231"><ele>201.0</ele><time>2026-04-20T09:29:20.551Z</time></trkpt><trkpt lat="46.1352995" lon="9.3628534"><ele>201.0</ele><time>2026-04-20T09:29:22.55Z</time></trkpt><trkpt lat="46.1352371" lon="9.3629009"><ele>201.0</ele><time>2026-04-20T09:29:24.551Z</time></trkpt><trkpt lat="46.1351736" lon="9.3629381"><ele>201.0</ele><time>2026-04-20T09:29:26.551Z</time></trkpt><trkpt lat="46.1351083" lon="9.362968"><ele>201.0</ele><time>2026-04-20T09:29:28.551Z</time></trkpt><trkpt lat="46.1350352" lon="9.3629896"><ele>201.0</ele><time>2026-04-20T09:29:30.552Z</time></trkpt><trkpt lat="46.1349549" lon="9.363044"><ele>201.0</ele><time>2026-04-20T09:29:32.551Z</time></trkpt><trkpt lat="46.1348831" lon="9.3630944"><ele>201.0</ele><time>2026-04-20T09:29:34.55Z</time></trkpt><trkpt lat="46.1348152" lon="9.3631397"><ele>201.0</ele><time>2026-04-20T09:29:36.55Z</time></trkpt><trkpt lat="46.1347336" lon="9.3631866"><ele>201.42857142857142</ele><time>2026-04-20T09:29:39.552Z</time></trkpt><trkpt lat="46.1346658" lon="9.3632318"><ele>201.85714285714286</ele><time>2026-04-20T09:29:41.55Z</time></trkpt><trkpt lat="46.1346075" lon="9.3632806"><ele>202.28571428571428</ele><time>2026-04-20T09:29:43.55Z</time></trkpt><trkpt lat="46.1345464" lon="9.3633286"><ele>202.71428571428572</ele><time>2026-04-20T09:29:45.55Z</time></trkpt><trkpt lat="46.134476" lon="9.3633749"><ele>203.14285714285717</ele><time>2026-04-20T09:29:47.551Z</time></trkpt><trkpt lat="46.1344123" lon="9.3634315"><ele>203.57142857142858</ele><time>2026-04-20T09:29:49.55Z</time></trkpt><trkpt lat="46.1343499" lon="9.3634793"><ele>204.0</ele><time>2026-04-20T09:29:51.55Z</time></trkpt><trkpt lat="46.1342851" lon="9.363521"><ele>204.0</ele><time>2026-04-20T09:29:53.551Z</time></trkpt><trkpt lat="46.1342255" lon="9.3635688"><ele>204.0</ele><time>2026-04-20T09:29:55.551Z</time></trkpt><trkpt lat="46.1341524" lon="9.3636155"><ele>204.0</ele><time>2026-04-20T09:29:57.551Z</time></trkpt><trkpt lat="46.134079" lon="9.3636752"><ele>204.0</ele><time>2026-04-20T09:29:59.551Z</time></trkpt><trkpt lat="46.1340068" lon="9.36372"><ele>204.0</ele><time>2026-04-20T09:30:01.551Z</time></trkpt><trkpt lat="46.1339287" lon="9.3637614"><ele>204.0</ele><time>2026-04-20T09:30:03.55Z</time></trkpt><trkpt lat="46.1338578" lon="9.3638015"><ele>204.5</ele><time>2026-04-20T09:30:05.55Z</time></trkpt><trkpt lat="46.1337901" lon="9.3638411"><ele>205.0</ele><time>2026-04-20T09:30:07.552Z</time></trkpt><trkpt lat="46.1337197" lon="9.3638763"><ele>205.5</ele><time>2026-04-20T09:30:09.55Z</time></trkpt><trkpt lat="46.133649" lon="9.3639144"><ele>206.0</ele><time>2026-04-20T09:30:11.55Z</time></trkpt><trkpt lat="46.1335794" lon="9.3639443"><ele>206.5</ele><time>2026-04-20T09:30:13.55Z</time></trkpt><trkpt lat="46.1335038" lon="9.3639356"><ele>207.0</ele><time>2026-04-20T09:30:15.551Z</time></trkpt><trkpt lat="46.133427" lon="9.363892"><ele>207.0</ele><time>2026-04-20T09:30:17.551Z</time></trkpt><trkpt lat="46.1333642" lon="9.3638191"><ele>207.0</ele><time>2026-04-20T09:30:20.551Z</time></trkpt><trkpt lat="46.1333077" lon="9.3637158"><ele>207.0</ele><time>2026-04-20T09:30:23.55Z</time></trkpt><trkpt lat="46.1332498" lon="9.3636101"><ele>207.0</ele><time>2026-04-20T09:30:26.552Z</time></trkpt><trkpt lat="46.1331685" lon="9.3634488"><ele>207.0</ele><time>2026-04-20T09:30:29.551Z</time></trkpt><trkpt lat="46.1331079" lon="9.3633513"><ele>207.5</ele><time>2026-04-20T09:30:31.55Z</time></trkpt><trkpt lat="46.1330565" lon="9.3632584"><ele>208.0</ele><time>2026-04-20T09:30:33.551Z</time></trkpt><trkpt lat="46.1330126" lon="9.3631551"><ele>208.5</ele><time>2026-04-20T09:30:35.55Z</time></trkpt><trkpt lat="46.1329552" lon="9.3630474"><ele>209.0</ele><time>2026-04-20T09:30:37.551Z</time></trkpt><trkpt lat="46.1329108" lon="9.3629497"><ele>209.5</ele><time>2026-04-20T09:30:39.552Z</time></trkpt><trkpt lat="46.1328636" lon="9.3628538"><ele>210.0</ele><time>2026-04-20T09:30:41.551Z</time></trkpt><trkpt lat="46.1328147" lon="9.3627571"><ele>210.0</ele><time>2026-04-20T09:30:43.55Z</time></trkpt><trkpt lat="46.132764" lon="9.3626503"><ele>210.0</ele><time>2026-04-20T09:30:45.55Z</time></trkpt><trkpt lat="46.1327156" lon="9.3625285"><ele>210.0</ele><time>2026-04-20T09:30:47.551Z</time></trkpt><trkpt lat="46.132653" lon="9.3624126"><ele>210.0</ele><time>2026-04-20T09:30:49.55Z</time></trkpt><trkpt lat="46.1326007" lon="9.3622977"><ele>210.0</ele><time>2026-04-20T09:30:51.552Z</time></trkpt><trkpt lat="46.1325426" lon="9.3621716"><ele>209.8</ele><time>2026-04-20T09:30:53.55Z</time></trkpt><trkpt lat="46.1324913" lon="9.3620473"><ele>209.6</ele><time>2026-04-20T09:30:55.551Z</time></trkpt><trkpt lat="46.1324581" lon="9.3619361"><ele>209.39999999999998</ele><time>2026-04-20T09:30:58.552Z</time></trkpt><trkpt lat="46.1323847" lon="9.3618246"><ele>209.2</ele><time>2026-04-20T09:31:00.551Z</time></trkpt><trkpt lat="46.1323349" lon="9.3616987"><ele>209.0</ele><time>2026-04-20T09:31:02.55Z</time></trkpt><trkpt lat="46.1322906" lon="9.3616003"><ele>210.0</ele><time>2026-04-20T09:31:03.551Z</time></trkpt><trkpt lat="46.1322282" lon="9.3615115"><ele>211.0</ele><time>2026-04-20T09:31:05.551Z</time></trkpt><trkpt lat="46.1321657" lon="9.3614119"><ele>211.99999999999997</ele><time>2026-04-20T09:31:07.552Z</time></trkpt><trkpt lat="46.132104" lon="9.361302"><ele>213.0</ele><time>2026-04-20T09:31:09.55Z</time></trkpt><trkpt lat="46.1320566" lon="9.3611805"><ele>214.0</ele><time>2026-04-20T09:31:11.551Z</time></trkpt><trkpt lat="46.1320044" lon="9.3610805"><ele>214.0</ele><time>2026-04-20T09:31:13.55Z</time></trkpt><trkpt lat="46.1319393" lon="9.360962"><ele>213.99999999999997</ele><time>2026-04-20T09:31:15.552Z</time></trkpt><trkpt lat="46.1318863" lon="9.3608539"><ele>213.99999999999997</ele><time>2026-04-20T09:31:17.55Z</time></trkpt><trkpt lat="46.1318256" lon="9.3607381"><ele>214.0</ele><time>2026-04-20T09:31:19.55Z</time></trkpt><trkpt lat="46.1317733" lon="9.3606285"><ele>214.0</ele><time>2026-04-20T09:31:21.552Z</time></trkpt><trkpt lat="46.1317112" lon="9.3605275"><ele>214.39999999999998</ele><time>2026-04-20T09:31:23.55Z</time></trkpt><trkpt lat="46.1316623" lon="9.3604211"><ele>214.79999999999998</ele><time>2026-04-20T09:31:25.551Z</time></trkpt><trkpt lat="46.1316143" lon="9.3603103"><ele>215.20000000000002</ele><time>2026-04-20T09:31:27.551Z</time></trkpt><trkpt lat="46.1315661" lon="9.3602059"><ele>215.60000000000002</ele><time>2026-04-20T09:31:29.551Z</time></trkpt><trkpt lat="46.1315007" lon="9.3600816"><ele>216.0</ele><time>2026-04-20T09:31:31.551Z</time></trkpt><trkpt lat="46.1314488" lon="9.3599727"><ele>216.0</ele><time>2026-04-20T09:31:33.55Z</time></trkpt><trkpt lat="46.1314066" lon="9.3598538"><ele>216.00000000000003</ele><time>2026-04-20T09:31:35.551Z</time></trkpt><trkpt lat="46.1313613" lon="9.3597355"><ele>216.00000000000003</ele><time>2026-04-20T09:31:37.552Z</time></trkpt><trkpt lat="46.1313313" lon="9.3596388"><ele>216.0</ele><time>2026-04-20T09:31:39.552Z</time></trkpt><trkpt lat="46.1313065" lon="9.3595022"><ele>216.0</ele><time>2026-04-20T09:31:41.551Z</time></trkpt><trkpt lat="46.1312793" lon="9.359354"><ele>215.20000000000002</ele><time>2026-04-20T09:31:43.553Z</time></trkpt><trkpt lat="46.1312345" lon="9.3592667"><ele>214.40000000000003</ele><time>2026-04-20T09:31:45.55Z</time></trkpt><trkpt lat="46.1311878" lon="9.3591501"><ele>213.6</ele><time>2026-04-20T09:31:46.55Z</time></trkpt><trkpt lat="46.1311396" lon="9.3590076"><ele>212.8</ele><time>2026-04-20T09:31:48.551Z</time></trkpt><trkpt lat="46.1311035" lon="9.3588385"><ele>212.0</ele><time>2026-04-20T09:31:50.552Z</time></trkpt><trkpt lat="46.1310632" lon="9.3587219"><ele>211.83333333333334</ele><time>2026-04-20T09:31:52.552Z</time></trkpt><trkpt lat="46.1310438" lon="9.3585991"><ele>211.66666666666669</ele><time>2026-04-20T09:31:54.551Z</time></trkpt><trkpt lat="46.1310089" lon="9.3585088"><ele>211.5</ele><time>2026-04-20T09:31:56.551Z</time></trkpt><trkpt lat="46.1309818" lon="9.3584264"><ele>211.33333333333331</ele><time>2026-04-20T09:31:57.55Z</time></trkpt><trkpt lat="46.1309514" lon="9.3583252"><ele>211.16666666666666</ele><time>2026-04-20T09:31:59.55Z</time></trkpt><trkpt lat="46.1309048" lon="9.3582335"><ele>211.0</ele><time>2026-04-20T09:32:01.55Z</time></trkpt><trkpt lat="46.1308093" lon="9.3580986"><ele>210.99999999999997</ele><time>2026-04-20T09:32:04.551Z</time></trkpt><trkpt lat="46.1307647" lon="9.3579966"><ele>211.0</ele><time>2026-04-20T09:32:06.551Z</time></trkpt><trkpt lat="46.1307236" lon="9.3578967"><ele>211.0</ele><time>2026-04-20T09:32:08.551Z</time></trkpt><trkpt lat="46.1306951" lon="9.3577456"><ele>211.0</ele><time>2026-04-20T09:32:10.551Z</time></trkpt><trkpt lat="46.1306644" lon="9.3576314"><ele>210.99999999999997</ele><time>2026-04-20T09:32:12.553Z</time></trkpt><trkpt lat="46.1306356" lon="9.3575063"><ele>211.0</ele><time>2026-04-20T09:32:14.55Z</time></trkpt><trkpt lat="46.1305971" lon="9.3574188"><ele>211.4</ele><time>2026-04-20T09:32:15.551Z</time></trkpt><trkpt lat="46.1305559" lon="9.3573025"><ele>211.8</ele><time>2026-04-20T09:32:17.552Z</time></trkpt><trkpt lat="46.1305092" lon="9.3571493"><ele>212.20000000000002</ele><time>2026-04-20T09:32:19.551Z</time></trkpt><trkpt lat="46.130474" lon="9.3570153"><ele>212.60000000000002</ele><time>2026-04-20T09:32:21.552Z</time></trkpt><trkpt lat="46.1304429" lon="9.3568858"><ele>213.0</ele><time>2026-04-20T09:32:23.55Z</time></trkpt><trkpt lat="46.1304082" lon="9.3567734"><ele>213.0</ele><time>2026-04-20T09:32:25.552Z</time></trkpt><trkpt lat="46.1303945" lon="9.3566811"><ele>213.0</ele><time>2026-04-20T09:32:26.552Z</time></trkpt><trkpt lat="46.1303678" lon="9.3564852"><ele>213.0</ele><time>2026-04-20T09:32:28.552Z</time></trkpt><trkpt lat="46.1303523" lon="9.3563346"><ele>213.0</ele><time>2026-04-20T09:32:30.552Z</time></trkpt><trkpt lat="46.1303026" lon="9.3561809"><ele>213.0</ele><time>2026-04-20T09:32:32.552Z</time></trkpt><trkpt lat="46.1302731" lon="9.3560848"><ele>212.4</ele><time>2026-04-20T09:32:33.551Z</time></trkpt><trkpt lat="46.1302343" lon="9.3559297"><ele>211.8</ele><time>2026-04-20T09:32:35.553Z</time></trkpt><trkpt lat="46.1302079" lon="9.355772"><ele>211.2</ele><time>2026-04-20T09:32:37.551Z</time></trkpt><trkpt lat="46.1301738" lon="9.3556114"><ele>210.6</ele><time>2026-04-20T09:32:39.551Z</time></trkpt><trkpt lat="46.1301505" lon="9.3555223"><ele>210.0</ele><time>2026-04-20T09:32:40.55Z</time></trkpt><trkpt lat="46.1301226" lon="9.3554304"><ele>210.0</ele><time>2026-04-20T09:32:41.552Z</time></trkpt><trkpt lat="46.1300945" lon="9.3553489"><ele>210.0</ele><time>2026-04-20T09:32:42.551Z</time></trkpt><trkpt lat="46.1300613" lon="9.3552653"><ele>210.0</ele><time>2026-04-20T09:32:43.551Z</time></trkpt><trkpt lat="46.1300042" lon="9.3551122"><ele>210.0</ele><time>2026-04-20T09:32:45.551Z</time></trkpt><trkpt lat="46.129971" lon="9.3550303"><ele>210.0</ele><time>2026-04-20T09:32:46.55Z</time></trkpt><trkpt lat="46.129937" lon="9.3549429"><ele>210.0</ele><time>2026-04-20T09:32:47.552Z</time></trkpt><trkpt lat="46.1299064" lon="9.3548624"><ele>210.0</ele><time>2026-04-20T09:32:48.552Z</time></trkpt><trkpt lat="46.1298853" lon="9.3547766"><ele>210.2</ele><time>2026-04-20T09:32:49.551Z</time></trkpt><trkpt lat="46.1298515" lon="9.3546249"><ele>210.4</ele><time>2026-04-20T09:32:51.551Z</time></trkpt><trkpt lat="46.1298012" lon="9.3544658"><ele>210.60000000000002</ele><time>2026-04-20T09:32:53.551Z</time></trkpt><trkpt lat="46.1297819" lon="9.3543276"><ele>210.8</ele><time>2026-04-20T09:32:55.551Z</time></trkpt><trkpt lat="46.1297492" lon="9.3542466"><ele>211.0</ele><time>2026-04-20T09:32:56.55Z</time></trkpt><trkpt lat="46.1296769" lon="9.3541079"><ele>211.0</ele><time>2026-04-20T09:32:58.552Z</time></trkpt><trkpt lat="46.1296352" lon="9.3540361"><ele>211.0</ele><time>2026-04-20T09:32:59.553Z</time></trkpt><trkpt lat="46.1295805" lon="9.3539569"><ele>211.0</ele><time>2026-04-20T09:33:00.55Z</time></trkpt><trkpt lat="46.1295428" lon="9.3538738"><ele>211.0</ele><time>2026-04-20T09:33:01.55Z</time></trkpt><trkpt lat="46.1294871" lon="9.3538094"><ele>211.0</ele><time>2026-04-20T09:33:02.551Z</time></trkpt><trkpt lat="46.1294462" lon="9.3537396"><ele>211.0</ele><time>2026-04-20T09:33:03.551Z</time></trkpt><trkpt lat="46.1293975" lon="9.3536653"><ele>211.0</ele><time>2026-04-20T09:33:04.551Z</time></trkpt><trkpt lat="46.1293397" lon="9.3535947"><ele>210.99999999999997</ele><time>2026-04-20T09:33:05.553Z</time></trkpt><trkpt lat="46.1292871" lon="9.3535138"><ele>211.0</ele><time>2026-04-20T09:33:06.551Z</time></trkpt><trkpt lat="46.1292392" lon="9.3534428"><ele>211.0</ele><time>2026-04-20T09:33:07.55Z</time></trkpt><trkpt lat="46.1291892" lon="9.3533516"><ele>211.0</ele><time>2026-04-20T09:33:08.552Z</time></trkpt><trkpt lat="46.1291386" lon="9.3532789"><ele>210.99999999999997</ele><time>2026-04-20T09:33:09.551Z</time></trkpt><trkpt lat="46.1290897" lon="9.3531969"><ele>211.0</ele><time>2026-04-20T09:33:10.552Z</time></trkpt><trkpt lat="46.1289997" lon="9.3530639"><ele>210.71428571428572</ele><time>2026-04-20T09:33:12.553Z</time></trkpt><trkpt lat="46.1289489" lon="9.3529931"><ele>210.42857142857144</ele><time>2026-04-20T09:33:13.552Z</time></trkpt><trkpt lat="46.1288976" lon="9.3529123"><ele>210.14285714285714</ele><time>2026-04-20T09:33:14.551Z</time></trkpt><trkpt lat="46.1288412" lon="9.3528521"><ele>209.85714285714286</ele><time>2026-04-20T09:33:15.553Z</time></trkpt><trkpt lat="46.1287956" lon="9.3527844"><ele>209.57142857142856</ele><time>2026-04-20T09:33:16.55Z</time></trkpt><trkpt lat="46.1287334" lon="9.3527194"><ele>209.28571428571428</ele><time>2026-04-20T09:33:17.55Z</time></trkpt><trkpt lat="46.128684" lon="9.3526519"><ele>209.0</ele><time>2026-04-20T09:33:18.551Z</time></trkpt><trkpt lat="46.1286272" lon="9.3525913"><ele>209.0</ele><time>2026-04-20T09:33:19.552Z</time></trkpt><trkpt lat="46.1285765" lon="9.3525278"><ele>209.0</ele><time>2026-04-20T09:33:20.552Z</time></trkpt><trkpt lat="46.1285275" lon="9.3524673"><ele>209.0</ele><time>2026-04-20T09:33:21.551Z</time></trkpt><trkpt lat="46.1284648" lon="9.3524019"><ele>209.0</ele><time>2026-04-20T09:33:22.551Z</time></trkpt><trkpt lat="46.128406" lon="9.3523422"><ele>209.0</ele><time>2026-04-20T09:33:23.551Z</time></trkpt><trkpt lat="46.128351" lon="9.3522824"><ele>209.0</ele><time>2026-04-20T09:33:24.551Z</time></trkpt><trkpt lat="46.1282964" lon="9.3522202"><ele>209.0</ele><time>2026-04-20T09:33:25.551Z</time></trkpt><trkpt lat="46.1282483" lon="9.3521567"><ele>209.00000000000003</ele><time>2026-04-20T09:33:26.551Z</time></trkpt><trkpt lat="46.1281984" lon="9.3520944"><ele>209.0</ele><time>2026-04-20T09:33:27.55Z</time></trkpt><trkpt lat="46.1281448" lon="9.3520329"><ele>209.0</ele><time>2026-04-20T09:33:28.551Z</time></trkpt><trkpt lat="46.128071" lon="9.351961"><ele>209.0</ele><time>2026-04-20T09:33:30.551Z</time></trkpt><trkpt lat="46.1279924" lon="9.351942"><ele>209.00000000000003</ele><time>2026-04-20T09:33:32.551Z</time></trkpt><trkpt lat="46.1279013" lon="9.3519332"><ele>209.0</ele><time>2026-04-20T09:33:34.552Z</time></trkpt><trkpt lat="46.1277957" lon="9.3519141"><ele>209.0</ele><time>2026-04-20T09:33:36.551Z</time></trkpt><trkpt lat="46.127691" lon="9.3518798"><ele>209.0</ele><time>2026-04-20T09:33:38.551Z</time></trkpt><trkpt lat="46.1275912" lon="9.3518308"><ele>209.0</ele><time>2026-04-20T09:33:40.551Z</time></trkpt><trkpt lat="46.1274846" lon="9.3517665"><ele>209.0</ele><time>2026-04-20T09:33:42.551Z</time></trkpt><trkpt lat="46.1273613" lon="9.3516672"><ele>209.00000000000003</ele><time>2026-04-20T09:33:44.551Z</time></trkpt><trkpt lat="46.1272776" lon="9.3516372"><ele>209.0</ele><time>2026-04-20T09:33:46.551Z</time></trkpt><trkpt lat="46.1271579" lon="9.3516181"><ele>209.0</ele><time>2026-04-20T09:33:48.553Z</time></trkpt><trkpt lat="46.1270861" lon="9.3516177"><ele>209.0</ele><time>2026-04-20T09:33:49.552Z</time></trkpt><trkpt lat="46.1270149" lon="9.3516161"><ele>209.00000000000003</ele><time>2026-04-20T09:33:50.551Z</time></trkpt><trkpt lat="46.1269399" lon="9.3516172"><ele>209.0</ele><time>2026-04-20T09:33:51.552Z</time></trkpt><trkpt lat="46.1268738" lon="9.3516139"><ele>209.0</ele><time>2026-04-20T09:33:52.551Z</time></trkpt><trkpt lat="46.1268088" lon="9.3516149"><ele>209.0</ele><time>2026-04-20T09:33:53.551Z</time></trkpt><trkpt lat="46.1267447" lon="9.3516083"><ele>209.0</ele><time>2026-04-20T09:33:54.551Z</time></trkpt><trkpt lat="46.1266209" lon="9.3516129"><ele>209.0</ele><time>2026-04-20T09:33:56.551Z</time></trkpt><trkpt lat="46.1265096" lon="9.3515801"><ele>209.0</ele><time>2026-04-20T09:33:58.552Z</time></trkpt><trkpt lat="46.1264218" lon="9.3514716"><ele>209.00000000000003</ele><time>2026-04-20T09:34:00.551Z</time></trkpt><trkpt lat="46.126374" lon="9.351408"><ele>209.0</ele><time>2026-04-20T09:34:01.552Z</time></trkpt><trkpt lat="46.1262955" lon="9.3512719"><ele>209.0</ele><time>2026-04-20T09:34:03.551Z</time></trkpt><trkpt lat="46.1262081" lon="9.3511507"><ele>209.0</ele><time>2026-04-20T09:34:05.551Z</time></trkpt><trkpt lat="46.1261628" lon="9.3510821"><ele>209.00000000000003</ele><time>2026-04-20T09:34:06.551Z</time></trkpt><trkpt lat="46.1261095" lon="9.3510206"><ele>209.0</ele><time>2026-04-20T09:34:07.552Z</time></trkpt><trkpt lat="46.1260591" lon="9.3509583"><ele>209.0</ele><time>2026-04-20T09:34:08.551Z</time></trkpt><trkpt lat="46.1260044" lon="9.3508986"><ele>209.0</ele><time>2026-04-20T09:34:09.552Z</time></trkpt><trkpt lat="46.1259526" lon="9.3508354"><ele>209.0</ele><time>2026-04-20T09:34:10.551Z</time></trkpt><trkpt lat="46.1259019" lon="9.3507741"><ele>209.0</ele><time>2026-04-20T09:34:11.551Z</time></trkpt><trkpt lat="46.1258522" lon="9.35071"><ele>209.0</ele><time>2026-04-20T09:34:12.55Z</time></trkpt><trkpt lat="46.1257948" lon="9.3506365"><ele>209.0</ele><time>2026-04-20T09:34:13.552Z</time></trkpt><trkpt lat="46.1257425" lon="9.3505595"><ele>209.0</ele><time>2026-04-20T09:34:14.551Z</time></trkpt><trkpt lat="46.1256951" lon="9.3504853"><ele>208.71428571428572</ele><time>2026-04-20T09:34:15.551Z</time></trkpt><trkpt lat="46.1256418" lon="9.3504172"><ele>208.42857142857142</ele><time>2026-04-20T09:34:16.55Z</time></trkpt><trkpt lat="46.1255902" lon="9.3503505"><ele>208.14285714285717</ele><time>2026-04-20T09:34:17.551Z</time></trkpt><trkpt lat="46.1255366" lon="9.3502842"><ele>207.85714285714286</ele><time>2026-04-20T09:34:18.551Z</time></trkpt><trkpt lat="46.1254845" lon="9.3502132"><ele>207.57142857142858</ele><time>2026-04-20T09:34:19.553Z</time></trkpt><trkpt lat="46.1254322" lon="9.3501323"><ele>207.2857142857143</ele><time>2026-04-20T09:34:20.552Z</time></trkpt><trkpt lat="46.1253818" lon="9.3500528"><ele>207.0</ele><time>2026-04-20T09:34:21.552Z</time></trkpt><trkpt lat="46.1253404" lon="9.3499786"><ele>207.0</ele><time>2026-04-20T09:34:22.551Z</time></trkpt><trkpt lat="46.1252999" lon="9.3499004"><ele>207.0</ele><time>2026-04-20T09:34:23.551Z</time></trkpt><trkpt lat="46.1252625" lon="9.349817"><ele>207.0</ele><time>2026-04-20T09:34:24.553Z</time></trkpt><trkpt lat="46.1252239" lon="9.3497365"><ele>207.0</ele><time>2026-04-20T09:34:25.55Z</time></trkpt><trkpt lat="46.1251886" lon="9.3496611"><ele>207.0</ele><time>2026-04-20T09:34:26.55Z</time></trkpt><trkpt lat="46.1251075" lon="9.3495196"><ele>207.0</ele><time>2026-04-20T09:34:28.551Z</time></trkpt><trkpt lat="46.1250115" lon="9.3493953"><ele>206.6</ele><time>2026-04-20T09:34:30.551Z</time></trkpt><trkpt lat="46.1249412" lon="9.3493136"><ele>206.2</ele><time>2026-04-20T09:34:32.552Z</time></trkpt><trkpt lat="46.1248536" lon="9.3492181"><ele>205.8</ele><time>2026-04-20T09:34:34.552Z</time></trkpt><trkpt lat="46.1247743" lon="9.3490884"><ele>205.4</ele><time>2026-04-20T09:34:36.55Z</time></trkpt><trkpt lat="46.1247258" lon="9.3490068"><ele>205.0</ele><time>2026-04-20T09:34:37.551Z</time></trkpt><trkpt lat="46.1246471" lon="9.3488852"><ele>204.8</ele><time>2026-04-20T09:34:39.552Z</time></trkpt><trkpt lat="46.1246022" lon="9.3488158"><ele>204.6</ele><time>2026-04-20T09:34:40.552Z</time></trkpt><trkpt lat="46.1245487" lon="9.3487344"><ele>204.39999999999998</ele><time>2026-04-20T09:34:41.551Z</time></trkpt><trkpt lat="46.1244508" lon="9.3486108"><ele>204.2</ele><time>2026-04-20T09:34:43.55Z</time></trkpt><trkpt lat="46.1243119" lon="9.3484809"><ele>204.0</ele><time>2026-04-20T09:34:45.551Z</time></trkpt><trkpt lat="46.1242102" lon="9.3483669"><ele>204.0</ele><time>2026-04-20T09:34:47.552Z</time></trkpt><trkpt lat="46.1241279" lon="9.3482969"><ele>204.0</ele><time>2026-04-20T09:34:48.551Z</time></trkpt><trkpt lat="46.1240573" lon="9.3482059"><ele>204.0</ele><time>2026-04-20T09:34:50.551Z</time></trkpt><trkpt lat="46.1240087" lon="9.3481378"><ele>204.0</ele><time>2026-04-20T09:34:51.551Z</time></trkpt><trkpt lat="46.1239231" lon="9.3480468"><ele>204.0</ele><time>2026-04-20T09:34:53.551Z</time></trkpt><trkpt lat="46.1238648" lon="9.3479854"><ele>204.0</ele><time>2026-04-20T09:34:55.552Z</time></trkpt><trkpt lat="46.1237803" lon="9.3479526"><ele>204.5</ele><time>2026-04-20T09:34:58.551Z</time></trkpt><trkpt lat="46.1237481" lon="9.3480772"><ele>205.0</ele><time>2026-04-20T09:35:01.551Z</time></trkpt><trkpt lat="46.1237366" lon="9.3482083"><ele>205.5</ele><time>2026-04-20T09:35:04.55Z</time></trkpt><trkpt lat="46.1237553" lon="9.348341"><ele>206.0</ele><time>2026-04-20T09:35:07.552Z</time></trkpt><trkpt lat="46.123734" lon="9.3484628"><ele>206.5</ele><time>2026-04-20T09:35:10.551Z</time></trkpt><trkpt lat="46.1237191" lon="9.34856"><ele>207.0</ele><time>2026-04-20T09:35:12.551Z</time></trkpt><trkpt lat="46.1237027" lon="9.3486511"><ele>207.0</ele><time>2026-04-20T09:35:14.551Z</time></trkpt><trkpt lat="46.1236873" lon="9.3487425"><ele>207.0</ele><time>2026-04-20T09:35:16.551Z</time></trkpt><trkpt lat="46.1236658" lon="9.3488295"><ele>207.0</ele><time>2026-04-20T09:35:18.551Z</time></trkpt><trkpt lat="46.1236536" lon="9.3489638"><ele>207.0</ele><time>2026-04-20T09:35:21.552Z</time></trkpt><trkpt lat="46.1236351" lon="9.3490903"><ele>207.0</ele><time>2026-04-20T09:35:24.55Z</time></trkpt><trkpt lat="46.123602" lon="9.349208"><ele>207.0</ele><time>2026-04-20T09:35:27.551Z</time></trkpt><trkpt lat="46.1235859" lon="9.3493152"><ele>207.0</ele><time>2026-04-20T09:35:31.551Z</time></trkpt><trkpt lat="46.1234859" lon="9.3493069"><ele>207.0</ele><time>2026-04-20T09:35:36.552Z</time></trkpt><trkpt lat="46.1234161" lon="9.3492782"><ele>207.0</ele><time>2026-04-20T09:35:38.551Z</time></trkpt><trkpt lat="46.1233529" lon="9.3492456"><ele>207.0</ele><time>2026-04-20T09:35:40.551Z</time></trkpt><trkpt lat="46.1232912" lon="9.3492192"><ele>207.0</ele><time>2026-04-20T09:35:42.551Z</time></trkpt><trkpt lat="46.1232271" lon="9.3491582"><ele>207.0</ele><time>2026-04-20T09:35:44.551Z</time></trkpt><trkpt lat="46.1231388" lon="9.3490854"><ele>207.0</ele><time>2026-04-20T09:35:46.553Z</time></trkpt><trkpt lat="46.1230105" lon="9.3490397"><ele>207.0</ele><time>2026-04-20T09:35:48.55Z</time></trkpt><trkpt lat="46.1228932" lon="9.3489703"><ele>207.0</ele><time>2026-04-20T09:35:50.552Z</time></trkpt><trkpt lat="46.1227737" lon="9.3489013"><ele>207.0</ele><time>2026-04-20T09:35:52.552Z</time></trkpt><trkpt lat="46.1227026" lon="9.3488742"><ele>207.0</ele><time>2026-04-20T09:35:53.552Z</time></trkpt><trkpt lat="46.1225741" lon="9.3488293"><ele>207.0</ele><time>2026-04-20T09:35:55.551Z</time></trkpt><trkpt lat="46.1224967" lon="9.3487923"><ele>207.0</ele><time>2026-04-20T09:35:56.551Z</time></trkpt><trkpt lat="46.122418" lon="9.3487566"><ele>207.0</ele><time>2026-04-20T09:35:57.552Z</time></trkpt><trkpt lat="46.1223507" lon="9.3487185"><ele>207.0</ele><time>2026-04-20T09:35:58.552Z</time></trkpt><trkpt lat="46.1222797" lon="9.3486732"><ele>207.0</ele><time>2026-04-20T09:35:59.552Z</time></trkpt><trkpt lat="46.1222031" lon="9.3486466"><ele>206.85714285714286</ele><time>2026-04-20T09:36:00.552Z</time></trkpt><trkpt lat="46.1221346" lon="9.3486199"><ele>206.71428571428572</ele><time>2026-04-20T09:36:01.552Z</time></trkpt><trkpt lat="46.1220707" lon="9.3485852"><ele>206.57142857142856</ele><time>2026-04-20T09:36:02.552Z</time></trkpt><trkpt lat="46.1220082" lon="9.3485537"><ele>206.42857142857144</ele><time>2026-04-20T09:36:03.551Z</time></trkpt><trkpt lat="46.1219446" lon="9.3485234"><ele>206.28571428571428</ele><time>2026-04-20T09:36:04.552Z</time></trkpt><trkpt lat="46.121877" lon="9.348488"><ele>206.14285714285714</ele><time>2026-04-20T09:36:05.552Z</time></trkpt><trkpt lat="46.1218111" lon="9.3484591"><ele>206.0</ele><time>2026-04-20T09:36:06.552Z</time></trkpt><trkpt lat="46.1217436" lon="9.3484301"><ele>205.99999999999997</ele><time>2026-04-20T09:36:07.552Z</time></trkpt><trkpt lat="46.1216722" lon="9.3484016"><ele>206.0</ele><time>2026-04-20T09:36:08.551Z</time></trkpt><trkpt lat="46.1216113" lon="9.3483604"><ele>206.0</ele><time>2026-04-20T09:36:09.552Z</time></trkpt><trkpt lat="46.1215464" lon="9.3483186"><ele>206.0</ele><time>2026-04-20T09:36:10.551Z</time></trkpt><trkpt lat="46.1214615" lon="9.3482583"><ele>206.0</ele><time>2026-04-20T09:36:11.553Z</time></trkpt><trkpt lat="46.1213941" lon="9.3482268"><ele>205.99999999999997</ele><time>2026-04-20T09:36:12.551Z</time></trkpt><trkpt lat="46.1213272" lon="9.3481911"><ele>206.0</ele><time>2026-04-20T09:36:13.551Z</time></trkpt><trkpt lat="46.1212575" lon="9.3481532"><ele>206.16666666666669</ele><time>2026-04-20T09:36:14.551Z</time></trkpt><trkpt lat="46.1211933" lon="9.3481254"><ele>206.33333333333334</ele><time>2026-04-20T09:36:15.552Z</time></trkpt><trkpt lat="46.1211327" lon="9.3480981"><ele>206.5</ele><time>2026-04-20T09:36:16.552Z</time></trkpt><trkpt lat="46.121061" lon="9.3480673"><ele>206.66666666666669</ele><time>2026-04-20T09:36:17.553Z</time></trkpt><trkpt lat="46.1210012" lon="9.3480357"><ele>206.83333333333334</ele><time>2026-04-20T09:36:18.552Z</time></trkpt><trkpt lat="46.120932" lon="9.348014"><ele>207.0</ele><time>2026-04-20T09:36:19.552Z</time></trkpt><trkpt lat="46.1208158" lon="9.3479532"><ele>206.6</ele><time>2026-04-20T09:36:21.551Z</time></trkpt><trkpt lat="46.1207484" lon="9.3479303"><ele>206.2</ele><time>2026-04-20T09:36:22.552Z</time></trkpt><trkpt lat="46.1206275" lon="9.3478817"><ele>205.8</ele><time>2026-04-20T09:36:24.551Z</time></trkpt><trkpt lat="46.1205667" lon="9.3478457"><ele>205.4</ele><time>2026-04-20T09:36:25.551Z</time></trkpt><trkpt lat="46.1204517" lon="9.3477839"><ele>205.0</ele><time>2026-04-20T09:36:27.551Z</time></trkpt><trkpt lat="46.1203367" lon="9.3477406"><ele>205.0</ele><time>2026-04-20T09:36:29.551Z</time></trkpt><trkpt lat="46.1202429" lon="9.3476944"><ele>205.0</ele><time>2026-04-20T09:36:31.552Z</time></trkpt><trkpt lat="46.1201452" lon="9.3476264"><ele>205.0</ele><time>2026-04-20T09:36:33.551Z</time></trkpt><trkpt lat="46.1200494" lon="9.347578"><ele>205.0</ele><time>2026-04-20T09:36:35.551Z</time></trkpt><trkpt lat="46.1199482" lon="9.347521"><ele>205.0</ele><time>2026-04-20T09:36:37.551Z</time></trkpt><trkpt lat="46.1198354" lon="9.347477"><ele>205.6</ele><time>2026-04-20T09:36:39.551Z</time></trkpt><trkpt lat="46.1197334" lon="9.3474267"><ele>206.2</ele><time>2026-04-20T09:36:41.553Z</time></trkpt><trkpt lat="46.1196388" lon="9.3473903"><ele>206.8</ele><time>2026-04-20T09:36:43.551Z</time></trkpt><trkpt lat="46.1195359" lon="9.3473294"><ele>207.4</ele><time>2026-04-20T09:36:45.552Z</time></trkpt><trkpt lat="46.1194326" lon="9.3472705"><ele>208.0</ele><time>2026-04-20T09:36:47.552Z</time></trkpt><trkpt lat="46.1193138" lon="9.3472208"><ele>206.83333333333331</ele><time>2026-04-20T09:36:49.553Z</time></trkpt><trkpt lat="46.1191948" lon="9.3471896"><ele>205.66666666666666</ele><time>2026-04-20T09:36:51.551Z</time></trkpt><trkpt lat="46.1191233" lon="9.3471734"><ele>204.5</ele><time>2026-04-20T09:36:52.552Z</time></trkpt><trkpt lat="46.1190611" lon="9.3471485"><ele>203.33333333333331</ele><time>2026-04-20T09:36:53.551Z</time></trkpt><trkpt lat="46.1189937" lon="9.3471317"><ele>202.16666666666666</ele><time>2026-04-20T09:36:54.552Z</time></trkpt><trkpt lat="46.118925" lon="9.3471092"><ele>201.0</ele><time>2026-04-20T09:36:55.552Z</time></trkpt><trkpt lat="46.1188551" lon="9.3470802"><ele>201.0</ele><time>2026-04-20T09:36:56.552Z</time></trkpt><trkpt lat="46.1187917" lon="9.3470562"><ele>201.0</ele><time>2026-04-20T09:36:57.552Z</time></trkpt><trkpt lat="46.1187278" lon="9.3470405"><ele>201.0</ele><time>2026-04-20T09:36:58.551Z</time></trkpt><trkpt lat="46.1186626" lon="9.3470183"><ele>201.0</ele><time>2026-04-20T09:36:59.552Z</time></trkpt><trkpt lat="46.1186007" lon="9.346996"><ele>201.0</ele><time>2026-04-20T09:37:00.553Z</time></trkpt><trkpt lat="46.1184665" lon="9.3469704"><ele>201.0</ele><time>2026-04-20T09:37:02.551Z</time></trkpt><trkpt lat="46.1183999" lon="9.3469455"><ele>201.0</ele><time>2026-04-20T09:37:03.552Z</time></trkpt><trkpt lat="46.1183316" lon="9.346923"><ele>201.0</ele><time>2026-04-20T09:37:04.553Z</time></trkpt><trkpt lat="46.118267" lon="9.3468973"><ele>201.0</ele><time>2026-04-20T09:37:05.552Z</time></trkpt><trkpt lat="46.1182023" lon="9.3468737"><ele>201.0</ele><time>2026-04-20T09:37:06.551Z</time></trkpt><trkpt lat="46.1181364" lon="9.346854"><ele>201.0</ele><time>2026-04-20T09:37:07.552Z</time></trkpt><trkpt lat="46.1180663" lon="9.3468367"><ele>201.0</ele><time>2026-04-20T09:37:08.552Z</time></trkpt><trkpt lat="46.1179963" lon="9.3468187"><ele>201.0</ele><time>2026-04-20T09:37:09.552Z</time></trkpt><trkpt lat="46.1179239" lon="9.3468057"><ele>201.28571428571428</ele><time>2026-04-20T09:37:10.553Z</time></trkpt><trkpt lat="46.1178525" lon="9.3467761"><ele>201.57142857142858</ele><time>2026-04-20T09:37:11.552Z</time></trkpt><trkpt lat="46.1177838" lon="9.3467535"><ele>201.85714285714286</ele><time>2026-04-20T09:37:12.551Z</time></trkpt><trkpt lat="46.117717" lon="9.3467299"><ele>202.14285714285714</ele><time>2026-04-20T09:37:13.552Z</time></trkpt><trkpt lat="46.1176506" lon="9.3467088"><ele>202.42857142857144</ele><time>2026-04-20T09:37:14.553Z</time></trkpt><trkpt lat="46.1175884" lon="9.3466834"><ele>202.71428571428572</ele><time>2026-04-20T09:37:15.552Z</time></trkpt><trkpt lat="46.1175209" lon="9.3466613"><ele>203.0</ele><time>2026-04-20T09:37:16.552Z</time></trkpt><trkpt lat="46.1174562" lon="9.3466455"><ele>207.2</ele><time>2026-04-20T09:37:17.551Z</time></trkpt><trkpt lat="46.1173389" lon="9.3466034"><ele>211.4</ele><time>2026-04-20T09:37:19.551Z</time></trkpt><trkpt lat="46.1172182" lon="9.3465623"><ele>215.59999999999997</ele><time>2026-04-20T09:37:21.552Z</time></trkpt><trkpt lat="46.1171399" lon="9.3465048"><ele>219.79999999999998</ele><time>2026-04-20T09:37:23.553Z</time></trkpt><trkpt lat="46.1170789" lon="9.3464726"><ele>224.0</ele><time>2026-04-20T09:37:25.551Z</time></trkpt><trkpt lat="46.1170148" lon="9.3463979"><ele>220.79999999999998</ele><time>2026-04-20T09:37:46.552Z</time></trkpt><trkpt lat="46.1169686" lon="9.3463326"><ele>217.59999999999997</ele><time>2026-04-20T09:37:48.551Z</time></trkpt><trkpt lat="46.1169009" lon="9.3462451"><ele>214.4</ele><time>2026-04-20T09:37:50.552Z</time></trkpt><trkpt lat="46.1168415" lon="9.3461539"><ele>211.2</ele><time>2026-04-20T09:37:52.552Z</time></trkpt><trkpt lat="46.116778" lon="9.3460265"><ele>208.0</ele><time>2026-04-20T09:37:54.552Z</time></trkpt><trkpt lat="46.1167051" lon="9.3458945"><ele>207.99999999999997</ele><time>2026-04-20T09:37:56.552Z</time></trkpt><trkpt lat="46.1166396" lon="9.3457567"><ele>208.0</ele><time>2026-04-20T09:37:58.552Z</time></trkpt><trkpt lat="46.1166019" lon="9.3456741"><ele>208.0</ele><time>2026-04-20T09:37:59.551Z</time></trkpt><trkpt lat="46.1165671" lon="9.3455973"><ele>208.0</ele><time>2026-04-20T09:38:00.552Z</time></trkpt><trkpt lat="46.1165201" lon="9.345437"><ele>207.99999999999997</ele><time>2026-04-20T09:38:02.551Z</time></trkpt><trkpt lat="46.1164923" lon="9.3453529"><ele>208.0</ele><time>2026-04-20T09:38:03.551Z</time></trkpt><trkpt lat="46.1164707" lon="9.345265"><ele>211.83333333333331</ele><time>2026-04-20T09:38:04.554Z</time></trkpt><trkpt lat="46.1164354" lon="9.3451599"><ele>215.66666666666666</ele><time>2026-04-20T09:38:05.552Z</time></trkpt><trkpt lat="46.1164183" lon="9.345061"><ele>219.5</ele><time>2026-04-20T09:38:06.552Z</time></trkpt><trkpt lat="46.1164022" lon="9.3448768"><ele>223.33333333333331</ele><time>2026-04-20T09:38:08.552Z</time></trkpt><trkpt lat="46.1163867" lon="9.344784"><ele>227.16666666666666</ele><time>2026-04-20T09:38:09.552Z</time></trkpt><trkpt lat="46.1163754" lon="9.3446857"><ele>231.0</ele><time>2026-04-20T09:38:10.553Z</time></trkpt><trkpt lat="46.1163657" lon="9.3445863"><ele>231.0</ele><time>2026-04-20T09:38:11.552Z</time></trkpt><trkpt lat="46.1163594" lon="9.3444728"><ele>231.0</ele><time>2026-04-20T09:38:12.553Z</time></trkpt><trkpt lat="46.1163491" lon="9.3443754"><ele>231.0</ele><time>2026-04-20T09:38:13.552Z</time></trkpt><trkpt lat="46.1163331" lon="9.3442707"><ele>231.0</ele><time>2026-04-20T09:38:14.552Z</time></trkpt><trkpt lat="46.1163218" lon="9.3441631"><ele>231.0</ele><time>2026-04-20T09:38:15.551Z</time></trkpt><trkpt lat="46.116306" lon="9.3440593"><ele>231.0</ele><time>2026-04-20T09:38:16.551Z</time></trkpt><trkpt lat="46.1162956" lon="9.3439574"><ele>231.0</ele><time>2026-04-20T09:38:17.551Z</time></trkpt><trkpt lat="46.1162852" lon="9.3438578"><ele>231.33333333333334</ele><time>2026-04-20T09:38:18.552Z</time></trkpt><trkpt lat="46.1162634" lon="9.3436664"><ele>231.66666666666669</ele><time>2026-04-20T09:38:20.551Z</time></trkpt><trkpt lat="46.1162608" lon="9.343567"><ele>232.0</ele><time>2026-04-20T09:38:21.551Z</time></trkpt><trkpt lat="46.1162542" lon="9.3434609"><ele>232.33333333333334</ele><time>2026-04-20T09:38:22.552Z</time></trkpt><trkpt lat="46.1162427" lon="9.3433522"><ele>232.66666666666669</ele><time>2026-04-20T09:38:23.552Z</time></trkpt><trkpt lat="46.1162325" lon="9.3432471"><ele>233.0</ele><time>2026-04-20T09:38:24.551Z</time></trkpt><trkpt lat="46.1162274" lon="9.3431495"><ele>234.28571428571428</ele><time>2026-04-20T09:38:25.552Z</time></trkpt><trkpt lat="46.1162138" lon="9.3430421"><ele>235.57142857142856</ele><time>2026-04-20T09:38:26.552Z</time></trkpt><trkpt lat="46.116208" lon="9.3429373"><ele>236.85714285714283</ele><time>2026-04-20T09:38:27.552Z</time></trkpt><trkpt lat="46.1162145" lon="9.3428316"><ele>238.14285714285714</ele><time>2026-04-20T09:38:28.552Z</time></trkpt><trkpt lat="46.1162218" lon="9.3427355"><ele>239.4285714285714</ele><time>2026-04-20T09:38:29.552Z</time></trkpt><trkpt lat="46.1162245" lon="9.3426336"><ele>240.7142857142857</ele><time>2026-04-20T09:38:30.552Z</time></trkpt><trkpt lat="46.1162259" lon="9.3425128"><ele>242.0</ele><time>2026-04-20T09:38:31.552Z</time></trkpt><trkpt lat="46.1162299" lon="9.3424154"><ele>242.0</ele><time>2026-04-20T09:38:32.551Z</time></trkpt><trkpt lat="46.1162432" lon="9.3423025"><ele>241.99999999999997</ele><time>2026-04-20T09:38:33.552Z</time></trkpt><trkpt lat="46.1162602" lon="9.3422065"><ele>242.0</ele><time>2026-04-20T09:38:34.553Z</time></trkpt><trkpt lat="46.1162739" lon="9.3421107"><ele>242.0</ele><time>2026-04-20T09:38:35.551Z</time></trkpt><trkpt lat="46.1162899" lon="9.3420131"><ele>241.99999999999997</ele><time>2026-04-20T09:38:36.551Z</time></trkpt><trkpt lat="46.11631" lon="9.3419132"><ele>242.0</ele><time>2026-04-20T09:38:37.551Z</time></trkpt><trkpt lat="46.1163352" lon="9.3418239"><ele>242.0</ele><time>2026-04-20T09:38:38.553Z</time></trkpt><trkpt lat="46.1163559" lon="9.3417338"><ele>243.8</ele><time>2026-04-20T09:38:39.554Z</time></trkpt><trkpt lat="46.1163888" lon="9.3415594"><ele>245.6</ele><time>2026-04-20T09:38:41.552Z</time></trkpt><trkpt lat="46.1164073" lon="9.3414699"><ele>247.40000000000003</ele><time>2026-04-20T09:38:42.553Z</time></trkpt><trkpt lat="46.1164573" lon="9.3413157"><ele>249.20000000000002</ele><time>2026-04-20T09:38:44.553Z</time></trkpt><trkpt lat="46.1164784" lon="9.3411871"><ele>251.0</ele><time>2026-04-20T09:38:46.552Z</time></trkpt><trkpt lat="46.1165026" lon="9.3410864"><ele>254.16666666666669</ele><time>2026-04-20T09:38:48.551Z</time></trkpt><trkpt lat="46.1165412" lon="9.3409801"><ele>257.33333333333337</ele><time>2026-04-20T09:38:51.551Z</time></trkpt><trkpt lat="46.1165432" lon="9.3408791"><ele>260.5</ele><time>2026-04-20T09:40:38.552Z</time></trkpt><trkpt lat="46.116562" lon="9.3407764"><ele>263.6666666666667</ele><time>2026-04-20T09:40:41.553Z</time></trkpt><trkpt lat="46.1165887" lon="9.3406764"><ele>266.8333333333333</ele><time>2026-04-20T09:40:43.552Z</time></trkpt><trkpt lat="46.1166129" lon="9.3405602"><ele>270.0</ele><time>2026-04-20T09:40:45.552Z</time></trkpt><trkpt lat="46.116634" lon="9.3404264"><ele>263.4</ele><time>2026-04-20T09:40:47.551Z</time></trkpt><trkpt lat="46.1166578" lon="9.3402814"><ele>256.8</ele><time>2026-04-20T09:40:49.552Z</time></trkpt><trkpt lat="46.1166971" lon="9.3401456"><ele>250.2</ele><time>2026-04-20T09:40:51.552Z</time></trkpt><trkpt lat="46.1167277" lon="9.3400013"><ele>243.6</ele><time>2026-04-20T09:40:53.553Z</time></trkpt><trkpt lat="46.1167555" lon="9.3398584"><ele>237.0</ele><time>2026-04-20T09:40:55.552Z</time></trkpt><trkpt lat="46.1167827" lon="9.3397045"><ele>237.0</ele><time>2026-04-20T09:40:57.553Z</time></trkpt><trkpt lat="46.1168066" lon="9.3395334"><ele>237.0</ele><time>2026-04-20T09:40:59.553Z</time></trkpt><trkpt lat="46.1168178" lon="9.3394439"><ele>237.0</ele><time>2026-04-20T09:41:00.553Z</time></trkpt><trkpt lat="46.1168381" lon="9.3393523"><ele>237.0</ele><time>2026-04-20T09:41:01.552Z</time></trkpt><trkpt lat="46.1168684" lon="9.3391927"><ele>237.0</ele><time>2026-04-20T09:41:03.552Z</time></trkpt><trkpt lat="46.1168956" lon="9.339033"><ele>237.6</ele><time>2026-04-20T09:41:05.551Z</time></trkpt><trkpt lat="46.116903" lon="9.3388731"><ele>238.2</ele><time>2026-04-20T09:41:07.551Z</time></trkpt><trkpt lat="46.1169114" lon="9.3387103"><ele>238.8</ele><time>2026-04-20T09:41:09.551Z</time></trkpt><trkpt lat="46.1169045" lon="9.3386189"><ele>239.4</ele><time>2026-04-20T09:41:10.551Z</time></trkpt><trkpt lat="46.1169105" lon="9.3384669"><ele>240.0</ele><time>2026-04-20T09:41:12.553Z</time></trkpt><trkpt lat="46.1169197" lon="9.3383333"><ele>240.0</ele><time>2026-04-20T09:41:14.552Z</time></trkpt><trkpt lat="46.1169299" lon="9.3381719"><ele>240.0</ele><time>2026-04-20T09:41:16.552Z</time></trkpt><trkpt lat="46.1169521" lon="9.3379983"><ele>240.0</ele><time>2026-04-20T09:41:18.552Z</time></trkpt><trkpt lat="46.1169529" lon="9.3378441"><ele>240.0</ele><time>2026-04-20T09:41:20.551Z</time></trkpt><trkpt lat="46.1169465" lon="9.3376784"><ele>238.8</ele><time>2026-04-20T09:41:22.552Z</time></trkpt><trkpt lat="46.1169439" lon="9.3375455"><ele>237.6</ele><time>2026-04-20T09:41:24.551Z</time></trkpt><trkpt lat="46.1169173" lon="9.3374159"><ele>236.39999999999998</ele><time>2026-04-20T09:41:26.552Z</time></trkpt><trkpt lat="46.1168837" lon="9.3372859"><ele>235.2</ele><time>2026-04-20T09:41:28.552Z</time></trkpt><trkpt lat="46.116832" lon="9.3371518"><ele>234.0</ele><time>2026-04-20T09:41:30.552Z</time></trkpt><trkpt lat="46.1167802" lon="9.3370248"><ele>231.6</ele><time>2026-04-20T09:41:32.553Z</time></trkpt><trkpt lat="46.1167248" lon="9.3368911"><ele>229.2</ele><time>2026-04-20T09:41:34.552Z</time></trkpt><trkpt lat="46.1166945" lon="9.3367697"><ele>226.79999999999998</ele><time>2026-04-20T09:41:36.552Z</time></trkpt><trkpt lat="46.1166437" lon="9.3366602"><ele>224.39999999999998</ele><time>2026-04-20T09:41:38.551Z</time></trkpt><trkpt lat="46.1165954" lon="9.3365514"><ele>222.0</ele><time>2026-04-20T09:41:40.553Z</time></trkpt><trkpt lat="46.1165424" lon="9.3364534"><ele>228.83333333333334</ele><time>2026-04-20T09:41:42.553Z</time></trkpt><trkpt lat="46.116492" lon="9.3363675"><ele>235.66666666666669</ele><time>2026-04-20T09:41:44.552Z</time></trkpt><trkpt lat="46.1164274" lon="9.3362741"><ele>242.5</ele><time>2026-04-20T09:41:46.552Z</time></trkpt><trkpt lat="46.1163857" lon="9.336158"><ele>249.33333333333334</ele><time>2026-04-20T09:41:48.554Z</time></trkpt><trkpt lat="46.116329" lon="9.3360713"><ele>256.1666666666667</ele><time>2026-04-20T09:41:50.552Z</time></trkpt><trkpt lat="46.1163008" lon="9.3359569"><ele>263.0</ele><time>2026-04-20T09:41:52.551Z</time></trkpt><trkpt lat="46.1162474" lon="9.3358651"><ele>263.0</ele><time>2026-04-20T09:41:53.553Z</time></trkpt><trkpt lat="46.1162008" lon="9.3357675"><ele>263.0</ele><time>2026-04-20T09:41:55.552Z</time></trkpt><trkpt lat="46.1161391" lon="9.335675"><ele>263.0</ele><time>2026-04-20T09:41:57.553Z</time></trkpt><trkpt lat="46.1160916" lon="9.3355861"><ele>263.0</ele><time>2026-04-20T09:41:59.554Z</time></trkpt><trkpt lat="46.1160425" lon="9.3355127"><ele>263.0</ele><time>2026-04-20T09:42:01.552Z</time></trkpt><trkpt lat="46.1159805" lon="9.3354168"><ele>263.0</ele><time>2026-04-20T09:42:04.552Z</time></trkpt><trkpt lat="46.1159464" lon="9.3353257"><ele>258.8</ele><time>2026-04-20T09:42:06.552Z</time></trkpt><trkpt lat="46.1158923" lon="9.3351602"><ele>254.60000000000002</ele><time>2026-04-20T09:42:09.553Z</time></trkpt><trkpt lat="46.1158796" lon="9.335019"><ele>250.39999999999998</ele><time>2026-04-20T09:42:11.553Z</time></trkpt><trkpt lat="46.1158715" lon="9.3348678"><ele>246.2</ele><time>2026-04-20T09:42:13.553Z</time></trkpt><trkpt lat="46.1158614" lon="9.3347242"><ele>242.0</ele><time>2026-04-20T09:42:15.553Z</time></trkpt><trkpt lat="46.1158598" lon="9.33459"><ele>239.00000000000003</ele><time>2026-04-20T09:42:17.551Z</time></trkpt><trkpt lat="46.1158487" lon="9.3344783"><ele>236.0</ele><time>2026-04-20T09:42:19.551Z</time></trkpt><trkpt lat="46.1158156" lon="9.3343518"><ele>233.0</ele><time>2026-04-20T09:42:21.552Z</time></trkpt><trkpt lat="46.1157776" lon="9.3342302"><ele>230.0</ele><time>2026-04-20T09:42:23.552Z</time></trkpt><trkpt lat="46.1157375" lon="9.334116"><ele>227.00000000000003</ele><time>2026-04-20T09:42:25.552Z</time></trkpt><trkpt lat="46.1156973" lon="9.3339964"><ele>224.0</ele><time>2026-04-20T09:42:27.553Z</time></trkpt><trkpt lat="46.1156568" lon="9.3338972"><ele>227.83333333333334</ele><time>2026-04-20T09:42:29.552Z</time></trkpt><trkpt lat="46.1156169" lon="9.3338017"><ele>231.66666666666669</ele><time>2026-04-20T09:42:31.553Z</time></trkpt><trkpt lat="46.1155714" lon="9.3336901"><ele>235.5</ele><time>2026-04-20T09:42:33.552Z</time></trkpt><trkpt lat="46.115511" lon="9.3335945"><ele>239.33333333333331</ele><time>2026-04-20T09:42:35.553Z</time></trkpt><trkpt lat="46.115455" lon="9.3334913"><ele>243.16666666666666</ele><time>2026-04-20T09:42:37.554Z</time></trkpt><trkpt lat="46.1153976" lon="9.333391"><ele>247.0</ele><time>2026-04-20T09:42:39.553Z</time></trkpt><trkpt lat="46.1153312" lon="9.333272"><ele>246.99999999999997</ele><time>2026-04-20T09:42:41.553Z</time></trkpt><trkpt lat="46.1152954" lon="9.3331971"><ele>247.0</ele><time>2026-04-20T09:42:42.552Z</time></trkpt><trkpt lat="46.1152319" lon="9.3330937"><ele>247.0</ele><time>2026-04-20T09:42:44.553Z</time></trkpt><trkpt lat="46.1151819" lon="9.3329841"><ele>247.0</ele><time>2026-04-20T09:42:46.552Z</time></trkpt><trkpt lat="46.1151308" lon="9.3328935"><ele>246.99999999999997</ele><time>2026-04-20T09:42:48.552Z</time></trkpt><trkpt lat="46.1150782" lon="9.3327955"><ele>247.0</ele><time>2026-04-20T09:42:50.552Z</time></trkpt><trkpt lat="46.1150277" lon="9.3326842"><ele>247.83333333333331</ele><time>2026-04-20T09:42:52.552Z</time></trkpt><trkpt lat="46.1149999" lon="9.3325712"><ele>248.66666666666666</ele><time>2026-04-20T09:42:54.553Z</time></trkpt><trkpt lat="46.1149592" lon="9.3324561"><ele>249.5</ele><time>2026-04-20T09:42:56.552Z</time></trkpt><trkpt lat="46.1149327" lon="9.3323714"><ele>250.33333333333331</ele><time>2026-04-20T09:42:58.552Z</time></trkpt><trkpt lat="46.1148884" lon="9.3322725"><ele>251.16666666666666</ele><time>2026-04-20T09:43:00.552Z</time></trkpt><trkpt lat="46.1148463" lon="9.3321718"><ele>252.0</ele><time>2026-04-20T09:43:02.552Z</time></trkpt><trkpt lat="46.1147993" lon="9.3320681"><ele>252.0</ele><time>2026-04-20T09:43:04.552Z</time></trkpt><trkpt lat="46.1147532" lon="9.3319356"><ele>252.0</ele><time>2026-04-20T09:43:06.552Z</time></trkpt><trkpt lat="46.1146939" lon="9.3318033"><ele>252.0</ele><time>2026-04-20T09:43:08.553Z</time></trkpt><trkpt lat="46.1146225" lon="9.3316272"><ele>252.0</ele><time>2026-04-20T09:43:10.553Z</time></trkpt><trkpt lat="46.114589" lon="9.3315183"><ele>252.0</ele><time>2026-04-20T09:43:12.553Z</time></trkpt><trkpt lat="46.1145399" lon="9.3313574"><ele>250.6</ele><time>2026-04-20T09:43:14.553Z</time></trkpt><trkpt lat="46.1144984" lon="9.3312474"><ele>249.2</ele><time>2026-04-20T09:43:16.552Z</time></trkpt><trkpt lat="46.114466" lon="9.3311297"><ele>247.8</ele><time>2026-04-20T09:43:18.552Z</time></trkpt><trkpt lat="46.1144368" lon="9.330956"><ele>246.4</ele><time>2026-04-20T09:43:20.552Z</time></trkpt><trkpt lat="46.1144195" lon="9.3308232"><ele>245.0</ele><time>2026-04-20T09:43:22.553Z</time></trkpt><trkpt lat="46.114405" lon="9.3306899"><ele>243.4</ele><time>2026-04-20T09:43:24.553Z</time></trkpt><trkpt lat="46.1143967" lon="9.3305463"><ele>241.8</ele><time>2026-04-20T09:43:26.552Z</time></trkpt><trkpt lat="46.114392" lon="9.3303877"><ele>240.2</ele><time>2026-04-20T09:43:28.553Z</time></trkpt><trkpt lat="46.1143852" lon="9.3302627"><ele>238.6</ele><time>2026-04-20T09:43:30.553Z</time></trkpt><trkpt lat="46.1143808" lon="9.3301426"><ele>237.0</ele><time>2026-04-20T09:43:32.552Z</time></trkpt><trkpt lat="46.114385" lon="9.3300062"><ele>237.0</ele><time>2026-04-20T09:43:34.552Z</time></trkpt><trkpt lat="46.1143801" lon="9.329854"><ele>237.0</ele><time>2026-04-20T09:43:36.553Z</time></trkpt><trkpt lat="46.1143864" lon="9.3297248"><ele>237.0</ele><time>2026-04-20T09:43:38.553Z</time></trkpt><trkpt lat="46.114388" lon="9.3295869"><ele>237.0</ele><time>2026-04-20T09:43:40.552Z</time></trkpt><trkpt lat="46.1143872" lon="9.3294496"><ele>237.0</ele><time>2026-04-20T09:43:42.554Z</time></trkpt><trkpt lat="46.1143774" lon="9.3293084"><ele>236.39999999999998</ele><time>2026-04-20T09:43:44.554Z</time></trkpt><trkpt lat="46.1143818" lon="9.3291579"><ele>235.79999999999998</ele><time>2026-04-20T09:43:46.552Z</time></trkpt><trkpt lat="46.1143858" lon="9.3290414"><ele>235.2</ele><time>2026-04-20T09:43:48.552Z</time></trkpt><trkpt lat="46.1143784" lon="9.3289166"><ele>234.6</ele><time>2026-04-20T09:43:50.552Z</time></trkpt><trkpt lat="46.1143746" lon="9.3287829"><ele>234.0</ele><time>2026-04-20T09:43:52.553Z</time></trkpt><trkpt lat="46.1143368" lon="9.3286519"><ele>232.6</ele><time>2026-04-20T09:43:54.552Z</time></trkpt><trkpt lat="46.1142862" lon="9.3285407"><ele>231.2</ele><time>2026-04-20T09:43:56.553Z</time></trkpt><trkpt lat="46.1142216" lon="9.3284235"><ele>229.79999999999998</ele><time>2026-04-20T09:43:58.553Z</time></trkpt><trkpt lat="46.114138" lon="9.3282848"><ele>228.39999999999998</ele><time>2026-04-20T09:44:00.554Z</time></trkpt><trkpt lat="46.1140752" lon="9.3281592"><ele>227.0</ele><time>2026-04-20T09:44:02.553Z</time></trkpt><trkpt lat="46.1140411" lon="9.3280075"><ele>238.39999999999998</ele><time>2026-04-20T09:44:04.553Z</time></trkpt><trkpt lat="46.1140228" lon="9.3278594"><ele>249.79999999999998</ele><time>2026-04-20T09:44:06.553Z</time></trkpt><trkpt lat="46.1140203" lon="9.3277088"><ele>261.2</ele><time>2026-04-20T09:44:08.553Z</time></trkpt><trkpt lat="46.1140112" lon="9.327554"><ele>272.59999999999997</ele><time>2026-04-20T09:44:10.553Z</time></trkpt><trkpt lat="46.114006" lon="9.3273882"><ele>284.0</ele><time>2026-04-20T09:44:12.553Z</time></trkpt><trkpt lat="46.1140045" lon="9.3272497"><ele>284.4</ele><time>2026-04-20T09:44:14.553Z</time></trkpt><trkpt lat="46.1140015" lon="9.3271071"><ele>284.79999999999995</ele><time>2026-04-20T09:44:16.553Z</time></trkpt><trkpt lat="46.1139866" lon="9.3269448"><ele>285.20000000000005</ele><time>2026-04-20T09:44:18.553Z</time></trkpt><trkpt lat="46.1139857" lon="9.326793"><ele>285.6</ele><time>2026-04-20T09:44:20.554Z</time></trkpt><trkpt lat="46.1140062" lon="9.3266369"><ele>286.0</ele><time>2026-04-20T09:44:22.553Z</time></trkpt><trkpt lat="46.1140387" lon="9.3264964"><ele>276.40000000000003</ele><time>2026-04-20T09:44:24.553Z</time></trkpt><trkpt lat="46.1140827" lon="9.3263401"><ele>266.8</ele><time>2026-04-20T09:44:26.552Z</time></trkpt><trkpt lat="46.1141013" lon="9.326189"><ele>257.20000000000005</ele><time>2026-04-20T09:44:28.553Z</time></trkpt><trkpt lat="46.1141314" lon="9.3260325"><ele>247.60000000000002</ele><time>2026-04-20T09:44:30.552Z</time></trkpt><trkpt lat="46.1141515" lon="9.3258817"><ele>238.0</ele><time>2026-04-20T09:44:32.552Z</time></trkpt><trkpt lat="46.114185" lon="9.3258036"><ele>238.0</ele><time>2026-04-20T09:44:33.554Z</time></trkpt><trkpt lat="46.1142099" lon="9.325656"><ele>238.0</ele><time>2026-04-20T09:44:35.552Z</time></trkpt><trkpt lat="46.1142475" lon="9.3255197"><ele>238.0</ele><time>2026-04-20T09:44:37.554Z</time></trkpt><trkpt lat="46.1142928" lon="9.325385"><ele>238.0</ele><time>2026-04-20T09:44:39.554Z</time></trkpt><trkpt lat="46.1143485" lon="9.3252699"><ele>238.0</ele><time>2026-04-20T09:44:41.553Z</time></trkpt><trkpt lat="46.1143929" lon="9.3251708"><ele>240.66666666666666</ele><time>2026-04-20T09:44:43.553Z</time></trkpt><trkpt lat="46.1144324" lon="9.325082"><ele>243.33333333333331</ele><time>2026-04-20T09:44:45.553Z</time></trkpt><trkpt lat="46.1144889" lon="9.3250088"><ele>246.0</ele><time>2026-04-20T09:44:47.553Z</time></trkpt><trkpt lat="46.1145337" lon="9.3249364"><ele>248.66666666666669</ele><time>2026-04-20T09:44:49.553Z</time></trkpt><trkpt lat="46.1145721" lon="9.324821"><ele>251.33333333333334</ele><time>2026-04-20T09:44:52.553Z</time></trkpt><trkpt lat="46.1146075" lon="9.3247042"><ele>254.0</ele><time>2026-04-20T09:44:55.553Z</time></trkpt><trkpt lat="46.1146307" lon="9.3245895"><ele>256.5</ele><time>2026-04-20T09:44:58.552Z</time></trkpt><trkpt lat="46.1146458" lon="9.3244635"><ele>259.0</ele><time>2026-04-20T09:45:01.553Z</time></trkpt><trkpt lat="46.11467" lon="9.3243439"><ele>261.5</ele><time>2026-04-20T09:45:04.553Z</time></trkpt><trkpt lat="46.1146897" lon="9.324235"><ele>264.0</ele><time>2026-04-20T09:45:07.553Z</time></trkpt><trkpt lat="46.114697" lon="9.3241231"><ele>266.5</ele><time>2026-04-20T09:45:10.552Z</time></trkpt><trkpt lat="46.114696" lon="9.3240003"><ele>269.0</ele><time>2026-04-20T09:45:13.552Z</time></trkpt><trkpt lat="46.1146949" lon="9.3238895"><ele>269.5</ele><time>2026-04-20T09:45:16.553Z</time></trkpt><trkpt lat="46.1146835" lon="9.3237821"><ele>270.0</ele><time>2026-04-20T09:45:19.553Z</time></trkpt><trkpt lat="46.1146526" lon="9.3236922"><ele>270.5</ele><time>2026-04-20T09:45:21.553Z</time></trkpt><trkpt lat="46.1146181" lon="9.3235755"><ele>271.0</ele><time>2026-04-20T09:45:24.553Z</time></trkpt><trkpt lat="46.1145872" lon="9.3234764"><ele>271.5</ele><time>2026-04-20T09:45:27.552Z</time></trkpt><trkpt lat="46.1145568" lon="9.3233738"><ele>272.0</ele><time>2026-04-20T09:45:30.552Z</time></trkpt><trkpt lat="46.1145286" lon="9.323254"><ele>272.0</ele><time>2026-04-20T09:45:33.554Z</time></trkpt><trkpt lat="46.1145077" lon="9.3231246"><ele>272.0</ele><time>2026-04-20T09:45:36.553Z</time></trkpt><trkpt lat="46.1144977" lon="9.3230039"><ele>272.0</ele><time>2026-04-20T09:45:39.552Z</time></trkpt><trkpt lat="46.114494" lon="9.3228791"><ele>272.0</ele><time>2026-04-20T09:45:42.552Z</time></trkpt><trkpt lat="46.1144946" lon="9.3227768"><ele>272.0</ele><time>2026-04-20T09:45:45.553Z</time></trkpt><trkpt lat="46.1145016" lon="9.32268"><ele>272.0</ele><time>2026-04-20T09:45:48.553Z</time></trkpt><trkpt lat="46.1144938" lon="9.3225848"><ele>271.6666666666667</ele><time>2026-04-20T09:45:50.552Z</time></trkpt><trkpt lat="46.1144916" lon="9.3224924"><ele>271.33333333333337</ele><time>2026-04-20T09:45:52.552Z</time></trkpt><trkpt lat="46.1144946" lon="9.3223644"><ele>271.0</ele><time>2026-04-20T09:45:55.552Z</time></trkpt><trkpt lat="46.1144751" lon="9.3222666"><ele>270.6666666666667</ele><time>2026-04-20T09:45:58.553Z</time></trkpt><trkpt lat="46.1144667" lon="9.3221324"><ele>270.3333333333333</ele><time>2026-04-20T09:46:01.553Z</time></trkpt><trkpt lat="46.1144665" lon="9.3220117"><ele>270.0</ele><time>2026-04-20T09:46:04.552Z</time></trkpt><trkpt lat="46.1144715" lon="9.3218916"><ele>269.8333333333333</ele><time>2026-04-20T09:46:07.552Z</time></trkpt><trkpt lat="46.1144761" lon="9.3217661"><ele>269.6666666666667</ele><time>2026-04-20T09:46:10.553Z</time></trkpt><trkpt lat="46.1144829" lon="9.3216632"><ele>269.5</ele><time>2026-04-20T09:46:13.552Z</time></trkpt><trkpt lat="46.1144874" lon="9.3215337"><ele>269.33333333333337</ele><time>2026-04-20T09:46:16.553Z</time></trkpt><trkpt lat="46.1144888" lon="9.3214167"><ele>269.1666666666667</ele><time>2026-04-20T09:46:19.554Z</time></trkpt><trkpt lat="46.1145065" lon="9.3213063"><ele>269.0</ele><time>2026-04-20T09:46:22.553Z</time></trkpt><trkpt lat="46.1145132" lon="9.3211947"><ele>268.6666666666667</ele><time>2026-04-20T09:46:25.552Z</time></trkpt><trkpt lat="46.1145209" lon="9.3210796"><ele>268.33333333333337</ele><time>2026-04-20T09:46:28.552Z</time></trkpt><trkpt lat="46.1145216" lon="9.3209628"><ele>268.0</ele><time>2026-04-20T09:46:31.553Z</time></trkpt><trkpt lat="46.1145248" lon="9.3208494"><ele>267.6666666666667</ele><time>2026-04-20T09:46:34.554Z</time></trkpt><trkpt lat="46.1145422" lon="9.3207353"><ele>267.3333333333333</ele><time>2026-04-20T09:46:37.553Z</time></trkpt><trkpt lat="46.1145446" lon="9.3206008"><ele>267.0</ele><time>2026-04-20T09:46:40.552Z</time></trkpt><trkpt lat="46.1145449" lon="9.3204725"><ele>266.8333333333333</ele><time>2026-04-20T09:46:43.553Z</time></trkpt><trkpt lat="46.1145565" lon="9.3203827"><ele>266.6666666666667</ele><time>2026-04-20T09:46:46.553Z</time></trkpt><trkpt lat="46.1145611" lon="9.320254"><ele>266.5</ele><time>2026-04-20T09:46:50.553Z</time></trkpt><trkpt lat="46.1145674" lon="9.3201237"><ele>266.33333333333337</ele><time>2026-04-20T09:46:53.553Z</time></trkpt><trkpt lat="46.114572" lon="9.3199872"><ele>266.1666666666667</ele><time>2026-04-20T09:46:56.554Z</time></trkpt><trkpt lat="46.1145684" lon="9.319853"><ele>266.0</ele><time>2026-04-20T09:46:59.553Z</time></trkpt><trkpt lat="46.1145672" lon="9.3197214"><ele>266.0</ele><time>2026-04-20T09:47:02.554Z</time></trkpt><trkpt lat="46.1145637" lon="9.3196288"><ele>266.0</ele><time>2026-04-20T09:47:04.554Z</time></trkpt><trkpt lat="46.114555" lon="9.3195058"><ele>266.0</ele><time>2026-04-20T09:47:07.554Z</time></trkpt><trkpt lat="46.114554" lon="9.3193851"><ele>266.0</ele><time>2026-04-20T09:47:10.553Z</time></trkpt><trkpt lat="46.114567" lon="9.3192673"><ele>266.0</ele><time>2026-04-20T09:47:13.552Z</time></trkpt><trkpt lat="46.1145797" lon="9.3191413"><ele>266.0</ele><time>2026-04-20T09:47:16.553Z</time></trkpt><trkpt lat="46.1145886" lon="9.3190176"><ele>264.83333333333337</ele><time>2026-04-20T09:47:19.553Z</time></trkpt><trkpt lat="46.1146003" lon="9.3188965"><ele>263.6666666666667</ele><time>2026-04-20T09:47:22.552Z</time></trkpt><trkpt lat="46.1145982" lon="9.318784"><ele>262.5</ele><time>2026-04-20T09:47:24.554Z</time></trkpt><trkpt lat="46.1145966" lon="9.31869"><ele>261.3333333333333</ele><time>2026-04-20T09:47:26.553Z</time></trkpt><trkpt lat="46.1145983" lon="9.3185644"><ele>260.16666666666663</ele><time>2026-04-20T09:47:29.554Z</time></trkpt><trkpt lat="46.1145879" lon="9.3184656"><ele>259.0</ele><time>2026-04-20T09:47:31.552Z</time></trkpt><trkpt lat="46.1145802" lon="9.3183721"><ele>259.0</ele><time>2026-04-20T09:47:33.552Z</time></trkpt><trkpt lat="46.1145677" lon="9.3182747"><ele>259.0</ele><time>2026-04-20T09:47:35.553Z</time></trkpt><trkpt lat="46.11455" lon="9.3181758"><ele>259.0</ele><time>2026-04-20T09:47:37.552Z</time></trkpt><trkpt lat="46.1145233" lon="9.3180725"><ele>259.0</ele><time>2026-04-20T09:47:39.553Z</time></trkpt><trkpt lat="46.1144742" lon="9.3179625"><ele>259.0</ele><time>2026-04-20T09:47:41.552Z</time></trkpt><trkpt lat="46.1144356" lon="9.3178418"><ele>259.0</ele><time>2026-04-20T09:47:43.553Z</time></trkpt><trkpt lat="46.114386" lon="9.3177013"><ele>259.2857142857143</ele><time>2026-04-20T09:47:45.553Z</time></trkpt><trkpt lat="46.1143341" lon="9.3175766"><ele>259.57142857142856</ele><time>2026-04-20T09:47:47.554Z</time></trkpt><trkpt lat="46.1142975" lon="9.3175024"><ele>259.8571428571429</ele><time>2026-04-20T09:47:48.553Z</time></trkpt><trkpt lat="46.1142554" lon="9.3174281"><ele>260.1428571428571</ele><time>2026-04-20T09:47:49.554Z</time></trkpt><trkpt lat="46.1142101" lon="9.3173607"><ele>260.42857142857144</ele><time>2026-04-20T09:47:50.553Z</time></trkpt><trkpt lat="46.114162" lon="9.3172869"><ele>260.7142857142857</ele><time>2026-04-20T09:47:51.552Z</time></trkpt><trkpt lat="46.1141137" lon="9.3172138"><ele>261.0</ele><time>2026-04-20T09:47:52.554Z</time></trkpt><trkpt lat="46.1140504" lon="9.3171505"><ele>259.6</ele><time>2026-04-20T09:47:53.554Z</time></trkpt><trkpt lat="46.1139886" lon="9.3170863"><ele>258.20000000000005</ele><time>2026-04-20T09:47:54.554Z</time></trkpt><trkpt lat="46.1138998" lon="9.3169914"><ele>256.79999999999995</ele><time>2026-04-20T09:47:55.554Z</time></trkpt><trkpt lat="46.1138532" lon="9.3169131"><ele>255.39999999999998</ele><time>2026-04-20T09:47:56.554Z</time></trkpt><trkpt lat="46.1137829" lon="9.3168457"><ele>254.0</ele><time>2026-04-20T09:47:57.552Z</time></trkpt><trkpt lat="46.1137054" lon="9.3167363"><ele>254.0</ele><time>2026-04-20T09:47:58.554Z</time></trkpt><trkpt lat="46.1136353" lon="9.3166593"><ele>253.99999999999997</ele><time>2026-04-20T09:47:59.552Z</time></trkpt><trkpt lat="46.1135442" lon="9.3166097"><ele>253.99999999999997</ele><time>2026-04-20T09:48:00.554Z</time></trkpt><trkpt lat="46.1134402" lon="9.3165758"><ele>254.0</ele><time>2026-04-20T09:48:01.554Z</time></trkpt><trkpt lat="46.1133496" lon="9.3165425"><ele>254.0</ele><time>2026-04-20T09:48:02.553Z</time></trkpt><trkpt lat="46.1132445" lon="9.3165363"><ele>253.2</ele><time>2026-04-20T09:48:03.552Z</time></trkpt><trkpt lat="46.1131501" lon="9.3165466"><ele>252.39999999999998</ele><time>2026-04-20T09:48:04.552Z</time></trkpt><trkpt lat="46.1130538" lon="9.316564"><ele>251.6</ele><time>2026-04-20T09:48:05.553Z</time></trkpt><trkpt lat="46.1129639" lon="9.3165564"><ele>250.8</ele><time>2026-04-20T09:48:06.555Z</time></trkpt><trkpt lat="46.1128611" lon="9.3165916"><ele>250.0</ele><time>2026-04-20T09:48:07.554Z</time></trkpt><trkpt lat="46.1127632" lon="9.3166226"><ele>250.0</ele><time>2026-04-20T09:48:08.552Z</time></trkpt><trkpt lat="46.1126995" lon="9.3166839"><ele>250.0</ele><time>2026-04-20T09:48:09.553Z</time></trkpt><trkpt lat="46.1126083" lon="9.3167048"><ele>250.0</ele><time>2026-04-20T09:48:10.553Z</time></trkpt><trkpt lat="46.1125162" lon="9.3167177"><ele>250.0</ele><time>2026-04-20T09:48:11.553Z</time></trkpt><trkpt lat="46.1124204" lon="9.3167276"><ele>250.0</ele><time>2026-04-20T09:48:12.553Z</time></trkpt><trkpt lat="46.1123276" lon="9.3167155"><ele>247.4</ele><time>2026-04-20T09:48:13.554Z</time></trkpt><trkpt lat="46.1122229" lon="9.3167114"><ele>244.8</ele><time>2026-04-20T09:48:14.554Z</time></trkpt><trkpt lat="46.1121273" lon="9.316728"><ele>242.2</ele><time>2026-04-20T09:48:15.553Z</time></trkpt><trkpt lat="46.1120414" lon="9.3167478"><ele>239.6</ele><time>2026-04-20T09:48:16.553Z</time></trkpt><trkpt lat="46.1119501" lon="9.3167848"><ele>237.0</ele><time>2026-04-20T09:48:17.552Z</time></trkpt><trkpt lat="46.1118633" lon="9.3168449"><ele>237.0</ele><time>2026-04-20T09:48:18.553Z</time></trkpt><trkpt lat="46.1117734" lon="9.3169025"><ele>237.0</ele><time>2026-04-20T09:48:19.554Z</time></trkpt><trkpt lat="46.1116893" lon="9.3169681"><ele>237.0</ele><time>2026-04-20T09:48:20.553Z</time></trkpt><trkpt lat="46.1116143" lon="9.3170543"><ele>237.0</ele><time>2026-04-20T09:48:21.552Z</time></trkpt><trkpt lat="46.1115471" lon="9.3171449"><ele>237.0</ele><time>2026-04-20T09:48:22.553Z</time></trkpt><trkpt lat="46.1114738" lon="9.3172316"><ele>236.2</ele><time>2026-04-20T09:48:23.554Z</time></trkpt><trkpt lat="46.1113985" lon="9.3173144"><ele>235.39999999999998</ele><time>2026-04-20T09:48:24.552Z</time></trkpt><trkpt lat="46.1113302" lon="9.3174024"><ele>234.60000000000002</ele><time>2026-04-20T09:48:25.553Z</time></trkpt><trkpt lat="46.1112524" lon="9.3174837"><ele>233.8</ele><time>2026-04-20T09:48:26.554Z</time></trkpt><trkpt lat="46.1111839" lon="9.3175624"><ele>233.0</ele><time>2026-04-20T09:48:27.553Z</time></trkpt><trkpt lat="46.1111159" lon="9.3176453"><ele>233.00000000000003</ele><time>2026-04-20T09:48:28.552Z</time></trkpt><trkpt lat="46.1110482" lon="9.3177324"><ele>233.0</ele><time>2026-04-20T09:48:29.552Z</time></trkpt><trkpt lat="46.1109764" lon="9.3178108"><ele>233.0</ele><time>2026-04-20T09:48:30.552Z</time></trkpt><trkpt lat="46.1109185" lon="9.3178886"><ele>233.0</ele><time>2026-04-20T09:48:31.553Z</time></trkpt><trkpt lat="46.1108613" lon="9.3179746"><ele>233.00000000000003</ele><time>2026-04-20T09:48:32.554Z</time></trkpt><trkpt lat="46.1108102" lon="9.3180566"><ele>233.0</ele><time>2026-04-20T09:48:33.553Z</time></trkpt><trkpt lat="46.110744" lon="9.3181238"><ele>231.33333333333334</ele><time>2026-04-20T09:48:34.554Z</time></trkpt><trkpt lat="46.1106741" lon="9.3181784"><ele>229.66666666666669</ele><time>2026-04-20T09:48:35.553Z</time></trkpt><trkpt lat="46.1105988" lon="9.3182107"><ele>228.0</ele><time>2026-04-20T09:48:36.552Z</time></trkpt><trkpt lat="46.110528" lon="9.3182321"><ele>226.33333333333331</ele><time>2026-04-20T09:48:37.553Z</time></trkpt><trkpt lat="46.1104524" lon="9.3182475"><ele>224.66666666666666</ele><time>2026-04-20T09:48:38.554Z</time></trkpt><trkpt lat="46.1103637" lon="9.3182508"><ele>223.0</ele><time>2026-04-20T09:48:39.553Z</time></trkpt><trkpt lat="46.110278" lon="9.3182598"><ele>222.99999999999997</ele><time>2026-04-20T09:48:40.554Z</time></trkpt><trkpt lat="46.110202" lon="9.3182831"><ele>223.0</ele><time>2026-04-20T09:48:41.552Z</time></trkpt><trkpt lat="46.110119" lon="9.3183153"><ele>223.0</ele><time>2026-04-20T09:48:42.553Z</time></trkpt><trkpt lat="46.1100427" lon="9.3183693"><ele>223.0</ele><time>2026-04-20T09:48:43.554Z</time></trkpt><trkpt lat="46.1099804" lon="9.3184302"><ele>222.99999999999997</ele><time>2026-04-20T09:48:44.552Z</time></trkpt><trkpt lat="46.1099131" lon="9.3185016"><ele>223.0</ele><time>2026-04-20T09:48:45.553Z</time></trkpt><trkpt lat="46.1098458" lon="9.3185708"><ele>223.66666666666666</ele><time>2026-04-20T09:48:46.554Z</time></trkpt><trkpt lat="46.1097734" lon="9.3186601"><ele>224.33333333333331</ele><time>2026-04-20T09:48:47.554Z</time></trkpt><trkpt lat="46.1097099" lon="9.3187358"><ele>225.0</ele><time>2026-04-20T09:48:48.553Z</time></trkpt><trkpt lat="46.1096486" lon="9.3188206"><ele>225.66666666666669</ele><time>2026-04-20T09:48:49.554Z</time></trkpt><trkpt lat="46.1095878" lon="9.3189058"><ele>226.33333333333334</ele><time>2026-04-20T09:48:50.554Z</time></trkpt><trkpt lat="46.1095241" lon="9.3189905"><ele>227.0</ele><time>2026-04-20T09:48:51.553Z</time></trkpt><trkpt lat="46.1094638" lon="9.3190817"><ele>227.00000000000003</ele><time>2026-04-20T09:48:52.552Z</time></trkpt><trkpt lat="46.1094025" lon="9.3191646"><ele>227.0</ele><time>2026-04-20T09:48:53.553Z</time></trkpt><trkpt lat="46.109342" lon="9.3192348"><ele>227.0</ele><time>2026-04-20T09:48:54.552Z</time></trkpt><trkpt lat="46.109279" lon="9.3193273"><ele>227.0</ele><time>2026-04-20T09:48:55.553Z</time></trkpt><trkpt lat="46.1092172" lon="9.319414"><ele>227.00000000000003</ele><time>2026-04-20T09:48:56.552Z</time></trkpt><trkpt lat="46.1091577" lon="9.3195011"><ele>227.0</ele><time>2026-04-20T09:48:57.553Z</time></trkpt><trkpt lat="46.1090866" lon="9.3195663"><ele>224.66666666666669</ele><time>2026-04-20T09:48:58.554Z</time></trkpt><trkpt lat="46.1090125" lon="9.319615"><ele>222.33333333333334</ele><time>2026-04-20T09:48:59.552Z</time></trkpt><trkpt lat="46.1089237" lon="9.3196475"><ele>220.0</ele><time>2026-04-20T09:49:00.555Z</time></trkpt><trkpt lat="46.1088379" lon="9.3196739"><ele>217.66666666666669</ele><time>2026-04-20T09:49:01.553Z</time></trkpt><trkpt lat="46.108761" lon="9.319682"><ele>215.33333333333334</ele><time>2026-04-20T09:49:02.555Z</time></trkpt><trkpt lat="46.1086866" lon="9.3196782"><ele>213.0</ele><time>2026-04-20T09:49:03.554Z</time></trkpt><trkpt lat="46.1085948" lon="9.3196956"><ele>213.0</ele><time>2026-04-20T09:49:04.554Z</time></trkpt><trkpt lat="46.1084938" lon="9.3196953"><ele>213.0</ele><time>2026-04-20T09:49:05.553Z</time></trkpt><trkpt lat="46.108395" lon="9.3197068"><ele>213.0</ele><time>2026-04-20T09:49:06.553Z</time></trkpt><trkpt lat="46.1083059" lon="9.3197338"><ele>213.0</ele><time>2026-04-20T09:49:07.553Z</time></trkpt><trkpt lat="46.1082215" lon="9.3197753"><ele>213.0</ele><time>2026-04-20T09:49:08.553Z</time></trkpt><trkpt lat="46.1081355" lon="9.3198062"><ele>215.8</ele><time>2026-04-20T09:49:09.552Z</time></trkpt><trkpt lat="46.1080485" lon="9.3198307"><ele>218.60000000000002</ele><time>2026-04-20T09:49:10.552Z</time></trkpt><trkpt lat="46.1078757" lon="9.3198707"><ele>221.39999999999998</ele><time>2026-04-20T09:49:12.554Z</time></trkpt><trkpt lat="46.1077868" lon="9.3198962"><ele>224.2</ele><time>2026-04-20T09:49:13.553Z</time></trkpt><trkpt lat="46.1077081" lon="9.3199139"><ele>227.0</ele><time>2026-04-20T09:49:14.554Z</time></trkpt><trkpt lat="46.1076298" lon="9.319942"><ele>227.00000000000003</ele><time>2026-04-20T09:49:15.552Z</time></trkpt><trkpt lat="46.1075511" lon="9.3199627"><ele>227.0</ele><time>2026-04-20T09:49:16.553Z</time></trkpt><trkpt lat="46.1074663" lon="9.3199911"><ele>227.0</ele><time>2026-04-20T09:49:17.555Z</time></trkpt><trkpt lat="46.107376" lon="9.3200165"><ele>227.0</ele><time>2026-04-20T09:49:18.554Z</time></trkpt><trkpt lat="46.1072905" lon="9.3200456"><ele>227.00000000000003</ele><time>2026-04-20T09:49:19.553Z</time></trkpt><trkpt lat="46.1071973" lon="9.3200722"><ele>227.0</ele><time>2026-04-20T09:49:20.555Z</time></trkpt><trkpt lat="46.1071113" lon="9.3201045"><ele>224.83333333333334</ele><time>2026-04-20T09:49:21.552Z</time></trkpt><trkpt lat="46.1070332" lon="9.3201357"><ele>222.66666666666669</ele><time>2026-04-20T09:49:22.554Z</time></trkpt><trkpt lat="46.1069563" lon="9.3201846"><ele>220.5</ele><time>2026-04-20T09:49:23.555Z</time></trkpt><trkpt lat="46.1068799" lon="9.3202392"><ele>218.33333333333331</ele><time>2026-04-20T09:49:24.553Z</time></trkpt><trkpt lat="46.1068065" lon="9.3203076"><ele>216.16666666666666</ele><time>2026-04-20T09:49:25.553Z</time></trkpt><trkpt lat="46.1067272" lon="9.3203756"><ele>214.0</ele><time>2026-04-20T09:49:26.553Z</time></trkpt><trkpt lat="46.1066523" lon="9.3204462"><ele>213.99999999999997</ele><time>2026-04-20T09:49:27.553Z</time></trkpt><trkpt lat="46.1065787" lon="9.3204964"><ele>214.0</ele><time>2026-04-20T09:49:28.553Z</time></trkpt><trkpt lat="46.1065026" lon="9.3205625"><ele>214.0</ele><time>2026-04-20T09:49:29.555Z</time></trkpt><trkpt lat="46.1064281" lon="9.3206167"><ele>214.0</ele><time>2026-04-20T09:49:30.553Z</time></trkpt><trkpt lat="46.1063451" lon="9.3206572"><ele>213.99999999999997</ele><time>2026-04-20T09:49:31.554Z</time></trkpt><trkpt lat="46.1062597" lon="9.3206893"><ele>214.0</ele><time>2026-04-20T09:49:32.554Z</time></trkpt><trkpt lat="46.106178" lon="9.320723"><ele>214.16666666666666</ele><time>2026-04-20T09:49:33.553Z</time></trkpt><trkpt lat="46.106095" lon="9.3207569"><ele>214.33333333333331</ele><time>2026-04-20T09:49:34.554Z</time></trkpt><trkpt lat="46.1060116" lon="9.3207935"><ele>214.5</ele><time>2026-04-20T09:49:35.554Z</time></trkpt><trkpt lat="46.1059269" lon="9.3208201"><ele>214.66666666666669</ele><time>2026-04-20T09:49:36.554Z</time></trkpt><trkpt lat="46.1058385" lon="9.3208544"><ele>214.83333333333334</ele><time>2026-04-20T09:49:37.554Z</time></trkpt><trkpt lat="46.1057507" lon="9.3208841"><ele>215.0</ele><time>2026-04-20T09:49:38.552Z</time></trkpt><trkpt lat="46.1056605" lon="9.3209145"><ele>216.0</ele><time>2026-04-20T09:49:39.553Z</time></trkpt><trkpt lat="46.1055711" lon="9.3209482"><ele>217.0</ele><time>2026-04-20T09:49:40.553Z</time></trkpt><trkpt lat="46.1054883" lon="9.3209835"><ele>218.0</ele><time>2026-04-20T09:49:41.552Z</time></trkpt><trkpt lat="46.1053968" lon="9.3210178"><ele>219.0</ele><time>2026-04-20T09:49:42.554Z</time></trkpt><trkpt lat="46.1053095" lon="9.3210468"><ele>220.0</ele><time>2026-04-20T09:49:43.554Z</time></trkpt><trkpt lat="46.1052209" lon="9.3210804"><ele>219.99999999999997</ele><time>2026-04-20T09:49:44.555Z</time></trkpt><trkpt lat="46.1051352" lon="9.3211073"><ele>220.0</ele><time>2026-04-20T09:49:45.554Z</time></trkpt><trkpt lat="46.1050519" lon="9.3211299"><ele>220.0</ele><time>2026-04-20T09:49:46.553Z</time></trkpt><trkpt lat="46.1049644" lon="9.3211349"><ele>220.0</ele><time>2026-04-20T09:49:47.552Z</time></trkpt><trkpt lat="46.1048774" lon="9.3211229"><ele>219.99999999999997</ele><time>2026-04-20T09:49:48.554Z</time></trkpt><trkpt lat="46.1047884" lon="9.3210963"><ele>220.0</ele><time>2026-04-20T09:49:49.554Z</time></trkpt><trkpt lat="46.1047068" lon="9.3210676"><ele>220.16666666666666</ele><time>2026-04-20T09:49:50.553Z</time></trkpt><trkpt lat="46.104622" lon="9.321023"><ele>220.33333333333331</ele><time>2026-04-20T09:49:51.554Z</time></trkpt><trkpt lat="46.104535" lon="9.3209814"><ele>220.5</ele><time>2026-04-20T09:49:52.554Z</time></trkpt><trkpt lat="46.1044497" lon="9.3209413"><ele>220.66666666666669</ele><time>2026-04-20T09:49:53.554Z</time></trkpt><trkpt lat="46.1043771" lon="9.3208998"><ele>220.83333333333334</ele><time>2026-04-20T09:49:54.554Z</time></trkpt><trkpt lat="46.1042917" lon="9.3208544"><ele>221.0</ele><time>2026-04-20T09:49:55.552Z</time></trkpt><trkpt lat="46.1042188" lon="9.3208092"><ele>221.00000000000003</ele><time>2026-04-20T09:49:56.553Z</time></trkpt><trkpt lat="46.104141" lon="9.3207677"><ele>221.0</ele><time>2026-04-20T09:49:57.555Z</time></trkpt><trkpt lat="46.1040647" lon="9.3206933"><ele>221.0</ele><time>2026-04-20T09:49:58.552Z</time></trkpt><trkpt lat="46.1039905" lon="9.320623"><ele>221.0</ele><time>2026-04-20T09:49:59.553Z</time></trkpt><trkpt lat="46.1039295" lon="9.3205612"><ele>221.00000000000003</ele><time>2026-04-20T09:50:00.553Z</time></trkpt><trkpt lat="46.1038586" lon="9.3204987"><ele>221.0</ele><time>2026-04-20T09:50:01.554Z</time></trkpt><trkpt lat="46.1037907" lon="9.3204359"><ele>219.66666666666669</ele><time>2026-04-20T09:50:02.553Z</time></trkpt><trkpt lat="46.1037257" lon="9.3203733"><ele>218.33333333333334</ele><time>2026-04-20T09:50:03.553Z</time></trkpt><trkpt lat="46.1036636" lon="9.3203086"><ele>217.0</ele><time>2026-04-20T09:50:04.554Z</time></trkpt><trkpt lat="46.1036041" lon="9.3202501"><ele>215.66666666666669</ele><time>2026-04-20T09:50:05.553Z</time></trkpt><trkpt lat="46.1035425" lon="9.320197"><ele>214.33333333333334</ele><time>2026-04-20T09:50:06.553Z</time></trkpt><trkpt lat="46.1034772" lon="9.3201269"><ele>213.0</ele><time>2026-04-20T09:50:07.552Z</time></trkpt><trkpt lat="46.1034154" lon="9.3200627"><ele>212.99999999999997</ele><time>2026-04-20T09:50:08.554Z</time></trkpt><trkpt lat="46.103353" lon="9.3200102"><ele>213.0</ele><time>2026-04-20T09:50:09.554Z</time></trkpt><trkpt lat="46.103296" lon="9.3199691"><ele>213.0</ele><time>2026-04-20T09:50:10.553Z</time></trkpt><trkpt lat="46.1032305" lon="9.3199285"><ele>213.0</ele><time>2026-04-20T09:50:11.552Z</time></trkpt><trkpt lat="46.1031718" lon="9.3198768"><ele>213.0</ele><time>2026-04-20T09:50:12.554Z</time></trkpt><trkpt lat="46.1031063" lon="9.3198162"><ele>212.99999999999997</ele><time>2026-04-20T09:50:13.553Z</time></trkpt><trkpt lat="46.1030488" lon="9.3197609"><ele>213.0</ele><time>2026-04-20T09:50:14.554Z</time></trkpt><trkpt lat="46.1029902" lon="9.3197109"><ele>214.0</ele><time>2026-04-20T09:50:15.554Z</time></trkpt><trkpt lat="46.1029271" lon="9.3196585"><ele>215.0</ele><time>2026-04-20T09:50:16.552Z</time></trkpt><trkpt lat="46.1028636" lon="9.3196133"><ele>216.0</ele><time>2026-04-20T09:50:17.553Z</time></trkpt><trkpt lat="46.102791" lon="9.3195627"><ele>217.0</ele><time>2026-04-20T09:50:18.552Z</time></trkpt><trkpt lat="46.1026683" lon="9.319475"><ele>218.0</ele><time>2026-04-20T09:50:20.554Z</time></trkpt><trkpt lat="46.102603" lon="9.3194252"><ele>219.0</ele><time>2026-04-20T09:50:21.554Z</time></trkpt><trkpt lat="46.1025438" lon="9.3193814"><ele>219.0</ele><time>2026-04-20T09:50:22.553Z</time></trkpt><trkpt lat="46.1024859" lon="9.319332"><ele>219.0</ele><time>2026-04-20T09:50:23.553Z</time></trkpt><trkpt lat="46.1024315" lon="9.3192858"><ele>219.0</ele><time>2026-04-20T09:50:24.554Z</time></trkpt><trkpt lat="46.1023358" lon="9.3191881"><ele>219.0</ele><time>2026-04-20T09:50:26.553Z</time></trkpt><trkpt lat="46.102286" lon="9.3191214"><ele>219.0</ele><time>2026-04-20T09:50:27.553Z</time></trkpt><trkpt lat="46.1021974" lon="9.3190276"><ele>219.0</ele><time>2026-04-20T09:50:29.555Z</time></trkpt><trkpt lat="46.1021492" lon="9.3189533"><ele>219.0</ele><time>2026-04-20T09:50:30.553Z</time></trkpt><trkpt lat="46.1021054" lon="9.3188847"><ele>218.99999999999997</ele><time>2026-04-20T09:50:31.553Z</time></trkpt><trkpt lat="46.1020574" lon="9.3188149"><ele>218.99999999999997</ele><time>2026-04-20T09:50:32.553Z</time></trkpt><trkpt lat="46.1019812" lon="9.3186833"><ele>219.0</ele><time>2026-04-20T09:50:34.553Z</time></trkpt><trkpt lat="46.1018896" lon="9.3185653"><ele>219.0</ele><time>2026-04-20T09:50:36.554Z</time></trkpt><trkpt lat="46.1017883" lon="9.318457"><ele>219.0</ele><time>2026-04-20T09:50:38.554Z</time></trkpt><trkpt lat="46.1016867" lon="9.3183534"><ele>219.0</ele><time>2026-04-20T09:50:40.553Z</time></trkpt><trkpt lat="46.1016338" lon="9.3183033"><ele>219.0</ele><time>2026-04-20T09:50:41.553Z</time></trkpt><trkpt lat="46.1015716" lon="9.3182525"><ele>219.0</ele><time>2026-04-20T09:50:42.553Z</time></trkpt><trkpt lat="46.1014748" lon="9.3181739"><ele>219.0</ele><time>2026-04-20T09:50:44.554Z</time></trkpt><trkpt lat="46.1014164" lon="9.318133"><ele>219.0</ele><time>2026-04-20T09:50:45.554Z</time></trkpt><trkpt lat="46.1013476" lon="9.3180805"><ele>218.79999999999998</ele><time>2026-04-20T09:50:46.554Z</time></trkpt><trkpt lat="46.1012336" lon="9.3180049"><ele>218.59999999999997</ele><time>2026-04-20T09:50:48.554Z</time></trkpt><trkpt lat="46.1011333" lon="9.3179358"><ele>218.4</ele><time>2026-04-20T09:50:50.553Z</time></trkpt><trkpt lat="46.1010849" lon="9.3178674"><ele>218.2</ele><time>2026-04-20T09:50:51.553Z</time></trkpt><trkpt lat="46.1010364" lon="9.3178059"><ele>218.0</ele><time>2026-04-20T09:50:52.553Z</time></trkpt><trkpt lat="46.1009096" lon="9.3177316"><ele>218.0</ele><time>2026-04-20T09:50:54.553Z</time></trkpt><trkpt lat="46.1008478" lon="9.3176933"><ele>218.0</ele><time>2026-04-20T09:50:55.553Z</time></trkpt><trkpt lat="46.1007804" lon="9.3176373"><ele>218.0</ele><time>2026-04-20T09:50:57.553Z</time></trkpt><trkpt lat="46.100688" lon="9.3175694"><ele>218.0</ele><time>2026-04-20T09:50:59.554Z</time></trkpt><trkpt lat="46.100585" lon="9.3174939"><ele>218.0</ele><time>2026-04-20T09:51:01.553Z</time></trkpt><trkpt lat="46.1004995" lon="9.3174247"><ele>219.60000000000002</ele><time>2026-04-20T09:51:03.556Z</time></trkpt><trkpt lat="46.1004081" lon="9.3173494"><ele>221.20000000000002</ele><time>2026-04-20T09:51:05.555Z</time></trkpt><trkpt lat="46.1003161" lon="9.317304"><ele>222.8</ele><time>2026-04-20T09:51:07.554Z</time></trkpt><trkpt lat="46.1002191" lon="9.3172463"><ele>224.4</ele><time>2026-04-20T09:51:09.553Z</time></trkpt><trkpt lat="46.100105" lon="9.3171853"><ele>226.0</ele><time>2026-04-20T09:51:11.553Z</time></trkpt><trkpt lat="46.1000128" lon="9.317147"><ele>222.0</ele><time>2026-04-20T09:51:13.554Z</time></trkpt><trkpt lat="46.0998993" lon="9.3171488"><ele>218.00000000000003</ele><time>2026-04-20T09:51:15.555Z</time></trkpt><trkpt lat="46.099796" lon="9.3171257"><ele>214.0</ele><time>2026-04-20T09:51:17.554Z</time></trkpt><trkpt lat="46.0997155" lon="9.3171087"><ele>210.0</ele><time>2026-04-20T09:51:19.553Z</time></trkpt><trkpt lat="46.0996541" lon="9.3170828"><ele>206.0</ele><time>2026-04-20T09:51:20.553Z</time></trkpt><trkpt lat="46.0995339" lon="9.3170771"><ele>206.0</ele><time>2026-04-20T09:51:22.552Z</time></trkpt><trkpt lat="46.0994261" lon="9.3170668"><ele>206.0</ele><time>2026-04-20T09:51:24.553Z</time></trkpt><trkpt lat="46.0993143" lon="9.3170682"><ele>206.0</ele><time>2026-04-20T09:51:26.553Z</time></trkpt><trkpt lat="46.0992048" lon="9.3170727"><ele>206.0</ele><time>2026-04-20T09:51:28.553Z</time></trkpt><trkpt lat="46.099087" lon="9.3170673"><ele>206.0</ele><time>2026-04-20T09:51:30.553Z</time></trkpt><trkpt lat="46.0989763" lon="9.3170708"><ele>206.60000000000002</ele><time>2026-04-20T09:51:32.554Z</time></trkpt><trkpt lat="46.0988597" lon="9.3170661"><ele>207.2</ele><time>2026-04-20T09:51:34.553Z</time></trkpt><trkpt lat="46.0987405" lon="9.3170609"><ele>207.8</ele><time>2026-04-20T09:51:36.555Z</time></trkpt><trkpt lat="46.0986251" lon="9.3170735"><ele>208.39999999999998</ele><time>2026-04-20T09:51:38.552Z</time></trkpt><trkpt lat="46.0985338" lon="9.3170842"><ele>209.0</ele><time>2026-04-20T09:51:40.556Z</time></trkpt><trkpt lat="46.0984496" lon="9.3170963"><ele>209.0</ele><time>2026-04-20T09:51:42.554Z</time></trkpt><trkpt lat="46.0983745" lon="9.3171067"><ele>209.0</ele><time>2026-04-20T09:51:43.555Z</time></trkpt><trkpt lat="46.0982534" lon="9.3171169"><ele>209.0</ele><time>2026-04-20T09:51:45.553Z</time></trkpt><trkpt lat="46.0981865" lon="9.3171328"><ele>209.0</ele><time>2026-04-20T09:51:46.554Z</time></trkpt><trkpt lat="46.098101" lon="9.3171204"><ele>209.0</ele><time>2026-04-20T09:51:48.554Z</time></trkpt><trkpt lat="46.0979993" lon="9.3171101"><ele>210.6</ele><time>2026-04-20T09:51:50.554Z</time></trkpt><trkpt lat="46.0979398" lon="9.3170575"><ele>212.2</ele><time>2026-04-20T09:51:51.554Z</time></trkpt><trkpt lat="46.09788" lon="9.3170084"><ele>213.79999999999998</ele><time>2026-04-20T09:51:52.554Z</time></trkpt><trkpt lat="46.0977941" lon="9.3169681"><ele>215.39999999999998</ele><time>2026-04-20T09:51:53.553Z</time></trkpt><trkpt lat="46.0977112" lon="9.3168569"><ele>217.0</ele><time>2026-04-20T09:51:55.553Z</time></trkpt><trkpt lat="46.0976173" lon="9.3167669"><ele>217.0</ele><time>2026-04-20T09:51:57.554Z</time></trkpt><trkpt lat="46.0975314" lon="9.3166897"><ele>217.0</ele><time>2026-04-20T09:51:59.553Z</time></trkpt><trkpt lat="46.097417" lon="9.3166356"><ele>217.0</ele><time>2026-04-20T09:52:01.554Z</time></trkpt><trkpt lat="46.0973049" lon="9.3165887"><ele>217.0</ele><time>2026-04-20T09:52:03.554Z</time></trkpt><trkpt lat="46.0972022" lon="9.3165888"><ele>217.0</ele><time>2026-04-20T09:52:05.554Z</time></trkpt><trkpt lat="46.0970999" lon="9.3165896"><ele>218.0</ele><time>2026-04-20T09:52:07.554Z</time></trkpt><trkpt lat="46.0969874" lon="9.3165706"><ele>219.0</ele><time>2026-04-20T09:52:09.555Z</time></trkpt><trkpt lat="46.0968733" lon="9.3165719"><ele>220.0</ele><time>2026-04-20T09:52:11.553Z</time></trkpt><trkpt lat="46.0967675" lon="9.3166065"><ele>221.0</ele><time>2026-04-20T09:52:13.554Z</time></trkpt><trkpt lat="46.0966567" lon="9.3166208"><ele>222.0</ele><time>2026-04-20T09:52:15.554Z</time></trkpt><trkpt lat="46.0965384" lon="9.3166197"><ele>222.39999999999998</ele><time>2026-04-20T09:52:17.553Z</time></trkpt><trkpt lat="46.0964173" lon="9.3166195"><ele>222.79999999999998</ele><time>2026-04-20T09:52:19.553Z</time></trkpt><trkpt lat="46.0962972" lon="9.3165872"><ele>223.2</ele><time>2026-04-20T09:52:21.553Z</time></trkpt><trkpt lat="46.096235" lon="9.3165704"><ele>223.6</ele><time>2026-04-20T09:52:22.554Z</time></trkpt><trkpt lat="46.0961194" lon="9.3165195"><ele>224.0</ele><time>2026-04-20T09:52:24.554Z</time></trkpt><trkpt lat="46.0960102" lon="9.316458"><ele>224.0</ele><time>2026-04-20T09:52:26.553Z</time></trkpt><trkpt lat="46.095946" lon="9.31643"><ele>223.99999999999997</ele><time>2026-04-20T09:52:27.554Z</time></trkpt><trkpt lat="46.0958272" lon="9.3164008"><ele>223.99999999999997</ele><time>2026-04-20T09:52:29.553Z</time></trkpt><trkpt lat="46.0957214" lon="9.3163711"><ele>224.0</ele><time>2026-04-20T09:52:31.554Z</time></trkpt><trkpt lat="46.0956119" lon="9.3163532"><ele>224.0</ele><time>2026-04-20T09:52:33.555Z</time></trkpt><trkpt lat="46.0955102" lon="9.3163287"><ele>222.79999999999998</ele><time>2026-04-20T09:52:35.554Z</time></trkpt><trkpt lat="46.0953897" lon="9.3162794"><ele>221.59999999999997</ele><time>2026-04-20T09:52:37.554Z</time></trkpt><trkpt lat="46.0952896" lon="9.3162409"><ele>220.4</ele><time>2026-04-20T09:52:39.553Z</time></trkpt><trkpt lat="46.0952023" lon="9.3161818"><ele>219.2</ele><time>2026-04-20T09:52:41.553Z</time></trkpt><trkpt lat="46.0951108" lon="9.3160864"><ele>218.0</ele><time>2026-04-20T09:52:43.554Z</time></trkpt><trkpt lat="46.0950569" lon="9.3160227"><ele>218.0</ele><time>2026-04-20T09:52:44.553Z</time></trkpt><trkpt lat="46.0949744" lon="9.3159046"><ele>218.0</ele><time>2026-04-20T09:52:46.555Z</time></trkpt><trkpt lat="46.0949327" lon="9.3158329"><ele>218.0</ele><time>2026-04-20T09:52:47.554Z</time></trkpt><trkpt lat="46.0948529" lon="9.3157039"><ele>218.0</ele><time>2026-04-20T09:52:49.554Z</time></trkpt><trkpt lat="46.0948091" lon="9.3156327"><ele>218.0</ele><time>2026-04-20T09:52:50.553Z</time></trkpt><trkpt lat="46.094721" lon="9.3155198"><ele>219.4</ele><time>2026-04-20T09:52:52.554Z</time></trkpt><trkpt lat="46.0946255" lon="9.3153664"><ele>220.8</ele><time>2026-04-20T09:52:54.553Z</time></trkpt><trkpt lat="46.0945403" lon="9.3152356"><ele>222.2</ele><time>2026-04-20T09:52:56.555Z</time></trkpt><trkpt lat="46.0944963" lon="9.3151621"><ele>223.6</ele><time>2026-04-20T09:52:57.554Z</time></trkpt><trkpt lat="46.0944529" lon="9.3150834"><ele>225.0</ele><time>2026-04-20T09:52:58.553Z</time></trkpt><trkpt lat="46.0943743" lon="9.3149691"><ele>225.0</ele><time>2026-04-20T09:53:00.555Z</time></trkpt><trkpt lat="46.0942967" lon="9.3148484"><ele>225.0</ele><time>2026-04-20T09:53:02.555Z</time></trkpt><trkpt lat="46.0942157" lon="9.3147212"><ele>225.0</ele><time>2026-04-20T09:53:04.553Z</time></trkpt><trkpt lat="46.0941328" lon="9.3145972"><ele>225.0</ele><time>2026-04-20T09:53:06.553Z</time></trkpt><trkpt lat="46.0940485" lon="9.3144744"><ele>226.6</ele><time>2026-04-20T09:53:08.555Z</time></trkpt><trkpt lat="46.0939621" lon="9.314366"><ele>228.2</ele><time>2026-04-20T09:53:10.554Z</time></trkpt><trkpt lat="46.0939147" lon="9.3143058"><ele>229.8</ele><time>2026-04-20T09:53:11.554Z</time></trkpt><trkpt lat="46.0938589" lon="9.3142326"><ele>231.4</ele><time>2026-04-20T09:53:12.555Z</time></trkpt><trkpt lat="46.0937274" lon="9.3140976"><ele>233.0</ele><time>2026-04-20T09:53:15.554Z</time></trkpt><trkpt lat="46.0936466" lon="9.3140051"><ele>233.0</ele><time>2026-04-20T09:53:17.554Z</time></trkpt><trkpt lat="46.0935553" lon="9.3139204"><ele>233.0</ele><time>2026-04-20T09:53:19.554Z</time></trkpt><trkpt lat="46.0934784" lon="9.3138316"><ele>233.0</ele><time>2026-04-20T09:53:21.554Z</time></trkpt><trkpt lat="46.0933809" lon="9.3137585"><ele>233.0</ele><time>2026-04-20T09:53:23.554Z</time></trkpt><trkpt lat="46.0933005" lon="9.3136662"><ele>233.0</ele><time>2026-04-20T09:53:25.553Z</time></trkpt><trkpt lat="46.093202" lon="9.313583"><ele>232.0</ele><time>2026-04-20T09:53:27.553Z</time></trkpt><trkpt lat="46.093109" lon="9.3135143"><ele>231.0</ele><time>2026-04-20T09:53:29.554Z</time></trkpt><trkpt lat="46.0930233" lon="9.3134414"><ele>230.0</ele><time>2026-04-20T09:53:31.555Z</time></trkpt><trkpt lat="46.0929208" lon="9.3133851"><ele>229.0</ele><time>2026-04-20T09:53:33.554Z</time></trkpt><trkpt lat="46.0928237" lon="9.3133171"><ele>228.0</ele><time>2026-04-20T09:53:35.555Z</time></trkpt><trkpt lat="46.092711" lon="9.3132421"><ele>228.0</ele><time>2026-04-20T09:53:37.554Z</time></trkpt><trkpt lat="46.0926267" lon="9.3131699"><ele>228.0</ele><time>2026-04-20T09:53:39.554Z</time></trkpt><trkpt lat="46.0925334" lon="9.3131054"><ele>228.0</ele><time>2026-04-20T09:53:41.553Z</time></trkpt><trkpt lat="46.0924632" lon="9.3130588"><ele>228.0</ele><time>2026-04-20T09:53:43.554Z</time></trkpt><trkpt lat="46.092339" lon="9.3129874"><ele>228.0</ele><time>2026-04-20T09:53:46.555Z</time></trkpt><trkpt lat="46.0922647" lon="9.312953"><ele>227.66666666666666</ele><time>2026-04-20T09:53:48.553Z</time></trkpt><trkpt lat="46.0921867" lon="9.3128915"><ele>227.33333333333331</ele><time>2026-04-20T09:53:50.554Z</time></trkpt><trkpt lat="46.0921151" lon="9.312841"><ele>227.0</ele><time>2026-04-20T09:53:52.554Z</time></trkpt><trkpt lat="46.092041" lon="9.3127882"><ele>226.66666666666666</ele><time>2026-04-20T09:53:54.554Z</time></trkpt><trkpt lat="46.0919646" lon="9.3127337"><ele>226.33333333333331</ele><time>2026-04-20T09:53:56.554Z</time></trkpt><trkpt lat="46.0918837" lon="9.3126766"><ele>226.0</ele><time>2026-04-20T09:53:58.553Z</time></trkpt><trkpt lat="46.0918117" lon="9.312634"><ele>225.99999999999997</ele><time>2026-04-20T09:54:00.554Z</time></trkpt><trkpt lat="46.0917396" lon="9.3126007"><ele>226.0</ele><time>2026-04-20T09:54:02.553Z</time></trkpt><trkpt lat="46.0916658" lon="9.312568"><ele>226.0</ele><time>2026-04-20T09:54:04.555Z</time></trkpt><trkpt lat="46.0915865" lon="9.3125403"><ele>226.0</ele><time>2026-04-20T09:54:06.556Z</time></trkpt><trkpt lat="46.0915093" lon="9.3125197"><ele>225.99999999999997</ele><time>2026-04-20T09:54:08.554Z</time></trkpt><trkpt lat="46.0914262" lon="9.3124832"><ele>226.0</ele><time>2026-04-20T09:54:10.554Z</time></trkpt><trkpt lat="46.0913486" lon="9.3124458"><ele>225.49999999999997</ele><time>2026-04-20T09:54:12.554Z</time></trkpt><trkpt lat="46.0912788" lon="9.3124022"><ele>225.0</ele><time>2026-04-20T09:54:14.554Z</time></trkpt><trkpt lat="46.0912032" lon="9.3123329"><ele>224.5</ele><time>2026-04-20T09:54:16.554Z</time></trkpt><trkpt lat="46.0911283" lon="9.3122622"><ele>224.0</ele><time>2026-04-20T09:54:18.554Z</time></trkpt><trkpt lat="46.0910599" lon="9.3121871"><ele>223.49999999999997</ele><time>2026-04-20T09:54:20.554Z</time></trkpt><trkpt lat="46.0910036" lon="9.3121113"><ele>223.0</ele><time>2026-04-20T09:54:22.553Z</time></trkpt><trkpt lat="46.09094" lon="9.3120369"><ele>222.99999999999997</ele><time>2026-04-20T09:54:24.554Z</time></trkpt><trkpt lat="46.0908753" lon="9.3119732"><ele>223.0</ele><time>2026-04-20T09:54:26.554Z</time></trkpt><trkpt lat="46.0908079" lon="9.3119131"><ele>223.0</ele><time>2026-04-20T09:54:28.555Z</time></trkpt><trkpt lat="46.090733" lon="9.3118408"><ele>223.0</ele><time>2026-04-20T09:54:30.554Z</time></trkpt><trkpt lat="46.0906571" lon="9.3117742"><ele>222.99999999999997</ele><time>2026-04-20T09:54:32.555Z</time></trkpt><trkpt lat="46.0905629" lon="9.3117508"><ele>223.0</ele><time>2026-04-20T09:54:35.553Z</time></trkpt><trkpt lat="46.0904846" lon="9.3117512"><ele>226.16666666666666</ele><time>2026-04-20T09:54:37.554Z</time></trkpt><trkpt lat="46.0903985" lon="9.3117432"><ele>229.33333333333331</ele><time>2026-04-20T09:54:39.556Z</time></trkpt><trkpt lat="46.0903055" lon="9.3117136"><ele>232.5</ele><time>2026-04-20T09:54:42.553Z</time></trkpt><trkpt lat="46.0902397" lon="9.3116805"><ele>235.66666666666669</ele><time>2026-04-20T09:54:44.554Z</time></trkpt><trkpt lat="46.0901665" lon="9.3116348"><ele>238.83333333333334</ele><time>2026-04-20T09:54:46.554Z</time></trkpt><trkpt lat="46.0901115" lon="9.3115897"><ele>242.0</ele><time>2026-04-20T09:54:48.554Z</time></trkpt><trkpt lat="46.0900311" lon="9.3115352"><ele>242.00000000000003</ele><time>2026-04-20T09:54:50.553Z</time></trkpt><trkpt lat="46.0899685" lon="9.3115042"><ele>242.0</ele><time>2026-04-20T09:54:52.554Z</time></trkpt><trkpt lat="46.0898893" lon="9.3114768"><ele>242.0</ele><time>2026-04-20T09:54:54.554Z</time></trkpt><trkpt lat="46.0897953" lon="9.3114258"><ele>242.0</ele><time>2026-04-20T09:54:56.553Z</time></trkpt><trkpt lat="46.089698" lon="9.3114008"><ele>242.00000000000003</ele><time>2026-04-20T09:54:58.554Z</time></trkpt><trkpt lat="46.0895983" lon="9.3113781"><ele>242.0</ele><time>2026-04-20T09:55:00.553Z</time></trkpt><trkpt lat="46.0895108" lon="9.3113957"><ele>241.83333333333334</ele><time>2026-04-20T09:55:02.553Z</time></trkpt><trkpt lat="46.0894174" lon="9.3114126"><ele>241.66666666666669</ele><time>2026-04-20T09:55:04.554Z</time></trkpt><trkpt lat="46.0893312" lon="9.3114191"><ele>241.5</ele><time>2026-04-20T09:55:06.554Z</time></trkpt><trkpt lat="46.089246" lon="9.3114086"><ele>241.33333333333331</ele><time>2026-04-20T09:55:08.554Z</time></trkpt><trkpt lat="46.089153" lon="9.3114053"><ele>241.16666666666666</ele><time>2026-04-20T09:55:09.554Z</time></trkpt><trkpt lat="46.0890885" lon="9.3113766"><ele>241.0</ele><time>2026-04-20T09:55:10.555Z</time></trkpt><trkpt lat="46.0890208" lon="9.3113591"><ele>238.49999999999997</ele><time>2026-04-20T09:55:11.553Z</time></trkpt><trkpt lat="46.0889552" lon="9.3113275"><ele>236.0</ele><time>2026-04-20T09:55:12.554Z</time></trkpt><trkpt lat="46.088883" lon="9.3112904"><ele>233.5</ele><time>2026-04-20T09:55:13.553Z</time></trkpt><trkpt lat="46.0887871" lon="9.3112384"><ele>231.0</ele><time>2026-04-20T09:55:14.553Z</time></trkpt><trkpt lat="46.0886912" lon="9.3112013"><ele>228.49999999999997</ele><time>2026-04-20T09:55:15.553Z</time></trkpt><trkpt lat="46.0886096" lon="9.3111457"><ele>226.0</ele><time>2026-04-20T09:55:16.554Z</time></trkpt><trkpt lat="46.0885269" lon="9.3110922"><ele>226.0</ele><time>2026-04-20T09:55:17.554Z</time></trkpt><trkpt lat="46.0884445" lon="9.3110304"><ele>226.00000000000003</ele><time>2026-04-20T09:55:18.554Z</time></trkpt><trkpt lat="46.0883573" lon="9.3109621"><ele>226.00000000000003</ele><time>2026-04-20T09:55:19.554Z</time></trkpt><trkpt lat="46.0882887" lon="9.3108861"><ele>226.0</ele><time>2026-04-20T09:55:20.555Z</time></trkpt><trkpt lat="46.0882239" lon="9.3108254"><ele>226.0</ele><time>2026-04-20T09:55:21.553Z</time></trkpt><trkpt lat="46.0881292" lon="9.3107487"><ele>228.20000000000002</ele><time>2026-04-20T09:55:22.554Z</time></trkpt><trkpt lat="46.0880435" lon="9.3106776"><ele>230.40000000000003</ele><time>2026-04-20T09:55:23.554Z</time></trkpt><trkpt lat="46.0879535" lon="9.3106154"><ele>232.6</ele><time>2026-04-20T09:55:24.553Z</time></trkpt><trkpt lat="46.0878666" lon="9.3105416"><ele>234.8</ele><time>2026-04-20T09:55:25.554Z</time></trkpt><trkpt lat="46.0877762" lon="9.3104744"><ele>237.0</ele><time>2026-04-20T09:55:26.553Z</time></trkpt><trkpt lat="46.0876885" lon="9.310401"><ele>233.2</ele><time>2026-04-20T09:55:27.553Z</time></trkpt><trkpt lat="46.0875993" lon="9.3103293"><ele>229.39999999999998</ele><time>2026-04-20T09:55:28.553Z</time></trkpt><trkpt lat="46.0875081" lon="9.3102566"><ele>225.60000000000002</ele><time>2026-04-20T09:55:29.555Z</time></trkpt><trkpt lat="46.0874192" lon="9.3101843"><ele>221.8</ele><time>2026-04-20T09:55:30.553Z</time></trkpt><trkpt lat="46.0873338" lon="9.3101149"><ele>218.0</ele><time>2026-04-20T09:55:31.553Z</time></trkpt><trkpt lat="46.0872497" lon="9.3100479"><ele>218.00000000000003</ele><time>2026-04-20T09:55:32.553Z</time></trkpt><trkpt lat="46.0871629" lon="9.310003"><ele>218.0</ele><time>2026-04-20T09:55:33.553Z</time></trkpt><trkpt lat="46.0870818" lon="9.3099728"><ele>218.0</ele><time>2026-04-20T09:55:34.554Z</time></trkpt><trkpt lat="46.0869977" lon="9.309974"><ele>218.0</ele><time>2026-04-20T09:55:35.554Z</time></trkpt><trkpt lat="46.0869179" lon="9.3099814"><ele>218.00000000000003</ele><time>2026-04-20T09:55:36.553Z</time></trkpt><trkpt lat="46.0868315" lon="9.3099976"><ele>218.0</ele><time>2026-04-20T09:55:37.554Z</time></trkpt><trkpt lat="46.0867394" lon="9.3100056"><ele>218.00000000000003</ele><time>2026-04-20T09:55:38.555Z</time></trkpt><trkpt lat="46.0866515" lon="9.3100026"><ele>218.0</ele><time>2026-04-20T09:55:39.554Z</time></trkpt><trkpt lat="46.086568" lon="9.3100261"><ele>218.0</ele><time>2026-04-20T09:55:40.555Z</time></trkpt><trkpt lat="46.0864842" lon="9.3100413"><ele>218.0</ele><time>2026-04-20T09:55:41.553Z</time></trkpt><trkpt lat="46.0864135" lon="9.3100496"><ele>218.00000000000003</ele><time>2026-04-20T09:55:42.553Z</time></trkpt><trkpt lat="46.0863369" lon="9.3100732"><ele>218.0</ele><time>2026-04-20T09:55:43.553Z</time></trkpt><trkpt lat="46.0862592" lon="9.3100904"><ele>216.00000000000003</ele><time>2026-04-20T09:55:44.554Z</time></trkpt><trkpt lat="46.0861792" lon="9.3101066"><ele>214.0</ele><time>2026-04-20T09:55:45.554Z</time></trkpt><trkpt lat="46.086109" lon="9.3101298"><ele>212.0</ele><time>2026-04-20T09:55:46.555Z</time></trkpt><trkpt lat="46.0860345" lon="9.3101601"><ele>210.0</ele><time>2026-04-20T09:55:47.553Z</time></trkpt><trkpt lat="46.0859627" lon="9.3101827"><ele>208.00000000000003</ele><time>2026-04-20T09:55:48.554Z</time></trkpt><trkpt lat="46.085892" lon="9.3102019"><ele>206.0</ele><time>2026-04-20T09:55:49.554Z</time></trkpt><trkpt lat="46.0858194" lon="9.3102315"><ele>205.50000000000003</ele><time>2026-04-20T09:55:50.554Z</time></trkpt><trkpt lat="46.0857471" lon="9.3102573"><ele>205.0</ele><time>2026-04-20T09:55:51.553Z</time></trkpt><trkpt lat="46.0856706" lon="9.310282"><ele>204.5</ele><time>2026-04-20T09:55:52.554Z</time></trkpt><trkpt lat="46.0855956" lon="9.3103188"><ele>204.0</ele><time>2026-04-20T09:55:53.554Z</time></trkpt><trkpt lat="46.0855222" lon="9.310354"><ele>203.50000000000003</ele><time>2026-04-20T09:55:54.554Z</time></trkpt><trkpt lat="46.0854459" lon="9.3103864"><ele>203.0</ele><time>2026-04-20T09:55:55.555Z</time></trkpt><trkpt lat="46.0853125" lon="9.3104723"><ele>203.00000000000003</ele><time>2026-04-20T09:55:57.555Z</time></trkpt><trkpt lat="46.0852329" lon="9.3105163"><ele>203.0</ele><time>2026-04-20T09:55:58.555Z</time></trkpt><trkpt lat="46.0851597" lon="9.3105563"><ele>203.0</ele><time>2026-04-20T09:55:59.554Z</time></trkpt><trkpt lat="46.0850792" lon="9.3106118"><ele>203.0</ele><time>2026-04-20T09:56:00.555Z</time></trkpt><trkpt lat="46.0850039" lon="9.3106504"><ele>203.00000000000003</ele><time>2026-04-20T09:56:01.555Z</time></trkpt><trkpt lat="46.0849233" lon="9.3106827"><ele>203.0</ele><time>2026-04-20T09:56:02.553Z</time></trkpt><trkpt lat="46.0848467" lon="9.3107321"><ele>205.50000000000003</ele><time>2026-04-20T09:56:03.554Z</time></trkpt><trkpt lat="46.0847711" lon="9.3107654"><ele>208.0</ele><time>2026-04-20T09:56:04.553Z</time></trkpt><trkpt lat="46.0847068" lon="9.3107943"><ele>210.5</ele><time>2026-04-20T09:56:05.554Z</time></trkpt><trkpt lat="46.0845866" lon="9.3108321"><ele>213.0</ele><time>2026-04-20T09:56:07.553Z</time></trkpt><trkpt lat="46.0845236" lon="9.3108518"><ele>215.50000000000003</ele><time>2026-04-20T09:56:08.554Z</time></trkpt><trkpt lat="46.0844542" lon="9.3108631"><ele>218.0</ele><time>2026-04-20T09:56:09.554Z</time></trkpt><trkpt lat="46.0843919" lon="9.3108799"><ele>218.0</ele><time>2026-04-20T09:56:10.555Z</time></trkpt><trkpt lat="46.0843258" lon="9.3108928"><ele>218.0</ele><time>2026-04-20T09:56:11.554Z</time></trkpt><trkpt lat="46.0842542" lon="9.3109059"><ele>218.0</ele><time>2026-04-20T09:56:12.554Z</time></trkpt><trkpt lat="46.0841967" lon="9.310946"><ele>218.0</ele><time>2026-04-20T09:56:13.555Z</time></trkpt><trkpt lat="46.0841272" lon="9.310964"><ele>218.0</ele><time>2026-04-20T09:56:14.554Z</time></trkpt><trkpt lat="46.0840602" lon="9.3109803"><ele>218.0</ele><time>2026-04-20T09:56:15.555Z</time></trkpt><trkpt lat="46.0839672" lon="9.3110278"><ele>218.0</ele><time>2026-04-20T09:56:17.555Z</time></trkpt><trkpt lat="46.0838902" lon="9.3110434"><ele>216.83333333333334</ele><time>2026-04-20T09:56:18.555Z</time></trkpt><trkpt lat="46.0838178" lon="9.3110529"><ele>215.66666666666669</ele><time>2026-04-20T09:56:19.554Z</time></trkpt><trkpt lat="46.0837453" lon="9.3110705"><ele>214.5</ele><time>2026-04-20T09:56:20.556Z</time></trkpt><trkpt lat="46.0836736" lon="9.3110869"><ele>213.33333333333331</ele><time>2026-04-20T09:56:21.555Z</time></trkpt><trkpt lat="46.0835859" lon="9.3110953"><ele>212.16666666666666</ele><time>2026-04-20T09:56:22.554Z</time></trkpt><trkpt lat="46.0835165" lon="9.3111123"><ele>211.0</ele><time>2026-04-20T09:56:23.554Z</time></trkpt><trkpt lat="46.0833726" lon="9.311139"><ele>210.99999999999997</ele><time>2026-04-20T09:56:25.554Z</time></trkpt><trkpt lat="46.0833042" lon="9.3111584"><ele>211.0</ele><time>2026-04-20T09:56:26.555Z</time></trkpt><trkpt lat="46.0832274" lon="9.3111554"><ele>211.0</ele><time>2026-04-20T09:56:27.555Z</time></trkpt><trkpt lat="46.0831055" lon="9.3112004"><ele>211.0</ele><time>2026-04-20T09:56:29.555Z</time></trkpt><trkpt lat="46.0830329" lon="9.3112084"><ele>210.99999999999997</ele><time>2026-04-20T09:56:30.553Z</time></trkpt><trkpt lat="46.0829664" lon="9.3112315"><ele>211.0</ele><time>2026-04-20T09:56:31.555Z</time></trkpt><trkpt lat="46.0828979" lon="9.3112484"><ele>211.33333333333331</ele><time>2026-04-20T09:56:32.556Z</time></trkpt><trkpt lat="46.0828276" lon="9.3112469"><ele>211.66666666666666</ele><time>2026-04-20T09:56:33.553Z</time></trkpt><trkpt lat="46.0827516" lon="9.3112538"><ele>212.0</ele><time>2026-04-20T09:56:34.553Z</time></trkpt><trkpt lat="46.0826796" lon="9.3112412"><ele>212.33333333333331</ele><time>2026-04-20T09:56:35.555Z</time></trkpt><trkpt lat="46.0826142" lon="9.3112206"><ele>212.66666666666666</ele><time>2026-04-20T09:56:36.553Z</time></trkpt><trkpt lat="46.0825021" lon="9.3111556"><ele>213.0</ele><time>2026-04-20T09:56:38.553Z</time></trkpt><trkpt lat="46.0823935" lon="9.3110756"><ele>213.0</ele><time>2026-04-20T09:56:40.553Z</time></trkpt><trkpt lat="46.0822781" lon="9.3110109"><ele>213.0</ele><time>2026-04-20T09:56:42.554Z</time></trkpt><trkpt lat="46.082206" lon="9.3109657"><ele>213.0</ele><time>2026-04-20T09:56:43.554Z</time></trkpt><trkpt lat="46.0821411" lon="9.3109344"><ele>213.0</ele><time>2026-04-20T09:56:44.555Z</time></trkpt><trkpt lat="46.0820253" lon="9.310907"><ele>213.0</ele><time>2026-04-20T09:56:46.555Z</time></trkpt><trkpt lat="46.0819588" lon="9.3108895"><ele>213.0</ele><time>2026-04-20T09:56:47.554Z</time></trkpt><trkpt lat="46.0818963" lon="9.3108715"><ele>213.0</ele><time>2026-04-20T09:56:48.554Z</time></trkpt><trkpt lat="46.0817777" lon="9.3108633"><ele>213.0</ele><time>2026-04-20T09:56:50.555Z</time></trkpt><trkpt lat="46.0816475" lon="9.3108397"><ele>213.0</ele><time>2026-04-20T09:56:52.554Z</time></trkpt><trkpt lat="46.0815245" lon="9.3107993"><ele>213.0</ele><time>2026-04-20T09:56:54.554Z</time></trkpt><trkpt lat="46.081427" lon="9.310755"><ele>212.2</ele><time>2026-04-20T09:56:56.554Z</time></trkpt><trkpt lat="46.0813169" lon="9.3106995"><ele>211.4</ele><time>2026-04-20T09:56:58.555Z</time></trkpt><trkpt lat="46.0812115" lon="9.3106237"><ele>210.6</ele><time>2026-04-20T09:57:00.554Z</time></trkpt><trkpt lat="46.0811489" lon="9.3105793"><ele>209.79999999999998</ele><time>2026-04-20T09:57:01.553Z</time></trkpt><trkpt lat="46.0810916" lon="9.3105384"><ele>209.0</ele><time>2026-04-20T09:57:02.554Z</time></trkpt><trkpt lat="46.0809861" lon="9.3104173"><ele>209.0</ele><time>2026-04-20T09:57:04.556Z</time></trkpt><trkpt lat="46.0808915" lon="9.3103212"><ele>209.0</ele><time>2026-04-20T09:57:06.554Z</time></trkpt><trkpt lat="46.0807986" lon="9.310212"><ele>209.0</ele><time>2026-04-20T09:57:08.554Z</time></trkpt><trkpt lat="46.0807185" lon="9.3100959"><ele>209.0</ele><time>2026-04-20T09:57:10.553Z</time></trkpt><trkpt lat="46.0806504" lon="9.3099709"><ele>210.0</ele><time>2026-04-20T09:57:12.555Z</time></trkpt><trkpt lat="46.0806107" lon="9.3098988"><ele>211.0</ele><time>2026-04-20T09:57:13.556Z</time></trkpt><trkpt lat="46.0805478" lon="9.3097724"><ele>211.99999999999997</ele><time>2026-04-20T09:57:15.554Z</time></trkpt><trkpt lat="46.0804841" lon="9.3096574"><ele>213.0</ele><time>2026-04-20T09:57:17.554Z</time></trkpt><trkpt lat="46.0804212" lon="9.3095286"><ele>214.0</ele><time>2026-04-20T09:57:19.555Z</time></trkpt><trkpt lat="46.080343" lon="9.3093749"><ele>213.99999999999997</ele><time>2026-04-20T09:57:21.555Z</time></trkpt><trkpt lat="46.080278" lon="9.3092389"><ele>214.0</ele><time>2026-04-20T09:57:23.555Z</time></trkpt><trkpt lat="46.0802426" lon="9.3091638"><ele>214.0</ele><time>2026-04-20T09:57:24.553Z</time></trkpt><trkpt lat="46.0801981" lon="9.3090642"><ele>214.0</ele><time>2026-04-20T09:57:26.554Z</time></trkpt><trkpt lat="46.0801335" lon="9.3089213"><ele>213.99999999999997</ele><time>2026-04-20T09:57:28.554Z</time></trkpt><trkpt lat="46.0800964" lon="9.308845"><ele>214.0</ele><time>2026-04-20T09:57:29.555Z</time></trkpt><trkpt lat="46.0800439" lon="9.3087233"><ele>213.79999999999998</ele><time>2026-04-20T09:57:31.555Z</time></trkpt><trkpt lat="46.0799787" lon="9.3085807"><ele>213.59999999999997</ele><time>2026-04-20T09:57:33.554Z</time></trkpt><trkpt lat="46.0799127" lon="9.3084517"><ele>213.4</ele><time>2026-04-20T09:57:35.554Z</time></trkpt><trkpt lat="46.0798838" lon="9.3083705"><ele>213.2</ele><time>2026-04-20T09:57:36.554Z</time></trkpt><trkpt lat="46.0798177" lon="9.3082296"><ele>213.0</ele><time>2026-04-20T09:57:38.553Z</time></trkpt><trkpt lat="46.0797737" lon="9.308149"><ele>212.8</ele><time>2026-04-20T09:57:39.554Z</time></trkpt><trkpt lat="46.079705" lon="9.3080149"><ele>212.60000000000002</ele><time>2026-04-20T09:57:41.555Z</time></trkpt><trkpt lat="46.0796372" lon="9.3078632"><ele>212.39999999999998</ele><time>2026-04-20T09:57:43.555Z</time></trkpt><trkpt lat="46.0796016" lon="9.3077856"><ele>212.2</ele><time>2026-04-20T09:57:44.556Z</time></trkpt><trkpt lat="46.0795378" lon="9.3076443"><ele>212.0</ele><time>2026-04-20T09:57:46.553Z</time></trkpt><trkpt lat="46.0795031" lon="9.3075663"><ele>212.0</ele><time>2026-04-20T09:57:47.554Z</time></trkpt><trkpt lat="46.079451" lon="9.3074189"><ele>212.0</ele><time>2026-04-20T09:57:49.554Z</time></trkpt><trkpt lat="46.0793835" lon="9.3072864"><ele>212.0</ele><time>2026-04-20T09:57:51.554Z</time></trkpt><trkpt lat="46.0793155" lon="9.3071581"><ele>212.0</ele><time>2026-04-20T09:57:53.554Z</time></trkpt><trkpt lat="46.0792251" lon="9.3070029"><ele>212.00000000000003</ele><time>2026-04-20T09:57:55.554Z</time></trkpt><trkpt lat="46.0791769" lon="9.3068938"><ele>212.0</ele><time>2026-04-20T09:57:57.555Z</time></trkpt><trkpt lat="46.0791372" lon="9.3068181"><ele>212.0</ele><time>2026-04-20T09:57:58.554Z</time></trkpt><trkpt lat="46.0790936" lon="9.3067439"><ele>212.0</ele><time>2026-04-20T09:57:59.554Z</time></trkpt><trkpt lat="46.0790387" lon="9.3066266"><ele>212.00000000000003</ele><time>2026-04-20T09:58:01.555Z</time></trkpt><trkpt lat="46.078975" lon="9.3064965"><ele>212.0</ele><time>2026-04-20T09:58:03.554Z</time></trkpt><trkpt lat="46.078907" lon="9.3063639"><ele>212.6</ele><time>2026-04-20T09:58:05.556Z</time></trkpt><trkpt lat="46.0788295" lon="9.3062113"><ele>213.2</ele><time>2026-04-20T09:58:07.553Z</time></trkpt><trkpt lat="46.0787646" lon="9.3060945"><ele>213.8</ele><time>2026-04-20T09:58:09.556Z</time></trkpt><trkpt lat="46.0787025" lon="9.3059605"><ele>214.4</ele><time>2026-04-20T09:58:11.555Z</time></trkpt><trkpt lat="46.0786472" lon="9.3058668"><ele>215.0</ele><time>2026-04-20T09:58:13.554Z</time></trkpt><trkpt lat="46.078563" lon="9.3057083"><ele>215.0</ele><time>2026-04-20T09:58:15.554Z</time></trkpt><trkpt lat="46.0784818" lon="9.3055938"><ele>215.0</ele><time>2026-04-20T09:58:17.555Z</time></trkpt><trkpt lat="46.0784065" lon="9.3054847"><ele>215.0</ele><time>2026-04-20T09:58:19.554Z</time></trkpt><trkpt lat="46.0783557" lon="9.3054236"><ele>215.0</ele><time>2026-04-20T09:58:20.554Z</time></trkpt><trkpt lat="46.0782853" lon="9.3053349"><ele>215.0</ele><time>2026-04-20T09:58:22.554Z</time></trkpt><trkpt lat="46.0781854" lon="9.305276"><ele>214.66666666666669</ele><time>2026-04-20T09:58:25.555Z</time></trkpt><trkpt lat="46.078102" lon="9.3051896"><ele>214.33333333333334</ele><time>2026-04-20T09:58:27.555Z</time></trkpt><trkpt lat="46.0780366" lon="9.3051065"><ele>214.0</ele><time>2026-04-20T09:58:29.554Z</time></trkpt><trkpt lat="46.0779751" lon="9.3050297"><ele>213.66666666666669</ele><time>2026-04-20T09:58:30.554Z</time></trkpt><trkpt lat="46.0779219" lon="9.3049787"><ele>213.33333333333334</ele><time>2026-04-20T09:58:31.555Z</time></trkpt><trkpt lat="46.0778358" lon="9.3048879"><ele>213.0</ele><time>2026-04-20T09:58:33.556Z</time></trkpt><trkpt lat="46.0777423" lon="9.3048105"><ele>213.0</ele><time>2026-04-20T09:58:35.555Z</time></trkpt><trkpt lat="46.0776332" lon="9.3047524"><ele>213.0</ele><time>2026-04-20T09:58:37.555Z</time></trkpt><trkpt lat="46.0775287" lon="9.3046914"><ele>213.0</ele><time>2026-04-20T09:58:39.554Z</time></trkpt><trkpt lat="46.0774688" lon="9.3046543"><ele>213.0</ele><time>2026-04-20T09:58:41.554Z</time></trkpt><trkpt lat="46.0773605" lon="9.3046342"><ele>213.0</ele><time>2026-04-20T09:58:43.554Z</time></trkpt><trkpt lat="46.0772289" lon="9.3045986"><ele>212.5</ele><time>2026-04-20T09:58:45.553Z</time></trkpt><trkpt lat="46.0771192" lon="9.3045731"><ele>212.0</ele><time>2026-04-20T09:58:47.555Z</time></trkpt><trkpt lat="46.0770284" lon="9.3045455"><ele>211.5</ele><time>2026-04-20T09:58:49.555Z</time></trkpt><trkpt lat="46.0769629" lon="9.3044987"><ele>211.0</ele><time>2026-04-20T09:58:52.555Z</time></trkpt><trkpt lat="46.0768941" lon="9.3044976"><ele>210.5</ele><time>2026-04-20T09:58:54.555Z</time></trkpt><trkpt lat="46.0768162" lon="9.3045105"><ele>210.0</ele><time>2026-04-20T09:59:28.554Z</time></trkpt><trkpt lat="46.0767466" lon="9.3044781"><ele>210.0</ele><time>2026-04-20T09:59:32.555Z</time></trkpt><trkpt lat="46.0766553" lon="9.3044573"><ele>210.0</ele><time>2026-04-20T09:59:36.556Z</time></trkpt><trkpt lat="46.0765832" lon="9.3044501"><ele>210.0</ele><time>2026-04-20T09:59:38.555Z</time></trkpt><trkpt lat="46.0765085" lon="9.3044441"><ele>210.0</ele><time>2026-04-20T09:59:40.555Z</time></trkpt><trkpt lat="46.0764237" lon="9.3044266"><ele>210.0</ele><time>2026-04-20T09:59:42.554Z</time></trkpt><trkpt lat="46.0763377" lon="9.3044071"><ele>210.0</ele><time>2026-04-20T09:59:44.555Z</time></trkpt><trkpt lat="46.0762468" lon="9.3043988"><ele>210.2</ele><time>2026-04-20T09:59:46.554Z</time></trkpt><trkpt lat="46.0761721" lon="9.3043552"><ele>210.4</ele><time>2026-04-20T09:59:48.554Z</time></trkpt><trkpt lat="46.0760942" lon="9.3043594"><ele>210.60000000000002</ele><time>2026-04-20T09:59:50.554Z</time></trkpt><trkpt lat="46.0760069" lon="9.3043633"><ele>210.8</ele><time>2026-04-20T09:59:52.555Z</time></trkpt><trkpt lat="46.0758932" lon="9.3043505"><ele>211.0</ele><time>2026-04-20T09:59:54.556Z</time></trkpt><trkpt lat="46.0757851" lon="9.3043444"><ele>210.60000000000002</ele><time>2026-04-20T09:59:56.555Z</time></trkpt><trkpt lat="46.0756814" lon="9.304337"><ele>210.2</ele><time>2026-04-20T09:59:58.555Z</time></trkpt><trkpt lat="46.0755814" lon="9.3043519"><ele>209.8</ele><time>2026-04-20T10:00:00.555Z</time></trkpt><trkpt lat="46.0754807" lon="9.3043583"><ele>209.39999999999998</ele><time>2026-04-20T10:00:02.554Z</time></trkpt><trkpt lat="46.0753804" lon="9.3043779"><ele>209.0</ele><time>2026-04-20T10:00:04.554Z</time></trkpt><trkpt lat="46.0752627" lon="9.3043986"><ele>209.0</ele><time>2026-04-20T10:00:06.555Z</time></trkpt><trkpt lat="46.0751783" lon="9.3044168"><ele>209.0</ele><time>2026-04-20T10:00:08.554Z</time></trkpt><trkpt lat="46.0750246" lon="9.3044463"><ele>209.0</ele><time>2026-04-20T10:00:11.554Z</time></trkpt><trkpt lat="46.0749159" lon="9.3044804"><ele>209.0</ele><time>2026-04-20T10:00:13.555Z</time></trkpt><trkpt lat="46.0748143" lon="9.3045131"><ele>208.79999999999998</ele><time>2026-04-20T10:00:15.556Z</time></trkpt><trkpt lat="46.0746964" lon="9.3045402"><ele>208.6</ele><time>2026-04-20T10:00:17.555Z</time></trkpt><trkpt lat="46.0746396" lon="9.3046133"><ele>208.4</ele><time>2026-04-20T10:00:19.555Z</time></trkpt><trkpt lat="46.0745453" lon="9.3046772"><ele>208.2</ele><time>2026-04-20T10:00:21.554Z</time></trkpt><trkpt lat="46.074463" lon="9.3047161"><ele>208.0</ele><time>2026-04-20T10:00:23.554Z</time></trkpt><trkpt lat="46.0743905" lon="9.3047401"><ele>207.99999999999997</ele><time>2026-04-20T10:00:25.554Z</time></trkpt><trkpt lat="46.074321" lon="9.304781"><ele>208.0</ele><time>2026-04-20T10:00:27.555Z</time></trkpt><trkpt lat="46.074242" lon="9.3047832"><ele>208.0</ele><time>2026-04-20T10:00:29.555Z</time></trkpt><trkpt lat="46.0741759" lon="9.304748"><ele>208.0</ele><time>2026-04-20T10:00:31.555Z</time></trkpt><trkpt lat="46.0741123" lon="9.3046932"><ele>207.99999999999997</ele><time>2026-04-20T10:00:32.554Z</time></trkpt><trkpt lat="46.0740533" lon="9.3045498"><ele>208.0</ele><time>2026-04-20T10:00:34.555Z</time></trkpt><trkpt lat="46.0739973" lon="9.3044751"><ele>208.16666666666666</ele><time>2026-04-20T10:00:35.555Z</time></trkpt><trkpt lat="46.073943" lon="9.3043996"><ele>208.33333333333331</ele><time>2026-04-20T10:00:36.554Z</time></trkpt><trkpt lat="46.0738546" lon="9.3043098"><ele>208.5</ele><time>2026-04-20T10:00:38.555Z</time></trkpt><trkpt lat="46.0738086" lon="9.3042298"><ele>208.66666666666669</ele><time>2026-04-20T10:00:39.555Z</time></trkpt><trkpt lat="46.0737521" lon="9.3041573"><ele>208.83333333333334</ele><time>2026-04-20T10:00:40.554Z</time></trkpt><trkpt lat="46.0737093" lon="9.304078"><ele>209.0</ele><time>2026-04-20T10:00:41.554Z</time></trkpt><trkpt lat="46.0736517" lon="9.3039832"><ele>208.66666666666669</ele><time>2026-04-20T10:00:42.555Z</time></trkpt><trkpt lat="46.0736057" lon="9.3039091"><ele>208.33333333333334</ele><time>2026-04-20T10:00:43.556Z</time></trkpt><trkpt lat="46.0735468" lon="9.3038199"><ele>208.0</ele><time>2026-04-20T10:00:44.557Z</time></trkpt><trkpt lat="46.0734745" lon="9.3036636"><ele>207.66666666666669</ele><time>2026-04-20T10:00:46.555Z</time></trkpt><trkpt lat="46.0734487" lon="9.3035667"><ele>207.33333333333334</ele><time>2026-04-20T10:00:47.555Z</time></trkpt><trkpt lat="46.0734425" lon="9.3034537"><ele>207.0</ele><time>2026-04-20T10:00:48.555Z</time></trkpt><trkpt lat="46.0733838" lon="9.3033149"><ele>207.0</ele><time>2026-04-20T10:00:50.555Z</time></trkpt><trkpt lat="46.0733261" lon="9.3032093"><ele>207.0</ele><time>2026-04-20T10:00:52.554Z</time></trkpt><trkpt lat="46.0732629" lon="9.3030826"><ele>207.0</ele><time>2026-04-20T10:00:54.555Z</time></trkpt><trkpt lat="46.073207" lon="9.3029671"><ele>207.0</ele><time>2026-04-20T10:00:56.555Z</time></trkpt><trkpt lat="46.0731337" lon="9.3028967"><ele>207.0</ele><time>2026-04-20T10:00:58.555Z</time></trkpt><trkpt lat="46.0730409" lon="9.3029564"><ele>207.0</ele><time>2026-04-20T10:01:00.555Z</time></trkpt><trkpt lat="46.0729784" lon="9.3030017"><ele>207.0</ele><time>2026-04-20T10:01:01.554Z</time></trkpt><trkpt lat="46.0729481" lon="9.303126"><ele>207.0</ele><time>2026-04-20T10:01:03.555Z</time></trkpt><trkpt lat="46.07297" lon="9.3032332"><ele>207.0</ele><time>2026-04-20T10:01:04.554Z</time></trkpt><trkpt lat="46.0729658" lon="9.3033393"><ele>207.0</ele><time>2026-04-20T10:01:06.556Z</time></trkpt><trkpt lat="46.0729435" lon="9.3034315"><ele>207.0</ele><time>2026-04-20T10:01:08.556Z</time></trkpt><trkpt lat="46.0729293" lon="9.3035582"><ele>207.0</ele><time>2026-04-20T10:01:11.555Z</time></trkpt><trkpt lat="46.0728803" lon="9.3036574"><ele>207.0</ele><time>2026-04-20T10:01:14.554Z</time></trkpt><trkpt lat="46.0728789" lon="9.3037684"><ele>207.0</ele><time>2026-04-20T10:01:17.555Z</time></trkpt><trkpt lat="46.0729305" lon="9.3038588"><ele>207.0</ele><time>2026-04-20T10:01:21.554Z</time></trkpt><trkpt lat="46.0729529" lon="9.3039541"><ele>207.0</ele><time>2026-04-20T10:01:26.555Z</time></trkpt><trkpt lat="46.072975" lon="9.3040599"><ele>207.0</ele><time>2026-04-20T10:01:30.554Z</time></trkpt><trkpt lat="46.0729815" lon="9.3041788"><ele>207.0</ele><time>2026-04-20T10:01:33.555Z</time></trkpt><trkpt lat="46.0729801" lon="9.3042913"><ele>207.0</ele><time>2026-04-20T10:01:36.555Z</time></trkpt><trkpt lat="46.0729625" lon="9.3041429"><ele>207.0</ele><time>2026-04-20T10:04:56.551Z</time></trkpt></trkseg></trk></gpx>